<?xml version="1.0" encoding="UTF-8" standalone="no" ?>
<gpx xmlns="http://www.topografix.com/GPX/1/1" xmlns:xsi="http://www.w3.org/2001/XMLSchema-instance" xsi:schemaLocation="http://www.topografix.com/GPX/1/1 http://www.topografix.com/GPX/1/1/gpx.xsd" version="1.1" creator="VisuGPX - https://www.visugpx.com">
  <metadata>
    <name>Pornichet 14/05/2020</name>
    <desc><![CDATA[Sortie VTT Déconfinée du jeudi 14 mai 2020]]></desc>
  </metadata>
  <trk>
    <name><![CDATA[Pornichet Cyclisme]]></name>
    <trkseg>
      <trkpt lat="47.25501" lon="-2.31826">
        <ele>19</ele>
        <time>2020-05-14T07:33:59.000Z</time>
      </trkpt>
      <trkpt lat="47.25504" lon="-2.31828">
        <ele>19</ele>
        <time>2020-05-14T07:34:00.000Z</time>
      </trkpt>
      <trkpt lat="47.25509" lon="-2.31829">
        <ele>19</ele>
        <time>2020-05-14T07:34:02.000Z</time>
      </trkpt>
      <trkpt lat="47.25511" lon="-2.31829">
        <ele>-0.20000000298023</ele>
        <time>2020-05-14T07:34:03.000Z</time>
      </trkpt>
      <trkpt lat="47.25516" lon="-2.31831">
        <ele>-0.20000000298023</ele>
        <time>2020-05-14T07:34:09.000Z</time>
      </trkpt>
      <trkpt lat="47.25517" lon="-2.31829">
        <ele>-0.20000000298023</ele>
        <time>2020-05-14T07:34:22.000Z</time>
      </trkpt>
      <trkpt lat="47.25519" lon="-2.31832">
        <ele>-0.20000000298023</ele>
        <time>2020-05-14T07:34:32.000Z</time>
      </trkpt>
      <trkpt lat="47.25519" lon="-2.31833">
        <ele>-0.20000000298023</ele>
        <time>2020-05-14T07:34:42.000Z</time>
      </trkpt>
      <trkpt lat="47.25522" lon="-2.31833">
        <ele>-0.20000000298023</ele>
        <time>2020-05-14T07:34:53.000Z</time>
      </trkpt>
      <trkpt lat="47.25521" lon="-2.31833">
        <ele>-0.20000000298023</ele>
        <time>2020-05-14T07:35:09.000Z</time>
      </trkpt>
      <trkpt lat="47.25522" lon="-2.31833">
        <ele>-0.20000000298023</ele>
        <time>2020-05-14T07:35:27.000Z</time>
      </trkpt>
      <trkpt lat="47.25521" lon="-2.31832">
        <ele>-0.20000000298023</ele>
        <time>2020-05-14T07:35:40.000Z</time>
      </trkpt>
      <trkpt lat="47.25521" lon="-2.31832">
        <ele>-0.20000000298023</ele>
        <time>2020-05-14T07:35:56.000Z</time>
      </trkpt>
      <trkpt lat="47.25521" lon="-2.31832">
        <ele>-0.20000000298023</ele>
        <time>2020-05-14T07:36:09.000Z</time>
      </trkpt>
      <trkpt lat="47.25521" lon="-2.31832">
        <ele>-0.20000000298023</ele>
        <time>2020-05-14T07:36:23.000Z</time>
      </trkpt>
      <trkpt lat="47.25521" lon="-2.31832">
        <ele>-0.20000000298023</ele>
        <time>2020-05-14T07:36:31.000Z</time>
      </trkpt>
      <trkpt lat="47.25521" lon="-2.31832">
        <ele>-0.20000000298023</ele>
        <time>2020-05-14T07:36:41.000Z</time>
      </trkpt>
      <trkpt lat="47.25522" lon="-2.31832">
        <ele>-0.20000000298023</ele>
        <time>2020-05-14T07:36:50.000Z</time>
      </trkpt>
      <trkpt lat="47.25522" lon="-2.31832">
        <ele>-0.20000000298023</ele>
        <time>2020-05-14T07:37:04.000Z</time>
      </trkpt>
      <trkpt lat="47.25522" lon="-2.31832">
        <ele>-0.20000000298023</ele>
        <time>2020-05-14T07:37:12.000Z</time>
      </trkpt>
      <trkpt lat="47.25522" lon="-2.31831">
        <ele>-0.20000000298023</ele>
        <time>2020-05-14T07:37:17.000Z</time>
      </trkpt>
      <trkpt lat="47.25522" lon="-2.31831">
        <ele>-0.20000000298023</ele>
        <time>2020-05-14T07:37:26.000Z</time>
      </trkpt>
      <trkpt lat="47.25522" lon="-2.31831">
        <ele>-0.20000000298023</ele>
        <time>2020-05-14T07:37:34.000Z</time>
      </trkpt>
      <trkpt lat="47.25522" lon="-2.31831">
        <ele>-0.20000000298023</ele>
        <time>2020-05-14T07:37:45.000Z</time>
      </trkpt>
      <trkpt lat="47.25522" lon="-2.31831">
        <ele>-0.20000000298023</ele>
        <time>2020-05-14T07:37:52.000Z</time>
      </trkpt>
      <trkpt lat="47.25522" lon="-2.31831">
        <ele>-0.20000000298023</ele>
        <time>2020-05-14T07:38:09.000Z</time>
      </trkpt>
      <trkpt lat="47.25523" lon="-2.3183">
        <ele>-0.20000000298023</ele>
        <time>2020-05-14T07:38:17.000Z</time>
      </trkpt>
      <trkpt lat="47.25523" lon="-2.3183">
        <ele>-0.20000000298023</ele>
        <time>2020-05-14T07:38:32.000Z</time>
      </trkpt>
      <trkpt lat="47.25522" lon="-2.3183">
        <ele>-0.20000000298023</ele>
        <time>2020-05-14T07:38:44.000Z</time>
      </trkpt>
      <trkpt lat="47.25522" lon="-2.3183">
        <ele>-0.20000000298023</ele>
        <time>2020-05-14T07:38:51.000Z</time>
      </trkpt>
      <trkpt lat="47.25522" lon="-2.3183">
        <ele>-0.20000000298023</ele>
        <time>2020-05-14T07:39:00.000Z</time>
      </trkpt>
      <trkpt lat="47.25522" lon="-2.3183">
        <ele>-0.20000000298023</ele>
        <time>2020-05-14T07:39:13.000Z</time>
      </trkpt>
      <trkpt lat="47.25522" lon="-2.31829">
        <ele>-0.20000000298023</ele>
        <time>2020-05-14T07:39:26.000Z</time>
      </trkpt>
      <trkpt lat="47.25522" lon="-2.31829">
        <ele>-0.20000000298023</ele>
        <time>2020-05-14T07:39:42.000Z</time>
      </trkpt>
      <trkpt lat="47.25522" lon="-2.31828">
        <ele>-0.20000000298023</ele>
        <time>2020-05-14T07:39:46.000Z</time>
      </trkpt>
      <trkpt lat="47.25524" lon="-2.31828">
        <ele>-0.20000000298023</ele>
        <time>2020-05-14T07:39:48.000Z</time>
      </trkpt>
      <trkpt lat="47.25525" lon="-2.3183">
        <ele>-0.60000002384186</ele>
        <time>2020-05-14T07:39:49.000Z</time>
      </trkpt>
      <trkpt lat="47.25525" lon="-2.31831">
        <ele>-1</ele>
        <time>2020-05-14T07:39:50.000Z</time>
      </trkpt>
      <trkpt lat="47.25524" lon="-2.31832">
        <ele>-1.3999999761581</ele>
        <time>2020-05-14T07:39:51.000Z</time>
      </trkpt>
      <trkpt lat="47.25523" lon="-2.31834">
        <ele>-1.7999999523163</ele>
        <time>2020-05-14T07:39:52.000Z</time>
      </trkpt>
      <trkpt lat="47.25523" lon="-2.31835">
        <ele>-2.2000000476837</ele>
        <time>2020-05-14T07:39:53.000Z</time>
      </trkpt>
      <trkpt lat="47.25522" lon="-2.31836">
        <ele>-2.2000000476837</ele>
        <time>2020-05-14T07:39:54.000Z</time>
      </trkpt>
      <trkpt lat="47.2552" lon="-2.31842">
        <ele>-2.2000000476837</ele>
        <time>2020-05-14T07:39:58.000Z</time>
      </trkpt>
      <trkpt lat="47.25521" lon="-2.31847">
        <ele>-2.2000000476837</ele>
        <time>2020-05-14T07:40:00.000Z</time>
      </trkpt>
      <trkpt lat="47.25522" lon="-2.31854">
        <ele>-2.2000000476837</ele>
        <time>2020-05-14T07:40:02.000Z</time>
      </trkpt>
      <trkpt lat="47.25526" lon="-2.31868">
        <ele>-2.2000000476837</ele>
        <time>2020-05-14T07:40:05.000Z</time>
      </trkpt>
      <trkpt lat="47.25532" lon="-2.31906">
        <ele>-2.2000000476837</ele>
        <time>2020-05-14T07:40:12.000Z</time>
      </trkpt>
      <trkpt lat="47.25538" lon="-2.31923">
        <ele>-2.2000000476837</ele>
        <time>2020-05-14T07:40:16.000Z</time>
      </trkpt>
      <trkpt lat="47.25551" lon="-2.31918">
        <ele>-2.2000000476837</ele>
        <time>2020-05-14T07:40:20.000Z</time>
      </trkpt>
      <trkpt lat="47.25559" lon="-2.31917">
        <ele>-2.2000000476837</ele>
        <time>2020-05-14T07:40:23.000Z</time>
      </trkpt>
      <trkpt lat="47.2556" lon="-2.3192">
        <ele>-2.2000000476837</ele>
        <time>2020-05-14T07:40:24.000Z</time>
      </trkpt>
      <trkpt lat="47.25564" lon="-2.31929">
        <ele>-2.5999999046326</ele>
        <time>2020-05-14T07:40:27.000Z</time>
      </trkpt>
      <trkpt lat="47.25565" lon="-2.31933">
        <ele>-3</ele>
        <time>2020-05-14T07:40:28.000Z</time>
      </trkpt>
      <trkpt lat="47.25566" lon="-2.31938">
        <ele>-3.4000000953674</ele>
        <time>2020-05-14T07:40:29.000Z</time>
      </trkpt>
      <trkpt lat="47.25567" lon="-2.31944">
        <ele>-3.7999999523163</ele>
        <time>2020-05-14T07:40:30.000Z</time>
      </trkpt>
      <trkpt lat="47.25569" lon="-2.3195">
        <ele>-4.1999998092651</ele>
        <time>2020-05-14T07:40:31.000Z</time>
      </trkpt>
      <trkpt lat="47.25573" lon="-2.31972">
        <ele>-4.1999998092651</ele>
        <time>2020-05-14T07:40:34.000Z</time>
      </trkpt>
      <trkpt lat="47.25574" lon="-2.31979">
        <ele>-4.1999998092651</ele>
        <time>2020-05-14T07:40:35.000Z</time>
      </trkpt>
      <trkpt lat="47.25583" lon="-2.32018">
        <ele>-4.1999998092651</ele>
        <time>2020-05-14T07:40:41.000Z</time>
      </trkpt>
      <trkpt lat="47.256" lon="-2.32065">
        <ele>-4.1999998092651</ele>
        <time>2020-05-14T07:40:48.000Z</time>
      </trkpt>
      <trkpt lat="47.25619" lon="-2.32115">
        <ele>-4.1999998092651</ele>
        <time>2020-05-14T07:40:55.000Z</time>
      </trkpt>
      <trkpt lat="47.25636" lon="-2.32177">
        <ele>-4.1999998092651</ele>
        <time>2020-05-14T07:41:03.000Z</time>
      </trkpt>
      <trkpt lat="47.25642" lon="-2.32199">
        <ele>-4.8000001907349</ele>
        <time>2020-05-14T07:41:06.000Z</time>
      </trkpt>
      <trkpt lat="47.25644" lon="-2.32206">
        <ele>-5.1999998092651</ele>
        <time>2020-05-14T07:41:07.000Z</time>
      </trkpt>
      <trkpt lat="47.25646" lon="-2.32213">
        <ele>-5.5999999046326</ele>
        <time>2020-05-14T07:41:08.000Z</time>
      </trkpt>
      <trkpt lat="47.25647" lon="-2.32221">
        <ele>-6</ele>
        <time>2020-05-14T07:41:09.000Z</time>
      </trkpt>
      <trkpt lat="47.25647" lon="-2.3223">
        <ele>-6.4000000953674</ele>
        <time>2020-05-14T07:41:10.000Z</time>
      </trkpt>
      <trkpt lat="47.2565" lon="-2.3227">
        <ele>-6.4000000953674</ele>
        <time>2020-05-14T07:41:14.000Z</time>
      </trkpt>
      <trkpt lat="47.25654" lon="-2.32331">
        <ele>-6.8000001907349</ele>
        <time>2020-05-14T07:41:19.000Z</time>
      </trkpt>
      <trkpt lat="47.25655" lon="-2.32343">
        <ele>-7.4000000953674</ele>
        <time>2020-05-14T07:41:20.000Z</time>
      </trkpt>
      <trkpt lat="47.25656" lon="-2.32356">
        <ele>-7.8000001907349</ele>
        <time>2020-05-14T07:41:21.000Z</time>
      </trkpt>
      <trkpt lat="47.25657" lon="-2.32368">
        <ele>-8.3999996185303</ele>
        <time>2020-05-14T07:41:22.000Z</time>
      </trkpt>
      <trkpt lat="47.25657" lon="-2.32379">
        <ele>-8.8000001907349</ele>
        <time>2020-05-14T07:41:23.000Z</time>
      </trkpt>
      <trkpt lat="47.25658" lon="-2.3239">
        <ele>-9.3999996185303</ele>
        <time>2020-05-14T07:41:24.000Z</time>
      </trkpt>
      <trkpt lat="47.2566" lon="-2.324">
        <ele>-9.8000001907349</ele>
        <time>2020-05-14T07:41:25.000Z</time>
      </trkpt>
      <trkpt lat="47.25664" lon="-2.32408">
        <ele>-11.60000038147</ele>
        <time>2020-05-14T07:41:26.000Z</time>
      </trkpt>
      <trkpt lat="47.25668" lon="-2.32416">
        <ele>-12.39999961853</ele>
        <time>2020-05-14T07:41:27.000Z</time>
      </trkpt>
      <trkpt lat="47.25673" lon="-2.32421">
        <ele>-13.39999961853</ele>
        <time>2020-05-14T07:41:28.000Z</time>
      </trkpt>
      <trkpt lat="47.25679" lon="-2.32425">
        <ele>-14.199999809265</ele>
        <time>2020-05-14T07:41:29.000Z</time>
      </trkpt>
      <trkpt lat="47.25684" lon="-2.32428">
        <ele>-14.199999809265</ele>
        <time>2020-05-14T07:41:30.000Z</time>
      </trkpt>
      <trkpt lat="47.25691" lon="-2.32429">
        <ele>-14.199999809265</ele>
        <time>2020-05-14T07:41:31.000Z</time>
      </trkpt>
      <trkpt lat="47.25703" lon="-2.3243">
        <ele>-14.199999809265</ele>
        <time>2020-05-14T07:41:33.000Z</time>
      </trkpt>
      <trkpt lat="47.25719" lon="-2.32428">
        <ele>-14.199999809265</ele>
        <time>2020-05-14T07:41:36.000Z</time>
      </trkpt>
      <trkpt lat="47.25729" lon="-2.32428">
        <ele>-14.199999809265</ele>
        <time>2020-05-14T07:41:38.000Z</time>
      </trkpt>
      <trkpt lat="47.25745" lon="-2.32429">
        <ele>-14.199999809265</ele>
        <time>2020-05-14T07:41:42.000Z</time>
      </trkpt>
      <trkpt lat="47.25748" lon="-2.32429">
        <ele>-14.60000038147</ele>
        <time>2020-05-14T07:41:43.000Z</time>
      </trkpt>
      <trkpt lat="47.2575" lon="-2.32428">
        <ele>-15</ele>
        <time>2020-05-14T07:41:44.000Z</time>
      </trkpt>
      <trkpt lat="47.25753" lon="-2.32428">
        <ele>-15.39999961853</ele>
        <time>2020-05-14T07:41:45.000Z</time>
      </trkpt>
      <trkpt lat="47.25756" lon="-2.32426">
        <ele>-16</ele>
        <time>2020-05-14T07:41:46.000Z</time>
      </trkpt>
      <trkpt lat="47.25758" lon="-2.32425">
        <ele>-16.39999961853</ele>
        <time>2020-05-14T07:41:47.000Z</time>
      </trkpt>
      <trkpt lat="47.25761" lon="-2.32423">
        <ele>-16.39999961853</ele>
        <time>2020-05-14T07:41:48.000Z</time>
      </trkpt>
      <trkpt lat="47.25766" lon="-2.3242">
        <ele>-16.39999961853</ele>
        <time>2020-05-14T07:41:51.000Z</time>
      </trkpt>
      <trkpt lat="47.25767" lon="-2.32422">
        <ele>-16.39999961853</ele>
        <time>2020-05-14T07:41:52.000Z</time>
      </trkpt>
      <trkpt lat="47.25771" lon="-2.32438">
        <ele>-16.39999961853</ele>
        <time>2020-05-14T07:41:55.000Z</time>
      </trkpt>
      <trkpt lat="47.25774" lon="-2.32443">
        <ele>-16.39999961853</ele>
        <time>2020-05-14T07:41:56.000Z</time>
      </trkpt>
      <trkpt lat="47.25784" lon="-2.32471">
        <ele>-16.39999961853</ele>
        <time>2020-05-14T07:42:01.000Z</time>
      </trkpt>
      <trkpt lat="47.2579" lon="-2.32484">
        <ele>-16.39999961853</ele>
        <time>2020-05-14T07:42:04.000Z</time>
      </trkpt>
      <trkpt lat="47.25793" lon="-2.32485">
        <ele>-16.39999961853</ele>
        <time>2020-05-14T07:42:05.000Z</time>
      </trkpt>
      <trkpt lat="47.25806" lon="-2.32485">
        <ele>-16.39999961853</ele>
        <time>2020-05-14T07:42:09.000Z</time>
      </trkpt>
      <trkpt lat="47.25823" lon="-2.32494">
        <ele>-16.39999961853</ele>
        <time>2020-05-14T07:42:14.000Z</time>
      </trkpt>
      <trkpt lat="47.25835" lon="-2.32511">
        <ele>-16.39999961853</ele>
        <time>2020-05-14T07:42:19.000Z</time>
      </trkpt>
      <trkpt lat="47.25842" lon="-2.32524">
        <ele>-16.39999961853</ele>
        <time>2020-05-14T07:42:25.000Z</time>
      </trkpt>
      <trkpt lat="47.25843" lon="-2.32525">
        <ele>-16.39999961853</ele>
        <time>2020-05-14T07:42:34.000Z</time>
      </trkpt>
      <trkpt lat="47.25843" lon="-2.32525">
        <ele>-16.39999961853</ele>
        <time>2020-05-14T07:42:46.000Z</time>
      </trkpt>
      <trkpt lat="47.25843" lon="-2.32525">
        <ele>-16.39999961853</ele>
        <time>2020-05-14T07:42:56.000Z</time>
      </trkpt>
      <trkpt lat="47.25846" lon="-2.32529">
        <ele>-16.39999961853</ele>
        <time>2020-05-14T07:43:04.000Z</time>
      </trkpt>
      <trkpt lat="47.25849" lon="-2.32531">
        <ele>-16.39999961853</ele>
        <time>2020-05-14T07:43:05.000Z</time>
      </trkpt>
      <trkpt lat="47.25856" lon="-2.32537">
        <ele>-16.39999961853</ele>
        <time>2020-05-14T07:43:07.000Z</time>
      </trkpt>
      <trkpt lat="47.25863" lon="-2.32547">
        <ele>-16.39999961853</ele>
        <time>2020-05-14T07:43:09.000Z</time>
      </trkpt>
      <trkpt lat="47.25877" lon="-2.32568">
        <ele>-16.39999961853</ele>
        <time>2020-05-14T07:43:13.000Z</time>
      </trkpt>
      <trkpt lat="47.25885" lon="-2.32586">
        <ele>-16.39999961853</ele>
        <time>2020-05-14T07:43:16.000Z</time>
      </trkpt>
      <trkpt lat="47.25894" lon="-2.32595">
        <ele>-16.39999961853</ele>
        <time>2020-05-14T07:43:18.000Z</time>
      </trkpt>
      <trkpt lat="47.25903" lon="-2.32604">
        <ele>-16.39999961853</ele>
        <time>2020-05-14T07:43:20.000Z</time>
      </trkpt>
      <trkpt lat="47.25912" lon="-2.32617">
        <ele>-16.39999961853</ele>
        <time>2020-05-14T07:43:23.000Z</time>
      </trkpt>
      <trkpt lat="47.25925" lon="-2.32635">
        <ele>-16.39999961853</ele>
        <time>2020-05-14T07:43:28.000Z</time>
      </trkpt>
      <trkpt lat="47.25938" lon="-2.32654">
        <ele>-16.39999961853</ele>
        <time>2020-05-14T07:43:34.000Z</time>
      </trkpt>
      <trkpt lat="47.25952" lon="-2.32669">
        <ele>-16.39999961853</ele>
        <time>2020-05-14T07:43:39.000Z</time>
      </trkpt>
      <trkpt lat="47.25956" lon="-2.32669">
        <ele>-16.39999961853</ele>
        <time>2020-05-14T07:43:40.000Z</time>
      </trkpt>
      <trkpt lat="47.25962" lon="-2.32663">
        <ele>-16.39999961853</ele>
        <time>2020-05-14T07:43:42.000Z</time>
      </trkpt>
      <trkpt lat="47.25976" lon="-2.32656">
        <ele>-16.39999961853</ele>
        <time>2020-05-14T07:43:46.000Z</time>
      </trkpt>
      <trkpt lat="47.25984" lon="-2.32658">
        <ele>-16.39999961853</ele>
        <time>2020-05-14T07:43:48.000Z</time>
      </trkpt>
      <trkpt lat="47.25997" lon="-2.32657">
        <ele>-16.39999961853</ele>
        <time>2020-05-14T07:43:51.000Z</time>
      </trkpt>
      <trkpt lat="47.26029" lon="-2.32652">
        <ele>-16.39999961853</ele>
        <time>2020-05-14T07:43:58.000Z</time>
      </trkpt>
      <trkpt lat="47.26038" lon="-2.32651">
        <ele>-16.39999961853</ele>
        <time>2020-05-14T07:44:00.000Z</time>
      </trkpt>
      <trkpt lat="47.26057" lon="-2.32647">
        <ele>-16.39999961853</ele>
        <time>2020-05-14T07:44:04.000Z</time>
      </trkpt>
      <trkpt lat="47.26061" lon="-2.32646">
        <ele>-16.39999961853</ele>
        <time>2020-05-14T07:44:05.000Z</time>
      </trkpt>
      <trkpt lat="47.26086" lon="-2.32641">
        <ele>-16.39999961853</ele>
        <time>2020-05-14T07:44:10.000Z</time>
      </trkpt>
      <trkpt lat="47.26096" lon="-2.32641">
        <ele>-16.39999961853</ele>
        <time>2020-05-14T07:44:12.000Z</time>
      </trkpt>
      <trkpt lat="47.26133" lon="-2.3264">
        <ele>-16.39999961853</ele>
        <time>2020-05-14T07:44:19.000Z</time>
      </trkpt>
      <trkpt lat="47.2617" lon="-2.32656">
        <ele>-16.39999961853</ele>
        <time>2020-05-14T07:44:26.000Z</time>
      </trkpt>
      <trkpt lat="47.262" lon="-2.32682">
        <ele>-16.39999961853</ele>
        <time>2020-05-14T07:44:32.000Z</time>
      </trkpt>
      <trkpt lat="47.26224" lon="-2.32709">
        <ele>-16.39999961853</ele>
        <time>2020-05-14T07:44:37.000Z</time>
      </trkpt>
      <trkpt lat="47.26229" lon="-2.32715">
        <ele>-16.39999961853</ele>
        <time>2020-05-14T07:44:38.000Z</time>
      </trkpt>
      <trkpt lat="47.26264" lon="-2.3277">
        <ele>-16.39999961853</ele>
        <time>2020-05-14T07:44:46.000Z</time>
      </trkpt>
      <trkpt lat="47.26283" lon="-2.32814">
        <ele>-16.39999961853</ele>
        <time>2020-05-14T07:44:52.000Z</time>
      </trkpt>
      <trkpt lat="47.26286" lon="-2.3283">
        <ele>-16.39999961853</ele>
        <time>2020-05-14T07:44:54.000Z</time>
      </trkpt>
      <trkpt lat="47.26289" lon="-2.32846">
        <ele>-16.39999961853</ele>
        <time>2020-05-14T07:44:56.000Z</time>
      </trkpt>
      <trkpt lat="47.26292" lon="-2.32854">
        <ele>-16.799999237061</ele>
        <time>2020-05-14T07:44:57.000Z</time>
      </trkpt>
      <trkpt lat="47.26296" lon="-2.32859">
        <ele>-17.200000762939</ele>
        <time>2020-05-14T07:44:58.000Z</time>
      </trkpt>
      <trkpt lat="47.26301" lon="-2.32862">
        <ele>-17.60000038147</ele>
        <time>2020-05-14T07:44:59.000Z</time>
      </trkpt>
      <trkpt lat="47.26307" lon="-2.32864">
        <ele>-18</ele>
        <time>2020-05-14T07:45:00.000Z</time>
      </trkpt>
      <trkpt lat="47.26312" lon="-2.32868">
        <ele>-18.39999961853</ele>
        <time>2020-05-14T07:45:01.000Z</time>
      </trkpt>
      <trkpt lat="47.2632" lon="-2.32881">
        <ele>-18.39999961853</ele>
        <time>2020-05-14T07:45:03.000Z</time>
      </trkpt>
      <trkpt lat="47.26326" lon="-2.32898">
        <ele>-18.39999961853</ele>
        <time>2020-05-14T07:45:05.000Z</time>
      </trkpt>
      <trkpt lat="47.26337" lon="-2.32932">
        <ele>-18.39999961853</ele>
        <time>2020-05-14T07:45:09.000Z</time>
      </trkpt>
      <trkpt lat="47.26351" lon="-2.32971">
        <ele>-18.39999961853</ele>
        <time>2020-05-14T07:45:14.000Z</time>
      </trkpt>
      <trkpt lat="47.26356" lon="-2.32976">
        <ele>-18.39999961853</ele>
        <time>2020-05-14T07:45:15.000Z</time>
      </trkpt>
      <trkpt lat="47.26366" lon="-2.33005">
        <ele>-18.39999961853</ele>
        <time>2020-05-14T07:45:19.000Z</time>
      </trkpt>
      <trkpt lat="47.26367" lon="-2.33013">
        <ele>-18.39999961853</ele>
        <time>2020-05-14T07:45:20.000Z</time>
      </trkpt>
      <trkpt lat="47.26368" lon="-2.33049">
        <ele>-18.39999961853</ele>
        <time>2020-05-14T07:45:24.000Z</time>
      </trkpt>
      <trkpt lat="47.26368" lon="-2.33066">
        <ele>-18.39999961853</ele>
        <time>2020-05-14T07:45:26.000Z</time>
      </trkpt>
      <trkpt lat="47.2637" lon="-2.331">
        <ele>-18.39999961853</ele>
        <time>2020-05-14T07:45:30.000Z</time>
      </trkpt>
      <trkpt lat="47.26374" lon="-2.33148">
        <ele>-18.39999961853</ele>
        <time>2020-05-14T07:45:36.000Z</time>
      </trkpt>
      <trkpt lat="47.26377" lon="-2.33205">
        <ele>-18.39999961853</ele>
        <time>2020-05-14T07:45:43.000Z</time>
      </trkpt>
      <trkpt lat="47.2638" lon="-2.33245">
        <ele>-18.39999961853</ele>
        <time>2020-05-14T07:45:48.000Z</time>
      </trkpt>
      <trkpt lat="47.26386" lon="-2.33259">
        <ele>-18.39999961853</ele>
        <time>2020-05-14T07:45:50.000Z</time>
      </trkpt>
      <trkpt lat="47.26401" lon="-2.33267">
        <ele>-18.39999961853</ele>
        <time>2020-05-14T07:45:53.000Z</time>
      </trkpt>
      <trkpt lat="47.26406" lon="-2.33268">
        <ele>-18.39999961853</ele>
        <time>2020-05-14T07:45:54.000Z</time>
      </trkpt>
      <trkpt lat="47.26463" lon="-2.33275">
        <ele>-18.39999961853</ele>
        <time>2020-05-14T07:46:04.000Z</time>
      </trkpt>
      <trkpt lat="47.26502" lon="-2.33282">
        <ele>-18.39999961853</ele>
        <time>2020-05-14T07:46:12.000Z</time>
      </trkpt>
      <trkpt lat="47.26514" lon="-2.33289">
        <ele>-18.39999961853</ele>
        <time>2020-05-14T07:46:15.000Z</time>
      </trkpt>
      <trkpt lat="47.26518" lon="-2.33289">
        <ele>-18.39999961853</ele>
        <time>2020-05-14T07:46:16.000Z</time>
      </trkpt>
      <trkpt lat="47.26532" lon="-2.33292">
        <ele>-18.39999961853</ele>
        <time>2020-05-14T07:46:20.000Z</time>
      </trkpt>
      <trkpt lat="47.26534" lon="-2.33295">
        <ele>-18.39999961853</ele>
        <time>2020-05-14T07:46:21.000Z</time>
      </trkpt>
      <trkpt lat="47.26541" lon="-2.33299">
        <ele>-18.39999961853</ele>
        <time>2020-05-14T07:46:24.000Z</time>
      </trkpt>
      <trkpt lat="47.26549" lon="-2.33289">
        <ele>-18.39999961853</ele>
        <time>2020-05-14T07:46:27.000Z</time>
      </trkpt>
      <trkpt lat="47.26552" lon="-2.33285">
        <ele>-18.39999961853</ele>
        <time>2020-05-14T07:46:28.000Z</time>
      </trkpt>
      <trkpt lat="47.26559" lon="-2.33276">
        <ele>-18.39999961853</ele>
        <time>2020-05-14T07:46:30.000Z</time>
      </trkpt>
      <trkpt lat="47.26571" lon="-2.33264">
        <ele>-18.39999961853</ele>
        <time>2020-05-14T07:46:33.000Z</time>
      </trkpt>
      <trkpt lat="47.2659" lon="-2.33245">
        <ele>-18.39999961853</ele>
        <time>2020-05-14T07:46:38.000Z</time>
      </trkpt>
      <trkpt lat="47.26602" lon="-2.33234">
        <ele>-18.39999961853</ele>
        <time>2020-05-14T07:46:41.000Z</time>
      </trkpt>
      <trkpt lat="47.26626" lon="-2.3321">
        <ele>-18.39999961853</ele>
        <time>2020-05-14T07:46:47.000Z</time>
      </trkpt>
      <trkpt lat="47.26647" lon="-2.33188">
        <ele>-18.39999961853</ele>
        <time>2020-05-14T07:46:52.000Z</time>
      </trkpt>
      <trkpt lat="47.26651" lon="-2.33183">
        <ele>-18.39999961853</ele>
        <time>2020-05-14T07:46:53.000Z</time>
      </trkpt>
      <trkpt lat="47.26668" lon="-2.33167">
        <ele>-18.39999961853</ele>
        <time>2020-05-14T07:46:58.000Z</time>
      </trkpt>
      <trkpt lat="47.26687" lon="-2.33148">
        <ele>-18.39999961853</ele>
        <time>2020-05-14T07:47:04.000Z</time>
      </trkpt>
      <trkpt lat="47.26702" lon="-2.33133">
        <ele>-18.39999961853</ele>
        <time>2020-05-14T07:47:08.000Z</time>
      </trkpt>
      <trkpt lat="47.26716" lon="-2.3312">
        <ele>-18.39999961853</ele>
        <time>2020-05-14T07:47:11.000Z</time>
      </trkpt>
      <trkpt lat="47.26738" lon="-2.33097">
        <ele>-18</ele>
        <time>2020-05-14T07:47:17.000Z</time>
      </trkpt>
      <trkpt lat="47.26742" lon="-2.33094">
        <ele>-17.60000038147</ele>
        <time>2020-05-14T07:47:18.000Z</time>
      </trkpt>
      <trkpt lat="47.26745" lon="-2.33091">
        <ele>-17.200000762939</ele>
        <time>2020-05-14T07:47:19.000Z</time>
      </trkpt>
      <trkpt lat="47.26748" lon="-2.3309">
        <ele>-16.799999237061</ele>
        <time>2020-05-14T07:47:20.000Z</time>
      </trkpt>
      <trkpt lat="47.26752" lon="-2.3309">
        <ele>-16.39999961853</ele>
        <time>2020-05-14T07:47:21.000Z</time>
      </trkpt>
      <trkpt lat="47.26755" lon="-2.33092">
        <ele>-16.39999961853</ele>
        <time>2020-05-14T07:47:22.000Z</time>
      </trkpt>
      <trkpt lat="47.26762" lon="-2.33107">
        <ele>-16.39999961853</ele>
        <time>2020-05-14T07:47:25.000Z</time>
      </trkpt>
      <trkpt lat="47.26766" lon="-2.33136">
        <ele>-16.39999961853</ele>
        <time>2020-05-14T07:47:29.000Z</time>
      </trkpt>
      <trkpt lat="47.26766" lon="-2.33145">
        <ele>-16.39999961853</ele>
        <time>2020-05-14T07:47:30.000Z</time>
      </trkpt>
      <trkpt lat="47.26765" lon="-2.33154">
        <ele>-16.39999961853</ele>
        <time>2020-05-14T07:47:31.000Z</time>
      </trkpt>
      <trkpt lat="47.26762" lon="-2.3318">
        <ele>-16.39999961853</ele>
        <time>2020-05-14T07:47:34.000Z</time>
      </trkpt>
      <trkpt lat="47.26744" lon="-2.33247">
        <ele>-16.39999961853</ele>
        <time>2020-05-14T07:47:42.000Z</time>
      </trkpt>
      <trkpt lat="47.26735" lon="-2.33277">
        <ele>-16.39999961853</ele>
        <time>2020-05-14T07:47:46.000Z</time>
      </trkpt>
      <trkpt lat="47.26735" lon="-2.33284">
        <ele>-16.39999961853</ele>
        <time>2020-05-14T07:47:47.000Z</time>
      </trkpt>
      <trkpt lat="47.26742" lon="-2.33316">
        <ele>-16.39999961853</ele>
        <time>2020-05-14T07:47:51.000Z</time>
      </trkpt>
      <trkpt lat="47.26748" lon="-2.33339">
        <ele>-16.39999961853</ele>
        <time>2020-05-14T07:47:54.000Z</time>
      </trkpt>
      <trkpt lat="47.26751" lon="-2.33364">
        <ele>-16.39999961853</ele>
        <time>2020-05-14T07:47:57.000Z</time>
      </trkpt>
      <trkpt lat="47.26756" lon="-2.33416">
        <ele>-16.39999961853</ele>
        <time>2020-05-14T07:48:03.000Z</time>
      </trkpt>
      <trkpt lat="47.26758" lon="-2.33431">
        <ele>-16.799999237061</ele>
        <time>2020-05-14T07:48:05.000Z</time>
      </trkpt>
      <trkpt lat="47.26759" lon="-2.33439">
        <ele>-17.200000762939</ele>
        <time>2020-05-14T07:48:06.000Z</time>
      </trkpt>
      <trkpt lat="47.26761" lon="-2.33447">
        <ele>-17.60000038147</ele>
        <time>2020-05-14T07:48:07.000Z</time>
      </trkpt>
      <trkpt lat="47.26762" lon="-2.33455">
        <ele>-18</ele>
        <time>2020-05-14T07:48:08.000Z</time>
      </trkpt>
      <trkpt lat="47.26763" lon="-2.33463">
        <ele>-18.39999961853</ele>
        <time>2020-05-14T07:48:09.000Z</time>
      </trkpt>
      <trkpt lat="47.26772" lon="-2.33516">
        <ele>-18.39999961853</ele>
        <time>2020-05-14T07:48:16.000Z</time>
      </trkpt>
      <trkpt lat="47.26778" lon="-2.33557">
        <ele>-18.39999961853</ele>
        <time>2020-05-14T07:48:22.000Z</time>
      </trkpt>
      <trkpt lat="47.26779" lon="-2.33563">
        <ele>-18.39999961853</ele>
        <time>2020-05-14T07:48:23.000Z</time>
      </trkpt>
      <trkpt lat="47.26785" lon="-2.33567">
        <ele>-18.39999961853</ele>
        <time>2020-05-14T07:48:25.000Z</time>
      </trkpt>
      <trkpt lat="47.26793" lon="-2.33565">
        <ele>-18.39999961853</ele>
        <time>2020-05-14T07:48:27.000Z</time>
      </trkpt>
      <trkpt lat="47.26801" lon="-2.33562">
        <ele>-18.39999961853</ele>
        <time>2020-05-14T07:48:29.000Z</time>
      </trkpt>
      <trkpt lat="47.26825" lon="-2.33553">
        <ele>-18.39999961853</ele>
        <time>2020-05-14T07:48:34.000Z</time>
      </trkpt>
      <trkpt lat="47.2684" lon="-2.33545">
        <ele>-18.39999961853</ele>
        <time>2020-05-14T07:48:37.000Z</time>
      </trkpt>
      <trkpt lat="47.26855" lon="-2.33536">
        <ele>-18.39999961853</ele>
        <time>2020-05-14T07:48:40.000Z</time>
      </trkpt>
      <trkpt lat="47.26861" lon="-2.33535">
        <ele>-18.39999961853</ele>
        <time>2020-05-14T07:48:41.000Z</time>
      </trkpt>
      <trkpt lat="47.26879" lon="-2.33536">
        <ele>-18.39999961853</ele>
        <time>2020-05-14T07:48:44.000Z</time>
      </trkpt>
      <trkpt lat="47.26888" lon="-2.33541">
        <ele>-18</ele>
        <time>2020-05-14T07:48:46.000Z</time>
      </trkpt>
      <trkpt lat="47.26892" lon="-2.33544">
        <ele>-17.60000038147</ele>
        <time>2020-05-14T07:48:47.000Z</time>
      </trkpt>
      <trkpt lat="47.26896" lon="-2.33548">
        <ele>-17.200000762939</ele>
        <time>2020-05-14T07:48:48.000Z</time>
      </trkpt>
      <trkpt lat="47.26899" lon="-2.33553">
        <ele>-16.799999237061</ele>
        <time>2020-05-14T07:48:49.000Z</time>
      </trkpt>
      <trkpt lat="47.26901" lon="-2.33559">
        <ele>-16.39999961853</ele>
        <time>2020-05-14T07:48:50.000Z</time>
      </trkpt>
      <trkpt lat="47.26903" lon="-2.33565">
        <ele>-16.39999961853</ele>
        <time>2020-05-14T07:48:51.000Z</time>
      </trkpt>
      <trkpt lat="47.26905" lon="-2.33572">
        <ele>-16.39999961853</ele>
        <time>2020-05-14T07:48:52.000Z</time>
      </trkpt>
      <trkpt lat="47.26909" lon="-2.33584">
        <ele>-16</ele>
        <time>2020-05-14T07:48:54.000Z</time>
      </trkpt>
      <trkpt lat="47.26912" lon="-2.3359">
        <ele>-15.60000038147</ele>
        <time>2020-05-14T07:48:55.000Z</time>
      </trkpt>
      <trkpt lat="47.26914" lon="-2.33597">
        <ele>-15.199999809265</ele>
        <time>2020-05-14T07:48:56.000Z</time>
      </trkpt>
      <trkpt lat="47.26916" lon="-2.33603">
        <ele>-14.800000190735</ele>
        <time>2020-05-14T07:48:57.000Z</time>
      </trkpt>
      <trkpt lat="47.26918" lon="-2.33609">
        <ele>-14.39999961853</ele>
        <time>2020-05-14T07:48:58.000Z</time>
      </trkpt>
      <trkpt lat="47.26923" lon="-2.33627">
        <ele>-14.39999961853</ele>
        <time>2020-05-14T07:49:01.000Z</time>
      </trkpt>
      <trkpt lat="47.26927" lon="-2.33647">
        <ele>-14.39999961853</ele>
        <time>2020-05-14T07:49:04.000Z</time>
      </trkpt>
      <trkpt lat="47.2693" lon="-2.33661">
        <ele>-14.39999961853</ele>
        <time>2020-05-14T07:49:06.000Z</time>
      </trkpt>
      <trkpt lat="47.26936" lon="-2.33686">
        <ele>-14.39999961853</ele>
        <time>2020-05-14T07:49:10.000Z</time>
      </trkpt>
      <trkpt lat="47.2694" lon="-2.33709">
        <ele>-14.39999961853</ele>
        <time>2020-05-14T07:49:14.000Z</time>
      </trkpt>
      <trkpt lat="47.2694" lon="-2.33722">
        <ele>-14.39999961853</ele>
        <time>2020-05-14T07:49:16.000Z</time>
      </trkpt>
      <trkpt lat="47.26938" lon="-2.33742">
        <ele>-14.39999961853</ele>
        <time>2020-05-14T07:49:19.000Z</time>
      </trkpt>
      <trkpt lat="47.26935" lon="-2.33755">
        <ele>-14.39999961853</ele>
        <time>2020-05-14T07:49:21.000Z</time>
      </trkpt>
      <trkpt lat="47.26931" lon="-2.33789">
        <ele>-14.39999961853</ele>
        <time>2020-05-14T07:49:26.000Z</time>
      </trkpt>
      <trkpt lat="47.26933" lon="-2.33802">
        <ele>-14.39999961853</ele>
        <time>2020-05-14T07:49:28.000Z</time>
      </trkpt>
      <trkpt lat="47.26943" lon="-2.33816">
        <ele>-14.39999961853</ele>
        <time>2020-05-14T07:49:31.000Z</time>
      </trkpt>
      <trkpt lat="47.2695" lon="-2.33824">
        <ele>-14.39999961853</ele>
        <time>2020-05-14T07:49:33.000Z</time>
      </trkpt>
      <trkpt lat="47.26963" lon="-2.33833">
        <ele>-14</ele>
        <time>2020-05-14T07:49:36.000Z</time>
      </trkpt>
      <trkpt lat="47.26967" lon="-2.33835">
        <ele>-13.39999961853</ele>
        <time>2020-05-14T07:49:37.000Z</time>
      </trkpt>
      <trkpt lat="47.26971" lon="-2.33838">
        <ele>-12.800000190735</ele>
        <time>2020-05-14T07:49:38.000Z</time>
      </trkpt>
      <trkpt lat="47.26976" lon="-2.3384">
        <ele>-12.39999961853</ele>
        <time>2020-05-14T07:49:39.000Z</time>
      </trkpt>
      <trkpt lat="47.2698" lon="-2.33843">
        <ele>-11.800000190735</ele>
        <time>2020-05-14T07:49:40.000Z</time>
      </trkpt>
      <trkpt lat="47.26989" lon="-2.33848">
        <ele>-11.800000190735</ele>
        <time>2020-05-14T07:49:42.000Z</time>
      </trkpt>
      <trkpt lat="47.26992" lon="-2.33851">
        <ele>-11.39999961853</ele>
        <time>2020-05-14T07:49:43.000Z</time>
      </trkpt>
      <trkpt lat="47.26996" lon="-2.33853">
        <ele>-11</ele>
        <time>2020-05-14T07:49:44.000Z</time>
      </trkpt>
      <trkpt lat="47.27" lon="-2.33854">
        <ele>-10.60000038147</ele>
        <time>2020-05-14T07:49:45.000Z</time>
      </trkpt>
      <trkpt lat="47.27005" lon="-2.33856">
        <ele>-10.199999809265</ele>
        <time>2020-05-14T07:49:46.000Z</time>
      </trkpt>
      <trkpt lat="47.27009" lon="-2.33858">
        <ele>-9.8000001907349</ele>
        <time>2020-05-14T07:49:47.000Z</time>
      </trkpt>
      <trkpt lat="47.27016" lon="-2.33863">
        <ele>-9.8000001907349</ele>
        <time>2020-05-14T07:49:49.000Z</time>
      </trkpt>
      <trkpt lat="47.27023" lon="-2.33869">
        <ele>-9.3999996185303</ele>
        <time>2020-05-14T07:49:51.000Z</time>
      </trkpt>
      <trkpt lat="47.27027" lon="-2.33873">
        <ele>-9</ele>
        <time>2020-05-14T07:49:52.000Z</time>
      </trkpt>
      <trkpt lat="47.2703" lon="-2.33876">
        <ele>-8.6000003814697</ele>
        <time>2020-05-14T07:49:53.000Z</time>
      </trkpt>
      <trkpt lat="47.27033" lon="-2.3388">
        <ele>-8.1999998092651</ele>
        <time>2020-05-14T07:49:54.000Z</time>
      </trkpt>
      <trkpt lat="47.27037" lon="-2.33883">
        <ele>-7.5999999046326</ele>
        <time>2020-05-14T07:49:55.000Z</time>
      </trkpt>
      <trkpt lat="47.27041" lon="-2.33887">
        <ele>-7.5999999046326</ele>
        <time>2020-05-14T07:49:56.000Z</time>
      </trkpt>
      <trkpt lat="47.27064" lon="-2.33908">
        <ele>-7.5999999046326</ele>
        <time>2020-05-14T07:50:02.000Z</time>
      </trkpt>
      <trkpt lat="47.27071" lon="-2.33915">
        <ele>-6.8000001907349</ele>
        <time>2020-05-14T07:50:04.000Z</time>
      </trkpt>
      <trkpt lat="47.27074" lon="-2.33918">
        <ele>-6.4000000953674</ele>
        <time>2020-05-14T07:50:05.000Z</time>
      </trkpt>
      <trkpt lat="47.27077" lon="-2.33921">
        <ele>-6</ele>
        <time>2020-05-14T07:50:06.000Z</time>
      </trkpt>
      <trkpt lat="47.2708" lon="-2.33923">
        <ele>-5.5999999046326</ele>
        <time>2020-05-14T07:50:07.000Z</time>
      </trkpt>
      <trkpt lat="47.27085" lon="-2.33929">
        <ele>-5.5999999046326</ele>
        <time>2020-05-14T07:50:09.000Z</time>
      </trkpt>
      <trkpt lat="47.27091" lon="-2.33934">
        <ele>-5.1999998092651</ele>
        <time>2020-05-14T07:50:11.000Z</time>
      </trkpt>
      <trkpt lat="47.27094" lon="-2.33937">
        <ele>-4.8000001907349</ele>
        <time>2020-05-14T07:50:12.000Z</time>
      </trkpt>
      <trkpt lat="47.27097" lon="-2.3394">
        <ele>-4.4000000953674</ele>
        <time>2020-05-14T07:50:13.000Z</time>
      </trkpt>
      <trkpt lat="47.271" lon="-2.33943">
        <ele>-3.7999999523163</ele>
        <time>2020-05-14T07:50:14.000Z</time>
      </trkpt>
      <trkpt lat="47.27103" lon="-2.33945">
        <ele>-3.4000000953674</ele>
        <time>2020-05-14T07:50:15.000Z</time>
      </trkpt>
      <trkpt lat="47.2711" lon="-2.3395">
        <ele>-3.4000000953674</ele>
        <time>2020-05-14T07:50:17.000Z</time>
      </trkpt>
      <trkpt lat="47.27119" lon="-2.3396">
        <ele>-3</ele>
        <time>2020-05-14T07:50:20.000Z</time>
      </trkpt>
      <trkpt lat="47.27122" lon="-2.33963">
        <ele>-2.5999999046326</ele>
        <time>2020-05-14T07:50:21.000Z</time>
      </trkpt>
      <trkpt lat="47.27125" lon="-2.33966">
        <ele>-2.2000000476837</ele>
        <time>2020-05-14T07:50:22.000Z</time>
      </trkpt>
      <trkpt lat="47.27128" lon="-2.33969">
        <ele>-1.7999999523163</ele>
        <time>2020-05-14T07:50:23.000Z</time>
      </trkpt>
      <trkpt lat="47.27132" lon="-2.33972">
        <ele>-1.3999999761581</ele>
        <time>2020-05-14T07:50:24.000Z</time>
      </trkpt>
      <trkpt lat="47.27135" lon="-2.33975">
        <ele>-1.3999999761581</ele>
        <time>2020-05-14T07:50:25.000Z</time>
      </trkpt>
      <trkpt lat="47.27163" lon="-2.34001">
        <ele>-1.3999999761581</ele>
        <time>2020-05-14T07:50:33.000Z</time>
      </trkpt>
      <trkpt lat="47.27189" lon="-2.34027">
        <ele>-1.3999999761581</ele>
        <time>2020-05-14T07:50:41.000Z</time>
      </trkpt>
      <trkpt lat="47.2721" lon="-2.34051">
        <ele>-1</ele>
        <time>2020-05-14T07:50:48.000Z</time>
      </trkpt>
      <trkpt lat="47.27213" lon="-2.34054">
        <ele>-0.60000002384186</ele>
        <time>2020-05-14T07:50:49.000Z</time>
      </trkpt>
      <trkpt lat="47.27217" lon="-2.34056">
        <ele>-0.20000000298023</ele>
        <time>2020-05-14T07:50:50.000Z</time>
      </trkpt>
      <trkpt lat="47.27221" lon="-2.34057">
        <ele>0.20000000298023</ele>
        <time>2020-05-14T07:50:51.000Z</time>
      </trkpt>
      <trkpt lat="47.27225" lon="-2.34055">
        <ele>0.80000001192093</ele>
        <time>2020-05-14T07:50:52.000Z</time>
      </trkpt>
      <trkpt lat="47.27233" lon="-2.34054">
        <ele>0.80000001192093</ele>
        <time>2020-05-14T07:50:54.000Z</time>
      </trkpt>
      <trkpt lat="47.27258" lon="-2.34053">
        <ele>0.80000001192093</ele>
        <time>2020-05-14T07:51:01.000Z</time>
      </trkpt>
      <trkpt lat="47.27275" lon="-2.3407">
        <ele>0.80000001192093</ele>
        <time>2020-05-14T07:51:07.000Z</time>
      </trkpt>
      <trkpt lat="47.27279" lon="-2.34088">
        <ele>0.80000001192093</ele>
        <time>2020-05-14T07:51:10.000Z</time>
      </trkpt>
      <trkpt lat="47.2728" lon="-2.34094">
        <ele>0.80000001192093</ele>
        <time>2020-05-14T07:51:11.000Z</time>
      </trkpt>
      <trkpt lat="47.27284" lon="-2.34113">
        <ele>0.80000001192093</ele>
        <time>2020-05-14T07:51:14.000Z</time>
      </trkpt>
      <trkpt lat="47.27291" lon="-2.34123">
        <ele>0.80000001192093</ele>
        <time>2020-05-14T07:51:16.000Z</time>
      </trkpt>
      <trkpt lat="47.27299" lon="-2.34131">
        <ele>0.80000001192093</ele>
        <time>2020-05-14T07:51:18.000Z</time>
      </trkpt>
      <trkpt lat="47.27316" lon="-2.34144">
        <ele>0.80000001192093</ele>
        <time>2020-05-14T07:51:22.000Z</time>
      </trkpt>
      <trkpt lat="47.27345" lon="-2.34162">
        <ele>0.80000001192093</ele>
        <time>2020-05-14T07:51:29.000Z</time>
      </trkpt>
      <trkpt lat="47.2735" lon="-2.34164">
        <ele>0.80000001192093</ele>
        <time>2020-05-14T07:51:30.000Z</time>
      </trkpt>
      <trkpt lat="47.27368" lon="-2.34173">
        <ele>0.80000001192093</ele>
        <time>2020-05-14T07:51:34.000Z</time>
      </trkpt>
      <trkpt lat="47.27395" lon="-2.34199">
        <ele>0.80000001192093</ele>
        <time>2020-05-14T07:51:41.000Z</time>
      </trkpt>
      <trkpt lat="47.27403" lon="-2.34225">
        <ele>0.80000001192093</ele>
        <time>2020-05-14T07:51:46.000Z</time>
      </trkpt>
      <trkpt lat="47.27404" lon="-2.34231">
        <ele>0.80000001192093</ele>
        <time>2020-05-14T07:51:49.000Z</time>
      </trkpt>
      <trkpt lat="47.27405" lon="-2.34236">
        <ele>0.80000001192093</ele>
        <time>2020-05-14T07:51:52.000Z</time>
      </trkpt>
      <trkpt lat="47.27407" lon="-2.34239">
        <ele>0.80000001192093</ele>
        <time>2020-05-14T07:51:54.000Z</time>
      </trkpt>
      <trkpt lat="47.27414" lon="-2.34253">
        <ele>0.80000001192093</ele>
        <time>2020-05-14T07:51:58.000Z</time>
      </trkpt>
      <trkpt lat="47.27417" lon="-2.34279">
        <ele>0.80000001192093</ele>
        <time>2020-05-14T07:52:02.000Z</time>
      </trkpt>
      <trkpt lat="47.27417" lon="-2.34285">
        <ele>0.80000001192093</ele>
        <time>2020-05-14T07:52:03.000Z</time>
      </trkpt>
      <trkpt lat="47.27417" lon="-2.34341">
        <ele>0.80000001192093</ele>
        <time>2020-05-14T07:52:11.000Z</time>
      </trkpt>
      <trkpt lat="47.27424" lon="-2.34399">
        <ele>0.80000001192093</ele>
        <time>2020-05-14T07:52:19.000Z</time>
      </trkpt>
      <trkpt lat="47.27425" lon="-2.34422">
        <ele>1.2000000476837</ele>
        <time>2020-05-14T07:52:22.000Z</time>
      </trkpt>
      <trkpt lat="47.27426" lon="-2.34429">
        <ele>1.6000000238419</ele>
        <time>2020-05-14T07:52:23.000Z</time>
      </trkpt>
      <trkpt lat="47.27427" lon="-2.34436">
        <ele>2</ele>
        <time>2020-05-14T07:52:24.000Z</time>
      </trkpt>
      <trkpt lat="47.27427" lon="-2.34443">
        <ele>2.4000000953674</ele>
        <time>2020-05-14T07:52:25.000Z</time>
      </trkpt>
      <trkpt lat="47.27428" lon="-2.34451">
        <ele>2.7999999523163</ele>
        <time>2020-05-14T07:52:26.000Z</time>
      </trkpt>
      <trkpt lat="47.27428" lon="-2.34458">
        <ele>2.7999999523163</ele>
        <time>2020-05-14T07:52:27.000Z</time>
      </trkpt>
      <trkpt lat="47.27432" lon="-2.34502">
        <ele>2.7999999523163</ele>
        <time>2020-05-14T07:52:33.000Z</time>
      </trkpt>
      <trkpt lat="47.27434" lon="-2.34509">
        <ele>2.7999999523163</ele>
        <time>2020-05-14T07:52:34.000Z</time>
      </trkpt>
      <trkpt lat="47.27444" lon="-2.3455">
        <ele>2.7999999523163</ele>
        <time>2020-05-14T07:52:40.000Z</time>
      </trkpt>
      <trkpt lat="47.2745" lon="-2.34579">
        <ele>3.2000000476837</ele>
        <time>2020-05-14T07:52:44.000Z</time>
      </trkpt>
      <trkpt lat="47.27451" lon="-2.34587">
        <ele>3.5999999046326</ele>
        <time>2020-05-14T07:52:45.000Z</time>
      </trkpt>
      <trkpt lat="47.27453" lon="-2.34595">
        <ele>4</ele>
        <time>2020-05-14T07:52:46.000Z</time>
      </trkpt>
      <trkpt lat="47.27453" lon="-2.34603">
        <ele>4.4000000953674</ele>
        <time>2020-05-14T07:52:47.000Z</time>
      </trkpt>
      <trkpt lat="47.27454" lon="-2.34611">
        <ele>4.8000001907349</ele>
        <time>2020-05-14T07:52:48.000Z</time>
      </trkpt>
      <trkpt lat="47.27459" lon="-2.3466">
        <ele>4.8000001907349</ele>
        <time>2020-05-14T07:52:54.000Z</time>
      </trkpt>
      <trkpt lat="47.27459" lon="-2.34668">
        <ele>4.8000001907349</ele>
        <time>2020-05-14T07:52:55.000Z</time>
      </trkpt>
      <trkpt lat="47.2746" lon="-2.34703">
        <ele>4.8000001907349</ele>
        <time>2020-05-14T07:52:59.000Z</time>
      </trkpt>
      <trkpt lat="47.2746" lon="-2.34711">
        <ele>4.8000001907349</ele>
        <time>2020-05-14T07:53:00.000Z</time>
      </trkpt>
      <trkpt lat="47.27459" lon="-2.34738">
        <ele>4.8000001907349</ele>
        <time>2020-05-14T07:53:03.000Z</time>
      </trkpt>
      <trkpt lat="47.27459" lon="-2.34747">
        <ele>4.4000000953674</ele>
        <time>2020-05-14T07:53:04.000Z</time>
      </trkpt>
      <trkpt lat="47.27459" lon="-2.34757">
        <ele>4</ele>
        <time>2020-05-14T07:53:05.000Z</time>
      </trkpt>
      <trkpt lat="47.27459" lon="-2.34767">
        <ele>3.5999999046326</ele>
        <time>2020-05-14T07:53:06.000Z</time>
      </trkpt>
      <trkpt lat="47.2746" lon="-2.34777">
        <ele>3.2000000476837</ele>
        <time>2020-05-14T07:53:07.000Z</time>
      </trkpt>
      <trkpt lat="47.27461" lon="-2.34786">
        <ele>2.7999999523163</ele>
        <time>2020-05-14T07:53:08.000Z</time>
      </trkpt>
      <trkpt lat="47.27461" lon="-2.34797">
        <ele>2.7999999523163</ele>
        <time>2020-05-14T07:53:09.000Z</time>
      </trkpt>
      <trkpt lat="47.27465" lon="-2.34846">
        <ele>2.4000000953674</ele>
        <time>2020-05-14T07:53:14.000Z</time>
      </trkpt>
      <trkpt lat="47.27465" lon="-2.34857">
        <ele>2</ele>
        <time>2020-05-14T07:53:15.000Z</time>
      </trkpt>
      <trkpt lat="47.27465" lon="-2.34868">
        <ele>1.6000000238419</ele>
        <time>2020-05-14T07:53:16.000Z</time>
      </trkpt>
      <trkpt lat="47.27465" lon="-2.34878">
        <ele>1</ele>
        <time>2020-05-14T07:53:17.000Z</time>
      </trkpt>
      <trkpt lat="47.27464" lon="-2.34888">
        <ele>0.60000002384186</ele>
        <time>2020-05-14T07:53:18.000Z</time>
      </trkpt>
      <trkpt lat="47.27464" lon="-2.34898">
        <ele>0.60000002384186</ele>
        <time>2020-05-14T07:53:19.000Z</time>
      </trkpt>
      <trkpt lat="47.27472" lon="-2.34918">
        <ele>0.60000002384186</ele>
        <time>2020-05-14T07:53:22.000Z</time>
      </trkpt>
      <trkpt lat="47.27488" lon="-2.34919">
        <ele>0.60000002384186</ele>
        <time>2020-05-14T07:53:25.000Z</time>
      </trkpt>
      <trkpt lat="47.27494" lon="-2.34919">
        <ele>0.60000002384186</ele>
        <time>2020-05-14T07:53:26.000Z</time>
      </trkpt>
      <trkpt lat="47.27514" lon="-2.34911">
        <ele>0.60000002384186</ele>
        <time>2020-05-14T07:53:30.000Z</time>
      </trkpt>
      <trkpt lat="47.27523" lon="-2.34907">
        <ele>1.2000000476837</ele>
        <time>2020-05-14T07:53:32.000Z</time>
      </trkpt>
      <trkpt lat="47.27528" lon="-2.34905">
        <ele>1.6000000238419</ele>
        <time>2020-05-14T07:53:33.000Z</time>
      </trkpt>
      <trkpt lat="47.27533" lon="-2.34905">
        <ele>2</ele>
        <time>2020-05-14T07:53:34.000Z</time>
      </trkpt>
      <trkpt lat="47.27538" lon="-2.34903">
        <ele>2.4000000953674</ele>
        <time>2020-05-14T07:53:35.000Z</time>
      </trkpt>
      <trkpt lat="47.27543" lon="-2.34903">
        <ele>2.7999999523163</ele>
        <time>2020-05-14T07:53:36.000Z</time>
      </trkpt>
      <trkpt lat="47.27567" lon="-2.34906">
        <ele>2.7999999523163</ele>
        <time>2020-05-14T07:53:40.000Z</time>
      </trkpt>
      <trkpt lat="47.27612" lon="-2.34912">
        <ele>2.7999999523163</ele>
        <time>2020-05-14T07:53:48.000Z</time>
      </trkpt>
      <trkpt lat="47.2764" lon="-2.34914">
        <ele>2.7999999523163</ele>
        <time>2020-05-14T07:53:53.000Z</time>
      </trkpt>
      <trkpt lat="47.27645" lon="-2.34913">
        <ele>2.7999999523163</ele>
        <time>2020-05-14T07:53:54.000Z</time>
      </trkpt>
      <trkpt lat="47.27665" lon="-2.34909">
        <ele>2.7999999523163</ele>
        <time>2020-05-14T07:53:58.000Z</time>
      </trkpt>
      <trkpt lat="47.27675" lon="-2.34915">
        <ele>2.7999999523163</ele>
        <time>2020-05-14T07:54:00.000Z</time>
      </trkpt>
      <trkpt lat="47.27685" lon="-2.34939">
        <ele>2.7999999523163</ele>
        <time>2020-05-14T07:54:03.000Z</time>
      </trkpt>
      <trkpt lat="47.27687" lon="-2.34976">
        <ele>2.4000000953674</ele>
        <time>2020-05-14T07:54:07.000Z</time>
      </trkpt>
      <trkpt lat="47.27687" lon="-2.34984">
        <ele>2</ele>
        <time>2020-05-14T07:54:08.000Z</time>
      </trkpt>
      <trkpt lat="47.27687" lon="-2.34994">
        <ele>1.3999999761581</ele>
        <time>2020-05-14T07:54:09.000Z</time>
      </trkpt>
      <trkpt lat="47.27687" lon="-2.35003">
        <ele>0.60000002384186</ele>
        <time>2020-05-14T07:54:10.000Z</time>
      </trkpt>
      <trkpt lat="47.27689" lon="-2.35028">
        <ele>0.60000002384186</ele>
        <time>2020-05-14T07:54:13.000Z</time>
      </trkpt>
      <trkpt lat="47.277" lon="-2.3504">
        <ele>0.60000002384186</ele>
        <time>2020-05-14T07:54:16.000Z</time>
      </trkpt>
      <trkpt lat="47.27711" lon="-2.35036">
        <ele>0.60000002384186</ele>
        <time>2020-05-14T07:54:18.000Z</time>
      </trkpt>
      <trkpt lat="47.27722" lon="-2.35033">
        <ele>0.60000002384186</ele>
        <time>2020-05-14T07:54:20.000Z</time>
      </trkpt>
      <trkpt lat="47.27727" lon="-2.35031">
        <ele>0.20000000298023</ele>
        <time>2020-05-14T07:54:21.000Z</time>
      </trkpt>
      <trkpt lat="47.27733" lon="-2.3503">
        <ele>-0.40000000596046</ele>
        <time>2020-05-14T07:54:22.000Z</time>
      </trkpt>
      <trkpt lat="47.27739" lon="-2.35029">
        <ele>-0.80000001192093</ele>
        <time>2020-05-14T07:54:23.000Z</time>
      </trkpt>
      <trkpt lat="47.27746" lon="-2.35028">
        <ele>-1.2000000476837</ele>
        <time>2020-05-14T07:54:24.000Z</time>
      </trkpt>
      <trkpt lat="47.27752" lon="-2.35026">
        <ele>-1.6000000238419</ele>
        <time>2020-05-14T07:54:25.000Z</time>
      </trkpt>
      <trkpt lat="47.27757" lon="-2.35026">
        <ele>-1.6000000238419</ele>
        <time>2020-05-14T07:54:26.000Z</time>
      </trkpt>
      <trkpt lat="47.27767" lon="-2.3504">
        <ele>-2</ele>
        <time>2020-05-14T07:54:29.000Z</time>
      </trkpt>
      <trkpt lat="47.27767" lon="-2.35047">
        <ele>-2.4000000953674</ele>
        <time>2020-05-14T07:54:30.000Z</time>
      </trkpt>
      <trkpt lat="47.27768" lon="-2.35054">
        <ele>-2.7999999523163</ele>
        <time>2020-05-14T07:54:31.000Z</time>
      </trkpt>
      <trkpt lat="47.27769" lon="-2.35059">
        <ele>-3.2000000476837</ele>
        <time>2020-05-14T07:54:32.000Z</time>
      </trkpt>
      <trkpt lat="47.2777" lon="-2.35061">
        <ele>-3.7999999523163</ele>
        <time>2020-05-14T07:54:33.000Z</time>
      </trkpt>
      <trkpt lat="47.27774" lon="-2.35064">
        <ele>-3.7999999523163</ele>
        <time>2020-05-14T07:54:35.000Z</time>
      </trkpt>
      <trkpt lat="47.27793" lon="-2.35057">
        <ele>-3.7999999523163</ele>
        <time>2020-05-14T07:54:40.000Z</time>
      </trkpt>
      <trkpt lat="47.27797" lon="-2.35055">
        <ele>-3.7999999523163</ele>
        <time>2020-05-14T07:54:41.000Z</time>
      </trkpt>
      <trkpt lat="47.27812" lon="-2.35049">
        <ele>-3.7999999523163</ele>
        <time>2020-05-14T07:54:45.000Z</time>
      </trkpt>
      <trkpt lat="47.27828" lon="-2.35041">
        <ele>-3.4000000953674</ele>
        <time>2020-05-14T07:54:50.000Z</time>
      </trkpt>
      <trkpt lat="47.27831" lon="-2.35039">
        <ele>-3</ele>
        <time>2020-05-14T07:54:51.000Z</time>
      </trkpt>
      <trkpt lat="47.27833" lon="-2.35037">
        <ele>-2.5999999046326</ele>
        <time>2020-05-14T07:54:52.000Z</time>
      </trkpt>
      <trkpt lat="47.27836" lon="-2.35035">
        <ele>-2.2000000476837</ele>
        <time>2020-05-14T07:54:53.000Z</time>
      </trkpt>
      <trkpt lat="47.27838" lon="-2.35034">
        <ele>-1.7999999523163</ele>
        <time>2020-05-14T07:54:54.000Z</time>
      </trkpt>
      <trkpt lat="47.27843" lon="-2.35031">
        <ele>-1.7999999523163</ele>
        <time>2020-05-14T07:54:57.000Z</time>
      </trkpt>
      <trkpt lat="47.27846" lon="-2.35032">
        <ele>-1.7999999523163</ele>
        <time>2020-05-14T07:54:59.000Z</time>
      </trkpt>
      <trkpt lat="47.27848" lon="-2.35035">
        <ele>-1.7999999523163</ele>
        <time>2020-05-14T07:55:01.000Z</time>
      </trkpt>
      <trkpt lat="47.27851" lon="-2.35038">
        <ele>-1.7999999523163</ele>
        <time>2020-05-14T07:55:03.000Z</time>
      </trkpt>
      <trkpt lat="47.27855" lon="-2.35047">
        <ele>-1.7999999523163</ele>
        <time>2020-05-14T07:55:05.000Z</time>
      </trkpt>
      <trkpt lat="47.27863" lon="-2.35068">
        <ele>-1.7999999523163</ele>
        <time>2020-05-14T07:55:10.000Z</time>
      </trkpt>
      <trkpt lat="47.27866" lon="-2.35068">
        <ele>-1.7999999523163</ele>
        <time>2020-05-14T07:55:11.000Z</time>
      </trkpt>
      <trkpt lat="47.2787" lon="-2.35066">
        <ele>-1.7999999523163</ele>
        <time>2020-05-14T07:55:12.000Z</time>
      </trkpt>
      <trkpt lat="47.27882" lon="-2.35058">
        <ele>-1.7999999523163</ele>
        <time>2020-05-14T07:55:15.000Z</time>
      </trkpt>
      <trkpt lat="47.27894" lon="-2.35047">
        <ele>-1.7999999523163</ele>
        <time>2020-05-14T07:55:18.000Z</time>
      </trkpt>
      <trkpt lat="47.27906" lon="-2.35032">
        <ele>-1.7999999523163</ele>
        <time>2020-05-14T07:55:22.000Z</time>
      </trkpt>
      <trkpt lat="47.27917" lon="-2.3503">
        <ele>-1.7999999523163</ele>
        <time>2020-05-14T07:55:25.000Z</time>
      </trkpt>
      <trkpt lat="47.27921" lon="-2.3503">
        <ele>-1.3999999761581</ele>
        <time>2020-05-14T07:55:26.000Z</time>
      </trkpt>
      <trkpt lat="47.27925" lon="-2.35031">
        <ele>-0.80000001192093</ele>
        <time>2020-05-14T07:55:27.000Z</time>
      </trkpt>
      <trkpt lat="47.27929" lon="-2.35032">
        <ele>-0.40000000596046</ele>
        <time>2020-05-14T07:55:28.000Z</time>
      </trkpt>
      <trkpt lat="47.27933" lon="-2.35035">
        <ele>21.7</ele>
        <time>2020-05-14T07:55:29.000Z</time>
      </trkpt>
      <trkpt lat="47.27938" lon="-2.35039">
        <ele>0.40000000596046</ele>
        <time>2020-05-14T07:55:30.000Z</time>
      </trkpt>
      <trkpt lat="47.27942" lon="-2.35044">
        <ele>0.40000000596046</ele>
        <time>2020-05-14T07:55:31.000Z</time>
      </trkpt>
      <trkpt lat="47.27965" lon="-2.35081">
        <ele>0.40000000596046</ele>
        <time>2020-05-14T07:55:38.000Z</time>
      </trkpt>
      <trkpt lat="47.27967" lon="-2.35088">
        <ele>0.40000000596046</ele>
        <time>2020-05-14T07:55:39.000Z</time>
      </trkpt>
      <trkpt lat="47.27971" lon="-2.35111">
        <ele>20</ele>
        <time>2020-05-14T07:55:43.000Z</time>
      </trkpt>
      <trkpt lat="47.27972" lon="-2.35117">
        <ele>-0.60000002384186</ele>
        <time>2020-05-14T07:55:44.000Z</time>
      </trkpt>
      <trkpt lat="47.27972" lon="-2.35124">
        <ele>-1</ele>
        <time>2020-05-14T07:55:45.000Z</time>
      </trkpt>
      <trkpt lat="47.27971" lon="-2.3513">
        <ele>-1.3999999761581</ele>
        <time>2020-05-14T07:55:46.000Z</time>
      </trkpt>
      <trkpt lat="47.2797" lon="-2.35138">
        <ele>-1.7999999523163</ele>
        <time>2020-05-14T07:55:47.000Z</time>
      </trkpt>
      <trkpt lat="47.2797" lon="-2.35144">
        <ele>-1.7999999523163</ele>
        <time>2020-05-14T07:55:48.000Z</time>
      </trkpt>
      <trkpt lat="47.27957" lon="-2.35158">
        <ele>-1.7999999523163</ele>
        <time>2020-05-14T07:55:51.000Z</time>
      </trkpt>
      <trkpt lat="47.27949" lon="-2.35167">
        <ele>-1.7999999523163</ele>
        <time>2020-05-14T07:55:53.000Z</time>
      </trkpt>
      <trkpt lat="47.27935" lon="-2.35188">
        <ele>-1.7999999523163</ele>
        <time>2020-05-14T07:55:57.000Z</time>
      </trkpt>
      <trkpt lat="47.27924" lon="-2.352">
        <ele>-2.2000000476837</ele>
        <time>2020-05-14T07:55:59.000Z</time>
      </trkpt>
      <trkpt lat="47.27921" lon="-2.35206">
        <ele>-2.5999999046326</ele>
        <time>2020-05-14T07:56:00.000Z</time>
      </trkpt>
      <trkpt lat="47.27918" lon="-2.35212">
        <ele>-3.2000000476837</ele>
        <time>2020-05-14T07:56:01.000Z</time>
      </trkpt>
      <trkpt lat="47.27916" lon="-2.35218">
        <ele>-3.5999999046326</ele>
        <time>2020-05-14T07:56:02.000Z</time>
      </trkpt>
      <trkpt lat="47.27915" lon="-2.35225">
        <ele>-4</ele>
        <time>2020-05-14T07:56:03.000Z</time>
      </trkpt>
      <trkpt lat="47.27917" lon="-2.35233">
        <ele>-4</ele>
        <time>2020-05-14T07:56:04.000Z</time>
      </trkpt>
      <trkpt lat="47.2792" lon="-2.35248">
        <ele>-4</ele>
        <time>2020-05-14T07:56:06.000Z</time>
      </trkpt>
      <trkpt lat="47.27921" lon="-2.35255">
        <ele>-4</ele>
        <time>2020-05-14T07:56:07.000Z</time>
      </trkpt>
      <trkpt lat="47.27923" lon="-2.3527">
        <ele>-4</ele>
        <time>2020-05-14T07:56:09.000Z</time>
      </trkpt>
      <trkpt lat="47.27928" lon="-2.35298">
        <ele>-4</ele>
        <time>2020-05-14T07:56:13.000Z</time>
      </trkpt>
      <trkpt lat="47.27931" lon="-2.35302">
        <ele>-4</ele>
        <time>2020-05-14T07:56:14.000Z</time>
      </trkpt>
      <trkpt lat="47.27936" lon="-2.35314">
        <ele>-4</ele>
        <time>2020-05-14T07:56:18.000Z</time>
      </trkpt>
      <trkpt lat="47.27931" lon="-2.35329">
        <ele>-4</ele>
        <time>2020-05-14T07:56:22.000Z</time>
      </trkpt>
      <trkpt lat="47.27928" lon="-2.35354">
        <ele>-4</ele>
        <time>2020-05-14T07:56:26.000Z</time>
      </trkpt>
      <trkpt lat="47.27928" lon="-2.35361">
        <ele>-4</ele>
        <time>2020-05-14T07:56:27.000Z</time>
      </trkpt>
      <trkpt lat="47.2793" lon="-2.35383">
        <ele>-4</ele>
        <time>2020-05-14T07:56:30.000Z</time>
      </trkpt>
      <trkpt lat="47.27935" lon="-2.35417">
        <ele>-4</ele>
        <time>2020-05-14T07:56:35.000Z</time>
      </trkpt>
      <trkpt lat="47.27938" lon="-2.35422">
        <ele>-4</ele>
        <time>2020-05-14T07:56:36.000Z</time>
      </trkpt>
      <trkpt lat="47.27947" lon="-2.35436">
        <ele>-4</ele>
        <time>2020-05-14T07:56:39.000Z</time>
      </trkpt>
      <trkpt lat="47.27953" lon="-2.35447">
        <ele>-4</ele>
        <time>2020-05-14T07:56:41.000Z</time>
      </trkpt>
      <trkpt lat="47.27958" lon="-2.35466">
        <ele>-4</ele>
        <time>2020-05-14T07:56:44.000Z</time>
      </trkpt>
      <trkpt lat="47.27972" lon="-2.35475">
        <ele>-4</ele>
        <time>2020-05-14T07:56:47.000Z</time>
      </trkpt>
      <trkpt lat="47.27986" lon="-2.35499">
        <ele>-4</ele>
        <time>2020-05-14T07:56:51.000Z</time>
      </trkpt>
      <trkpt lat="47.28004" lon="-2.3554">
        <ele>-4</ele>
        <time>2020-05-14T07:56:58.000Z</time>
      </trkpt>
      <trkpt lat="47.2801" lon="-2.35556">
        <ele>-4</ele>
        <time>2020-05-14T07:57:01.000Z</time>
      </trkpt>
      <trkpt lat="47.28017" lon="-2.35559">
        <ele>-4</ele>
        <time>2020-05-14T07:57:03.000Z</time>
      </trkpt>
      <trkpt lat="47.2803" lon="-2.35568">
        <ele>-3.5999999046326</ele>
        <time>2020-05-14T07:57:07.000Z</time>
      </trkpt>
      <trkpt lat="47.28032" lon="-2.35572">
        <ele>-3.2000000476837</ele>
        <time>2020-05-14T07:57:08.000Z</time>
      </trkpt>
      <trkpt lat="47.28034" lon="-2.35575">
        <ele>-2.7999999523163</ele>
        <time>2020-05-14T07:57:09.000Z</time>
      </trkpt>
      <trkpt lat="47.28037" lon="-2.35577">
        <ele>-2.2000000476837</ele>
        <time>2020-05-14T07:57:10.000Z</time>
      </trkpt>
      <trkpt lat="47.2804" lon="-2.35579">
        <ele>-1.7999999523163</ele>
        <time>2020-05-14T07:57:11.000Z</time>
      </trkpt>
      <trkpt lat="47.28046" lon="-2.3558">
        <ele>-1.7999999523163</ele>
        <time>2020-05-14T07:57:13.000Z</time>
      </trkpt>
      <trkpt lat="47.28049" lon="-2.35581">
        <ele>-1.7999999523163</ele>
        <time>2020-05-14T07:57:14.000Z</time>
      </trkpt>
      <trkpt lat="47.28064" lon="-2.35586">
        <ele>-1.7999999523163</ele>
        <time>2020-05-14T07:57:20.000Z</time>
      </trkpt>
      <trkpt lat="47.28071" lon="-2.35597">
        <ele>-1.7999999523163</ele>
        <time>2020-05-14T07:57:25.000Z</time>
      </trkpt>
      <trkpt lat="47.28076" lon="-2.35606">
        <ele>-1.7999999523163</ele>
        <time>2020-05-14T07:57:30.000Z</time>
      </trkpt>
      <trkpt lat="47.28076" lon="-2.35611">
        <ele>-1.7999999523163</ele>
        <time>2020-05-14T07:57:32.000Z</time>
      </trkpt>
      <trkpt lat="47.28075" lon="-2.35622">
        <ele>-1.3999999761581</ele>
        <time>2020-05-14T07:57:37.000Z</time>
      </trkpt>
      <trkpt lat="47.28075" lon="-2.35624">
        <ele>-1</ele>
        <time>2020-05-14T07:57:38.000Z</time>
      </trkpt>
      <trkpt lat="47.28075" lon="-2.35626">
        <ele>-0.60000002384186</ele>
        <time>2020-05-14T07:57:39.000Z</time>
      </trkpt>
      <trkpt lat="47.28075" lon="-2.35628">
        <ele>-0.20000000298023</ele>
        <time>2020-05-14T07:57:40.000Z</time>
      </trkpt>
      <trkpt lat="47.28075" lon="-2.35631">
        <ele>0.20000000298023</ele>
        <time>2020-05-14T07:57:41.000Z</time>
      </trkpt>
      <trkpt lat="47.28075" lon="-2.35633">
        <ele>0.20000000298023</ele>
        <time>2020-05-14T07:57:42.000Z</time>
      </trkpt>
      <trkpt lat="47.28075" lon="-2.35635">
        <ele>0.20000000298023</ele>
        <time>2020-05-14T07:57:43.000Z</time>
      </trkpt>
      <trkpt lat="47.28075" lon="-2.35641">
        <ele>0.60000002384186</ele>
        <time>2020-05-14T07:57:46.000Z</time>
      </trkpt>
      <trkpt lat="47.28075" lon="-2.35643">
        <ele>1</ele>
        <time>2020-05-14T07:57:47.000Z</time>
      </trkpt>
      <trkpt lat="47.28076" lon="-2.35645">
        <ele>1.3999999761581</ele>
        <time>2020-05-14T07:57:48.000Z</time>
      </trkpt>
      <trkpt lat="47.28077" lon="-2.35647">
        <ele>2</ele>
        <time>2020-05-14T07:57:49.000Z</time>
      </trkpt>
      <trkpt lat="47.28077" lon="-2.3565">
        <ele>2.4000000953674</ele>
        <time>2020-05-14T07:57:50.000Z</time>
      </trkpt>
      <trkpt lat="47.2808" lon="-2.35657">
        <ele>2.7999999523163</ele>
        <time>2020-05-14T07:57:53.000Z</time>
      </trkpt>
      <trkpt lat="47.28081" lon="-2.35661">
        <ele>3.2000000476837</ele>
        <time>2020-05-14T07:57:54.000Z</time>
      </trkpt>
      <trkpt lat="47.28083" lon="-2.35663">
        <ele>3.5999999046326</ele>
        <time>2020-05-14T07:57:55.000Z</time>
      </trkpt>
      <trkpt lat="47.28083" lon="-2.35667">
        <ele>4</ele>
        <time>2020-05-14T07:57:56.000Z</time>
      </trkpt>
      <trkpt lat="47.28084" lon="-2.35671">
        <ele>4.4000000953674</ele>
        <time>2020-05-14T07:57:57.000Z</time>
      </trkpt>
      <trkpt lat="47.28091" lon="-2.35691">
        <ele>4.4000000953674</ele>
        <time>2020-05-14T07:58:03.000Z</time>
      </trkpt>
      <trkpt lat="47.28094" lon="-2.35702">
        <ele>4.8000001907349</ele>
        <time>2020-05-14T07:58:08.000Z</time>
      </trkpt>
      <trkpt lat="47.28094" lon="-2.35705">
        <ele>5.1999998092651</ele>
        <time>2020-05-14T07:58:09.000Z</time>
      </trkpt>
      <trkpt lat="47.28095" lon="-2.35707">
        <ele>5.5999999046326</ele>
        <time>2020-05-14T07:58:10.000Z</time>
      </trkpt>
      <trkpt lat="47.28095" lon="-2.35711">
        <ele>6</ele>
        <time>2020-05-14T07:58:11.000Z</time>
      </trkpt>
      <trkpt lat="47.28094" lon="-2.35713">
        <ele>6.4000000953674</ele>
        <time>2020-05-14T07:58:12.000Z</time>
      </trkpt>
      <trkpt lat="47.28091" lon="-2.35723">
        <ele>6.4000000953674</ele>
        <time>2020-05-14T07:58:15.000Z</time>
      </trkpt>
      <trkpt lat="47.28083" lon="-2.35744">
        <ele>6.4000000953674</ele>
        <time>2020-05-14T07:58:19.000Z</time>
      </trkpt>
      <trkpt lat="47.28082" lon="-2.3575">
        <ele>6.4000000953674</ele>
        <time>2020-05-14T07:58:20.000Z</time>
      </trkpt>
      <trkpt lat="47.28082" lon="-2.35769">
        <ele>6.4000000953674</ele>
        <time>2020-05-14T07:58:23.000Z</time>
      </trkpt>
      <trkpt lat="47.28081" lon="-2.3578">
        <ele>6</ele>
        <time>2020-05-14T07:58:26.000Z</time>
      </trkpt>
      <trkpt lat="47.28079" lon="-2.35784">
        <ele>5.5999999046326</ele>
        <time>2020-05-14T07:58:27.000Z</time>
      </trkpt>
      <trkpt lat="47.28078" lon="-2.35787">
        <ele>5.1999998092651</ele>
        <time>2020-05-14T07:58:28.000Z</time>
      </trkpt>
      <trkpt lat="47.28078" lon="-2.35791">
        <ele>4.8000001907349</ele>
        <time>2020-05-14T07:58:29.000Z</time>
      </trkpt>
      <trkpt lat="47.28079" lon="-2.35795">
        <ele>4.4000000953674</ele>
        <time>2020-05-14T07:58:30.000Z</time>
      </trkpt>
      <trkpt lat="47.28081" lon="-2.35805">
        <ele>4</ele>
        <time>2020-05-14T07:58:32.000Z</time>
      </trkpt>
      <trkpt lat="47.28083" lon="-2.3581">
        <ele>3.5999999046326</ele>
        <time>2020-05-14T07:58:33.000Z</time>
      </trkpt>
      <trkpt lat="47.28085" lon="-2.35815">
        <ele>3</ele>
        <time>2020-05-14T07:58:34.000Z</time>
      </trkpt>
      <trkpt lat="47.28087" lon="-2.35821">
        <ele>2.5999999046326</ele>
        <time>2020-05-14T07:58:35.000Z</time>
      </trkpt>
      <trkpt lat="47.28089" lon="-2.35826">
        <ele>2.2000000476837</ele>
        <time>2020-05-14T07:58:36.000Z</time>
      </trkpt>
      <trkpt lat="47.28095" lon="-2.35836">
        <ele>2.2000000476837</ele>
        <time>2020-05-14T07:58:39.000Z</time>
      </trkpt>
      <trkpt lat="47.28113" lon="-2.3586">
        <ele>2.2000000476837</ele>
        <time>2020-05-14T07:58:45.000Z</time>
      </trkpt>
      <trkpt lat="47.28127" lon="-2.35883">
        <ele>2.2000000476837</ele>
        <time>2020-05-14T07:58:51.000Z</time>
      </trkpt>
      <trkpt lat="47.28142" lon="-2.35905">
        <ele>2.2000000476837</ele>
        <time>2020-05-14T07:58:58.000Z</time>
      </trkpt>
      <trkpt lat="47.28155" lon="-2.3593">
        <ele>2.2000000476837</ele>
        <time>2020-05-14T07:59:04.000Z</time>
      </trkpt>
      <trkpt lat="47.28168" lon="-2.35962">
        <ele>1.7999999523163</ele>
        <time>2020-05-14T07:59:10.000Z</time>
      </trkpt>
      <trkpt lat="47.2817" lon="-2.35966">
        <ele>1.3999999761581</ele>
        <time>2020-05-14T07:59:11.000Z</time>
      </trkpt>
      <trkpt lat="47.28171" lon="-2.35971">
        <ele>1</ele>
        <time>2020-05-14T07:59:12.000Z</time>
      </trkpt>
      <trkpt lat="47.28173" lon="-2.35975">
        <ele>0.60000002384186</ele>
        <time>2020-05-14T07:59:13.000Z</time>
      </trkpt>
      <trkpt lat="47.28174" lon="-2.35979">
        <ele>0.20000000298023</ele>
        <time>2020-05-14T07:59:14.000Z</time>
      </trkpt>
      <trkpt lat="47.28177" lon="-2.36001">
        <ele>0.20000000298023</ele>
        <time>2020-05-14T07:59:19.000Z</time>
      </trkpt>
      <trkpt lat="47.28187" lon="-2.36031">
        <ele>0.20000000298023</ele>
        <time>2020-05-14T07:59:26.000Z</time>
      </trkpt>
      <trkpt lat="47.2819" lon="-2.36038">
        <ele>0.20000000298023</ele>
        <time>2020-05-14T07:59:31.000Z</time>
      </trkpt>
      <trkpt lat="47.2819" lon="-2.36038">
        <ele>0.20000000298023</ele>
        <time>2020-05-14T07:59:43.000Z</time>
      </trkpt>
      <trkpt lat="47.28191" lon="-2.36041">
        <ele>0.20000000298023</ele>
        <time>2020-05-14T07:59:53.000Z</time>
      </trkpt>
      <trkpt lat="47.28197" lon="-2.36056">
        <ele>0.20000000298023</ele>
        <time>2020-05-14T07:59:59.000Z</time>
      </trkpt>
      <trkpt lat="47.28204" lon="-2.36083">
        <ele>0.20000000298023</ele>
        <time>2020-05-14T08:00:06.000Z</time>
      </trkpt>
      <trkpt lat="47.28212" lon="-2.36107">
        <ele>0.20000000298023</ele>
        <time>2020-05-14T08:00:12.000Z</time>
      </trkpt>
      <trkpt lat="47.28225" lon="-2.36138">
        <ele>0.20000000298023</ele>
        <time>2020-05-14T08:00:18.000Z</time>
      </trkpt>
      <trkpt lat="47.28235" lon="-2.36167">
        <ele>0.20000000298023</ele>
        <time>2020-05-14T08:00:23.000Z</time>
      </trkpt>
      <trkpt lat="47.28245" lon="-2.36196">
        <ele>0.20000000298023</ele>
        <time>2020-05-14T08:00:29.000Z</time>
      </trkpt>
      <trkpt lat="47.28265" lon="-2.36227">
        <ele>0.20000000298023</ele>
        <time>2020-05-14T08:00:35.000Z</time>
      </trkpt>
      <trkpt lat="47.28288" lon="-2.36246">
        <ele>0.20000000298023</ele>
        <time>2020-05-14T08:00:40.000Z</time>
      </trkpt>
      <trkpt lat="47.28308" lon="-2.36264">
        <ele>0.20000000298023</ele>
        <time>2020-05-14T08:00:45.000Z</time>
      </trkpt>
      <trkpt lat="47.28324" lon="-2.36285">
        <ele>0.20000000298023</ele>
        <time>2020-05-14T08:00:51.000Z</time>
      </trkpt>
      <trkpt lat="47.28336" lon="-2.36302">
        <ele>0.20000000298023</ele>
        <time>2020-05-14T08:00:58.000Z</time>
      </trkpt>
      <trkpt lat="47.28347" lon="-2.3631">
        <ele>0.60000002384186</ele>
        <time>2020-05-14T08:01:02.000Z</time>
      </trkpt>
      <trkpt lat="47.28351" lon="-2.36314">
        <ele>1</ele>
        <time>2020-05-14T08:01:03.000Z</time>
      </trkpt>
      <trkpt lat="47.28353" lon="-2.36316">
        <ele>1.3999999761581</ele>
        <time>2020-05-14T08:01:04.000Z</time>
      </trkpt>
      <trkpt lat="47.28355" lon="-2.36319">
        <ele>2</ele>
        <time>2020-05-14T08:01:05.000Z</time>
      </trkpt>
      <trkpt lat="47.28359" lon="-2.36323">
        <ele>2.4000000953674</ele>
        <time>2020-05-14T08:01:06.000Z</time>
      </trkpt>
      <trkpt lat="47.28366" lon="-2.36331">
        <ele>2.7999999523163</ele>
        <time>2020-05-14T08:01:09.000Z</time>
      </trkpt>
      <trkpt lat="47.28369" lon="-2.36334">
        <ele>3.2000000476837</ele>
        <time>2020-05-14T08:01:10.000Z</time>
      </trkpt>
      <trkpt lat="47.28373" lon="-2.36337">
        <ele>4.1999998092651</ele>
        <time>2020-05-14T08:01:11.000Z</time>
      </trkpt>
      <trkpt lat="47.28375" lon="-2.36343">
        <ele>4.5999999046326</ele>
        <time>2020-05-14T08:01:12.000Z</time>
      </trkpt>
      <trkpt lat="47.28381" lon="-2.36353">
        <ele>4.5999999046326</ele>
        <time>2020-05-14T08:01:15.000Z</time>
      </trkpt>
      <trkpt lat="47.28396" lon="-2.3637">
        <ele>4.5999999046326</ele>
        <time>2020-05-14T08:01:20.000Z</time>
      </trkpt>
      <trkpt lat="47.28414" lon="-2.36387">
        <ele>4.5999999046326</ele>
        <time>2020-05-14T08:01:27.000Z</time>
      </trkpt>
      <trkpt lat="47.28425" lon="-2.36396">
        <ele>4.5999999046326</ele>
        <time>2020-05-14T08:01:33.000Z</time>
      </trkpt>
      <trkpt lat="47.28432" lon="-2.36402">
        <ele>5</ele>
        <time>2020-05-14T08:01:37.000Z</time>
      </trkpt>
      <trkpt lat="47.28434" lon="-2.36405">
        <ele>5.4000000953674</ele>
        <time>2020-05-14T08:01:38.000Z</time>
      </trkpt>
      <trkpt lat="47.28436" lon="-2.36408">
        <ele>5.8000001907349</ele>
        <time>2020-05-14T08:01:39.000Z</time>
      </trkpt>
      <trkpt lat="47.28439" lon="-2.3641">
        <ele>6.1999998092651</ele>
        <time>2020-05-14T08:01:40.000Z</time>
      </trkpt>
      <trkpt lat="47.28441" lon="-2.36412">
        <ele>6.5999999046326</ele>
        <time>2020-05-14T08:01:41.000Z</time>
      </trkpt>
      <trkpt lat="47.2845" lon="-2.3642">
        <ele>7</ele>
        <time>2020-05-14T08:01:46.000Z</time>
      </trkpt>
      <trkpt lat="47.28451" lon="-2.36421">
        <ele>7.4000000953674</ele>
        <time>2020-05-14T08:01:47.000Z</time>
      </trkpt>
      <trkpt lat="47.28453" lon="-2.36421">
        <ele>7.8000001907349</ele>
        <time>2020-05-14T08:01:48.000Z</time>
      </trkpt>
      <trkpt lat="47.28455" lon="-2.36422">
        <ele>8.3999996185303</ele>
        <time>2020-05-14T08:01:49.000Z</time>
      </trkpt>
      <trkpt lat="47.28457" lon="-2.36423">
        <ele>8.8000001907349</ele>
        <time>2020-05-14T08:01:50.000Z</time>
      </trkpt>
      <trkpt lat="47.2846" lon="-2.36424">
        <ele>8.8000001907349</ele>
        <time>2020-05-14T08:01:52.000Z</time>
      </trkpt>
      <trkpt lat="47.28476" lon="-2.3644">
        <ele>8.8000001907349</ele>
        <time>2020-05-14T08:01:56.000Z</time>
      </trkpt>
      <trkpt lat="47.28501" lon="-2.36461">
        <ele>8.8000001907349</ele>
        <time>2020-05-14T08:02:02.000Z</time>
      </trkpt>
      <trkpt lat="47.28505" lon="-2.36483">
        <ele>8.8000001907349</ele>
        <time>2020-05-14T08:02:07.000Z</time>
      </trkpt>
      <trkpt lat="47.28506" lon="-2.36504">
        <ele>8.8000001907349</ele>
        <time>2020-05-14T08:02:12.000Z</time>
      </trkpt>
      <trkpt lat="47.285" lon="-2.36526">
        <ele>8.3999996185303</ele>
        <time>2020-05-14T08:02:17.000Z</time>
      </trkpt>
      <trkpt lat="47.28498" lon="-2.3653">
        <ele>8</ele>
        <time>2020-05-14T08:02:18.000Z</time>
      </trkpt>
      <trkpt lat="47.28496" lon="-2.36535">
        <ele>7.5999999046326</ele>
        <time>2020-05-14T08:02:19.000Z</time>
      </trkpt>
      <trkpt lat="47.28493" lon="-2.36541">
        <ele>7.1999998092651</ele>
        <time>2020-05-14T08:02:20.000Z</time>
      </trkpt>
      <trkpt lat="47.2849" lon="-2.36546">
        <ele>6.8000001907349</ele>
        <time>2020-05-14T08:02:21.000Z</time>
      </trkpt>
      <trkpt lat="47.28486" lon="-2.3655">
        <ele>6.8000001907349</ele>
        <time>2020-05-14T08:02:22.000Z</time>
      </trkpt>
      <trkpt lat="47.28483" lon="-2.36556">
        <ele>6.8000001907349</ele>
        <time>2020-05-14T08:02:23.000Z</time>
      </trkpt>
      <trkpt lat="47.2848" lon="-2.36563">
        <ele>6.8000001907349</ele>
        <time>2020-05-14T08:02:24.000Z</time>
      </trkpt>
      <trkpt lat="47.28474" lon="-2.36575">
        <ele>6.4000000953674</ele>
        <time>2020-05-14T08:02:26.000Z</time>
      </trkpt>
      <trkpt lat="47.28475" lon="-2.36581">
        <ele>5.8000001907349</ele>
        <time>2020-05-14T08:02:27.000Z</time>
      </trkpt>
      <trkpt lat="47.28477" lon="-2.36588">
        <ele>5.4000000953674</ele>
        <time>2020-05-14T08:02:28.000Z</time>
      </trkpt>
      <trkpt lat="47.28479" lon="-2.36594">
        <ele>5</ele>
        <time>2020-05-14T08:02:29.000Z</time>
      </trkpt>
      <trkpt lat="47.2848" lon="-2.36601">
        <ele>4.5999999046326</ele>
        <time>2020-05-14T08:02:30.000Z</time>
      </trkpt>
      <trkpt lat="47.28482" lon="-2.36607">
        <ele>4.5999999046326</ele>
        <time>2020-05-14T08:02:31.000Z</time>
      </trkpt>
      <trkpt lat="47.28491" lon="-2.36654">
        <ele>4.5999999046326</ele>
        <time>2020-05-14T08:02:39.000Z</time>
      </trkpt>
      <trkpt lat="47.28503" lon="-2.36667">
        <ele>4.5999999046326</ele>
        <time>2020-05-14T08:02:43.000Z</time>
      </trkpt>
      <trkpt lat="47.28513" lon="-2.36667">
        <ele>4.5999999046326</ele>
        <time>2020-05-14T08:02:47.000Z</time>
      </trkpt>
      <trkpt lat="47.28514" lon="-2.36668">
        <ele>4.5999999046326</ele>
        <time>2020-05-14T08:02:51.000Z</time>
      </trkpt>
      <trkpt lat="47.28514" lon="-2.36668">
        <ele>4.5999999046326</ele>
        <time>2020-05-14T08:03:02.000Z</time>
      </trkpt>
      <trkpt lat="47.28514" lon="-2.36668">
        <ele>4.5999999046326</ele>
        <time>2020-05-14T08:03:09.000Z</time>
      </trkpt>
      <trkpt lat="47.28514" lon="-2.36668">
        <ele>4.5999999046326</ele>
        <time>2020-05-14T08:03:19.000Z</time>
      </trkpt>
      <trkpt lat="47.28514" lon="-2.36668">
        <ele>4.5999999046326</ele>
        <time>2020-05-14T08:03:29.000Z</time>
      </trkpt>
      <trkpt lat="47.28514" lon="-2.36668">
        <ele>4.5999999046326</ele>
        <time>2020-05-14T08:03:44.000Z</time>
      </trkpt>
      <trkpt lat="47.28514" lon="-2.36668">
        <ele>4.5999999046326</ele>
        <time>2020-05-14T08:03:56.000Z</time>
      </trkpt>
      <trkpt lat="47.28514" lon="-2.36668">
        <ele>4.5999999046326</ele>
        <time>2020-05-14T08:04:10.000Z</time>
      </trkpt>
      <trkpt lat="47.28514" lon="-2.36668">
        <ele>4.5999999046326</ele>
        <time>2020-05-14T08:04:20.000Z</time>
      </trkpt>
      <trkpt lat="47.28514" lon="-2.36668">
        <ele>4.5999999046326</ele>
        <time>2020-05-14T08:04:34.000Z</time>
      </trkpt>
      <trkpt lat="47.28514" lon="-2.36668">
        <ele>4.5999999046326</ele>
        <time>2020-05-14T08:04:45.000Z</time>
      </trkpt>
      <trkpt lat="47.28514" lon="-2.36668">
        <ele>4.5999999046326</ele>
        <time>2020-05-14T08:04:58.000Z</time>
      </trkpt>
      <trkpt lat="47.28515" lon="-2.36668">
        <ele>4.5999999046326</ele>
        <time>2020-05-14T08:05:10.000Z</time>
      </trkpt>
      <trkpt lat="47.28515" lon="-2.36668">
        <ele>4.5999999046326</ele>
        <time>2020-05-14T08:05:21.000Z</time>
      </trkpt>
      <trkpt lat="47.28515" lon="-2.36668">
        <ele>4.5999999046326</ele>
        <time>2020-05-14T08:05:35.000Z</time>
      </trkpt>
      <trkpt lat="47.28515" lon="-2.36668">
        <ele>4.5999999046326</ele>
        <time>2020-05-14T08:05:48.000Z</time>
      </trkpt>
      <trkpt lat="47.28515" lon="-2.36668">
        <ele>4.5999999046326</ele>
        <time>2020-05-14T08:06:00.000Z</time>
      </trkpt>
      <trkpt lat="47.28515" lon="-2.36668">
        <ele>4.5999999046326</ele>
        <time>2020-05-14T08:06:12.000Z</time>
      </trkpt>
      <trkpt lat="47.28515" lon="-2.36668">
        <ele>4.5999999046326</ele>
        <time>2020-05-14T08:06:25.000Z</time>
      </trkpt>
      <trkpt lat="47.28514" lon="-2.36668">
        <ele>4.5999999046326</ele>
        <time>2020-05-14T08:06:38.000Z</time>
      </trkpt>
      <trkpt lat="47.28514" lon="-2.36668">
        <ele>4.5999999046326</ele>
        <time>2020-05-14T08:06:50.000Z</time>
      </trkpt>
      <trkpt lat="47.28514" lon="-2.36668">
        <ele>4.1999998092651</ele>
        <time>2020-05-14T08:07:03.000Z</time>
      </trkpt>
      <trkpt lat="47.28514" lon="-2.36668">
        <ele>3.7999999523163</ele>
        <time>2020-05-14T08:07:04.000Z</time>
      </trkpt>
      <trkpt lat="47.28514" lon="-2.36668">
        <ele>3.4000000953674</ele>
        <time>2020-05-14T08:07:05.000Z</time>
      </trkpt>
      <trkpt lat="47.28514" lon="-2.36668">
        <ele>2.7999999523163</ele>
        <time>2020-05-14T08:07:06.000Z</time>
      </trkpt>
      <trkpt lat="47.28514" lon="-2.36668">
        <ele>2.4000000953674</ele>
        <time>2020-05-14T08:07:07.000Z</time>
      </trkpt>
      <trkpt lat="47.28514" lon="-2.36668">
        <ele>2.4000000953674</ele>
        <time>2020-05-14T08:07:15.000Z</time>
      </trkpt>
      <trkpt lat="47.28514" lon="-2.36668">
        <ele>2.4000000953674</ele>
        <time>2020-05-14T08:07:27.000Z</time>
      </trkpt>
      <trkpt lat="47.28515" lon="-2.36672">
        <ele>2.4000000953674</ele>
        <time>2020-05-14T08:07:35.000Z</time>
      </trkpt>
      <trkpt lat="47.28516" lon="-2.36693">
        <ele>2.4000000953674</ele>
        <time>2020-05-14T08:07:39.000Z</time>
      </trkpt>
      <trkpt lat="47.2853" lon="-2.36723">
        <ele>2.4000000953674</ele>
        <time>2020-05-14T08:07:43.000Z</time>
      </trkpt>
      <trkpt lat="47.28557" lon="-2.36775">
        <ele>2.4000000953674</ele>
        <time>2020-05-14T08:07:49.000Z</time>
      </trkpt>
      <trkpt lat="47.28567" lon="-2.36791">
        <ele>2</ele>
        <time>2020-05-14T08:07:51.000Z</time>
      </trkpt>
      <trkpt lat="47.28571" lon="-2.36799">
        <ele>1.6000000238419</ele>
        <time>2020-05-14T08:07:52.000Z</time>
      </trkpt>
      <trkpt lat="47.28576" lon="-2.36807">
        <ele>1.2000000476837</ele>
        <time>2020-05-14T08:07:53.000Z</time>
      </trkpt>
      <trkpt lat="47.2858" lon="-2.36815">
        <ele>0.80000001192093</ele>
        <time>2020-05-14T08:07:54.000Z</time>
      </trkpt>
      <trkpt lat="47.28584" lon="-2.36822">
        <ele>0.20000000298023</ele>
        <time>2020-05-14T08:07:55.000Z</time>
      </trkpt>
      <trkpt lat="47.28589" lon="-2.36829">
        <ele>0.20000000298023</ele>
        <time>2020-05-14T08:07:56.000Z</time>
      </trkpt>
      <trkpt lat="47.28601" lon="-2.36846">
        <ele>0.20000000298023</ele>
        <time>2020-05-14T08:07:59.000Z</time>
      </trkpt>
      <trkpt lat="47.28606" lon="-2.36849">
        <ele>-0.20000000298023</ele>
        <time>2020-05-14T08:08:00.000Z</time>
      </trkpt>
      <trkpt lat="47.2861" lon="-2.36848">
        <ele>-0.60000002384186</ele>
        <time>2020-05-14T08:08:01.000Z</time>
      </trkpt>
      <trkpt lat="47.28616" lon="-2.36843">
        <ele>-1</ele>
        <time>2020-05-14T08:08:02.000Z</time>
      </trkpt>
      <trkpt lat="47.2862" lon="-2.36839">
        <ele>-1.3999999761581</ele>
        <time>2020-05-14T08:08:03.000Z</time>
      </trkpt>
      <trkpt lat="47.28625" lon="-2.36833">
        <ele>-1.7999999523163</ele>
        <time>2020-05-14T08:08:04.000Z</time>
      </trkpt>
      <trkpt lat="47.28629" lon="-2.36829">
        <ele>-1.7999999523163</ele>
        <time>2020-05-14T08:08:05.000Z</time>
      </trkpt>
      <trkpt lat="47.28648" lon="-2.36805">
        <ele>-1.7999999523163</ele>
        <time>2020-05-14T08:08:10.000Z</time>
      </trkpt>
      <trkpt lat="47.28651" lon="-2.368">
        <ele>-1.7999999523163</ele>
        <time>2020-05-14T08:08:11.000Z</time>
      </trkpt>
      <trkpt lat="47.28663" lon="-2.36793">
        <ele>-1.7999999523163</ele>
        <time>2020-05-14T08:08:15.000Z</time>
      </trkpt>
      <trkpt lat="47.28668" lon="-2.36805">
        <ele>-1.7999999523163</ele>
        <time>2020-05-14T08:08:19.000Z</time>
      </trkpt>
      <trkpt lat="47.2867" lon="-2.36812">
        <ele>-1.7999999523163</ele>
        <time>2020-05-14T08:08:21.000Z</time>
      </trkpt>
      <trkpt lat="47.28673" lon="-2.36827">
        <ele>-1.7999999523163</ele>
        <time>2020-05-14T08:08:24.000Z</time>
      </trkpt>
      <trkpt lat="47.28676" lon="-2.36832">
        <ele>-1.7999999523163</ele>
        <time>2020-05-14T08:08:25.000Z</time>
      </trkpt>
      <trkpt lat="47.28687" lon="-2.36861">
        <ele>-1.7999999523163</ele>
        <time>2020-05-14T08:08:30.000Z</time>
      </trkpt>
      <trkpt lat="47.28691" lon="-2.36867">
        <ele>-1.7999999523163</ele>
        <time>2020-05-14T08:08:31.000Z</time>
      </trkpt>
      <trkpt lat="47.28701" lon="-2.36887">
        <ele>-2.2000000476837</ele>
        <time>2020-05-14T08:08:34.000Z</time>
      </trkpt>
      <trkpt lat="47.28705" lon="-2.36893">
        <ele>-3</ele>
        <time>2020-05-14T08:08:35.000Z</time>
      </trkpt>
      <trkpt lat="47.28708" lon="-2.36896">
        <ele>-3.5999999046326</ele>
        <time>2020-05-14T08:08:36.000Z</time>
      </trkpt>
      <trkpt lat="47.28711" lon="-2.369">
        <ele>-4.1999998092651</ele>
        <time>2020-05-14T08:08:37.000Z</time>
      </trkpt>
      <trkpt lat="47.28715" lon="-2.36902">
        <ele>-4.8000001907349</ele>
        <time>2020-05-14T08:08:38.000Z</time>
      </trkpt>
      <trkpt lat="47.28717" lon="-2.36902">
        <ele>-5.4000000953674</ele>
        <time>2020-05-14T08:08:39.000Z</time>
      </trkpt>
      <trkpt lat="47.28721" lon="-2.369">
        <ele>-6</ele>
        <time>2020-05-14T08:08:40.000Z</time>
      </trkpt>
      <trkpt lat="47.28729" lon="-2.36897">
        <ele>-6.4000000953674</ele>
        <time>2020-05-14T08:08:42.000Z</time>
      </trkpt>
      <trkpt lat="47.28733" lon="-2.36895">
        <ele>-6.8000001907349</ele>
        <time>2020-05-14T08:08:43.000Z</time>
      </trkpt>
      <trkpt lat="47.28736" lon="-2.36893">
        <ele>-7.1999998092651</ele>
        <time>2020-05-14T08:08:44.000Z</time>
      </trkpt>
      <trkpt lat="47.2874" lon="-2.36891">
        <ele>-7.5999999046326</ele>
        <time>2020-05-14T08:08:45.000Z</time>
      </trkpt>
      <trkpt lat="47.28744" lon="-2.3689">
        <ele>-8</ele>
        <time>2020-05-14T08:08:46.000Z</time>
      </trkpt>
      <trkpt lat="47.28749" lon="-2.36893">
        <ele>-8</ele>
        <time>2020-05-14T08:08:47.000Z</time>
      </trkpt>
      <trkpt lat="47.28755" lon="-2.36896">
        <ele>-8.6000003814697</ele>
        <time>2020-05-14T08:08:48.000Z</time>
      </trkpt>
      <trkpt lat="47.2876" lon="-2.36902">
        <ele>-9</ele>
        <time>2020-05-14T08:08:49.000Z</time>
      </trkpt>
      <trkpt lat="47.28764" lon="-2.36908">
        <ele>-9.3999996185303</ele>
        <time>2020-05-14T08:08:50.000Z</time>
      </trkpt>
      <trkpt lat="47.28769" lon="-2.36916">
        <ele>-9.8000001907349</ele>
        <time>2020-05-14T08:08:51.000Z</time>
      </trkpt>
      <trkpt lat="47.28773" lon="-2.36923">
        <ele>-10.199999809265</ele>
        <time>2020-05-14T08:08:52.000Z</time>
      </trkpt>
      <trkpt lat="47.28776" lon="-2.36931">
        <ele>-10.199999809265</ele>
        <time>2020-05-14T08:08:53.000Z</time>
      </trkpt>
      <trkpt lat="47.28798" lon="-2.36993">
        <ele>-10.199999809265</ele>
        <time>2020-05-14T08:09:01.000Z</time>
      </trkpt>
      <trkpt lat="47.28812" lon="-2.3703">
        <ele>-10.800000190735</ele>
        <time>2020-05-14T08:09:06.000Z</time>
      </trkpt>
      <trkpt lat="47.28814" lon="-2.37038">
        <ele>-11.199999809265</ele>
        <time>2020-05-14T08:09:07.000Z</time>
      </trkpt>
      <trkpt lat="47.28816" lon="-2.37045">
        <ele>-11.60000038147</ele>
        <time>2020-05-14T08:09:08.000Z</time>
      </trkpt>
      <trkpt lat="47.28818" lon="-2.37051">
        <ele>-12</ele>
        <time>2020-05-14T08:09:09.000Z</time>
      </trkpt>
      <trkpt lat="47.28821" lon="-2.37056">
        <ele>-12.39999961853</ele>
        <time>2020-05-14T08:09:10.000Z</time>
      </trkpt>
      <trkpt lat="47.28826" lon="-2.37065">
        <ele>-12.39999961853</ele>
        <time>2020-05-14T08:09:12.000Z</time>
      </trkpt>
      <trkpt lat="47.28834" lon="-2.37096">
        <ele>-12.39999961853</ele>
        <time>2020-05-14T08:09:18.000Z</time>
      </trkpt>
      <trkpt lat="47.28832" lon="-2.3712">
        <ele>-12.39999961853</ele>
        <time>2020-05-14T08:09:22.000Z</time>
      </trkpt>
      <trkpt lat="47.28831" lon="-2.3714">
        <ele>-12.39999961853</ele>
        <time>2020-05-14T08:09:25.000Z</time>
      </trkpt>
      <trkpt lat="47.28833" lon="-2.37154">
        <ele>-12.39999961853</ele>
        <time>2020-05-14T08:09:27.000Z</time>
      </trkpt>
      <trkpt lat="47.28838" lon="-2.3719">
        <ele>-12.39999961853</ele>
        <time>2020-05-14T08:09:32.000Z</time>
      </trkpt>
      <trkpt lat="47.28839" lon="-2.37197">
        <ele>-12.39999961853</ele>
        <time>2020-05-14T08:09:33.000Z</time>
      </trkpt>
      <trkpt lat="47.28845" lon="-2.37234">
        <ele>-12.39999961853</ele>
        <time>2020-05-14T08:09:40.000Z</time>
      </trkpt>
      <trkpt lat="47.28847" lon="-2.37236">
        <ele>-12.800000190735</ele>
        <time>2020-05-14T08:09:41.000Z</time>
      </trkpt>
      <trkpt lat="47.28848" lon="-2.37238">
        <ele>-13.39999961853</ele>
        <time>2020-05-14T08:09:42.000Z</time>
      </trkpt>
      <trkpt lat="47.28848" lon="-2.3724">
        <ele>-13.800000190735</ele>
        <time>2020-05-14T08:09:43.000Z</time>
      </trkpt>
      <trkpt lat="47.28849" lon="-2.37242">
        <ele>-14.199999809265</ele>
        <time>2020-05-14T08:09:44.000Z</time>
      </trkpt>
      <trkpt lat="47.2885" lon="-2.37243">
        <ele>-14.60000038147</ele>
        <time>2020-05-14T08:09:45.000Z</time>
      </trkpt>
      <trkpt lat="47.2885" lon="-2.37244">
        <ele>-14.60000038147</ele>
        <time>2020-05-14T08:09:47.000Z</time>
      </trkpt>
      <trkpt lat="47.2885" lon="-2.37244">
        <ele>-14.60000038147</ele>
        <time>2020-05-14T08:10:01.000Z</time>
      </trkpt>
      <trkpt lat="47.2885" lon="-2.37244">
        <ele>-14.60000038147</ele>
        <time>2020-05-14T08:10:16.000Z</time>
      </trkpt>
      <trkpt lat="47.28851" lon="-2.37244">
        <ele>-14.60000038147</ele>
        <time>2020-05-14T08:10:35.000Z</time>
      </trkpt>
      <trkpt lat="47.28851" lon="-2.37244">
        <ele>-14.60000038147</ele>
        <time>2020-05-14T08:10:48.000Z</time>
      </trkpt>
      <trkpt lat="47.28851" lon="-2.37244">
        <ele>-14.60000038147</ele>
        <time>2020-05-14T08:11:05.000Z</time>
      </trkpt>
      <trkpt lat="47.28851" lon="-2.37246">
        <ele>-14.60000038147</ele>
        <time>2020-05-14T08:11:24.000Z</time>
      </trkpt>
      <trkpt lat="47.28851" lon="-2.37246">
        <ele>-14.60000038147</ele>
        <time>2020-05-14T08:11:37.000Z</time>
      </trkpt>
      <trkpt lat="47.28851" lon="-2.37246">
        <ele>-14.60000038147</ele>
        <time>2020-05-14T08:11:50.000Z</time>
      </trkpt>
      <trkpt lat="47.28851" lon="-2.37246">
        <ele>-14.60000038147</ele>
        <time>2020-05-14T08:12:03.000Z</time>
      </trkpt>
      <trkpt lat="47.28851" lon="-2.37246">
        <ele>-14.60000038147</ele>
        <time>2020-05-14T08:12:16.000Z</time>
      </trkpt>
      <trkpt lat="47.28851" lon="-2.37246">
        <ele>-14.60000038147</ele>
        <time>2020-05-14T08:12:29.000Z</time>
      </trkpt>
      <trkpt lat="47.28851" lon="-2.37246">
        <ele>-14.60000038147</ele>
        <time>2020-05-14T08:12:43.000Z</time>
      </trkpt>
      <trkpt lat="47.28851" lon="-2.37246">
        <ele>-14.60000038147</ele>
        <time>2020-05-14T08:12:52.000Z</time>
      </trkpt>
      <trkpt lat="47.28851" lon="-2.37246">
        <ele>-14.60000038147</ele>
        <time>2020-05-14T08:13:05.000Z</time>
      </trkpt>
      <trkpt lat="47.28851" lon="-2.37246">
        <ele>-14.60000038147</ele>
        <time>2020-05-14T08:13:17.000Z</time>
      </trkpt>
      <trkpt lat="47.28851" lon="-2.37246">
        <ele>-14.60000038147</ele>
        <time>2020-05-14T08:13:28.000Z</time>
      </trkpt>
      <trkpt lat="47.28851" lon="-2.37246">
        <ele>-14.60000038147</ele>
        <time>2020-05-14T08:13:42.000Z</time>
      </trkpt>
      <trkpt lat="47.28853" lon="-2.37252">
        <ele>-14.60000038147</ele>
        <time>2020-05-14T08:13:51.000Z</time>
      </trkpt>
      <trkpt lat="47.28855" lon="-2.37273">
        <ele>-14.60000038147</ele>
        <time>2020-05-14T08:13:55.000Z</time>
      </trkpt>
      <trkpt lat="47.28859" lon="-2.37305">
        <ele>-14.60000038147</ele>
        <time>2020-05-14T08:14:00.000Z</time>
      </trkpt>
      <trkpt lat="47.28864" lon="-2.37341">
        <ele>-14.60000038147</ele>
        <time>2020-05-14T08:14:06.000Z</time>
      </trkpt>
      <trkpt lat="47.28868" lon="-2.3739">
        <ele>-14.60000038147</ele>
        <time>2020-05-14T08:14:13.000Z</time>
      </trkpt>
      <trkpt lat="47.28876" lon="-2.37446">
        <ele>-14.60000038147</ele>
        <time>2020-05-14T08:14:21.000Z</time>
      </trkpt>
      <trkpt lat="47.28883" lon="-2.37503">
        <ele>-14.60000038147</ele>
        <time>2020-05-14T08:14:29.000Z</time>
      </trkpt>
      <trkpt lat="47.28885" lon="-2.37539">
        <ele>-14.60000038147</ele>
        <time>2020-05-14T08:14:35.000Z</time>
      </trkpt>
      <trkpt lat="47.28879" lon="-2.37549">
        <ele>-14.60000038147</ele>
        <time>2020-05-14T08:14:39.000Z</time>
      </trkpt>
      <trkpt lat="47.2888" lon="-2.3755">
        <ele>-14.60000038147</ele>
        <time>2020-05-14T08:14:43.000Z</time>
      </trkpt>
      <trkpt lat="47.28881" lon="-2.37549">
        <ele>-14.60000038147</ele>
        <time>2020-05-14T08:14:44.000Z</time>
      </trkpt>
      <trkpt lat="47.28891" lon="-2.37552">
        <ele>-14.60000038147</ele>
        <time>2020-05-14T08:14:48.000Z</time>
      </trkpt>
      <trkpt lat="47.28896" lon="-2.3756">
        <ele>-14.60000038147</ele>
        <time>2020-05-14T08:14:50.000Z</time>
      </trkpt>
      <trkpt lat="47.28899" lon="-2.37567">
        <ele>-14.60000038147</ele>
        <time>2020-05-14T08:14:51.000Z</time>
      </trkpt>
      <trkpt lat="47.28903" lon="-2.3759">
        <ele>-14.60000038147</ele>
        <time>2020-05-14T08:14:54.000Z</time>
      </trkpt>
      <trkpt lat="47.28905" lon="-2.37606">
        <ele>-14.60000038147</ele>
        <time>2020-05-14T08:14:56.000Z</time>
      </trkpt>
      <trkpt lat="47.28909" lon="-2.37638">
        <ele>-14.60000038147</ele>
        <time>2020-05-14T08:15:00.000Z</time>
      </trkpt>
      <trkpt lat="47.28913" lon="-2.37648">
        <ele>-14.60000038147</ele>
        <time>2020-05-14T08:15:02.000Z</time>
      </trkpt>
      <trkpt lat="47.28924" lon="-2.37651">
        <ele>-14.60000038147</ele>
        <time>2020-05-14T08:15:05.000Z</time>
      </trkpt>
      <trkpt lat="47.28927" lon="-2.37652">
        <ele>-14.60000038147</ele>
        <time>2020-05-14T08:15:06.000Z</time>
      </trkpt>
      <trkpt lat="47.28932" lon="-2.3766">
        <ele>-14.60000038147</ele>
        <time>2020-05-14T08:15:08.000Z</time>
      </trkpt>
      <trkpt lat="47.28936" lon="-2.37681">
        <ele>-14.60000038147</ele>
        <time>2020-05-14T08:15:12.000Z</time>
      </trkpt>
      <trkpt lat="47.28936" lon="-2.37687">
        <ele>-14.60000038147</ele>
        <time>2020-05-14T08:15:13.000Z</time>
      </trkpt>
      <trkpt lat="47.28936" lon="-2.377">
        <ele>-15</ele>
        <time>2020-05-14T08:15:16.000Z</time>
      </trkpt>
      <trkpt lat="47.28936" lon="-2.37702">
        <ele>-15.39999961853</ele>
        <time>2020-05-14T08:15:17.000Z</time>
      </trkpt>
      <trkpt lat="47.28936" lon="-2.37703">
        <ele>-15.800000190735</ele>
        <time>2020-05-14T08:15:18.000Z</time>
      </trkpt>
      <trkpt lat="47.28936" lon="-2.37705">
        <ele>-16.200000762939</ele>
        <time>2020-05-14T08:15:19.000Z</time>
      </trkpt>
      <trkpt lat="47.28936" lon="-2.37706">
        <ele>-16.799999237061</ele>
        <time>2020-05-14T08:15:20.000Z</time>
      </trkpt>
      <trkpt lat="47.28935" lon="-2.37718">
        <ele>-16.799999237061</ele>
        <time>2020-05-14T08:15:27.000Z</time>
      </trkpt>
      <trkpt lat="47.28935" lon="-2.37718">
        <ele>-16.799999237061</ele>
        <time>2020-05-14T08:15:33.000Z</time>
      </trkpt>
      <trkpt lat="47.28935" lon="-2.37718">
        <ele>-16.799999237061</ele>
        <time>2020-05-14T08:15:50.000Z</time>
      </trkpt>
      <trkpt lat="47.28935" lon="-2.37718">
        <ele>-16.799999237061</ele>
        <time>2020-05-14T08:16:07.000Z</time>
      </trkpt>
      <trkpt lat="47.28935" lon="-2.37718">
        <ele>-16.799999237061</ele>
        <time>2020-05-14T08:16:24.000Z</time>
      </trkpt>
      <trkpt lat="47.28935" lon="-2.37718">
        <ele>-16.799999237061</ele>
        <time>2020-05-14T08:16:34.000Z</time>
      </trkpt>
      <trkpt lat="47.28935" lon="-2.37718">
        <ele>-16.799999237061</ele>
        <time>2020-05-14T08:16:44.000Z</time>
      </trkpt>
      <trkpt lat="47.28935" lon="-2.37718">
        <ele>-16.799999237061</ele>
        <time>2020-05-14T08:16:48.000Z</time>
      </trkpt>
      <trkpt lat="47.28934" lon="-2.37723">
        <ele>-16.799999237061</ele>
        <time>2020-05-14T08:16:52.000Z</time>
      </trkpt>
      <trkpt lat="47.28935" lon="-2.37742">
        <ele>-16.799999237061</ele>
        <time>2020-05-14T08:16:59.000Z</time>
      </trkpt>
      <trkpt lat="47.28933" lon="-2.37755">
        <ele>-16.799999237061</ele>
        <time>2020-05-14T08:17:05.000Z</time>
      </trkpt>
      <trkpt lat="47.28932" lon="-2.3776">
        <ele>-16.799999237061</ele>
        <time>2020-05-14T08:17:07.000Z</time>
      </trkpt>
      <trkpt lat="47.28928" lon="-2.37757">
        <ele>-16.799999237061</ele>
        <time>2020-05-14T08:17:09.000Z</time>
      </trkpt>
      <trkpt lat="47.28929" lon="-2.37744">
        <ele>-16.799999237061</ele>
        <time>2020-05-14T08:17:12.000Z</time>
      </trkpt>
      <trkpt lat="47.28932" lon="-2.37711">
        <ele>-16.799999237061</ele>
        <time>2020-05-14T08:17:18.000Z</time>
      </trkpt>
      <trkpt lat="47.28935" lon="-2.37671">
        <ele>-16.799999237061</ele>
        <time>2020-05-14T08:17:25.000Z</time>
      </trkpt>
      <trkpt lat="47.2893" lon="-2.37652">
        <ele>-16.799999237061</ele>
        <time>2020-05-14T08:17:30.000Z</time>
      </trkpt>
      <trkpt lat="47.2892" lon="-2.37649">
        <ele>-16.799999237061</ele>
        <time>2020-05-14T08:17:35.000Z</time>
      </trkpt>
      <trkpt lat="47.28908" lon="-2.37648">
        <ele>-16.799999237061</ele>
        <time>2020-05-14T08:17:41.000Z</time>
      </trkpt>
      <trkpt lat="47.28906" lon="-2.37636">
        <ele>-16.799999237061</ele>
        <time>2020-05-14T08:17:45.000Z</time>
      </trkpt>
      <trkpt lat="47.28907" lon="-2.37632">
        <ele>-16.799999237061</ele>
        <time>2020-05-14T08:17:46.000Z</time>
      </trkpt>
      <trkpt lat="47.28903" lon="-2.37603">
        <ele>-16.799999237061</ele>
        <time>2020-05-14T08:17:53.000Z</time>
      </trkpt>
      <trkpt lat="47.28899" lon="-2.37577">
        <ele>-16.799999237061</ele>
        <time>2020-05-14T08:18:00.000Z</time>
      </trkpt>
      <trkpt lat="47.28893" lon="-2.37554">
        <ele>-16.799999237061</ele>
        <time>2020-05-14T08:18:07.000Z</time>
      </trkpt>
      <trkpt lat="47.28889" lon="-2.37544">
        <ele>-16.799999237061</ele>
        <time>2020-05-14T08:18:12.000Z</time>
      </trkpt>
      <trkpt lat="47.28889" lon="-2.37544">
        <ele>-16.799999237061</ele>
        <time>2020-05-14T08:18:24.000Z</time>
      </trkpt>
      <trkpt lat="47.28889" lon="-2.37544">
        <ele>-16.799999237061</ele>
        <time>2020-05-14T08:18:25.000Z</time>
      </trkpt>
      <trkpt lat="47.28886" lon="-2.37541">
        <ele>-16.799999237061</ele>
        <time>2020-05-14T08:18:34.000Z</time>
      </trkpt>
      <trkpt lat="47.28882" lon="-2.37536">
        <ele>-16.799999237061</ele>
        <time>2020-05-14T08:18:37.000Z</time>
      </trkpt>
      <trkpt lat="47.28882" lon="-2.3753">
        <ele>-16.799999237061</ele>
        <time>2020-05-14T08:18:39.000Z</time>
      </trkpt>
      <trkpt lat="47.28883" lon="-2.37529">
        <ele>-16.799999237061</ele>
        <time>2020-05-14T08:18:43.000Z</time>
      </trkpt>
      <trkpt lat="47.28883" lon="-2.37529">
        <ele>-16.799999237061</ele>
        <time>2020-05-14T08:18:57.000Z</time>
      </trkpt>
      <trkpt lat="47.28883" lon="-2.37529">
        <ele>-16.799999237061</ele>
        <time>2020-05-14T08:19:00.000Z</time>
      </trkpt>
      <trkpt lat="47.28886" lon="-2.37534">
        <ele>-16.799999237061</ele>
        <time>2020-05-14T08:19:02.000Z</time>
      </trkpt>
      <trkpt lat="47.28889" lon="-2.37546">
        <ele>-16.799999237061</ele>
        <time>2020-05-14T08:19:05.000Z</time>
      </trkpt>
      <trkpt lat="47.2889" lon="-2.37551">
        <ele>-16.799999237061</ele>
        <time>2020-05-14T08:19:06.000Z</time>
      </trkpt>
      <trkpt lat="47.28898" lon="-2.37578">
        <ele>-16.799999237061</ele>
        <time>2020-05-14T08:19:11.000Z</time>
      </trkpt>
      <trkpt lat="47.289" lon="-2.37585">
        <ele>-16.799999237061</ele>
        <time>2020-05-14T08:19:12.000Z</time>
      </trkpt>
      <trkpt lat="47.28901" lon="-2.37591">
        <ele>-16.799999237061</ele>
        <time>2020-05-14T08:19:13.000Z</time>
      </trkpt>
      <trkpt lat="47.28905" lon="-2.37625">
        <ele>-16.799999237061</ele>
        <time>2020-05-14T08:19:18.000Z</time>
      </trkpt>
      <trkpt lat="47.28905" lon="-2.37631">
        <ele>-16.39999961853</ele>
        <time>2020-05-14T08:19:19.000Z</time>
      </trkpt>
      <trkpt lat="47.28906" lon="-2.37636">
        <ele>-15.60000038147</ele>
        <time>2020-05-14T08:19:20.000Z</time>
      </trkpt>
      <trkpt lat="47.28908" lon="-2.37642">
        <ele>-15.199999809265</ele>
        <time>2020-05-14T08:19:21.000Z</time>
      </trkpt>
      <trkpt lat="47.28911" lon="-2.37646">
        <ele>-14.800000190735</ele>
        <time>2020-05-14T08:19:22.000Z</time>
      </trkpt>
      <trkpt lat="47.28914" lon="-2.37647">
        <ele>-14.800000190735</ele>
        <time>2020-05-14T08:19:23.000Z</time>
      </trkpt>
      <trkpt lat="47.28928" lon="-2.37645">
        <ele>-14.800000190735</ele>
        <time>2020-05-14T08:19:27.000Z</time>
      </trkpt>
      <trkpt lat="47.28935" lon="-2.37649">
        <ele>-14.800000190735</ele>
        <time>2020-05-14T08:19:30.000Z</time>
      </trkpt>
      <trkpt lat="47.28936" lon="-2.37652">
        <ele>-14.800000190735</ele>
        <time>2020-05-14T08:19:31.000Z</time>
      </trkpt>
      <trkpt lat="47.28937" lon="-2.37674">
        <ele>-14.800000190735</ele>
        <time>2020-05-14T08:19:35.000Z</time>
      </trkpt>
      <trkpt lat="47.28936" lon="-2.37681">
        <ele>-14.800000190735</ele>
        <time>2020-05-14T08:19:36.000Z</time>
      </trkpt>
      <trkpt lat="47.28934" lon="-2.3773">
        <ele>-14.800000190735</ele>
        <time>2020-05-14T08:19:43.000Z</time>
      </trkpt>
      <trkpt lat="47.28931" lon="-2.37775">
        <ele>-15.199999809265</ele>
        <time>2020-05-14T08:19:49.000Z</time>
      </trkpt>
      <trkpt lat="47.2893" lon="-2.37783">
        <ele>-15.60000038147</ele>
        <time>2020-05-14T08:19:50.000Z</time>
      </trkpt>
      <trkpt lat="47.2893" lon="-2.37791">
        <ele>-16</ele>
        <time>2020-05-14T08:19:51.000Z</time>
      </trkpt>
      <trkpt lat="47.28929" lon="-2.37798">
        <ele>-16.39999961853</ele>
        <time>2020-05-14T08:19:52.000Z</time>
      </trkpt>
      <trkpt lat="47.28929" lon="-2.37806">
        <ele>-16.799999237061</ele>
        <time>2020-05-14T08:19:53.000Z</time>
      </trkpt>
      <trkpt lat="47.28927" lon="-2.37823">
        <ele>-16.799999237061</ele>
        <time>2020-05-14T08:19:55.000Z</time>
      </trkpt>
      <trkpt lat="47.28925" lon="-2.37838">
        <ele>-16.799999237061</ele>
        <time>2020-05-14T08:19:57.000Z</time>
      </trkpt>
      <trkpt lat="47.28919" lon="-2.37903">
        <ele>-16.799999237061</ele>
        <time>2020-05-14T08:20:05.000Z</time>
      </trkpt>
      <trkpt lat="47.28917" lon="-2.37951">
        <ele>-16.799999237061</ele>
        <time>2020-05-14T08:20:11.000Z</time>
      </trkpt>
      <trkpt lat="47.28913" lon="-2.37999">
        <ele>-16.799999237061</ele>
        <time>2020-05-14T08:20:17.000Z</time>
      </trkpt>
      <trkpt lat="47.28911" lon="-2.38044">
        <ele>-16.799999237061</ele>
        <time>2020-05-14T08:20:23.000Z</time>
      </trkpt>
      <trkpt lat="47.28912" lon="-2.38051">
        <ele>-16.799999237061</ele>
        <time>2020-05-14T08:20:24.000Z</time>
      </trkpt>
      <trkpt lat="47.28924" lon="-2.38085">
        <ele>-16.799999237061</ele>
        <time>2020-05-14T08:20:29.000Z</time>
      </trkpt>
      <trkpt lat="47.28925" lon="-2.38093">
        <ele>-16.799999237061</ele>
        <time>2020-05-14T08:20:30.000Z</time>
      </trkpt>
      <trkpt lat="47.28933" lon="-2.38138">
        <ele>-16.799999237061</ele>
        <time>2020-05-14T08:20:36.000Z</time>
      </trkpt>
      <trkpt lat="47.28937" lon="-2.38169">
        <ele>-16.799999237061</ele>
        <time>2020-05-14T08:20:40.000Z</time>
      </trkpt>
      <trkpt lat="47.28939" lon="-2.38183">
        <ele>-16.799999237061</ele>
        <time>2020-05-14T08:20:42.000Z</time>
      </trkpt>
      <trkpt lat="47.28939" lon="-2.3819">
        <ele>-16.799999237061</ele>
        <time>2020-05-14T08:20:43.000Z</time>
      </trkpt>
      <trkpt lat="47.28942" lon="-2.38242">
        <ele>-16.799999237061</ele>
        <time>2020-05-14T08:20:50.000Z</time>
      </trkpt>
      <trkpt lat="47.2894" lon="-2.38271">
        <ele>-16.799999237061</ele>
        <time>2020-05-14T08:20:54.000Z</time>
      </trkpt>
      <trkpt lat="47.28938" lon="-2.38292">
        <ele>-16.799999237061</ele>
        <time>2020-05-14T08:20:57.000Z</time>
      </trkpt>
      <trkpt lat="47.28937" lon="-2.38319">
        <ele>-16.799999237061</ele>
        <time>2020-05-14T08:21:01.000Z</time>
      </trkpt>
      <trkpt lat="47.28937" lon="-2.38329">
        <ele>-16.799999237061</ele>
        <time>2020-05-14T08:21:03.000Z</time>
      </trkpt>
      <trkpt lat="47.28937" lon="-2.38347">
        <ele>-16.799999237061</ele>
        <time>2020-05-14T08:21:06.000Z</time>
      </trkpt>
      <trkpt lat="47.28938" lon="-2.38361">
        <ele>-16.799999237061</ele>
        <time>2020-05-14T08:21:08.000Z</time>
      </trkpt>
      <trkpt lat="47.28942" lon="-2.38406">
        <ele>-16.799999237061</ele>
        <time>2020-05-14T08:21:15.000Z</time>
      </trkpt>
      <trkpt lat="47.28945" lon="-2.38449">
        <ele>-16.799999237061</ele>
        <time>2020-05-14T08:21:22.000Z</time>
      </trkpt>
      <trkpt lat="47.28947" lon="-2.38467">
        <ele>-16.799999237061</ele>
        <time>2020-05-14T08:21:25.000Z</time>
      </trkpt>
      <trkpt lat="47.28948" lon="-2.38487">
        <ele>-16.799999237061</ele>
        <time>2020-05-14T08:21:28.000Z</time>
      </trkpt>
      <trkpt lat="47.28955" lon="-2.38545">
        <ele>-16.799999237061</ele>
        <time>2020-05-14T08:21:36.000Z</time>
      </trkpt>
      <trkpt lat="47.2896" lon="-2.38604">
        <ele>-16.799999237061</ele>
        <time>2020-05-14T08:21:44.000Z</time>
      </trkpt>
      <trkpt lat="47.28961" lon="-2.38654">
        <ele>-16.799999237061</ele>
        <time>2020-05-14T08:21:51.000Z</time>
      </trkpt>
      <trkpt lat="47.28961" lon="-2.38713">
        <ele>-16.799999237061</ele>
        <time>2020-05-14T08:21:59.000Z</time>
      </trkpt>
      <trkpt lat="47.28962" lon="-2.38765">
        <ele>-16.799999237061</ele>
        <time>2020-05-14T08:22:06.000Z</time>
      </trkpt>
      <trkpt lat="47.28962" lon="-2.38816">
        <ele>-16.799999237061</ele>
        <time>2020-05-14T08:22:13.000Z</time>
      </trkpt>
      <trkpt lat="47.2896" lon="-2.38876">
        <ele>-16.799999237061</ele>
        <time>2020-05-14T08:22:21.000Z</time>
      </trkpt>
      <trkpt lat="47.28957" lon="-2.38933">
        <ele>-16.799999237061</ele>
        <time>2020-05-14T08:22:28.000Z</time>
      </trkpt>
      <trkpt lat="47.28954" lon="-2.38996">
        <ele>-16.799999237061</ele>
        <time>2020-05-14T08:22:36.000Z</time>
      </trkpt>
      <trkpt lat="47.28949" lon="-2.39052">
        <ele>-16.799999237061</ele>
        <time>2020-05-14T08:22:43.000Z</time>
      </trkpt>
      <trkpt lat="47.28948" lon="-2.39069">
        <ele>-16.799999237061</ele>
        <time>2020-05-14T08:22:45.000Z</time>
      </trkpt>
      <trkpt lat="47.28944" lon="-2.39101">
        <ele>-16.799999237061</ele>
        <time>2020-05-14T08:22:49.000Z</time>
      </trkpt>
      <trkpt lat="47.28935" lon="-2.39167">
        <ele>-16.799999237061</ele>
        <time>2020-05-14T08:22:57.000Z</time>
      </trkpt>
      <trkpt lat="47.28936" lon="-2.39216">
        <ele>-16.799999237061</ele>
        <time>2020-05-14T08:23:03.000Z</time>
      </trkpt>
      <trkpt lat="47.28939" lon="-2.39272">
        <ele>-16.799999237061</ele>
        <time>2020-05-14T08:23:10.000Z</time>
      </trkpt>
      <trkpt lat="47.28946" lon="-2.39293">
        <ele>-16.799999237061</ele>
        <time>2020-05-14T08:23:13.000Z</time>
      </trkpt>
      <trkpt lat="47.28953" lon="-2.39303">
        <ele>-16.799999237061</ele>
        <time>2020-05-14T08:23:15.000Z</time>
      </trkpt>
      <trkpt lat="47.28962" lon="-2.39316">
        <ele>-16.799999237061</ele>
        <time>2020-05-14T08:23:19.000Z</time>
      </trkpt>
      <trkpt lat="47.28957" lon="-2.39325">
        <ele>-16.799999237061</ele>
        <time>2020-05-14T08:23:22.000Z</time>
      </trkpt>
      <trkpt lat="47.28947" lon="-2.39341">
        <ele>-16.799999237061</ele>
        <time>2020-05-14T08:23:27.000Z</time>
      </trkpt>
      <trkpt lat="47.28943" lon="-2.39363">
        <ele>-16.799999237061</ele>
        <time>2020-05-14T08:23:32.000Z</time>
      </trkpt>
      <trkpt lat="47.28942" lon="-2.39369">
        <ele>-16.799999237061</ele>
        <time>2020-05-14T08:23:33.000Z</time>
      </trkpt>
      <trkpt lat="47.2894" lon="-2.3939">
        <ele>-16.799999237061</ele>
        <time>2020-05-14T08:23:36.000Z</time>
      </trkpt>
      <trkpt lat="47.28938" lon="-2.39405">
        <ele>-16.799999237061</ele>
        <time>2020-05-14T08:23:38.000Z</time>
      </trkpt>
      <trkpt lat="47.28936" lon="-2.39412">
        <ele>-16.799999237061</ele>
        <time>2020-05-14T08:23:39.000Z</time>
      </trkpt>
      <trkpt lat="47.28933" lon="-2.39427">
        <ele>-17.200000762939</ele>
        <time>2020-05-14T08:23:41.000Z</time>
      </trkpt>
      <trkpt lat="47.28932" lon="-2.39435">
        <ele>-17.60000038147</ele>
        <time>2020-05-14T08:23:42.000Z</time>
      </trkpt>
      <trkpt lat="47.2893" lon="-2.39444">
        <ele>-18</ele>
        <time>2020-05-14T08:23:43.000Z</time>
      </trkpt>
      <trkpt lat="47.28929" lon="-2.39452">
        <ele>-18.39999961853</ele>
        <time>2020-05-14T08:23:44.000Z</time>
      </trkpt>
      <trkpt lat="47.28928" lon="-2.39461">
        <ele>-19</ele>
        <time>2020-05-14T08:23:45.000Z</time>
      </trkpt>
      <trkpt lat="47.28921" lon="-2.39504">
        <ele>-19</ele>
        <time>2020-05-14T08:23:50.000Z</time>
      </trkpt>
      <trkpt lat="47.28919" lon="-2.39521">
        <ele>-19</ele>
        <time>2020-05-14T08:23:52.000Z</time>
      </trkpt>
      <trkpt lat="47.28916" lon="-2.39547">
        <ele>-19</ele>
        <time>2020-05-14T08:23:55.000Z</time>
      </trkpt>
      <trkpt lat="47.28915" lon="-2.39555">
        <ele>-19</ele>
        <time>2020-05-14T08:23:56.000Z</time>
      </trkpt>
      <trkpt lat="47.28905" lon="-2.39615">
        <ele>-19</ele>
        <time>2020-05-14T08:24:03.000Z</time>
      </trkpt>
      <trkpt lat="47.28894" lon="-2.39665">
        <ele>-19</ele>
        <time>2020-05-14T08:24:09.000Z</time>
      </trkpt>
      <trkpt lat="47.28889" lon="-2.39681">
        <ele>-19</ele>
        <time>2020-05-14T08:24:11.000Z</time>
      </trkpt>
      <trkpt lat="47.28881" lon="-2.39704">
        <ele>-19</ele>
        <time>2020-05-14T08:24:14.000Z</time>
      </trkpt>
      <trkpt lat="47.28864" lon="-2.39749">
        <ele>-19</ele>
        <time>2020-05-14T08:24:20.000Z</time>
      </trkpt>
      <trkpt lat="47.28844" lon="-2.39802">
        <ele>-19</ele>
        <time>2020-05-14T08:24:28.000Z</time>
      </trkpt>
      <trkpt lat="47.28836" lon="-2.39833">
        <ele>-19</ele>
        <time>2020-05-14T08:24:33.000Z</time>
      </trkpt>
      <trkpt lat="47.28835" lon="-2.39839">
        <ele>-19</ele>
        <time>2020-05-14T08:24:34.000Z</time>
      </trkpt>
      <trkpt lat="47.2883" lon="-2.39869">
        <ele>-19</ele>
        <time>2020-05-14T08:24:40.000Z</time>
      </trkpt>
      <trkpt lat="47.28826" lon="-2.39877">
        <ele>-19</ele>
        <time>2020-05-14T08:24:43.000Z</time>
      </trkpt>
      <trkpt lat="47.28823" lon="-2.39875">
        <ele>-19</ele>
        <time>2020-05-14T08:24:44.000Z</time>
      </trkpt>
      <trkpt lat="47.2882" lon="-2.39866">
        <ele>-19</ele>
        <time>2020-05-14T08:24:48.000Z</time>
      </trkpt>
      <trkpt lat="47.2882" lon="-2.39858">
        <ele>-19</ele>
        <time>2020-05-14T08:24:51.000Z</time>
      </trkpt>
      <trkpt lat="47.28821" lon="-2.39854">
        <ele>-19</ele>
        <time>2020-05-14T08:24:53.000Z</time>
      </trkpt>
      <trkpt lat="47.28821" lon="-2.39848">
        <ele>-18.39999961853</ele>
        <time>2020-05-14T08:24:57.000Z</time>
      </trkpt>
      <trkpt lat="47.28821" lon="-2.39847">
        <ele>-18</ele>
        <time>2020-05-14T08:24:58.000Z</time>
      </trkpt>
      <trkpt lat="47.2882" lon="-2.39848">
        <ele>-17.200000762939</ele>
        <time>2020-05-14T08:24:59.000Z</time>
      </trkpt>
      <trkpt lat="47.2882" lon="-2.39851">
        <ele>-16.799999237061</ele>
        <time>2020-05-14T08:25:00.000Z</time>
      </trkpt>
      <trkpt lat="47.28819" lon="-2.3986">
        <ele>-16.799999237061</ele>
        <time>2020-05-14T08:25:04.000Z</time>
      </trkpt>
      <trkpt lat="47.28819" lon="-2.39867">
        <ele>-16.799999237061</ele>
        <time>2020-05-14T08:25:08.000Z</time>
      </trkpt>
      <trkpt lat="47.2882" lon="-2.39866">
        <ele>-16.799999237061</ele>
        <time>2020-05-14T08:25:10.000Z</time>
      </trkpt>
      <trkpt lat="47.28821" lon="-2.39858">
        <ele>-16.39999961853</ele>
        <time>2020-05-14T08:25:13.000Z</time>
      </trkpt>
      <trkpt lat="47.28822" lon="-2.39855">
        <ele>-15.800000190735</ele>
        <time>2020-05-14T08:25:14.000Z</time>
      </trkpt>
      <trkpt lat="47.28822" lon="-2.39852">
        <ele>-15.39999961853</ele>
        <time>2020-05-14T08:25:15.000Z</time>
      </trkpt>
      <trkpt lat="47.28823" lon="-2.3985">
        <ele>-15</ele>
        <time>2020-05-14T08:25:16.000Z</time>
      </trkpt>
      <trkpt lat="47.28822" lon="-2.39848">
        <ele>-14.60000038147</ele>
        <time>2020-05-14T08:25:17.000Z</time>
      </trkpt>
      <trkpt lat="47.28821" lon="-2.39849">
        <ele>-14.60000038147</ele>
        <time>2020-05-14T08:25:19.000Z</time>
      </trkpt>
      <trkpt lat="47.28818" lon="-2.39848">
        <ele>-14.60000038147</ele>
        <time>2020-05-14T08:25:25.000Z</time>
      </trkpt>
      <trkpt lat="47.28808" lon="-2.39843">
        <ele>-14.60000038147</ele>
        <time>2020-05-14T08:25:31.000Z</time>
      </trkpt>
      <trkpt lat="47.28803" lon="-2.39841">
        <ele>-14.60000038147</ele>
        <time>2020-05-14T08:25:35.000Z</time>
      </trkpt>
      <trkpt lat="47.28802" lon="-2.39845">
        <ele>-14.60000038147</ele>
        <time>2020-05-14T08:25:37.000Z</time>
      </trkpt>
      <trkpt lat="47.28809" lon="-2.39851">
        <ele>-14.60000038147</ele>
        <time>2020-05-14T08:25:41.000Z</time>
      </trkpt>
      <trkpt lat="47.28813" lon="-2.39851">
        <ele>-14.60000038147</ele>
        <time>2020-05-14T08:25:43.000Z</time>
      </trkpt>
      <trkpt lat="47.28813" lon="-2.39849">
        <ele>-15</ele>
        <time>2020-05-14T08:25:44.000Z</time>
      </trkpt>
      <trkpt lat="47.28812" lon="-2.39847">
        <ele>-15.39999961853</ele>
        <time>2020-05-14T08:25:45.000Z</time>
      </trkpt>
      <trkpt lat="47.28811" lon="-2.39847">
        <ele>-15.800000190735</ele>
        <time>2020-05-14T08:25:46.000Z</time>
      </trkpt>
      <trkpt lat="47.28808" lon="-2.39847">
        <ele>-16.200000762939</ele>
        <time>2020-05-14T08:25:47.000Z</time>
      </trkpt>
      <trkpt lat="47.28806" lon="-2.39847">
        <ele>-16.799999237061</ele>
        <time>2020-05-14T08:25:48.000Z</time>
      </trkpt>
      <trkpt lat="47.28803" lon="-2.39846">
        <ele>-16.799999237061</ele>
        <time>2020-05-14T08:25:49.000Z</time>
      </trkpt>
      <trkpt lat="47.28801" lon="-2.39846">
        <ele>-17.200000762939</ele>
        <time>2020-05-14T08:25:50.000Z</time>
      </trkpt>
      <trkpt lat="47.28799" lon="-2.3985">
        <ele>-17.60000038147</ele>
        <time>2020-05-14T08:25:51.000Z</time>
      </trkpt>
      <trkpt lat="47.28799" lon="-2.39853">
        <ele>-18.200000762939</ele>
        <time>2020-05-14T08:25:52.000Z</time>
      </trkpt>
      <trkpt lat="47.288" lon="-2.39856">
        <ele>-18.60000038147</ele>
        <time>2020-05-14T08:25:53.000Z</time>
      </trkpt>
      <trkpt lat="47.288" lon="-2.39858">
        <ele>-19</ele>
        <time>2020-05-14T08:25:54.000Z</time>
      </trkpt>
      <trkpt lat="47.28801" lon="-2.3986">
        <ele>-19</ele>
        <time>2020-05-14T08:25:55.000Z</time>
      </trkpt>
      <trkpt lat="47.28803" lon="-2.39862">
        <ele>-19</ele>
        <time>2020-05-14T08:25:56.000Z</time>
      </trkpt>
      <trkpt lat="47.28804" lon="-2.39876">
        <ele>-19</ele>
        <time>2020-05-14T08:25:59.000Z</time>
      </trkpt>
      <trkpt lat="47.28804" lon="-2.39882">
        <ele>-19</ele>
        <time>2020-05-14T08:26:00.000Z</time>
      </trkpt>
      <trkpt lat="47.28801" lon="-2.39908">
        <ele>-19</ele>
        <time>2020-05-14T08:26:05.000Z</time>
      </trkpt>
      <trkpt lat="47.28799" lon="-2.3991">
        <ele>-19</ele>
        <time>2020-05-14T08:26:07.000Z</time>
      </trkpt>
      <trkpt lat="47.28796" lon="-2.39908">
        <ele>-19</ele>
        <time>2020-05-14T08:26:08.000Z</time>
      </trkpt>
      <trkpt lat="47.28782" lon="-2.39899">
        <ele>-19</ele>
        <time>2020-05-14T08:26:14.000Z</time>
      </trkpt>
      <trkpt lat="47.28777" lon="-2.39909">
        <ele>-19</ele>
        <time>2020-05-14T08:26:17.000Z</time>
      </trkpt>
      <trkpt lat="47.28774" lon="-2.39918">
        <ele>-19</ele>
        <time>2020-05-14T08:26:20.000Z</time>
      </trkpt>
      <trkpt lat="47.28774" lon="-2.39924">
        <ele>-19</ele>
        <time>2020-05-14T08:26:21.000Z</time>
      </trkpt>
      <trkpt lat="47.2877" lon="-2.39937">
        <ele>-19</ele>
        <time>2020-05-14T08:26:23.000Z</time>
      </trkpt>
      <trkpt lat="47.28763" lon="-2.39958">
        <ele>-19</ele>
        <time>2020-05-14T08:26:26.000Z</time>
      </trkpt>
      <trkpt lat="47.28747" lon="-2.40001">
        <ele>-19</ele>
        <time>2020-05-14T08:26:33.000Z</time>
      </trkpt>
      <trkpt lat="47.2874" lon="-2.40025">
        <ele>-19</ele>
        <time>2020-05-14T08:26:37.000Z</time>
      </trkpt>
      <trkpt lat="47.28737" lon="-2.4004">
        <ele>-19</ele>
        <time>2020-05-14T08:26:39.000Z</time>
      </trkpt>
      <trkpt lat="47.28728" lon="-2.40085">
        <ele>-19</ele>
        <time>2020-05-14T08:26:45.000Z</time>
      </trkpt>
      <trkpt lat="47.28719" lon="-2.40152">
        <ele>-19</ele>
        <time>2020-05-14T08:26:54.000Z</time>
      </trkpt>
      <trkpt lat="47.28708" lon="-2.40204">
        <ele>-19</ele>
        <time>2020-05-14T08:27:02.000Z</time>
      </trkpt>
      <trkpt lat="47.28704" lon="-2.40216">
        <ele>-19</ele>
        <time>2020-05-14T08:27:04.000Z</time>
      </trkpt>
      <trkpt lat="47.28696" lon="-2.40231">
        <ele>-19</ele>
        <time>2020-05-14T08:27:07.000Z</time>
      </trkpt>
      <trkpt lat="47.28689" lon="-2.40248">
        <ele>-19</ele>
        <time>2020-05-14T08:27:10.000Z</time>
      </trkpt>
      <trkpt lat="47.2868" lon="-2.40267">
        <ele>-19</ele>
        <time>2020-05-14T08:27:13.000Z</time>
      </trkpt>
      <trkpt lat="47.28662" lon="-2.40305">
        <ele>-19</ele>
        <time>2020-05-14T08:27:19.000Z</time>
      </trkpt>
      <trkpt lat="47.28659" lon="-2.40311">
        <ele>-19</ele>
        <time>2020-05-14T08:27:20.000Z</time>
      </trkpt>
      <trkpt lat="47.28638" lon="-2.40356">
        <ele>-19</ele>
        <time>2020-05-14T08:27:27.000Z</time>
      </trkpt>
      <trkpt lat="47.28618" lon="-2.40395">
        <ele>-19</ele>
        <time>2020-05-14T08:27:34.000Z</time>
      </trkpt>
      <trkpt lat="47.28598" lon="-2.40431">
        <ele>-19</ele>
        <time>2020-05-14T08:27:40.000Z</time>
      </trkpt>
      <trkpt lat="47.28577" lon="-2.40467">
        <ele>-19</ele>
        <time>2020-05-14T08:27:46.000Z</time>
      </trkpt>
      <trkpt lat="47.28573" lon="-2.40472">
        <ele>-19</ele>
        <time>2020-05-14T08:27:47.000Z</time>
      </trkpt>
      <trkpt lat="47.28541" lon="-2.40516">
        <ele>-19</ele>
        <time>2020-05-14T08:27:55.000Z</time>
      </trkpt>
      <trkpt lat="47.2852" lon="-2.40553">
        <ele>-19</ele>
        <time>2020-05-14T08:28:01.000Z</time>
      </trkpt>
      <trkpt lat="47.28496" lon="-2.40592">
        <ele>-19</ele>
        <time>2020-05-14T08:28:08.000Z</time>
      </trkpt>
      <trkpt lat="47.28492" lon="-2.40596">
        <ele>-19</ele>
        <time>2020-05-14T08:28:09.000Z</time>
      </trkpt>
      <trkpt lat="47.28476" lon="-2.40623">
        <ele>-19</ele>
        <time>2020-05-14T08:28:15.000Z</time>
      </trkpt>
      <trkpt lat="47.28457" lon="-2.40649">
        <ele>-19</ele>
        <time>2020-05-14T08:28:22.000Z</time>
      </trkpt>
      <trkpt lat="47.28451" lon="-2.40658">
        <ele>-19</ele>
        <time>2020-05-14T08:28:24.000Z</time>
      </trkpt>
      <trkpt lat="47.28436" lon="-2.40677">
        <ele>-19</ele>
        <time>2020-05-14T08:28:28.000Z</time>
      </trkpt>
      <trkpt lat="47.28409" lon="-2.40712">
        <ele>-19</ele>
        <time>2020-05-14T08:28:35.000Z</time>
      </trkpt>
      <trkpt lat="47.28383" lon="-2.40747">
        <ele>-19</ele>
        <time>2020-05-14T08:28:42.000Z</time>
      </trkpt>
      <trkpt lat="47.28371" lon="-2.40761">
        <ele>-19</ele>
        <time>2020-05-14T08:28:45.000Z</time>
      </trkpt>
      <trkpt lat="47.2836" lon="-2.40774">
        <ele>-19</ele>
        <time>2020-05-14T08:28:48.000Z</time>
      </trkpt>
      <trkpt lat="47.28336" lon="-2.40799">
        <ele>-19</ele>
        <time>2020-05-14T08:28:54.000Z</time>
      </trkpt>
      <trkpt lat="47.28306" lon="-2.40828">
        <ele>-19</ele>
        <time>2020-05-14T08:29:01.000Z</time>
      </trkpt>
      <trkpt lat="47.28291" lon="-2.40845">
        <ele>-19</ele>
        <time>2020-05-14T08:29:06.000Z</time>
      </trkpt>
      <trkpt lat="47.28281" lon="-2.40874">
        <ele>-19</ele>
        <time>2020-05-14T08:29:12.000Z</time>
      </trkpt>
      <trkpt lat="47.28266" lon="-2.40904">
        <ele>-19</ele>
        <time>2020-05-14T08:29:18.000Z</time>
      </trkpt>
      <trkpt lat="47.28261" lon="-2.40931">
        <ele>-19</ele>
        <time>2020-05-14T08:29:22.000Z</time>
      </trkpt>
      <trkpt lat="47.28253" lon="-2.4097">
        <ele>-19</ele>
        <time>2020-05-14T08:29:28.000Z</time>
      </trkpt>
      <trkpt lat="47.2825" lon="-2.40982">
        <ele>-19</ele>
        <time>2020-05-14T08:29:30.000Z</time>
      </trkpt>
      <trkpt lat="47.28249" lon="-2.4099">
        <ele>-19</ele>
        <time>2020-05-14T08:29:32.000Z</time>
      </trkpt>
      <trkpt lat="47.28252" lon="-2.40996">
        <ele>-19</ele>
        <time>2020-05-14T08:29:34.000Z</time>
      </trkpt>
      <trkpt lat="47.28253" lon="-2.41007">
        <ele>-19</ele>
        <time>2020-05-14T08:29:37.000Z</time>
      </trkpt>
      <trkpt lat="47.28253" lon="-2.41016">
        <ele>-19</ele>
        <time>2020-05-14T08:29:39.000Z</time>
      </trkpt>
      <trkpt lat="47.28255" lon="-2.41023">
        <ele>-19</ele>
        <time>2020-05-14T08:29:41.000Z</time>
      </trkpt>
      <trkpt lat="47.28263" lon="-2.4103">
        <ele>-19</ele>
        <time>2020-05-14T08:29:45.000Z</time>
      </trkpt>
      <trkpt lat="47.28279" lon="-2.41038">
        <ele>-19</ele>
        <time>2020-05-14T08:29:49.000Z</time>
      </trkpt>
      <trkpt lat="47.28294" lon="-2.41046">
        <ele>-19</ele>
        <time>2020-05-14T08:29:52.000Z</time>
      </trkpt>
      <trkpt lat="47.28307" lon="-2.41054">
        <ele>-19</ele>
        <time>2020-05-14T08:29:55.000Z</time>
      </trkpt>
      <trkpt lat="47.28324" lon="-2.41064">
        <ele>-19</ele>
        <time>2020-05-14T08:29:59.000Z</time>
      </trkpt>
      <trkpt lat="47.28329" lon="-2.41066">
        <ele>-19</ele>
        <time>2020-05-14T08:30:00.000Z</time>
      </trkpt>
      <trkpt lat="47.28358" lon="-2.41081">
        <ele>-19</ele>
        <time>2020-05-14T08:30:06.000Z</time>
      </trkpt>
      <trkpt lat="47.28373" lon="-2.41087">
        <ele>-19</ele>
        <time>2020-05-14T08:30:09.000Z</time>
      </trkpt>
      <trkpt lat="47.28379" lon="-2.41095">
        <ele>-19</ele>
        <time>2020-05-14T08:30:11.000Z</time>
      </trkpt>
      <trkpt lat="47.28379" lon="-2.41112">
        <ele>-19</ele>
        <time>2020-05-14T08:30:14.000Z</time>
      </trkpt>
      <trkpt lat="47.28377" lon="-2.41119">
        <ele>-19</ele>
        <time>2020-05-14T08:30:15.000Z</time>
      </trkpt>
      <trkpt lat="47.2837" lon="-2.41146">
        <ele>-19.39999961853</ele>
        <time>2020-05-14T08:30:19.000Z</time>
      </trkpt>
      <trkpt lat="47.28369" lon="-2.41154">
        <ele>-19.799999237061</ele>
        <time>2020-05-14T08:30:20.000Z</time>
      </trkpt>
      <trkpt lat="47.28369" lon="-2.41161">
        <ele>-20.200000762939</ele>
        <time>2020-05-14T08:30:21.000Z</time>
      </trkpt>
      <trkpt lat="47.28368" lon="-2.41168">
        <ele>-20.60000038147</ele>
        <time>2020-05-14T08:30:22.000Z</time>
      </trkpt>
      <trkpt lat="47.28367" lon="-2.41175">
        <ele>-21</ele>
        <time>2020-05-14T08:30:23.000Z</time>
      </trkpt>
      <trkpt lat="47.28362" lon="-2.41196">
        <ele>-21</ele>
        <time>2020-05-14T08:30:26.000Z</time>
      </trkpt>
      <trkpt lat="47.28361" lon="-2.41207">
        <ele>-21</ele>
        <time>2020-05-14T08:30:29.000Z</time>
      </trkpt>
      <trkpt lat="47.28362" lon="-2.41209">
        <ele>-21</ele>
        <time>2020-05-14T08:30:35.000Z</time>
      </trkpt>
      <trkpt lat="47.28362" lon="-2.41211">
        <ele>-21</ele>
        <time>2020-05-14T08:30:36.000Z</time>
      </trkpt>
      <trkpt lat="47.28363" lon="-2.41224">
        <ele>-21</ele>
        <time>2020-05-14T08:30:39.000Z</time>
      </trkpt>
      <trkpt lat="47.28372" lon="-2.41234">
        <ele>-21</ele>
        <time>2020-05-14T08:30:42.000Z</time>
      </trkpt>
      <trkpt lat="47.28376" lon="-2.41236">
        <ele>-21</ele>
        <time>2020-05-14T08:30:43.000Z</time>
      </trkpt>
      <trkpt lat="47.28404" lon="-2.41248">
        <ele>-21</ele>
        <time>2020-05-14T08:30:49.000Z</time>
      </trkpt>
      <trkpt lat="47.28418" lon="-2.41255">
        <ele>-21</ele>
        <time>2020-05-14T08:30:52.000Z</time>
      </trkpt>
      <trkpt lat="47.28437" lon="-2.41261">
        <ele>-21</ele>
        <time>2020-05-14T08:30:56.000Z</time>
      </trkpt>
      <trkpt lat="47.28441" lon="-2.41262">
        <ele>-21</ele>
        <time>2020-05-14T08:30:57.000Z</time>
      </trkpt>
      <trkpt lat="47.28454" lon="-2.41273">
        <ele>-21</ele>
        <time>2020-05-14T08:31:00.000Z</time>
      </trkpt>
      <trkpt lat="47.28457" lon="-2.41293">
        <ele>-21</ele>
        <time>2020-05-14T08:31:03.000Z</time>
      </trkpt>
      <trkpt lat="47.28455" lon="-2.41309">
        <ele>-21</ele>
        <time>2020-05-14T08:31:05.000Z</time>
      </trkpt>
      <trkpt lat="47.28449" lon="-2.41335">
        <ele>-21</ele>
        <time>2020-05-14T08:31:08.000Z</time>
      </trkpt>
      <trkpt lat="47.28433" lon="-2.41392">
        <ele>-21</ele>
        <time>2020-05-14T08:31:14.000Z</time>
      </trkpt>
      <trkpt lat="47.28419" lon="-2.41454">
        <ele>-21</ele>
        <time>2020-05-14T08:31:20.000Z</time>
      </trkpt>
      <trkpt lat="47.28412" lon="-2.41522">
        <ele>-21</ele>
        <time>2020-05-14T08:31:26.000Z</time>
      </trkpt>
      <trkpt lat="47.28405" lon="-2.41592">
        <ele>-21</ele>
        <time>2020-05-14T08:31:32.000Z</time>
      </trkpt>
      <trkpt lat="47.28404" lon="-2.41603">
        <ele>-20.60000038147</ele>
        <time>2020-05-14T08:31:33.000Z</time>
      </trkpt>
      <trkpt lat="47.28402" lon="-2.41614">
        <ele>-20.200000762939</ele>
        <time>2020-05-14T08:31:34.000Z</time>
      </trkpt>
      <trkpt lat="47.28401" lon="-2.41625">
        <ele>-19.799999237061</ele>
        <time>2020-05-14T08:31:35.000Z</time>
      </trkpt>
      <trkpt lat="47.284" lon="-2.41636">
        <ele>-19.39999961853</ele>
        <time>2020-05-14T08:31:36.000Z</time>
      </trkpt>
      <trkpt lat="47.28399" lon="-2.41648">
        <ele>-19</ele>
        <time>2020-05-14T08:31:37.000Z</time>
      </trkpt>
      <trkpt lat="47.28396" lon="-2.41671">
        <ele>-19</ele>
        <time>2020-05-14T08:31:39.000Z</time>
      </trkpt>
      <trkpt lat="47.28379" lon="-2.4174">
        <ele>-19</ele>
        <time>2020-05-14T08:31:45.000Z</time>
      </trkpt>
      <trkpt lat="47.2836" lon="-2.41815">
        <ele>-19</ele>
        <time>2020-05-14T08:31:51.000Z</time>
      </trkpt>
      <trkpt lat="47.28357" lon="-2.41828">
        <ele>-19</ele>
        <time>2020-05-14T08:31:52.000Z</time>
      </trkpt>
      <trkpt lat="47.28341" lon="-2.41895">
        <ele>-19</ele>
        <time>2020-05-14T08:31:57.000Z</time>
      </trkpt>
      <trkpt lat="47.28321" lon="-2.41978">
        <ele>-19</ele>
        <time>2020-05-14T08:32:03.000Z</time>
      </trkpt>
      <trkpt lat="47.28318" lon="-2.41992">
        <ele>-19</ele>
        <time>2020-05-14T08:32:04.000Z</time>
      </trkpt>
      <trkpt lat="47.28302" lon="-2.42077">
        <ele>-19</ele>
        <time>2020-05-14T08:32:10.000Z</time>
      </trkpt>
      <trkpt lat="47.28291" lon="-2.4216">
        <ele>-19</ele>
        <time>2020-05-14T08:32:16.000Z</time>
      </trkpt>
      <trkpt lat="47.28281" lon="-2.42218">
        <ele>-19</ele>
        <time>2020-05-14T08:32:21.000Z</time>
      </trkpt>
      <trkpt lat="47.28271" lon="-2.4228">
        <ele>-19</ele>
        <time>2020-05-14T08:32:27.000Z</time>
      </trkpt>
      <trkpt lat="47.28261" lon="-2.42348">
        <ele>-19</ele>
        <time>2020-05-14T08:32:34.000Z</time>
      </trkpt>
      <trkpt lat="47.28247" lon="-2.42411">
        <ele>-19</ele>
        <time>2020-05-14T08:32:41.000Z</time>
      </trkpt>
      <trkpt lat="47.28243" lon="-2.42427">
        <ele>-19</ele>
        <time>2020-05-14T08:32:43.000Z</time>
      </trkpt>
      <trkpt lat="47.28236" lon="-2.42451">
        <ele>-19</ele>
        <time>2020-05-14T08:32:46.000Z</time>
      </trkpt>
      <trkpt lat="47.28219" lon="-2.42484">
        <ele>-19</ele>
        <time>2020-05-14T08:32:51.000Z</time>
      </trkpt>
      <trkpt lat="47.28202" lon="-2.42508">
        <ele>-19</ele>
        <time>2020-05-14T08:32:56.000Z</time>
      </trkpt>
      <trkpt lat="47.28181" lon="-2.42524">
        <ele>-19</ele>
        <time>2020-05-14T08:33:02.000Z</time>
      </trkpt>
      <trkpt lat="47.28161" lon="-2.42531">
        <ele>-19</ele>
        <time>2020-05-14T08:33:08.000Z</time>
      </trkpt>
      <trkpt lat="47.28137" lon="-2.42539">
        <ele>-19</ele>
        <time>2020-05-14T08:33:16.000Z</time>
      </trkpt>
      <trkpt lat="47.28125" lon="-2.42541">
        <ele>-19</ele>
        <time>2020-05-14T08:33:22.000Z</time>
      </trkpt>
      <trkpt lat="47.28112" lon="-2.42544">
        <ele>-19</ele>
        <time>2020-05-14T08:33:29.000Z</time>
      </trkpt>
      <trkpt lat="47.28102" lon="-2.42549">
        <ele>-19</ele>
        <time>2020-05-14T08:33:35.000Z</time>
      </trkpt>
      <trkpt lat="47.28102" lon="-2.42564">
        <ele>-19</ele>
        <time>2020-05-14T08:33:39.000Z</time>
      </trkpt>
      <trkpt lat="47.28104" lon="-2.42566">
        <ele>-19</ele>
        <time>2020-05-14T08:33:40.000Z</time>
      </trkpt>
      <trkpt lat="47.28117" lon="-2.42589">
        <ele>-19</ele>
        <time>2020-05-14T08:33:47.000Z</time>
      </trkpt>
      <trkpt lat="47.28136" lon="-2.42622">
        <ele>-19</ele>
        <time>2020-05-14T08:33:55.000Z</time>
      </trkpt>
      <trkpt lat="47.28144" lon="-2.42639">
        <ele>-19</ele>
        <time>2020-05-14T08:33:58.000Z</time>
      </trkpt>
      <trkpt lat="47.28151" lon="-2.4265">
        <ele>-19</ele>
        <time>2020-05-14T08:34:00.000Z</time>
      </trkpt>
      <trkpt lat="47.28172" lon="-2.42689">
        <ele>-19</ele>
        <time>2020-05-14T08:34:06.000Z</time>
      </trkpt>
      <trkpt lat="47.28199" lon="-2.42739">
        <ele>-19</ele>
        <time>2020-05-14T08:34:13.000Z</time>
      </trkpt>
      <trkpt lat="47.28217" lon="-2.42772">
        <ele>-19</ele>
        <time>2020-05-14T08:34:18.000Z</time>
      </trkpt>
      <trkpt lat="47.28224" lon="-2.42787">
        <ele>-19</ele>
        <time>2020-05-14T08:34:20.000Z</time>
      </trkpt>
      <trkpt lat="47.28236" lon="-2.42824">
        <ele>-19</ele>
        <time>2020-05-14T08:34:25.000Z</time>
      </trkpt>
      <trkpt lat="47.28253" lon="-2.42865">
        <ele>-19</ele>
        <time>2020-05-14T08:34:31.000Z</time>
      </trkpt>
      <trkpt lat="47.2826" lon="-2.42877">
        <ele>-19</ele>
        <time>2020-05-14T08:34:33.000Z</time>
      </trkpt>
      <trkpt lat="47.28262" lon="-2.42888">
        <ele>-19</ele>
        <time>2020-05-14T08:34:35.000Z</time>
      </trkpt>
      <trkpt lat="47.2826" lon="-2.42899">
        <ele>-19</ele>
        <time>2020-05-14T08:34:37.000Z</time>
      </trkpt>
      <trkpt lat="47.28258" lon="-2.42905">
        <ele>-19</ele>
        <time>2020-05-14T08:34:38.000Z</time>
      </trkpt>
      <trkpt lat="47.28259" lon="-2.42934">
        <ele>-19</ele>
        <time>2020-05-14T08:34:42.000Z</time>
      </trkpt>
      <trkpt lat="47.28259" lon="-2.42941">
        <ele>-19</ele>
        <time>2020-05-14T08:34:43.000Z</time>
      </trkpt>
      <trkpt lat="47.28261" lon="-2.42975">
        <ele>-19</ele>
        <time>2020-05-14T08:34:47.000Z</time>
      </trkpt>
      <trkpt lat="47.28262" lon="-2.43022">
        <ele>-19</ele>
        <time>2020-05-14T08:34:53.000Z</time>
      </trkpt>
      <trkpt lat="47.28256" lon="-2.43079">
        <ele>-19</ele>
        <time>2020-05-14T08:35:00.000Z</time>
      </trkpt>
      <trkpt lat="47.28256" lon="-2.43095">
        <ele>-19</ele>
        <time>2020-05-14T08:35:02.000Z</time>
      </trkpt>
      <trkpt lat="47.28256" lon="-2.43112">
        <ele>-19</ele>
        <time>2020-05-14T08:35:04.000Z</time>
      </trkpt>
      <trkpt lat="47.28255" lon="-2.4312">
        <ele>-19</ele>
        <time>2020-05-14T08:35:05.000Z</time>
      </trkpt>
      <trkpt lat="47.28244" lon="-2.43168">
        <ele>-19</ele>
        <time>2020-05-14T08:35:11.000Z</time>
      </trkpt>
      <trkpt lat="47.28234" lon="-2.43216">
        <ele>-19</ele>
        <time>2020-05-14T08:35:17.000Z</time>
      </trkpt>
      <trkpt lat="47.2823" lon="-2.43238">
        <ele>-19</ele>
        <time>2020-05-14T08:35:20.000Z</time>
      </trkpt>
      <trkpt lat="47.28226" lon="-2.4325">
        <ele>-19</ele>
        <time>2020-05-14T08:35:22.000Z</time>
      </trkpt>
      <trkpt lat="47.28217" lon="-2.43269">
        <ele>-19</ele>
        <time>2020-05-14T08:35:26.000Z</time>
      </trkpt>
      <trkpt lat="47.28217" lon="-2.43275">
        <ele>-19</ele>
        <time>2020-05-14T08:35:27.000Z</time>
      </trkpt>
      <trkpt lat="47.28219" lon="-2.43295">
        <ele>-19</ele>
        <time>2020-05-14T08:35:30.000Z</time>
      </trkpt>
      <trkpt lat="47.28213" lon="-2.43317">
        <ele>-19</ele>
        <time>2020-05-14T08:35:33.000Z</time>
      </trkpt>
      <trkpt lat="47.28198" lon="-2.43329">
        <ele>-19</ele>
        <time>2020-05-14T08:35:36.000Z</time>
      </trkpt>
      <trkpt lat="47.28189" lon="-2.43336">
        <ele>-19</ele>
        <time>2020-05-14T08:35:39.000Z</time>
      </trkpt>
      <trkpt lat="47.28186" lon="-2.43337">
        <ele>-19</ele>
        <time>2020-05-14T08:35:41.000Z</time>
      </trkpt>
      <trkpt lat="47.28184" lon="-2.43337">
        <ele>-19</ele>
        <time>2020-05-14T08:35:43.000Z</time>
      </trkpt>
      <trkpt lat="47.28175" lon="-2.43335">
        <ele>-19</ele>
        <time>2020-05-14T08:35:47.000Z</time>
      </trkpt>
      <trkpt lat="47.2817" lon="-2.43344">
        <ele>-19</ele>
        <time>2020-05-14T08:35:49.000Z</time>
      </trkpt>
      <trkpt lat="47.28167" lon="-2.43349">
        <ele>-19</ele>
        <time>2020-05-14T08:35:50.000Z</time>
      </trkpt>
      <trkpt lat="47.28164" lon="-2.43354">
        <ele>-19</ele>
        <time>2020-05-14T08:35:51.000Z</time>
      </trkpt>
      <trkpt lat="47.28134" lon="-2.43398">
        <ele>-19</ele>
        <time>2020-05-14T08:35:58.000Z</time>
      </trkpt>
      <trkpt lat="47.28102" lon="-2.43445">
        <ele>-19</ele>
        <time>2020-05-14T08:36:05.000Z</time>
      </trkpt>
      <trkpt lat="47.28065" lon="-2.43498">
        <ele>-19</ele>
        <time>2020-05-14T08:36:13.000Z</time>
      </trkpt>
      <trkpt lat="47.2806" lon="-2.43505">
        <ele>-19.39999961853</ele>
        <time>2020-05-14T08:36:14.000Z</time>
      </trkpt>
      <trkpt lat="47.28056" lon="-2.43513">
        <ele>-19.799999237061</ele>
        <time>2020-05-14T08:36:15.000Z</time>
      </trkpt>
      <trkpt lat="47.28051" lon="-2.4352">
        <ele>-20.200000762939</ele>
        <time>2020-05-14T08:36:16.000Z</time>
      </trkpt>
      <trkpt lat="47.28046" lon="-2.43527">
        <ele>-20.60000038147</ele>
        <time>2020-05-14T08:36:17.000Z</time>
      </trkpt>
      <trkpt lat="47.28041" lon="-2.43534">
        <ele>-21</ele>
        <time>2020-05-14T08:36:18.000Z</time>
      </trkpt>
      <trkpt lat="47.28031" lon="-2.43548">
        <ele>-21</ele>
        <time>2020-05-14T08:36:20.000Z</time>
      </trkpt>
      <trkpt lat="47.27996" lon="-2.43597">
        <ele>-21</ele>
        <time>2020-05-14T08:36:27.000Z</time>
      </trkpt>
      <trkpt lat="47.27968" lon="-2.43638">
        <ele>-21</ele>
        <time>2020-05-14T08:36:33.000Z</time>
      </trkpt>
      <trkpt lat="47.27959" lon="-2.43653">
        <ele>-21</ele>
        <time>2020-05-14T08:36:35.000Z</time>
      </trkpt>
      <trkpt lat="47.27935" lon="-2.43686">
        <ele>-21</ele>
        <time>2020-05-14T08:36:40.000Z</time>
      </trkpt>
      <trkpt lat="47.27902" lon="-2.43728">
        <ele>-21</ele>
        <time>2020-05-14T08:36:47.000Z</time>
      </trkpt>
      <trkpt lat="47.27864" lon="-2.43768">
        <ele>-21</ele>
        <time>2020-05-14T08:36:54.000Z</time>
      </trkpt>
      <trkpt lat="47.27825" lon="-2.43797">
        <ele>-21</ele>
        <time>2020-05-14T08:37:01.000Z</time>
      </trkpt>
      <trkpt lat="47.27819" lon="-2.43799">
        <ele>-21</ele>
        <time>2020-05-14T08:37:02.000Z</time>
      </trkpt>
      <trkpt lat="47.27802" lon="-2.43798">
        <ele>-21</ele>
        <time>2020-05-14T08:37:05.000Z</time>
      </trkpt>
      <trkpt lat="47.2779" lon="-2.43794">
        <ele>-21</ele>
        <time>2020-05-14T08:37:08.000Z</time>
      </trkpt>
      <trkpt lat="47.27788" lon="-2.43793">
        <ele>-21</ele>
        <time>2020-05-14T08:37:09.000Z</time>
      </trkpt>
      <trkpt lat="47.27775" lon="-2.43788">
        <ele>-21</ele>
        <time>2020-05-14T08:37:13.000Z</time>
      </trkpt>
      <trkpt lat="47.27771" lon="-2.43791">
        <ele>-21</ele>
        <time>2020-05-14T08:37:14.000Z</time>
      </trkpt>
      <trkpt lat="47.27755" lon="-2.43811">
        <ele>-21</ele>
        <time>2020-05-14T08:37:19.000Z</time>
      </trkpt>
      <trkpt lat="47.27743" lon="-2.43821">
        <ele>-21</ele>
        <time>2020-05-14T08:37:22.000Z</time>
      </trkpt>
      <trkpt lat="47.27727" lon="-2.43823">
        <ele>-21</ele>
        <time>2020-05-14T08:37:25.000Z</time>
      </trkpt>
      <trkpt lat="47.27715" lon="-2.43824">
        <ele>-20.60000038147</ele>
        <time>2020-05-14T08:37:27.000Z</time>
      </trkpt>
      <trkpt lat="47.27709" lon="-2.43824">
        <ele>-20</ele>
        <time>2020-05-14T08:37:28.000Z</time>
      </trkpt>
      <trkpt lat="47.27704" lon="-2.43826">
        <ele>-19.60000038147</ele>
        <time>2020-05-14T08:37:29.000Z</time>
      </trkpt>
      <trkpt lat="47.27698" lon="-2.43827">
        <ele>-19</ele>
        <time>2020-05-14T08:37:30.000Z</time>
      </trkpt>
      <trkpt lat="47.27693" lon="-2.43828">
        <ele>-18.60000038147</ele>
        <time>2020-05-14T08:37:31.000Z</time>
      </trkpt>
      <trkpt lat="47.27671" lon="-2.43835">
        <ele>-18.60000038147</ele>
        <time>2020-05-14T08:37:35.000Z</time>
      </trkpt>
      <trkpt lat="47.27643" lon="-2.43845">
        <ele>-18.60000038147</ele>
        <time>2020-05-14T08:37:40.000Z</time>
      </trkpt>
      <trkpt lat="47.27609" lon="-2.43859">
        <ele>-18.60000038147</ele>
        <time>2020-05-14T08:37:46.000Z</time>
      </trkpt>
      <trkpt lat="47.27576" lon="-2.43874">
        <ele>-18.60000038147</ele>
        <time>2020-05-14T08:37:52.000Z</time>
      </trkpt>
      <trkpt lat="47.2755" lon="-2.43885">
        <ele>-18.60000038147</ele>
        <time>2020-05-14T08:37:57.000Z</time>
      </trkpt>
      <trkpt lat="47.27523" lon="-2.43898">
        <ele>-18.60000038147</ele>
        <time>2020-05-14T08:38:02.000Z</time>
      </trkpt>
      <trkpt lat="47.27518" lon="-2.439">
        <ele>-18.60000038147</ele>
        <time>2020-05-14T08:38:03.000Z</time>
      </trkpt>
      <trkpt lat="47.27504" lon="-2.43906">
        <ele>-18.60000038147</ele>
        <time>2020-05-14T08:38:07.000Z</time>
      </trkpt>
      <trkpt lat="47.27496" lon="-2.43908">
        <ele>-18.60000038147</ele>
        <time>2020-05-14T08:38:09.000Z</time>
      </trkpt>
      <trkpt lat="47.27487" lon="-2.43911">
        <ele>-18.60000038147</ele>
        <time>2020-05-14T08:38:11.000Z</time>
      </trkpt>
      <trkpt lat="47.27474" lon="-2.43916">
        <ele>-18.60000038147</ele>
        <time>2020-05-14T08:38:14.000Z</time>
      </trkpt>
      <trkpt lat="47.27462" lon="-2.43923">
        <ele>-18.60000038147</ele>
        <time>2020-05-14T08:38:17.000Z</time>
      </trkpt>
      <trkpt lat="47.27458" lon="-2.43925">
        <ele>-18.60000038147</ele>
        <time>2020-05-14T08:38:18.000Z</time>
      </trkpt>
      <trkpt lat="47.27445" lon="-2.4393">
        <ele>-18.60000038147</ele>
        <time>2020-05-14T08:38:22.000Z</time>
      </trkpt>
      <trkpt lat="47.27429" lon="-2.43936">
        <ele>-18.60000038147</ele>
        <time>2020-05-14T08:38:27.000Z</time>
      </trkpt>
      <trkpt lat="47.27405" lon="-2.43945">
        <ele>-18.60000038147</ele>
        <time>2020-05-14T08:38:32.000Z</time>
      </trkpt>
      <trkpt lat="47.27373" lon="-2.43963">
        <ele>-18.60000038147</ele>
        <time>2020-05-14T08:38:39.000Z</time>
      </trkpt>
      <trkpt lat="47.27355" lon="-2.43972">
        <ele>-18.60000038147</ele>
        <time>2020-05-14T08:38:43.000Z</time>
      </trkpt>
      <trkpt lat="47.2735" lon="-2.43974">
        <ele>-18.60000038147</ele>
        <time>2020-05-14T08:38:44.000Z</time>
      </trkpt>
      <trkpt lat="47.27335" lon="-2.4398">
        <ele>-18.60000038147</ele>
        <time>2020-05-14T08:38:47.000Z</time>
      </trkpt>
      <trkpt lat="47.2732" lon="-2.43983">
        <ele>-18.60000038147</ele>
        <time>2020-05-14T08:38:50.000Z</time>
      </trkpt>
      <trkpt lat="47.27317" lon="-2.43986">
        <ele>-18.60000038147</ele>
        <time>2020-05-14T08:38:51.000Z</time>
      </trkpt>
      <trkpt lat="47.27317" lon="-2.43991">
        <ele>-18.60000038147</ele>
        <time>2020-05-14T08:38:53.000Z</time>
      </trkpt>
      <trkpt lat="47.27318" lon="-2.43996">
        <ele>-18.60000038147</ele>
        <time>2020-05-14T08:38:58.000Z</time>
      </trkpt>
      <trkpt lat="47.27317" lon="-2.43999">
        <ele>-18.60000038147</ele>
        <time>2020-05-14T08:39:00.000Z</time>
      </trkpt>
      <trkpt lat="47.27314" lon="-2.44003">
        <ele>-18.60000038147</ele>
        <time>2020-05-14T08:39:02.000Z</time>
      </trkpt>
      <trkpt lat="47.27306" lon="-2.44022">
        <ele>-18.60000038147</ele>
        <time>2020-05-14T08:39:06.000Z</time>
      </trkpt>
      <trkpt lat="47.27307" lon="-2.44049">
        <ele>-18.60000038147</ele>
        <time>2020-05-14T08:39:10.000Z</time>
      </trkpt>
      <trkpt lat="47.2731" lon="-2.44069">
        <ele>-18.60000038147</ele>
        <time>2020-05-14T08:39:13.000Z</time>
      </trkpt>
      <trkpt lat="47.27315" lon="-2.44094">
        <ele>-18.60000038147</ele>
        <time>2020-05-14T08:39:17.000Z</time>
      </trkpt>
      <trkpt lat="47.27325" lon="-2.44142">
        <ele>-18.60000038147</ele>
        <time>2020-05-14T08:39:24.000Z</time>
      </trkpt>
      <trkpt lat="47.27335" lon="-2.44183">
        <ele>-18.60000038147</ele>
        <time>2020-05-14T08:39:31.000Z</time>
      </trkpt>
      <trkpt lat="47.27347" lon="-2.44186">
        <ele>-18.60000038147</ele>
        <time>2020-05-14T08:39:35.000Z</time>
      </trkpt>
      <trkpt lat="47.27366" lon="-2.44176">
        <ele>-18.60000038147</ele>
        <time>2020-05-14T08:39:40.000Z</time>
      </trkpt>
      <trkpt lat="47.27375" lon="-2.44172">
        <ele>-17.799999237061</ele>
        <time>2020-05-14T08:39:42.000Z</time>
      </trkpt>
      <trkpt lat="47.27379" lon="-2.4417">
        <ele>-17.200000762939</ele>
        <time>2020-05-14T08:39:43.000Z</time>
      </trkpt>
      <trkpt lat="47.27384" lon="-2.44168">
        <ele>-16.799999237061</ele>
        <time>2020-05-14T08:39:44.000Z</time>
      </trkpt>
      <trkpt lat="47.27387" lon="-2.44166">
        <ele>-16.39999961853</ele>
        <time>2020-05-14T08:39:45.000Z</time>
      </trkpt>
      <trkpt lat="47.27411" lon="-2.4416">
        <ele>-16.39999961853</ele>
        <time>2020-05-14T08:39:52.000Z</time>
      </trkpt>
      <trkpt lat="47.27413" lon="-2.44164">
        <ele>-16.39999961853</ele>
        <time>2020-05-14T08:39:53.000Z</time>
      </trkpt>
      <trkpt lat="47.27415" lon="-2.44174">
        <ele>-16.39999961853</ele>
        <time>2020-05-14T08:39:55.000Z</time>
      </trkpt>
      <trkpt lat="47.27416" lon="-2.44185">
        <ele>-16.39999961853</ele>
        <time>2020-05-14T08:39:57.000Z</time>
      </trkpt>
      <trkpt lat="47.27419" lon="-2.44202">
        <ele>-16.39999961853</ele>
        <time>2020-05-14T08:40:00.000Z</time>
      </trkpt>
      <trkpt lat="47.27424" lon="-2.44244">
        <ele>-16.799999237061</ele>
        <time>2020-05-14T08:40:08.000Z</time>
      </trkpt>
      <trkpt lat="47.27424" lon="-2.44249">
        <ele>-17.200000762939</ele>
        <time>2020-05-14T08:40:09.000Z</time>
      </trkpt>
      <trkpt lat="47.27425" lon="-2.44254">
        <ele>-17.60000038147</ele>
        <time>2020-05-14T08:40:10.000Z</time>
      </trkpt>
      <trkpt lat="47.27426" lon="-2.44258">
        <ele>-18.200000762939</ele>
        <time>2020-05-14T08:40:11.000Z</time>
      </trkpt>
      <trkpt lat="47.27426" lon="-2.44264">
        <ele>-18.60000038147</ele>
        <time>2020-05-14T08:40:12.000Z</time>
      </trkpt>
      <trkpt lat="47.27428" lon="-2.44285">
        <ele>-18.60000038147</ele>
        <time>2020-05-14T08:40:16.000Z</time>
      </trkpt>
      <trkpt lat="47.27431" lon="-2.44298">
        <ele>-18.60000038147</ele>
        <time>2020-05-14T08:40:20.000Z</time>
      </trkpt>
      <trkpt lat="47.27431" lon="-2.44299">
        <ele>-18.60000038147</ele>
        <time>2020-05-14T08:40:25.000Z</time>
      </trkpt>
      <trkpt lat="47.27431" lon="-2.44299">
        <ele>-18.60000038147</ele>
        <time>2020-05-14T08:40:38.000Z</time>
      </trkpt>
      <trkpt lat="47.27431" lon="-2.44299">
        <ele>-19</ele>
        <time>2020-05-14T08:40:47.000Z</time>
      </trkpt>
      <trkpt lat="47.27431" lon="-2.44299">
        <ele>-19.39999961853</ele>
        <time>2020-05-14T08:40:48.000Z</time>
      </trkpt>
      <trkpt lat="47.27431" lon="-2.44299">
        <ele>-19.799999237061</ele>
        <time>2020-05-14T08:40:49.000Z</time>
      </trkpt>
      <trkpt lat="47.27431" lon="-2.44299">
        <ele>-20.200000762939</ele>
        <time>2020-05-14T08:40:50.000Z</time>
      </trkpt>
      <trkpt lat="47.27431" lon="-2.44299">
        <ele>-20.60000038147</ele>
        <time>2020-05-14T08:40:51.000Z</time>
      </trkpt>
      <trkpt lat="47.27431" lon="-2.44299">
        <ele>-20.60000038147</ele>
        <time>2020-05-14T08:40:58.000Z</time>
      </trkpt>
      <trkpt lat="47.27431" lon="-2.44299">
        <ele>-20.60000038147</ele>
        <time>2020-05-14T08:41:09.000Z</time>
      </trkpt>
      <trkpt lat="47.27432" lon="-2.44302">
        <ele>-20.60000038147</ele>
        <time>2020-05-14T08:41:20.000Z</time>
      </trkpt>
      <trkpt lat="47.27434" lon="-2.44324">
        <ele>-20.60000038147</ele>
        <time>2020-05-14T08:41:25.000Z</time>
      </trkpt>
      <trkpt lat="47.27439" lon="-2.44364">
        <ele>-20.60000038147</ele>
        <time>2020-05-14T08:41:32.000Z</time>
      </trkpt>
      <trkpt lat="47.27443" lon="-2.44401">
        <ele>-20.60000038147</ele>
        <time>2020-05-14T08:41:39.000Z</time>
      </trkpt>
      <trkpt lat="47.27438" lon="-2.4444">
        <ele>-20.60000038147</ele>
        <time>2020-05-14T08:41:46.000Z</time>
      </trkpt>
      <trkpt lat="47.27438" lon="-2.44453">
        <ele>-20.60000038147</ele>
        <time>2020-05-14T08:41:48.000Z</time>
      </trkpt>
      <trkpt lat="47.27439" lon="-2.44483">
        <ele>-20.60000038147</ele>
        <time>2020-05-14T08:41:52.000Z</time>
      </trkpt>
      <trkpt lat="47.27441" lon="-2.44504">
        <ele>-20.60000038147</ele>
        <time>2020-05-14T08:41:55.000Z</time>
      </trkpt>
      <trkpt lat="47.27448" lon="-2.44525">
        <ele>-20.60000038147</ele>
        <time>2020-05-14T08:41:58.000Z</time>
      </trkpt>
      <trkpt lat="47.27449" lon="-2.44533">
        <ele>-20.60000038147</ele>
        <time>2020-05-14T08:41:59.000Z</time>
      </trkpt>
      <trkpt lat="47.27451" lon="-2.44556">
        <ele>-20.60000038147</ele>
        <time>2020-05-14T08:42:02.000Z</time>
      </trkpt>
      <trkpt lat="47.27454" lon="-2.44597">
        <ele>-20.60000038147</ele>
        <time>2020-05-14T08:42:07.000Z</time>
      </trkpt>
      <trkpt lat="47.27457" lon="-2.44604">
        <ele>-20.60000038147</ele>
        <time>2020-05-14T08:42:08.000Z</time>
      </trkpt>
      <trkpt lat="47.27467" lon="-2.44625">
        <ele>-20.60000038147</ele>
        <time>2020-05-14T08:42:11.000Z</time>
      </trkpt>
      <trkpt lat="47.27471" lon="-2.44633">
        <ele>-20.60000038147</ele>
        <time>2020-05-14T08:42:12.000Z</time>
      </trkpt>
      <trkpt lat="47.27496" lon="-2.44677">
        <ele>-20.60000038147</ele>
        <time>2020-05-14T08:42:18.000Z</time>
      </trkpt>
      <trkpt lat="47.27513" lon="-2.44706">
        <ele>-20.60000038147</ele>
        <time>2020-05-14T08:42:22.000Z</time>
      </trkpt>
      <trkpt lat="47.27518" lon="-2.44723">
        <ele>-20.60000038147</ele>
        <time>2020-05-14T08:42:24.000Z</time>
      </trkpt>
      <trkpt lat="47.27524" lon="-2.44749">
        <ele>-20.200000762939</ele>
        <time>2020-05-14T08:42:27.000Z</time>
      </trkpt>
      <trkpt lat="47.27526" lon="-2.44757">
        <ele>-19.799999237061</ele>
        <time>2020-05-14T08:42:28.000Z</time>
      </trkpt>
      <trkpt lat="47.27528" lon="-2.44766">
        <ele>-19.39999961853</ele>
        <time>2020-05-14T08:42:29.000Z</time>
      </trkpt>
      <trkpt lat="47.2753" lon="-2.44775">
        <ele>-19</ele>
        <time>2020-05-14T08:42:30.000Z</time>
      </trkpt>
      <trkpt lat="47.27531" lon="-2.44783">
        <ele>-18.60000038147</ele>
        <time>2020-05-14T08:42:31.000Z</time>
      </trkpt>
      <trkpt lat="47.27533" lon="-2.44791">
        <ele>-18.60000038147</ele>
        <time>2020-05-14T08:42:32.000Z</time>
      </trkpt>
      <trkpt lat="47.27536" lon="-2.44806">
        <ele>-18.60000038147</ele>
        <time>2020-05-14T08:42:34.000Z</time>
      </trkpt>
      <trkpt lat="47.27533" lon="-2.4482">
        <ele>-18.60000038147</ele>
        <time>2020-05-14T08:42:36.000Z</time>
      </trkpt>
      <trkpt lat="47.2752" lon="-2.44835">
        <ele>-18.60000038147</ele>
        <time>2020-05-14T08:42:39.000Z</time>
      </trkpt>
      <trkpt lat="47.27515" lon="-2.44839">
        <ele>-18.60000038147</ele>
        <time>2020-05-14T08:42:40.000Z</time>
      </trkpt>
      <trkpt lat="47.27511" lon="-2.44844">
        <ele>-18.60000038147</ele>
        <time>2020-05-14T08:42:41.000Z</time>
      </trkpt>
      <trkpt lat="47.27504" lon="-2.44856">
        <ele>-18.60000038147</ele>
        <time>2020-05-14T08:42:43.000Z</time>
      </trkpt>
      <trkpt lat="47.27505" lon="-2.44881">
        <ele>-18.60000038147</ele>
        <time>2020-05-14T08:42:46.000Z</time>
      </trkpt>
      <trkpt lat="47.27508" lon="-2.44897">
        <ele>-18.60000038147</ele>
        <time>2020-05-14T08:42:48.000Z</time>
      </trkpt>
      <trkpt lat="47.27516" lon="-2.44931">
        <ele>-18.60000038147</ele>
        <time>2020-05-14T08:42:52.000Z</time>
      </trkpt>
      <trkpt lat="47.27538" lon="-2.44997">
        <ele>-18.60000038147</ele>
        <time>2020-05-14T08:43:00.000Z</time>
      </trkpt>
      <trkpt lat="47.27565" lon="-2.45061">
        <ele>-18.60000038147</ele>
        <time>2020-05-14T08:43:08.000Z</time>
      </trkpt>
      <trkpt lat="47.27588" lon="-2.45109">
        <ele>-18.60000038147</ele>
        <time>2020-05-14T08:43:15.000Z</time>
      </trkpt>
      <trkpt lat="47.2759" lon="-2.45116">
        <ele>-18.60000038147</ele>
        <time>2020-05-14T08:43:16.000Z</time>
      </trkpt>
      <trkpt lat="47.27595" lon="-2.45147">
        <ele>-18.60000038147</ele>
        <time>2020-05-14T08:43:20.000Z</time>
      </trkpt>
      <trkpt lat="47.27601" lon="-2.45187">
        <ele>-18.60000038147</ele>
        <time>2020-05-14T08:43:25.000Z</time>
      </trkpt>
      <trkpt lat="47.27602" lon="-2.45203">
        <ele>-18.60000038147</ele>
        <time>2020-05-14T08:43:27.000Z</time>
      </trkpt>
      <trkpt lat="47.27604" lon="-2.45211">
        <ele>-18.60000038147</ele>
        <time>2020-05-14T08:43:28.000Z</time>
      </trkpt>
      <trkpt lat="47.27609" lon="-2.45244">
        <ele>-18.60000038147</ele>
        <time>2020-05-14T08:43:32.000Z</time>
      </trkpt>
      <trkpt lat="47.27614" lon="-2.45309">
        <ele>-18.60000038147</ele>
        <time>2020-05-14T08:43:40.000Z</time>
      </trkpt>
      <trkpt lat="47.27618" lon="-2.45357">
        <ele>-18.200000762939</ele>
        <time>2020-05-14T08:43:46.000Z</time>
      </trkpt>
      <trkpt lat="47.27618" lon="-2.45364">
        <ele>-17.799999237061</ele>
        <time>2020-05-14T08:43:47.000Z</time>
      </trkpt>
      <trkpt lat="47.27619" lon="-2.45371">
        <ele>-17.39999961853</ele>
        <time>2020-05-14T08:43:48.000Z</time>
      </trkpt>
      <trkpt lat="47.27619" lon="-2.45377">
        <ele>-17</ele>
        <time>2020-05-14T08:43:49.000Z</time>
      </trkpt>
      <trkpt lat="47.2762" lon="-2.45384">
        <ele>-16.60000038147</ele>
        <time>2020-05-14T08:43:50.000Z</time>
      </trkpt>
      <trkpt lat="47.27623" lon="-2.45413">
        <ele>-16.60000038147</ele>
        <time>2020-05-14T08:43:54.000Z</time>
      </trkpt>
      <trkpt lat="47.2763" lon="-2.4547">
        <ele>-16.60000038147</ele>
        <time>2020-05-14T08:44:01.000Z</time>
      </trkpt>
      <trkpt lat="47.27633" lon="-2.45486">
        <ele>-16.200000762939</ele>
        <time>2020-05-14T08:44:03.000Z</time>
      </trkpt>
      <trkpt lat="47.27634" lon="-2.45493">
        <ele>-15.800000190735</ele>
        <time>2020-05-14T08:44:04.000Z</time>
      </trkpt>
      <trkpt lat="47.27636" lon="-2.45502">
        <ele>-15.39999961853</ele>
        <time>2020-05-14T08:44:05.000Z</time>
      </trkpt>
      <trkpt lat="47.27638" lon="-2.4551">
        <ele>-14.800000190735</ele>
        <time>2020-05-14T08:44:06.000Z</time>
      </trkpt>
      <trkpt lat="47.2764" lon="-2.45518">
        <ele>-14.39999961853</ele>
        <time>2020-05-14T08:44:07.000Z</time>
      </trkpt>
      <trkpt lat="47.27642" lon="-2.45526">
        <ele>-14.39999961853</ele>
        <time>2020-05-14T08:44:08.000Z</time>
      </trkpt>
      <trkpt lat="47.27652" lon="-2.45573">
        <ele>-14.39999961853</ele>
        <time>2020-05-14T08:44:14.000Z</time>
      </trkpt>
      <trkpt lat="47.27668" lon="-2.45632">
        <ele>-14.39999961853</ele>
        <time>2020-05-14T08:44:22.000Z</time>
      </trkpt>
      <trkpt lat="47.27676" lon="-2.45657">
        <ele>-14.39999961853</ele>
        <time>2020-05-14T08:44:26.000Z</time>
      </trkpt>
      <trkpt lat="47.2768" lon="-2.45667">
        <ele>-14.39999961853</ele>
        <time>2020-05-14T08:44:28.000Z</time>
      </trkpt>
      <trkpt lat="47.27676" lon="-2.45676">
        <ele>-14.39999961853</ele>
        <time>2020-05-14T08:44:30.000Z</time>
      </trkpt>
      <trkpt lat="47.27668" lon="-2.45682">
        <ele>-14.39999961853</ele>
        <time>2020-05-14T08:44:32.000Z</time>
      </trkpt>
      <trkpt lat="47.27652" lon="-2.45692">
        <ele>-14.39999961853</ele>
        <time>2020-05-14T08:44:36.000Z</time>
      </trkpt>
      <trkpt lat="47.27634" lon="-2.45704">
        <ele>-14.39999961853</ele>
        <time>2020-05-14T08:44:42.000Z</time>
      </trkpt>
      <trkpt lat="47.27632" lon="-2.45707">
        <ele>-14.39999961853</ele>
        <time>2020-05-14T08:44:43.000Z</time>
      </trkpt>
      <trkpt lat="47.27632" lon="-2.45716">
        <ele>-14.39999961853</ele>
        <time>2020-05-14T08:44:45.000Z</time>
      </trkpt>
      <trkpt lat="47.27636" lon="-2.45727">
        <ele>-14.39999961853</ele>
        <time>2020-05-14T08:44:47.000Z</time>
      </trkpt>
      <trkpt lat="47.27637" lon="-2.45733">
        <ele>-14.39999961853</ele>
        <time>2020-05-14T08:44:48.000Z</time>
      </trkpt>
      <trkpt lat="47.27639" lon="-2.45741">
        <ele>-14.39999961853</ele>
        <time>2020-05-14T08:44:49.000Z</time>
      </trkpt>
      <trkpt lat="47.27643" lon="-2.45782">
        <ele>-14.39999961853</ele>
        <time>2020-05-14T08:44:53.000Z</time>
      </trkpt>
      <trkpt lat="47.27644" lon="-2.45833">
        <ele>-15</ele>
        <time>2020-05-14T08:44:58.000Z</time>
      </trkpt>
      <trkpt lat="47.27644" lon="-2.45843">
        <ele>-15.39999961853</ele>
        <time>2020-05-14T08:44:59.000Z</time>
      </trkpt>
      <trkpt lat="47.27643" lon="-2.45854">
        <ele>-15.800000190735</ele>
        <time>2020-05-14T08:45:00.000Z</time>
      </trkpt>
      <trkpt lat="47.27643" lon="-2.45864">
        <ele>-16.200000762939</ele>
        <time>2020-05-14T08:45:01.000Z</time>
      </trkpt>
      <trkpt lat="47.27642" lon="-2.45874">
        <ele>-16.60000038147</ele>
        <time>2020-05-14T08:45:02.000Z</time>
      </trkpt>
      <trkpt lat="47.27641" lon="-2.45904">
        <ele>-16.60000038147</ele>
        <time>2020-05-14T08:45:05.000Z</time>
      </trkpt>
      <trkpt lat="47.27639" lon="-2.45939">
        <ele>-16.60000038147</ele>
        <time>2020-05-14T08:45:09.000Z</time>
      </trkpt>
      <trkpt lat="47.27639" lon="-2.45956">
        <ele>-16.60000038147</ele>
        <time>2020-05-14T08:45:11.000Z</time>
      </trkpt>
      <trkpt lat="47.2764" lon="-2.46001">
        <ele>-16.60000038147</ele>
        <time>2020-05-14T08:45:16.000Z</time>
      </trkpt>
      <trkpt lat="47.27643" lon="-2.46026">
        <ele>-16.60000038147</ele>
        <time>2020-05-14T08:45:19.000Z</time>
      </trkpt>
      <trkpt lat="47.27649" lon="-2.46052">
        <ele>-16.60000038147</ele>
        <time>2020-05-14T08:45:22.000Z</time>
      </trkpt>
      <trkpt lat="47.27661" lon="-2.46114">
        <ele>-16.60000038147</ele>
        <time>2020-05-14T08:45:29.000Z</time>
      </trkpt>
      <trkpt lat="47.27662" lon="-2.46122">
        <ele>-16.60000038147</ele>
        <time>2020-05-14T08:45:30.000Z</time>
      </trkpt>
      <trkpt lat="47.27668" lon="-2.46171">
        <ele>-16.60000038147</ele>
        <time>2020-05-14T08:45:36.000Z</time>
      </trkpt>
      <trkpt lat="47.27669" lon="-2.46209">
        <ele>-16.60000038147</ele>
        <time>2020-05-14T08:45:40.000Z</time>
      </trkpt>
      <trkpt lat="47.27671" lon="-2.46227">
        <ele>-16.60000038147</ele>
        <time>2020-05-14T08:45:42.000Z</time>
      </trkpt>
      <trkpt lat="47.27673" lon="-2.46244">
        <ele>-16.200000762939</ele>
        <time>2020-05-14T08:45:44.000Z</time>
      </trkpt>
      <trkpt lat="47.27674" lon="-2.46252">
        <ele>-15.800000190735</ele>
        <time>2020-05-14T08:45:45.000Z</time>
      </trkpt>
      <trkpt lat="47.27673" lon="-2.46261">
        <ele>-15.39999961853</ele>
        <time>2020-05-14T08:45:46.000Z</time>
      </trkpt>
      <trkpt lat="47.27671" lon="-2.46267">
        <ele>-15</ele>
        <time>2020-05-14T08:45:47.000Z</time>
      </trkpt>
      <trkpt lat="47.27667" lon="-2.46273">
        <ele>-14.39999961853</ele>
        <time>2020-05-14T08:45:48.000Z</time>
      </trkpt>
      <trkpt lat="47.27663" lon="-2.46278">
        <ele>-14.39999961853</ele>
        <time>2020-05-14T08:45:49.000Z</time>
      </trkpt>
      <trkpt lat="47.27662" lon="-2.46298">
        <ele>-14.39999961853</ele>
        <time>2020-05-14T08:45:52.000Z</time>
      </trkpt>
      <trkpt lat="47.27671" lon="-2.46315">
        <ele>-14.39999961853</ele>
        <time>2020-05-14T08:45:55.000Z</time>
      </trkpt>
      <trkpt lat="47.27673" lon="-2.46322">
        <ele>-14.39999961853</ele>
        <time>2020-05-14T08:45:56.000Z</time>
      </trkpt>
      <trkpt lat="47.27677" lon="-2.46347">
        <ele>-14.39999961853</ele>
        <time>2020-05-14T08:45:59.000Z</time>
      </trkpt>
      <trkpt lat="47.27679" lon="-2.46356">
        <ele>-14.39999961853</ele>
        <time>2020-05-14T08:46:00.000Z</time>
      </trkpt>
      <trkpt lat="47.27688" lon="-2.46384">
        <ele>-14.39999961853</ele>
        <time>2020-05-14T08:46:03.000Z</time>
      </trkpt>
      <trkpt lat="47.27719" lon="-2.46454">
        <ele>-14.39999961853</ele>
        <time>2020-05-14T08:46:11.000Z</time>
      </trkpt>
      <trkpt lat="47.27734" lon="-2.46498">
        <ele>-14.39999961853</ele>
        <time>2020-05-14T08:46:16.000Z</time>
      </trkpt>
      <trkpt lat="47.27748" lon="-2.46561">
        <ele>-14.39999961853</ele>
        <time>2020-05-14T08:46:23.000Z</time>
      </trkpt>
      <trkpt lat="47.27755" lon="-2.46583">
        <ele>-14.39999961853</ele>
        <time>2020-05-14T08:46:26.000Z</time>
      </trkpt>
      <trkpt lat="47.27761" lon="-2.46593">
        <ele>-14.39999961853</ele>
        <time>2020-05-14T08:46:28.000Z</time>
      </trkpt>
      <trkpt lat="47.27764" lon="-2.46599">
        <ele>-14.39999961853</ele>
        <time>2020-05-14T08:46:29.000Z</time>
      </trkpt>
      <trkpt lat="47.27766" lon="-2.46614">
        <ele>-14.39999961853</ele>
        <time>2020-05-14T08:46:32.000Z</time>
      </trkpt>
      <trkpt lat="47.2776" lon="-2.46624">
        <ele>-15</ele>
        <time>2020-05-14T08:46:35.000Z</time>
      </trkpt>
      <trkpt lat="47.2776" lon="-2.46629">
        <ele>-15.39999961853</ele>
        <time>2020-05-14T08:46:36.000Z</time>
      </trkpt>
      <trkpt lat="47.27761" lon="-2.46634">
        <ele>-15.800000190735</ele>
        <time>2020-05-14T08:46:37.000Z</time>
      </trkpt>
      <trkpt lat="47.27762" lon="-2.4664">
        <ele>-16.200000762939</ele>
        <time>2020-05-14T08:46:38.000Z</time>
      </trkpt>
      <trkpt lat="47.27764" lon="-2.46646">
        <ele>-16.799999237061</ele>
        <time>2020-05-14T08:46:39.000Z</time>
      </trkpt>
      <trkpt lat="47.27764" lon="-2.46658">
        <ele>-16.799999237061</ele>
        <time>2020-05-14T08:46:41.000Z</time>
      </trkpt>
      <trkpt lat="47.27763" lon="-2.46666">
        <ele>-16.799999237061</ele>
        <time>2020-05-14T08:46:42.000Z</time>
      </trkpt>
      <trkpt lat="47.27761" lon="-2.46706">
        <ele>-16.799999237061</ele>
        <time>2020-05-14T08:46:47.000Z</time>
      </trkpt>
      <trkpt lat="47.27759" lon="-2.46733">
        <ele>-16.799999237061</ele>
        <time>2020-05-14T08:46:51.000Z</time>
      </trkpt>
      <trkpt lat="47.2776" lon="-2.4674">
        <ele>-16.799999237061</ele>
        <time>2020-05-14T08:46:52.000Z</time>
      </trkpt>
      <trkpt lat="47.27762" lon="-2.46754">
        <ele>-17.200000762939</ele>
        <time>2020-05-14T08:46:54.000Z</time>
      </trkpt>
      <trkpt lat="47.27764" lon="-2.46761">
        <ele>-17.60000038147</ele>
        <time>2020-05-14T08:46:55.000Z</time>
      </trkpt>
      <trkpt lat="47.27766" lon="-2.46768">
        <ele>-18</ele>
        <time>2020-05-14T08:46:56.000Z</time>
      </trkpt>
      <trkpt lat="47.27769" lon="-2.46776">
        <ele>-18.60000038147</ele>
        <time>2020-05-14T08:46:57.000Z</time>
      </trkpt>
      <trkpt lat="47.27771" lon="-2.46784">
        <ele>-19</ele>
        <time>2020-05-14T08:46:58.000Z</time>
      </trkpt>
      <trkpt lat="47.27779" lon="-2.46816">
        <ele>-19</ele>
        <time>2020-05-14T08:47:02.000Z</time>
      </trkpt>
      <trkpt lat="47.27785" lon="-2.46842">
        <ele>-19</ele>
        <time>2020-05-14T08:47:06.000Z</time>
      </trkpt>
      <trkpt lat="47.27786" lon="-2.46848">
        <ele>-19</ele>
        <time>2020-05-14T08:47:07.000Z</time>
      </trkpt>
      <trkpt lat="47.27784" lon="-2.46874">
        <ele>-19</ele>
        <time>2020-05-14T08:47:12.000Z</time>
      </trkpt>
      <trkpt lat="47.27778" lon="-2.46895">
        <ele>-19</ele>
        <time>2020-05-14T08:47:18.000Z</time>
      </trkpt>
      <trkpt lat="47.27774" lon="-2.46903">
        <ele>-19</ele>
        <time>2020-05-14T08:47:22.000Z</time>
      </trkpt>
      <trkpt lat="47.27773" lon="-2.46906">
        <ele>-19</ele>
        <time>2020-05-14T08:47:23.000Z</time>
      </trkpt>
      <trkpt lat="47.2777" lon="-2.46928">
        <ele>-19</ele>
        <time>2020-05-14T08:47:29.000Z</time>
      </trkpt>
      <trkpt lat="47.27769" lon="-2.46931">
        <ele>-19</ele>
        <time>2020-05-14T08:47:30.000Z</time>
      </trkpt>
      <trkpt lat="47.27767" lon="-2.46934">
        <ele>-19</ele>
        <time>2020-05-14T08:47:32.000Z</time>
      </trkpt>
      <trkpt lat="47.27761" lon="-2.46936">
        <ele>-19</ele>
        <time>2020-05-14T08:47:34.000Z</time>
      </trkpt>
      <trkpt lat="47.2775" lon="-2.46937">
        <ele>-19</ele>
        <time>2020-05-14T08:47:37.000Z</time>
      </trkpt>
      <trkpt lat="47.27746" lon="-2.46938">
        <ele>-19</ele>
        <time>2020-05-14T08:47:38.000Z</time>
      </trkpt>
      <trkpt lat="47.27742" lon="-2.46939">
        <ele>-18.60000038147</ele>
        <time>2020-05-14T08:47:39.000Z</time>
      </trkpt>
      <trkpt lat="47.27738" lon="-2.46939">
        <ele>-18.200000762939</ele>
        <time>2020-05-14T08:47:40.000Z</time>
      </trkpt>
      <trkpt lat="47.27733" lon="-2.4694">
        <ele>-17.799999237061</ele>
        <time>2020-05-14T08:47:41.000Z</time>
      </trkpt>
      <trkpt lat="47.27729" lon="-2.4694">
        <ele>-17.39999961853</ele>
        <time>2020-05-14T08:47:42.000Z</time>
      </trkpt>
      <trkpt lat="47.27724" lon="-2.46942">
        <ele>-17</ele>
        <time>2020-05-14T08:47:43.000Z</time>
      </trkpt>
      <trkpt lat="47.27713" lon="-2.46942">
        <ele>-17</ele>
        <time>2020-05-14T08:47:46.000Z</time>
      </trkpt>
      <trkpt lat="47.27695" lon="-2.46938">
        <ele>-17</ele>
        <time>2020-05-14T08:47:50.000Z</time>
      </trkpt>
      <trkpt lat="47.27683" lon="-2.46934">
        <ele>-17</ele>
        <time>2020-05-14T08:47:52.000Z</time>
      </trkpt>
      <trkpt lat="47.2767" lon="-2.46945">
        <ele>-17</ele>
        <time>2020-05-14T08:47:55.000Z</time>
      </trkpt>
      <trkpt lat="47.27667" lon="-2.46956">
        <ele>-17</ele>
        <time>2020-05-14T08:47:57.000Z</time>
      </trkpt>
      <trkpt lat="47.27667" lon="-2.46964">
        <ele>-17</ele>
        <time>2020-05-14T08:47:58.000Z</time>
      </trkpt>
      <trkpt lat="47.27666" lon="-2.46979">
        <ele>-17</ele>
        <time>2020-05-14T08:48:00.000Z</time>
      </trkpt>
      <trkpt lat="47.27662" lon="-2.46996">
        <ele>-17</ele>
        <time>2020-05-14T08:48:04.000Z</time>
      </trkpt>
      <trkpt lat="47.27649" lon="-2.46995">
        <ele>-17</ele>
        <time>2020-05-14T08:48:08.000Z</time>
      </trkpt>
      <trkpt lat="47.27627" lon="-2.46993">
        <ele>-17</ele>
        <time>2020-05-14T08:48:14.000Z</time>
      </trkpt>
      <trkpt lat="47.27624" lon="-2.46993">
        <ele>-16.60000038147</ele>
        <time>2020-05-14T08:48:15.000Z</time>
      </trkpt>
      <trkpt lat="47.2762" lon="-2.46993">
        <ele>-16</ele>
        <time>2020-05-14T08:48:16.000Z</time>
      </trkpt>
      <trkpt lat="47.27618" lon="-2.46994">
        <ele>-15.60000038147</ele>
        <time>2020-05-14T08:48:17.000Z</time>
      </trkpt>
      <trkpt lat="47.27614" lon="-2.46994">
        <ele>-15.199999809265</ele>
        <time>2020-05-14T08:48:18.000Z</time>
      </trkpt>
      <trkpt lat="47.27612" lon="-2.46993">
        <ele>-14.60000038147</ele>
        <time>2020-05-14T08:48:19.000Z</time>
      </trkpt>
      <trkpt lat="47.27608" lon="-2.46993">
        <ele>-14.199999809265</ele>
        <time>2020-05-14T08:48:20.000Z</time>
      </trkpt>
      <trkpt lat="47.27605" lon="-2.46993">
        <ele>-13.800000190735</ele>
        <time>2020-05-14T08:48:21.000Z</time>
      </trkpt>
      <trkpt lat="47.27601" lon="-2.46993">
        <ele>-13.39999961853</ele>
        <time>2020-05-14T08:48:22.000Z</time>
      </trkpt>
      <trkpt lat="47.27597" lon="-2.46993">
        <ele>-12.60000038147</ele>
        <time>2020-05-14T08:48:23.000Z</time>
      </trkpt>
      <trkpt lat="47.27593" lon="-2.46992">
        <ele>-12.60000038147</ele>
        <time>2020-05-14T08:48:24.000Z</time>
      </trkpt>
      <trkpt lat="47.27583" lon="-2.46991">
        <ele>-12.60000038147</ele>
        <time>2020-05-14T08:48:26.000Z</time>
      </trkpt>
      <trkpt lat="47.27572" lon="-2.46985">
        <ele>-12.60000038147</ele>
        <time>2020-05-14T08:48:28.000Z</time>
      </trkpt>
      <trkpt lat="47.27562" lon="-2.46982">
        <ele>-12.60000038147</ele>
        <time>2020-05-14T08:48:30.000Z</time>
      </trkpt>
      <trkpt lat="47.27552" lon="-2.46987">
        <ele>-12.60000038147</ele>
        <time>2020-05-14T08:48:32.000Z</time>
      </trkpt>
      <trkpt lat="47.27542" lon="-2.47002">
        <ele>-12.60000038147</ele>
        <time>2020-05-14T08:48:35.000Z</time>
      </trkpt>
      <trkpt lat="47.27539" lon="-2.47008">
        <ele>-12.60000038147</ele>
        <time>2020-05-14T08:48:36.000Z</time>
      </trkpt>
      <trkpt lat="47.27533" lon="-2.47018">
        <ele>-12.60000038147</ele>
        <time>2020-05-14T08:48:38.000Z</time>
      </trkpt>
      <trkpt lat="47.2752" lon="-2.47038">
        <ele>-12.60000038147</ele>
        <time>2020-05-14T08:48:42.000Z</time>
      </trkpt>
      <trkpt lat="47.27509" lon="-2.4705">
        <ele>-12.60000038147</ele>
        <time>2020-05-14T08:48:45.000Z</time>
      </trkpt>
      <trkpt lat="47.27497" lon="-2.47062">
        <ele>-12.60000038147</ele>
        <time>2020-05-14T08:48:48.000Z</time>
      </trkpt>
      <trkpt lat="47.27479" lon="-2.47085">
        <ele>-12.60000038147</ele>
        <time>2020-05-14T08:48:54.000Z</time>
      </trkpt>
      <trkpt lat="47.27478" lon="-2.47093">
        <ele>-12.60000038147</ele>
        <time>2020-05-14T08:48:56.000Z</time>
      </trkpt>
      <trkpt lat="47.27479" lon="-2.47103">
        <ele>-12.60000038147</ele>
        <time>2020-05-14T08:48:58.000Z</time>
      </trkpt>
      <trkpt lat="47.27481" lon="-2.47114">
        <ele>-12.60000038147</ele>
        <time>2020-05-14T08:49:00.000Z</time>
      </trkpt>
      <trkpt lat="47.2749" lon="-2.47136">
        <ele>-12.60000038147</ele>
        <time>2020-05-14T08:49:04.000Z</time>
      </trkpt>
      <trkpt lat="47.27505" lon="-2.47179">
        <ele>-13</ele>
        <time>2020-05-14T08:49:11.000Z</time>
      </trkpt>
      <trkpt lat="47.27507" lon="-2.47185">
        <ele>-14</ele>
        <time>2020-05-14T08:49:12.000Z</time>
      </trkpt>
      <trkpt lat="47.27506" lon="-2.4719">
        <ele>-14.39999961853</ele>
        <time>2020-05-14T08:49:13.000Z</time>
      </trkpt>
      <trkpt lat="47.27503" lon="-2.47194">
        <ele>-14.800000190735</ele>
        <time>2020-05-14T08:49:14.000Z</time>
      </trkpt>
      <trkpt lat="47.27489" lon="-2.47201">
        <ele>-14.800000190735</ele>
        <time>2020-05-14T08:49:17.000Z</time>
      </trkpt>
      <trkpt lat="47.27479" lon="-2.47207">
        <ele>-14.800000190735</ele>
        <time>2020-05-14T08:49:19.000Z</time>
      </trkpt>
      <trkpt lat="47.27459" lon="-2.47221">
        <ele>-14.800000190735</ele>
        <time>2020-05-14T08:49:23.000Z</time>
      </trkpt>
      <trkpt lat="47.27426" lon="-2.47242">
        <ele>-14.800000190735</ele>
        <time>2020-05-14T08:49:30.000Z</time>
      </trkpt>
      <trkpt lat="47.27399" lon="-2.47259">
        <ele>-14.39999961853</ele>
        <time>2020-05-14T08:49:36.000Z</time>
      </trkpt>
      <trkpt lat="47.27395" lon="-2.47263">
        <ele>-13.60000038147</ele>
        <time>2020-05-14T08:49:37.000Z</time>
      </trkpt>
      <trkpt lat="47.2739" lon="-2.47266">
        <ele>-13.199999809265</ele>
        <time>2020-05-14T08:49:38.000Z</time>
      </trkpt>
      <trkpt lat="47.27386" lon="-2.4727">
        <ele>-12.800000190735</ele>
        <time>2020-05-14T08:49:39.000Z</time>
      </trkpt>
      <trkpt lat="47.27366" lon="-2.47289">
        <ele>-12.800000190735</ele>
        <time>2020-05-14T08:49:44.000Z</time>
      </trkpt>
      <trkpt lat="47.27358" lon="-2.47296">
        <ele>-12.800000190735</ele>
        <time>2020-05-14T08:49:46.000Z</time>
      </trkpt>
      <trkpt lat="47.27345" lon="-2.47301">
        <ele>-12.800000190735</ele>
        <time>2020-05-14T08:49:49.000Z</time>
      </trkpt>
      <trkpt lat="47.27338" lon="-2.47303">
        <ele>-12.39999961853</ele>
        <time>2020-05-14T08:49:51.000Z</time>
      </trkpt>
      <trkpt lat="47.27334" lon="-2.47304">
        <ele>-12</ele>
        <time>2020-05-14T08:49:52.000Z</time>
      </trkpt>
      <trkpt lat="47.2733" lon="-2.47305">
        <ele>-11.60000038147</ele>
        <time>2020-05-14T08:49:53.000Z</time>
      </trkpt>
      <trkpt lat="47.27327" lon="-2.47305">
        <ele>-11.199999809265</ele>
        <time>2020-05-14T08:49:54.000Z</time>
      </trkpt>
      <trkpt lat="47.27325" lon="-2.47309">
        <ele>-10.60000038147</ele>
        <time>2020-05-14T08:49:55.000Z</time>
      </trkpt>
      <trkpt lat="47.27312" lon="-2.47318">
        <ele>-10.60000038147</ele>
        <time>2020-05-14T08:49:59.000Z</time>
      </trkpt>
      <trkpt lat="47.27299" lon="-2.47329">
        <ele>-10.199999809265</ele>
        <time>2020-05-14T08:50:03.000Z</time>
      </trkpt>
      <trkpt lat="47.27296" lon="-2.47333">
        <ele>-9.8000001907349</ele>
        <time>2020-05-14T08:50:04.000Z</time>
      </trkpt>
      <trkpt lat="47.27294" lon="-2.47339">
        <ele>-9.3999996185303</ele>
        <time>2020-05-14T08:50:05.000Z</time>
      </trkpt>
      <trkpt lat="47.27294" lon="-2.47345">
        <ele>-9</ele>
        <time>2020-05-14T08:50:06.000Z</time>
      </trkpt>
      <trkpt lat="47.27294" lon="-2.47351">
        <ele>-8.6000003814697</ele>
        <time>2020-05-14T08:50:07.000Z</time>
      </trkpt>
      <trkpt lat="47.27295" lon="-2.47358">
        <ele>-8.6000003814697</ele>
        <time>2020-05-14T08:50:08.000Z</time>
      </trkpt>
      <trkpt lat="47.27294" lon="-2.47372">
        <ele>-8.6000003814697</ele>
        <time>2020-05-14T08:50:10.000Z</time>
      </trkpt>
      <trkpt lat="47.27288" lon="-2.47389">
        <ele>-8.6000003814697</ele>
        <time>2020-05-14T08:50:13.000Z</time>
      </trkpt>
      <trkpt lat="47.27276" lon="-2.47405">
        <ele>-8.6000003814697</ele>
        <time>2020-05-14T08:50:16.000Z</time>
      </trkpt>
      <trkpt lat="47.27273" lon="-2.47412">
        <ele>-8.6000003814697</ele>
        <time>2020-05-14T08:50:17.000Z</time>
      </trkpt>
      <trkpt lat="47.27271" lon="-2.47421">
        <ele>-8.6000003814697</ele>
        <time>2020-05-14T08:50:18.000Z</time>
      </trkpt>
      <trkpt lat="47.2727" lon="-2.47447">
        <ele>-8.6000003814697</ele>
        <time>2020-05-14T08:50:21.000Z</time>
      </trkpt>
      <trkpt lat="47.27271" lon="-2.47455">
        <ele>-8.6000003814697</ele>
        <time>2020-05-14T08:50:22.000Z</time>
      </trkpt>
      <trkpt lat="47.2728" lon="-2.47503">
        <ele>-8.6000003814697</ele>
        <time>2020-05-14T08:50:28.000Z</time>
      </trkpt>
      <trkpt lat="47.27295" lon="-2.47548">
        <ele>-8.6000003814697</ele>
        <time>2020-05-14T08:50:35.000Z</time>
      </trkpt>
      <trkpt lat="47.273" lon="-2.47559">
        <ele>-8.6000003814697</ele>
        <time>2020-05-14T08:50:37.000Z</time>
      </trkpt>
      <trkpt lat="47.27307" lon="-2.4757">
        <ele>-8.6000003814697</ele>
        <time>2020-05-14T08:50:40.000Z</time>
      </trkpt>
      <trkpt lat="47.27308" lon="-2.47578">
        <ele>-8.6000003814697</ele>
        <time>2020-05-14T08:50:43.000Z</time>
      </trkpt>
      <trkpt lat="47.27306" lon="-2.4758">
        <ele>-8.6000003814697</ele>
        <time>2020-05-14T08:50:44.000Z</time>
      </trkpt>
      <trkpt lat="47.27304" lon="-2.4759">
        <ele>-8.6000003814697</ele>
        <time>2020-05-14T08:50:47.000Z</time>
      </trkpt>
      <trkpt lat="47.27314" lon="-2.47603">
        <ele>-8.6000003814697</ele>
        <time>2020-05-14T08:50:51.000Z</time>
      </trkpt>
      <trkpt lat="47.27331" lon="-2.47625">
        <ele>-8.6000003814697</ele>
        <time>2020-05-14T08:50:56.000Z</time>
      </trkpt>
      <trkpt lat="47.27344" lon="-2.47637">
        <ele>-9</ele>
        <time>2020-05-14T08:50:59.000Z</time>
      </trkpt>
      <trkpt lat="47.2735" lon="-2.47642">
        <ele>-9.3999996185303</ele>
        <time>2020-05-14T08:51:00.000Z</time>
      </trkpt>
      <trkpt lat="47.27356" lon="-2.47647">
        <ele>-9.8000001907349</ele>
        <time>2020-05-14T08:51:01.000Z</time>
      </trkpt>
      <trkpt lat="47.27362" lon="-2.47653">
        <ele>-10.199999809265</ele>
        <time>2020-05-14T08:51:02.000Z</time>
      </trkpt>
      <trkpt lat="47.27368" lon="-2.4766">
        <ele>-10.60000038147</ele>
        <time>2020-05-14T08:51:03.000Z</time>
      </trkpt>
      <trkpt lat="47.27384" lon="-2.47681">
        <ele>-10.60000038147</ele>
        <time>2020-05-14T08:51:06.000Z</time>
      </trkpt>
      <trkpt lat="47.27396" lon="-2.47692">
        <ele>-10.60000038147</ele>
        <time>2020-05-14T08:51:08.000Z</time>
      </trkpt>
      <trkpt lat="47.27407" lon="-2.47704">
        <ele>-11</ele>
        <time>2020-05-14T08:51:10.000Z</time>
      </trkpt>
      <trkpt lat="47.27411" lon="-2.47711">
        <ele>-11.60000038147</ele>
        <time>2020-05-14T08:51:11.000Z</time>
      </trkpt>
      <trkpt lat="47.27416" lon="-2.47718">
        <ele>-12</ele>
        <time>2020-05-14T08:51:12.000Z</time>
      </trkpt>
      <trkpt lat="47.2742" lon="-2.47725">
        <ele>-12.39999961853</ele>
        <time>2020-05-14T08:51:13.000Z</time>
      </trkpt>
      <trkpt lat="47.27425" lon="-2.47731">
        <ele>-12.800000190735</ele>
        <time>2020-05-14T08:51:14.000Z</time>
      </trkpt>
      <trkpt lat="47.2743" lon="-2.47738">
        <ele>-12.800000190735</ele>
        <time>2020-05-14T08:51:15.000Z</time>
      </trkpt>
      <trkpt lat="47.27455" lon="-2.47786">
        <ele>-12.800000190735</ele>
        <time>2020-05-14T08:51:21.000Z</time>
      </trkpt>
      <trkpt lat="47.2747" lon="-2.4781">
        <ele>-12.800000190735</ele>
        <time>2020-05-14T08:51:25.000Z</time>
      </trkpt>
      <trkpt lat="47.27474" lon="-2.47811">
        <ele>-12.800000190735</ele>
        <time>2020-05-14T08:51:26.000Z</time>
      </trkpt>
      <trkpt lat="47.27486" lon="-2.47802">
        <ele>-12.800000190735</ele>
        <time>2020-05-14T08:51:29.000Z</time>
      </trkpt>
      <trkpt lat="47.2749" lon="-2.47798">
        <ele>-12.800000190735</ele>
        <time>2020-05-14T08:51:30.000Z</time>
      </trkpt>
      <trkpt lat="47.27507" lon="-2.4778">
        <ele>-12.800000190735</ele>
        <time>2020-05-14T08:51:34.000Z</time>
      </trkpt>
      <trkpt lat="47.27512" lon="-2.47775">
        <ele>-12.800000190735</ele>
        <time>2020-05-14T08:51:35.000Z</time>
      </trkpt>
      <trkpt lat="47.27525" lon="-2.47764">
        <ele>-12.800000190735</ele>
        <time>2020-05-14T08:51:38.000Z</time>
      </trkpt>
      <trkpt lat="47.27534" lon="-2.47757">
        <ele>-12.800000190735</ele>
        <time>2020-05-14T08:51:40.000Z</time>
      </trkpt>
      <trkpt lat="47.27547" lon="-2.47746">
        <ele>-12.800000190735</ele>
        <time>2020-05-14T08:51:43.000Z</time>
      </trkpt>
      <trkpt lat="47.27563" lon="-2.47736">
        <ele>-12.800000190735</ele>
        <time>2020-05-14T08:51:47.000Z</time>
      </trkpt>
      <trkpt lat="47.2758" lon="-2.47724">
        <ele>-12.800000190735</ele>
        <time>2020-05-14T08:51:51.000Z</time>
      </trkpt>
      <trkpt lat="47.27584" lon="-2.47721">
        <ele>-12.800000190735</ele>
        <time>2020-05-14T08:51:52.000Z</time>
      </trkpt>
      <trkpt lat="47.27594" lon="-2.47718">
        <ele>-12.39999961853</ele>
        <time>2020-05-14T08:51:54.000Z</time>
      </trkpt>
      <trkpt lat="47.27599" lon="-2.47716">
        <ele>-12</ele>
        <time>2020-05-14T08:51:55.000Z</time>
      </trkpt>
      <trkpt lat="47.27603" lon="-2.47716">
        <ele>-11.60000038147</ele>
        <time>2020-05-14T08:51:56.000Z</time>
      </trkpt>
      <trkpt lat="47.27606" lon="-2.47715">
        <ele>-11</ele>
        <time>2020-05-14T08:51:57.000Z</time>
      </trkpt>
      <trkpt lat="47.27611" lon="-2.47715">
        <ele>-10.60000038147</ele>
        <time>2020-05-14T08:51:58.000Z</time>
      </trkpt>
      <trkpt lat="47.27616" lon="-2.47715">
        <ele>-10.60000038147</ele>
        <time>2020-05-14T08:51:59.000Z</time>
      </trkpt>
      <trkpt lat="47.27628" lon="-2.4772">
        <ele>-10.60000038147</ele>
        <time>2020-05-14T08:52:02.000Z</time>
      </trkpt>
      <trkpt lat="47.2763" lon="-2.47725">
        <ele>-10.60000038147</ele>
        <time>2020-05-14T08:52:03.000Z</time>
      </trkpt>
      <trkpt lat="47.27634" lon="-2.47746">
        <ele>-10.60000038147</ele>
        <time>2020-05-14T08:52:07.000Z</time>
      </trkpt>
      <trkpt lat="47.27643" lon="-2.47789">
        <ele>-10.60000038147</ele>
        <time>2020-05-14T08:52:14.000Z</time>
      </trkpt>
      <trkpt lat="47.27653" lon="-2.47844">
        <ele>-10.60000038147</ele>
        <time>2020-05-14T08:52:21.000Z</time>
      </trkpt>
      <trkpt lat="47.27662" lon="-2.47882">
        <ele>-10.60000038147</ele>
        <time>2020-05-14T08:52:27.000Z</time>
      </trkpt>
      <trkpt lat="47.27665" lon="-2.47897">
        <ele>-10.60000038147</ele>
        <time>2020-05-14T08:52:32.000Z</time>
      </trkpt>
      <trkpt lat="47.2767" lon="-2.47916">
        <ele>-10.60000038147</ele>
        <time>2020-05-14T08:52:39.000Z</time>
      </trkpt>
      <trkpt lat="47.27672" lon="-2.47943">
        <ele>-10.60000038147</ele>
        <time>2020-05-14T08:52:44.000Z</time>
      </trkpt>
      <trkpt lat="47.27674" lon="-2.47961">
        <ele>-10.199999809265</ele>
        <time>2020-05-14T08:52:47.000Z</time>
      </trkpt>
      <trkpt lat="47.27676" lon="-2.47967">
        <ele>-9.6000003814697</ele>
        <time>2020-05-14T08:52:48.000Z</time>
      </trkpt>
      <trkpt lat="47.27677" lon="-2.47973">
        <ele>-9.1999998092651</ele>
        <time>2020-05-14T08:52:49.000Z</time>
      </trkpt>
      <trkpt lat="47.27678" lon="-2.47979">
        <ele>-8.6000003814697</ele>
        <time>2020-05-14T08:52:50.000Z</time>
      </trkpt>
      <trkpt lat="47.27678" lon="-2.47985">
        <ele>-8.1999998092651</ele>
        <time>2020-05-14T08:52:51.000Z</time>
      </trkpt>
      <trkpt lat="47.27679" lon="-2.47991">
        <ele>-8.1999998092651</ele>
        <time>2020-05-14T08:52:52.000Z</time>
      </trkpt>
      <trkpt lat="47.27682" lon="-2.48003">
        <ele>-7.8000001907349</ele>
        <time>2020-05-14T08:52:54.000Z</time>
      </trkpt>
      <trkpt lat="47.27683" lon="-2.48009">
        <ele>-7</ele>
        <time>2020-05-14T08:52:55.000Z</time>
      </trkpt>
      <trkpt lat="47.27684" lon="-2.48015">
        <ele>-6.5999999046326</ele>
        <time>2020-05-14T08:52:56.000Z</time>
      </trkpt>
      <trkpt lat="47.27685" lon="-2.48021">
        <ele>-6.1999998092651</ele>
        <time>2020-05-14T08:52:57.000Z</time>
      </trkpt>
      <trkpt lat="47.2769" lon="-2.48039">
        <ele>-6.1999998092651</ele>
        <time>2020-05-14T08:53:00.000Z</time>
      </trkpt>
      <trkpt lat="47.27693" lon="-2.48052">
        <ele>-5.8000001907349</ele>
        <time>2020-05-14T08:53:02.000Z</time>
      </trkpt>
      <trkpt lat="47.27694" lon="-2.48058">
        <ele>-5.4000000953674</ele>
        <time>2020-05-14T08:53:03.000Z</time>
      </trkpt>
      <trkpt lat="47.27695" lon="-2.48065">
        <ele>-5</ele>
        <time>2020-05-14T08:53:04.000Z</time>
      </trkpt>
      <trkpt lat="47.27696" lon="-2.48071">
        <ele>-4.5999999046326</ele>
        <time>2020-05-14T08:53:05.000Z</time>
      </trkpt>
      <trkpt lat="47.27697" lon="-2.48076">
        <ele>-4.1999998092651</ele>
        <time>2020-05-14T08:53:06.000Z</time>
      </trkpt>
      <trkpt lat="47.27698" lon="-2.48081">
        <ele>-4.1999998092651</ele>
        <time>2020-05-14T08:53:07.000Z</time>
      </trkpt>
      <trkpt lat="47.27701" lon="-2.48086">
        <ele>-4.1999998092651</ele>
        <time>2020-05-14T08:53:09.000Z</time>
      </trkpt>
      <trkpt lat="47.27705" lon="-2.48091">
        <ele>-4.1999998092651</ele>
        <time>2020-05-14T08:53:11.000Z</time>
      </trkpt>
      <trkpt lat="47.27713" lon="-2.48108">
        <ele>-4.1999998092651</ele>
        <time>2020-05-14T08:53:17.000Z</time>
      </trkpt>
      <trkpt lat="47.27719" lon="-2.48122">
        <ele>-4.1999998092651</ele>
        <time>2020-05-14T08:53:22.000Z</time>
      </trkpt>
      <trkpt lat="47.27723" lon="-2.4814">
        <ele>-3.7999999523163</ele>
        <time>2020-05-14T08:53:27.000Z</time>
      </trkpt>
      <trkpt lat="47.27724" lon="-2.48143">
        <ele>-3.2000000476837</ele>
        <time>2020-05-14T08:53:28.000Z</time>
      </trkpt>
      <trkpt lat="47.27724" lon="-2.48147">
        <ele>-2.7999999523163</ele>
        <time>2020-05-14T08:53:29.000Z</time>
      </trkpt>
      <trkpt lat="47.27724" lon="-2.48151">
        <ele>-2.4000000953674</ele>
        <time>2020-05-14T08:53:30.000Z</time>
      </trkpt>
      <trkpt lat="47.27723" lon="-2.48154">
        <ele>-2</ele>
        <time>2020-05-14T08:53:31.000Z</time>
      </trkpt>
      <trkpt lat="47.27722" lon="-2.48164">
        <ele>-2</ele>
        <time>2020-05-14T08:53:34.000Z</time>
      </trkpt>
      <trkpt lat="47.27723" lon="-2.48168">
        <ele>-2.4000000953674</ele>
        <time>2020-05-14T08:53:35.000Z</time>
      </trkpt>
      <trkpt lat="47.27724" lon="-2.48172">
        <ele>-2.7999999523163</ele>
        <time>2020-05-14T08:53:36.000Z</time>
      </trkpt>
      <trkpt lat="47.27725" lon="-2.48177">
        <ele>-3.5999999046326</ele>
        <time>2020-05-14T08:53:37.000Z</time>
      </trkpt>
      <trkpt lat="47.27726" lon="-2.48185">
        <ele>-4.1999998092651</ele>
        <time>2020-05-14T08:53:38.000Z</time>
      </trkpt>
      <trkpt lat="47.27729" lon="-2.48192">
        <ele>-4.8000001907349</ele>
        <time>2020-05-14T08:53:39.000Z</time>
      </trkpt>
      <trkpt lat="47.27733" lon="-2.48199">
        <ele>-5.5999999046326</ele>
        <time>2020-05-14T08:53:40.000Z</time>
      </trkpt>
      <trkpt lat="47.27736" lon="-2.48206">
        <ele>-6.1999998092651</ele>
        <time>2020-05-14T08:53:41.000Z</time>
      </trkpt>
      <trkpt lat="47.27744" lon="-2.48223">
        <ele>-6.1999998092651</ele>
        <time>2020-05-14T08:53:43.000Z</time>
      </trkpt>
      <trkpt lat="47.27748" lon="-2.48232">
        <ele>-7.4000000953674</ele>
        <time>2020-05-14T08:53:44.000Z</time>
      </trkpt>
      <trkpt lat="47.27752" lon="-2.4824">
        <ele>-8</ele>
        <time>2020-05-14T08:53:45.000Z</time>
      </trkpt>
      <trkpt lat="47.27756" lon="-2.48247">
        <ele>-8.8000001907349</ele>
        <time>2020-05-14T08:53:46.000Z</time>
      </trkpt>
      <trkpt lat="47.27758" lon="-2.48253">
        <ele>-9.6000003814697</ele>
        <time>2020-05-14T08:53:47.000Z</time>
      </trkpt>
      <trkpt lat="47.27759" lon="-2.48259">
        <ele>-10.199999809265</ele>
        <time>2020-05-14T08:53:48.000Z</time>
      </trkpt>
      <trkpt lat="47.27759" lon="-2.48265">
        <ele>-11</ele>
        <time>2020-05-14T08:53:49.000Z</time>
      </trkpt>
      <trkpt lat="47.27757" lon="-2.48283">
        <ele>-11</ele>
        <time>2020-05-14T08:53:52.000Z</time>
      </trkpt>
      <trkpt lat="47.27752" lon="-2.48298">
        <ele>-11.39999961853</ele>
        <time>2020-05-14T08:53:54.000Z</time>
      </trkpt>
      <trkpt lat="47.2775" lon="-2.48305">
        <ele>-11.800000190735</ele>
        <time>2020-05-14T08:53:55.000Z</time>
      </trkpt>
      <trkpt lat="47.27747" lon="-2.48312">
        <ele>-12.199999809265</ele>
        <time>2020-05-14T08:53:56.000Z</time>
      </trkpt>
      <trkpt lat="47.27745" lon="-2.48319">
        <ele>-12.60000038147</ele>
        <time>2020-05-14T08:53:57.000Z</time>
      </trkpt>
      <trkpt lat="47.27742" lon="-2.48327">
        <ele>-13.199999809265</ele>
        <time>2020-05-14T08:53:58.000Z</time>
      </trkpt>
      <trkpt lat="47.2774" lon="-2.48335">
        <ele>-13.199999809265</ele>
        <time>2020-05-14T08:53:59.000Z</time>
      </trkpt>
      <trkpt lat="47.2773" lon="-2.48354">
        <ele>-13.199999809265</ele>
        <time>2020-05-14T08:54:02.000Z</time>
      </trkpt>
      <trkpt lat="47.27728" lon="-2.48357">
        <ele>-13.199999809265</ele>
        <time>2020-05-14T08:54:03.000Z</time>
      </trkpt>
      <trkpt lat="47.27716" lon="-2.48375">
        <ele>-13.199999809265</ele>
        <time>2020-05-14T08:54:08.000Z</time>
      </trkpt>
      <trkpt lat="47.27702" lon="-2.484">
        <ele>-13.199999809265</ele>
        <time>2020-05-14T08:54:13.000Z</time>
      </trkpt>
      <trkpt lat="47.27679" lon="-2.48435">
        <ele>-13.199999809265</ele>
        <time>2020-05-14T08:54:19.000Z</time>
      </trkpt>
      <trkpt lat="47.27662" lon="-2.4846">
        <ele>-13.199999809265</ele>
        <time>2020-05-14T08:54:24.000Z</time>
      </trkpt>
      <trkpt lat="47.27659" lon="-2.48461">
        <ele>-13.199999809265</ele>
        <time>2020-05-14T08:54:25.000Z</time>
      </trkpt>
      <trkpt lat="47.27653" lon="-2.48452">
        <ele>-13.199999809265</ele>
        <time>2020-05-14T08:54:27.000Z</time>
      </trkpt>
      <trkpt lat="47.27649" lon="-2.48434">
        <ele>-13.199999809265</ele>
        <time>2020-05-14T08:54:30.000Z</time>
      </trkpt>
      <trkpt lat="47.27648" lon="-2.48426">
        <ele>-13.199999809265</ele>
        <time>2020-05-14T08:54:31.000Z</time>
      </trkpt>
      <trkpt lat="47.27648" lon="-2.48412">
        <ele>-13.199999809265</ele>
        <time>2020-05-14T08:54:33.000Z</time>
      </trkpt>
      <trkpt lat="47.27647" lon="-2.48398">
        <ele>-13.199999809265</ele>
        <time>2020-05-14T08:54:35.000Z</time>
      </trkpt>
      <trkpt lat="47.27645" lon="-2.48392">
        <ele>-13.199999809265</ele>
        <time>2020-05-14T08:54:36.000Z</time>
      </trkpt>
      <trkpt lat="47.27641" lon="-2.48361">
        <ele>-13.199999809265</ele>
        <time>2020-05-14T08:54:41.000Z</time>
      </trkpt>
      <trkpt lat="47.27641" lon="-2.48354">
        <ele>-13.199999809265</ele>
        <time>2020-05-14T08:54:42.000Z</time>
      </trkpt>
      <trkpt lat="47.27641" lon="-2.48347">
        <ele>-12.60000038147</ele>
        <time>2020-05-14T08:54:43.000Z</time>
      </trkpt>
      <trkpt lat="47.2764" lon="-2.4834">
        <ele>-12.199999809265</ele>
        <time>2020-05-14T08:54:44.000Z</time>
      </trkpt>
      <trkpt lat="47.2764" lon="-2.48333">
        <ele>-11.800000190735</ele>
        <time>2020-05-14T08:54:45.000Z</time>
      </trkpt>
      <trkpt lat="47.2764" lon="-2.48327">
        <ele>-11.199999809265</ele>
        <time>2020-05-14T08:54:46.000Z</time>
      </trkpt>
      <trkpt lat="47.27639" lon="-2.4832">
        <ele>-10.800000190735</ele>
        <time>2020-05-14T08:54:47.000Z</time>
      </trkpt>
      <trkpt lat="47.27636" lon="-2.48289">
        <ele>-10.800000190735</ele>
        <time>2020-05-14T08:54:52.000Z</time>
      </trkpt>
      <trkpt lat="47.27633" lon="-2.48277">
        <ele>-10.800000190735</ele>
        <time>2020-05-14T08:54:54.000Z</time>
      </trkpt>
      <trkpt lat="47.27632" lon="-2.48271">
        <ele>-10.39999961853</ele>
        <time>2020-05-14T08:54:55.000Z</time>
      </trkpt>
      <trkpt lat="47.27631" lon="-2.48266">
        <ele>-9.8000001907349</ele>
        <time>2020-05-14T08:54:56.000Z</time>
      </trkpt>
      <trkpt lat="47.2763" lon="-2.4826">
        <ele>-9.3999996185303</ele>
        <time>2020-05-14T08:54:57.000Z</time>
      </trkpt>
      <trkpt lat="47.27629" lon="-2.48254">
        <ele>-8.3999996185303</ele>
        <time>2020-05-14T08:54:58.000Z</time>
      </trkpt>
      <trkpt lat="47.2763" lon="-2.48242">
        <ele>-8.3999996185303</ele>
        <time>2020-05-14T08:55:00.000Z</time>
      </trkpt>
      <trkpt lat="47.27632" lon="-2.48237">
        <ele>-8.3999996185303</ele>
        <time>2020-05-14T08:55:01.000Z</time>
      </trkpt>
      <trkpt lat="47.27642" lon="-2.48214">
        <ele>-8.3999996185303</ele>
        <time>2020-05-14T08:55:06.000Z</time>
      </trkpt>
      <trkpt lat="47.2764" lon="-2.48211">
        <ele>-8.3999996185303</ele>
        <time>2020-05-14T08:55:07.000Z</time>
      </trkpt>
      <trkpt lat="47.27637" lon="-2.48209">
        <ele>-8.3999996185303</ele>
        <time>2020-05-14T08:55:08.000Z</time>
      </trkpt>
      <trkpt lat="47.2763" lon="-2.48203">
        <ele>-8.3999996185303</ele>
        <time>2020-05-14T08:55:10.000Z</time>
      </trkpt>
      <trkpt lat="47.27622" lon="-2.48195">
        <ele>-8.3999996185303</ele>
        <time>2020-05-14T08:55:12.000Z</time>
      </trkpt>
      <trkpt lat="47.27601" lon="-2.48176">
        <ele>-8.3999996185303</ele>
        <time>2020-05-14T08:55:17.000Z</time>
      </trkpt>
      <trkpt lat="47.27578" lon="-2.48153">
        <ele>-8.3999996185303</ele>
        <time>2020-05-14T08:55:24.000Z</time>
      </trkpt>
      <trkpt lat="47.27569" lon="-2.48149">
        <ele>-8.3999996185303</ele>
        <time>2020-05-14T08:55:26.000Z</time>
      </trkpt>
      <trkpt lat="47.27554" lon="-2.48145">
        <ele>-8.3999996185303</ele>
        <time>2020-05-14T08:55:29.000Z</time>
      </trkpt>
      <trkpt lat="47.27525" lon="-2.48137">
        <ele>-8.3999996185303</ele>
        <time>2020-05-14T08:55:35.000Z</time>
      </trkpt>
      <trkpt lat="47.27514" lon="-2.48134">
        <ele>-8.3999996185303</ele>
        <time>2020-05-14T08:55:39.000Z</time>
      </trkpt>
      <trkpt lat="47.27499" lon="-2.48126">
        <ele>-8.3999996185303</ele>
        <time>2020-05-14T08:55:44.000Z</time>
      </trkpt>
      <trkpt lat="47.27486" lon="-2.48115">
        <ele>-8.3999996185303</ele>
        <time>2020-05-14T08:55:48.000Z</time>
      </trkpt>
      <trkpt lat="47.27475" lon="-2.4812">
        <ele>-8.3999996185303</ele>
        <time>2020-05-14T08:55:51.000Z</time>
      </trkpt>
      <trkpt lat="47.27442" lon="-2.48131">
        <ele>-8.8000001907349</ele>
        <time>2020-05-14T08:55:58.000Z</time>
      </trkpt>
      <trkpt lat="47.27437" lon="-2.48132">
        <ele>-9.1999998092651</ele>
        <time>2020-05-14T08:55:59.000Z</time>
      </trkpt>
      <trkpt lat="47.27433" lon="-2.48132">
        <ele>-9.6000003814697</ele>
        <time>2020-05-14T08:56:00.000Z</time>
      </trkpt>
      <trkpt lat="47.27429" lon="-2.48133">
        <ele>-10.199999809265</ele>
        <time>2020-05-14T08:56:01.000Z</time>
      </trkpt>
      <trkpt lat="47.27425" lon="-2.48132">
        <ele>-10.60000038147</ele>
        <time>2020-05-14T08:56:02.000Z</time>
      </trkpt>
      <trkpt lat="47.27417" lon="-2.48132">
        <ele>-10.60000038147</ele>
        <time>2020-05-14T08:56:04.000Z</time>
      </trkpt>
      <trkpt lat="47.27409" lon="-2.48136">
        <ele>-10.60000038147</ele>
        <time>2020-05-14T08:56:06.000Z</time>
      </trkpt>
      <trkpt lat="47.27405" lon="-2.48148">
        <ele>-10.60000038147</ele>
        <time>2020-05-14T08:56:08.000Z</time>
      </trkpt>
      <trkpt lat="47.27405" lon="-2.48175">
        <ele>-10.60000038147</ele>
        <time>2020-05-14T08:56:12.000Z</time>
      </trkpt>
      <trkpt lat="47.27409" lon="-2.48204">
        <ele>-10.60000038147</ele>
        <time>2020-05-14T08:56:16.000Z</time>
      </trkpt>
      <trkpt lat="47.27412" lon="-2.48218">
        <ele>-10.60000038147</ele>
        <time>2020-05-14T08:56:18.000Z</time>
      </trkpt>
      <trkpt lat="47.27416" lon="-2.48233">
        <ele>-11</ele>
        <time>2020-05-14T08:56:20.000Z</time>
      </trkpt>
      <trkpt lat="47.27418" lon="-2.48241">
        <ele>-11.39999961853</ele>
        <time>2020-05-14T08:56:21.000Z</time>
      </trkpt>
      <trkpt lat="47.2742" lon="-2.48248">
        <ele>-11.800000190735</ele>
        <time>2020-05-14T08:56:22.000Z</time>
      </trkpt>
      <trkpt lat="47.27421" lon="-2.48256">
        <ele>-12.199999809265</ele>
        <time>2020-05-14T08:56:23.000Z</time>
      </trkpt>
      <trkpt lat="47.27423" lon="-2.48264">
        <ele>-12.60000038147</ele>
        <time>2020-05-14T08:56:24.000Z</time>
      </trkpt>
      <trkpt lat="47.27424" lon="-2.48271">
        <ele>-12.60000038147</ele>
        <time>2020-05-14T08:56:25.000Z</time>
      </trkpt>
      <trkpt lat="47.27429" lon="-2.483">
        <ele>-12.60000038147</ele>
        <time>2020-05-14T08:56:29.000Z</time>
      </trkpt>
      <trkpt lat="47.2743" lon="-2.48312">
        <ele>-12.60000038147</ele>
        <time>2020-05-14T08:56:31.000Z</time>
      </trkpt>
      <trkpt lat="47.27433" lon="-2.48339">
        <ele>-12.60000038147</ele>
        <time>2020-05-14T08:56:36.000Z</time>
      </trkpt>
      <trkpt lat="47.27447" lon="-2.48382">
        <ele>-12.60000038147</ele>
        <time>2020-05-14T08:56:44.000Z</time>
      </trkpt>
      <trkpt lat="47.27461" lon="-2.48437">
        <ele>-12.60000038147</ele>
        <time>2020-05-14T08:56:52.000Z</time>
      </trkpt>
      <trkpt lat="47.27465" lon="-2.48457">
        <ele>-13</ele>
        <time>2020-05-14T08:56:55.000Z</time>
      </trkpt>
      <trkpt lat="47.27466" lon="-2.48464">
        <ele>-13.39999961853</ele>
        <time>2020-05-14T08:56:56.000Z</time>
      </trkpt>
      <trkpt lat="47.27467" lon="-2.4847">
        <ele>-13.800000190735</ele>
        <time>2020-05-14T08:56:57.000Z</time>
      </trkpt>
      <trkpt lat="47.27468" lon="-2.48478">
        <ele>-14.199999809265</ele>
        <time>2020-05-14T08:56:58.000Z</time>
      </trkpt>
      <trkpt lat="47.27468" lon="-2.48485">
        <ele>-14.60000038147</ele>
        <time>2020-05-14T08:56:59.000Z</time>
      </trkpt>
      <trkpt lat="47.27468" lon="-2.48493">
        <ele>-14.60000038147</ele>
        <time>2020-05-14T08:57:00.000Z</time>
      </trkpt>
      <trkpt lat="47.27471" lon="-2.48513">
        <ele>-14.199999809265</ele>
        <time>2020-05-14T08:57:03.000Z</time>
      </trkpt>
      <trkpt lat="47.27473" lon="-2.4852">
        <ele>-13.60000038147</ele>
        <time>2020-05-14T08:57:04.000Z</time>
      </trkpt>
      <trkpt lat="47.27474" lon="-2.48526">
        <ele>-13.199999809265</ele>
        <time>2020-05-14T08:57:05.000Z</time>
      </trkpt>
      <trkpt lat="47.27475" lon="-2.48532">
        <ele>-12.800000190735</ele>
        <time>2020-05-14T08:57:06.000Z</time>
      </trkpt>
      <trkpt lat="47.27476" lon="-2.48539">
        <ele>-13.199999809265</ele>
        <time>2020-05-14T08:57:07.000Z</time>
      </trkpt>
      <trkpt lat="47.27476" lon="-2.48544">
        <ele>-13.60000038147</ele>
        <time>2020-05-14T08:57:08.000Z</time>
      </trkpt>
      <trkpt lat="47.27475" lon="-2.4855">
        <ele>-14</ele>
        <time>2020-05-14T08:57:09.000Z</time>
      </trkpt>
      <trkpt lat="47.27473" lon="-2.48554">
        <ele>-14.39999961853</ele>
        <time>2020-05-14T08:57:10.000Z</time>
      </trkpt>
      <trkpt lat="47.27469" lon="-2.48558">
        <ele>-14.800000190735</ele>
        <time>2020-05-14T08:57:11.000Z</time>
      </trkpt>
      <trkpt lat="47.2746" lon="-2.48579">
        <ele>-14.800000190735</ele>
        <time>2020-05-14T08:57:16.000Z</time>
      </trkpt>
      <trkpt lat="47.27459" lon="-2.48605">
        <ele>-14.800000190735</ele>
        <time>2020-05-14T08:57:23.000Z</time>
      </trkpt>
      <trkpt lat="47.27457" lon="-2.48624">
        <ele>-14.800000190735</ele>
        <time>2020-05-14T08:57:30.000Z</time>
      </trkpt>
      <trkpt lat="47.27456" lon="-2.48637">
        <ele>-14.800000190735</ele>
        <time>2020-05-14T08:57:35.000Z</time>
      </trkpt>
      <trkpt lat="47.27456" lon="-2.48636">
        <ele>-14.800000190735</ele>
        <time>2020-05-14T08:57:36.000Z</time>
      </trkpt>
      <trkpt lat="47.27456" lon="-2.48636">
        <ele>-14.800000190735</ele>
        <time>2020-05-14T08:57:42.000Z</time>
      </trkpt>
      <trkpt lat="47.27456" lon="-2.48636">
        <ele>-14.800000190735</ele>
        <time>2020-05-14T08:57:53.000Z</time>
      </trkpt>
      <trkpt lat="47.27456" lon="-2.48636">
        <ele>-14.800000190735</ele>
        <time>2020-05-14T08:58:08.000Z</time>
      </trkpt>
      <trkpt lat="47.27457" lon="-2.48636">
        <ele>-14.800000190735</ele>
        <time>2020-05-14T08:58:22.000Z</time>
      </trkpt>
      <trkpt lat="47.27457" lon="-2.48636">
        <ele>-14.800000190735</ele>
        <time>2020-05-14T08:58:37.000Z</time>
      </trkpt>
      <trkpt lat="47.27457" lon="-2.48636">
        <ele>-14.800000190735</ele>
        <time>2020-05-14T08:58:43.000Z</time>
      </trkpt>
      <trkpt lat="47.27457" lon="-2.48636">
        <ele>-14.800000190735</ele>
        <time>2020-05-14T08:58:50.000Z</time>
      </trkpt>
      <trkpt lat="47.27457" lon="-2.48636">
        <ele>-14.800000190735</ele>
        <time>2020-05-14T08:59:06.000Z</time>
      </trkpt>
      <trkpt lat="47.27457" lon="-2.48636">
        <ele>-14.800000190735</ele>
        <time>2020-05-14T08:59:21.000Z</time>
      </trkpt>
      <trkpt lat="47.27457" lon="-2.48636">
        <ele>-14.800000190735</ele>
        <time>2020-05-14T08:59:33.000Z</time>
      </trkpt>
      <trkpt lat="47.27457" lon="-2.48636">
        <ele>-14.800000190735</ele>
        <time>2020-05-14T08:59:38.000Z</time>
      </trkpt>
      <trkpt lat="47.27457" lon="-2.48636">
        <ele>-14.800000190735</ele>
        <time>2020-05-14T08:59:49.000Z</time>
      </trkpt>
      <trkpt lat="47.27457" lon="-2.48636">
        <ele>-14.800000190735</ele>
        <time>2020-05-14T09:00:02.000Z</time>
      </trkpt>
      <trkpt lat="47.27457" lon="-2.48635">
        <ele>-14.800000190735</ele>
        <time>2020-05-14T09:00:16.000Z</time>
      </trkpt>
      <trkpt lat="47.27457" lon="-2.48635">
        <ele>-14.800000190735</ele>
        <time>2020-05-14T09:00:26.000Z</time>
      </trkpt>
      <trkpt lat="47.27457" lon="-2.48635">
        <ele>-14.800000190735</ele>
        <time>2020-05-14T09:00:32.000Z</time>
      </trkpt>
      <trkpt lat="47.27457" lon="-2.48635">
        <ele>-14.800000190735</ele>
        <time>2020-05-14T09:00:40.000Z</time>
      </trkpt>
      <trkpt lat="47.27457" lon="-2.48635">
        <ele>-14.800000190735</ele>
        <time>2020-05-14T09:00:54.000Z</time>
      </trkpt>
      <trkpt lat="47.27457" lon="-2.48635">
        <ele>-14.800000190735</ele>
        <time>2020-05-14T09:01:12.000Z</time>
      </trkpt>
      <trkpt lat="47.27457" lon="-2.48635">
        <ele>-14.800000190735</ele>
        <time>2020-05-14T09:01:28.000Z</time>
      </trkpt>
      <trkpt lat="47.27457" lon="-2.48635">
        <ele>-14.800000190735</ele>
        <time>2020-05-14T09:01:42.000Z</time>
      </trkpt>
      <trkpt lat="47.27457" lon="-2.48635">
        <ele>-14.800000190735</ele>
        <time>2020-05-14T09:01:43.000Z</time>
      </trkpt>
      <trkpt lat="47.27457" lon="-2.48635">
        <ele>-14.800000190735</ele>
        <time>2020-05-14T09:01:54.000Z</time>
      </trkpt>
      <trkpt lat="47.27457" lon="-2.48635">
        <ele>-14.800000190735</ele>
        <time>2020-05-14T09:02:09.000Z</time>
      </trkpt>
      <trkpt lat="47.27457" lon="-2.48635">
        <ele>-14.800000190735</ele>
        <time>2020-05-14T09:02:27.000Z</time>
      </trkpt>
      <trkpt lat="47.27457" lon="-2.48635">
        <ele>-14.800000190735</ele>
        <time>2020-05-14T09:02:39.000Z</time>
      </trkpt>
      <trkpt lat="47.27457" lon="-2.48635">
        <ele>-14.800000190735</ele>
        <time>2020-05-14T09:02:55.000Z</time>
      </trkpt>
      <trkpt lat="47.27457" lon="-2.48635">
        <ele>-14.800000190735</ele>
        <time>2020-05-14T09:03:05.000Z</time>
      </trkpt>
      <trkpt lat="47.27457" lon="-2.48635">
        <ele>-14.800000190735</ele>
        <time>2020-05-14T09:03:10.000Z</time>
      </trkpt>
      <trkpt lat="47.27457" lon="-2.48635">
        <ele>-14.39999961853</ele>
        <time>2020-05-14T09:03:11.000Z</time>
      </trkpt>
      <trkpt lat="47.27457" lon="-2.48635">
        <ele>-14</ele>
        <time>2020-05-14T09:03:12.000Z</time>
      </trkpt>
      <trkpt lat="47.27457" lon="-2.48635">
        <ele>-13.199999809265</ele>
        <time>2020-05-14T09:03:13.000Z</time>
      </trkpt>
      <trkpt lat="47.27457" lon="-2.48635">
        <ele>-12.800000190735</ele>
        <time>2020-05-14T09:03:14.000Z</time>
      </trkpt>
      <trkpt lat="47.27457" lon="-2.48635">
        <ele>-12.800000190735</ele>
        <time>2020-05-14T09:03:26.000Z</time>
      </trkpt>
      <trkpt lat="47.27457" lon="-2.48635">
        <ele>-12.800000190735</ele>
        <time>2020-05-14T09:03:40.000Z</time>
      </trkpt>
      <trkpt lat="47.27457" lon="-2.48635">
        <ele>-12.800000190735</ele>
        <time>2020-05-14T09:03:56.000Z</time>
      </trkpt>
      <trkpt lat="47.27457" lon="-2.48635">
        <ele>-12.800000190735</ele>
        <time>2020-05-14T09:04:11.000Z</time>
      </trkpt>
      <trkpt lat="47.27458" lon="-2.48635">
        <ele>-12.800000190735</ele>
        <time>2020-05-14T09:04:26.000Z</time>
      </trkpt>
      <trkpt lat="47.27458" lon="-2.48635">
        <ele>-12.800000190735</ele>
        <time>2020-05-14T09:04:37.000Z</time>
      </trkpt>
      <trkpt lat="47.27458" lon="-2.48635">
        <ele>-12.800000190735</ele>
        <time>2020-05-14T09:04:41.000Z</time>
      </trkpt>
      <trkpt lat="47.27457" lon="-2.48634">
        <ele>-12.800000190735</ele>
        <time>2020-05-14T09:04:56.000Z</time>
      </trkpt>
      <trkpt lat="47.27457" lon="-2.48634">
        <ele>-12.800000190735</ele>
        <time>2020-05-14T09:05:11.000Z</time>
      </trkpt>
      <trkpt lat="47.27457" lon="-2.48634">
        <ele>-12.800000190735</ele>
        <time>2020-05-14T09:05:26.000Z</time>
      </trkpt>
      <trkpt lat="47.27457" lon="-2.48634">
        <ele>-12.800000190735</ele>
        <time>2020-05-14T09:05:40.000Z</time>
      </trkpt>
      <trkpt lat="47.27457" lon="-2.48634">
        <ele>-12.800000190735</ele>
        <time>2020-05-14T09:05:53.000Z</time>
      </trkpt>
      <trkpt lat="47.27457" lon="-2.48634">
        <ele>-12.800000190735</ele>
        <time>2020-05-14T09:06:04.000Z</time>
      </trkpt>
      <trkpt lat="47.27457" lon="-2.48634">
        <ele>-12.800000190735</ele>
        <time>2020-05-14T09:06:07.000Z</time>
      </trkpt>
      <trkpt lat="47.27457" lon="-2.48635">
        <ele>-12.800000190735</ele>
        <time>2020-05-14T09:06:20.000Z</time>
      </trkpt>
      <trkpt lat="47.27457" lon="-2.48635">
        <ele>-12.800000190735</ele>
        <time>2020-05-14T09:06:36.000Z</time>
      </trkpt>
      <trkpt lat="47.27457" lon="-2.48635">
        <ele>-12.800000190735</ele>
        <time>2020-05-14T09:06:49.000Z</time>
      </trkpt>
      <trkpt lat="47.27457" lon="-2.48635">
        <ele>-12.800000190735</ele>
        <time>2020-05-14T09:07:00.000Z</time>
      </trkpt>
      <trkpt lat="47.27457" lon="-2.48635">
        <ele>-12.800000190735</ele>
        <time>2020-05-14T09:07:05.000Z</time>
      </trkpt>
      <trkpt lat="47.27456" lon="-2.48636">
        <ele>-12.800000190735</ele>
        <time>2020-05-14T09:07:07.000Z</time>
      </trkpt>
      <trkpt lat="47.27457" lon="-2.48635">
        <ele>-12.800000190735</ele>
        <time>2020-05-14T09:07:13.000Z</time>
      </trkpt>
      <trkpt lat="47.27457" lon="-2.48634">
        <ele>-12.800000190735</ele>
        <time>2020-05-14T09:07:21.000Z</time>
      </trkpt>
      <trkpt lat="47.27458" lon="-2.48633">
        <ele>-12.800000190735</ele>
        <time>2020-05-14T09:07:22.000Z</time>
      </trkpt>
      <trkpt lat="47.27461" lon="-2.48631">
        <ele>-12.800000190735</ele>
        <time>2020-05-14T09:07:25.000Z</time>
      </trkpt>
      <trkpt lat="47.27466" lon="-2.48633">
        <ele>-12.800000190735</ele>
        <time>2020-05-14T09:07:30.000Z</time>
      </trkpt>
      <trkpt lat="47.27467" lon="-2.48634">
        <ele>-12.800000190735</ele>
        <time>2020-05-14T09:07:31.000Z</time>
      </trkpt>
      <trkpt lat="47.27473" lon="-2.48639">
        <ele>-12.800000190735</ele>
        <time>2020-05-14T09:07:36.000Z</time>
      </trkpt>
      <trkpt lat="47.27477" lon="-2.48648">
        <ele>-12.800000190735</ele>
        <time>2020-05-14T09:07:42.000Z</time>
      </trkpt>
      <trkpt lat="47.27481" lon="-2.48658">
        <ele>-12.800000190735</ele>
        <time>2020-05-14T09:07:48.000Z</time>
      </trkpt>
      <trkpt lat="47.27486" lon="-2.48677">
        <ele>-12.800000190735</ele>
        <time>2020-05-14T09:07:52.000Z</time>
      </trkpt>
      <trkpt lat="47.27494" lon="-2.48689">
        <ele>-12.800000190735</ele>
        <time>2020-05-14T09:07:55.000Z</time>
      </trkpt>
      <trkpt lat="47.27498" lon="-2.4869">
        <ele>-12.800000190735</ele>
        <time>2020-05-14T09:07:56.000Z</time>
      </trkpt>
      <trkpt lat="47.2752" lon="-2.4869">
        <ele>-12.800000190735</ele>
        <time>2020-05-14T09:08:02.000Z</time>
      </trkpt>
      <trkpt lat="47.27526" lon="-2.48699">
        <ele>-12.800000190735</ele>
        <time>2020-05-14T09:08:05.000Z</time>
      </trkpt>
      <trkpt lat="47.27528" lon="-2.48703">
        <ele>-12.800000190735</ele>
        <time>2020-05-14T09:08:06.000Z</time>
      </trkpt>
      <trkpt lat="47.27536" lon="-2.48727">
        <ele>-12.800000190735</ele>
        <time>2020-05-14T09:08:11.000Z</time>
      </trkpt>
      <trkpt lat="47.2754" lon="-2.48751">
        <ele>-12.39999961853</ele>
        <time>2020-05-14T09:08:16.000Z</time>
      </trkpt>
      <trkpt lat="47.27542" lon="-2.48756">
        <ele>-11.800000190735</ele>
        <time>2020-05-14T09:08:17.000Z</time>
      </trkpt>
      <trkpt lat="47.27543" lon="-2.48762">
        <ele>-11.39999961853</ele>
        <time>2020-05-14T09:08:18.000Z</time>
      </trkpt>
      <trkpt lat="47.27544" lon="-2.48769">
        <ele>-10.800000190735</ele>
        <time>2020-05-14T09:08:19.000Z</time>
      </trkpt>
      <trkpt lat="47.27544" lon="-2.48776">
        <ele>-10.39999961853</ele>
        <time>2020-05-14T09:08:20.000Z</time>
      </trkpt>
      <trkpt lat="47.27544" lon="-2.48783">
        <ele>-10.39999961853</ele>
        <time>2020-05-14T09:08:21.000Z</time>
      </trkpt>
      <trkpt lat="47.27543" lon="-2.48791">
        <ele>-10.800000190735</ele>
        <time>2020-05-14T09:08:22.000Z</time>
      </trkpt>
      <trkpt lat="47.27542" lon="-2.48798">
        <ele>-11.199999809265</ele>
        <time>2020-05-14T09:08:23.000Z</time>
      </trkpt>
      <trkpt lat="47.27541" lon="-2.48804">
        <ele>-11.60000038147</ele>
        <time>2020-05-14T09:08:24.000Z</time>
      </trkpt>
      <trkpt lat="47.2754" lon="-2.4881">
        <ele>-12</ele>
        <time>2020-05-14T09:08:25.000Z</time>
      </trkpt>
      <trkpt lat="47.27539" lon="-2.48816">
        <ele>-12.39999961853</ele>
        <time>2020-05-14T09:08:26.000Z</time>
      </trkpt>
      <trkpt lat="47.27535" lon="-2.48827">
        <ele>-12.39999961853</ele>
        <time>2020-05-14T09:08:29.000Z</time>
      </trkpt>
      <trkpt lat="47.27529" lon="-2.48849">
        <ele>-12.39999961853</ele>
        <time>2020-05-14T09:08:37.000Z</time>
      </trkpt>
      <trkpt lat="47.27523" lon="-2.48872">
        <ele>-12.800000190735</ele>
        <time>2020-05-14T09:08:43.000Z</time>
      </trkpt>
      <trkpt lat="47.27522" lon="-2.48876">
        <ele>-13.39999961853</ele>
        <time>2020-05-14T09:08:44.000Z</time>
      </trkpt>
      <trkpt lat="47.27522" lon="-2.48879">
        <ele>-13.800000190735</ele>
        <time>2020-05-14T09:08:45.000Z</time>
      </trkpt>
      <trkpt lat="47.27521" lon="-2.48882">
        <ele>-14.199999809265</ele>
        <time>2020-05-14T09:08:46.000Z</time>
      </trkpt>
      <trkpt lat="47.2752" lon="-2.48885">
        <ele>-14.60000038147</ele>
        <time>2020-05-14T09:08:47.000Z</time>
      </trkpt>
      <trkpt lat="47.27518" lon="-2.48896">
        <ele>-14.60000038147</ele>
        <time>2020-05-14T09:08:51.000Z</time>
      </trkpt>
      <trkpt lat="47.27518" lon="-2.489">
        <ele>-14.199999809265</ele>
        <time>2020-05-14T09:08:52.000Z</time>
      </trkpt>
      <trkpt lat="47.27518" lon="-2.48903">
        <ele>-13.800000190735</ele>
        <time>2020-05-14T09:08:53.000Z</time>
      </trkpt>
      <trkpt lat="47.27519" lon="-2.48907">
        <ele>-13.39999961853</ele>
        <time>2020-05-14T09:08:54.000Z</time>
      </trkpt>
      <trkpt lat="47.2752" lon="-2.48912">
        <ele>-13</ele>
        <time>2020-05-14T09:08:55.000Z</time>
      </trkpt>
      <trkpt lat="47.2752" lon="-2.48918">
        <ele>-12.60000038147</ele>
        <time>2020-05-14T09:08:56.000Z</time>
      </trkpt>
      <trkpt lat="47.27527" lon="-2.48932">
        <ele>-12.60000038147</ele>
        <time>2020-05-14T09:08:59.000Z</time>
      </trkpt>
      <trkpt lat="47.27529" lon="-2.48956">
        <ele>-12.60000038147</ele>
        <time>2020-05-14T09:09:03.000Z</time>
      </trkpt>
      <trkpt lat="47.27531" lon="-2.48986">
        <ele>-13</ele>
        <time>2020-05-14T09:09:08.000Z</time>
      </trkpt>
      <trkpt lat="47.27532" lon="-2.48991">
        <ele>-13.39999961853</ele>
        <time>2020-05-14T09:09:09.000Z</time>
      </trkpt>
      <trkpt lat="47.27532" lon="-2.48997">
        <ele>-13.800000190735</ele>
        <time>2020-05-14T09:09:10.000Z</time>
      </trkpt>
      <trkpt lat="47.27533" lon="-2.49003">
        <ele>-14.199999809265</ele>
        <time>2020-05-14T09:09:11.000Z</time>
      </trkpt>
      <trkpt lat="47.27533" lon="-2.4901">
        <ele>-14.60000038147</ele>
        <time>2020-05-14T09:09:12.000Z</time>
      </trkpt>
      <trkpt lat="47.27534" lon="-2.49021">
        <ele>-14.60000038147</ele>
        <time>2020-05-14T09:09:14.000Z</time>
      </trkpt>
      <trkpt lat="47.27539" lon="-2.49047">
        <ele>-14.199999809265</ele>
        <time>2020-05-14T09:09:18.000Z</time>
      </trkpt>
      <trkpt lat="47.27539" lon="-2.49053">
        <ele>-13.800000190735</ele>
        <time>2020-05-14T09:09:19.000Z</time>
      </trkpt>
      <trkpt lat="47.2754" lon="-2.4906">
        <ele>-13.39999961853</ele>
        <time>2020-05-14T09:09:20.000Z</time>
      </trkpt>
      <trkpt lat="47.27541" lon="-2.49066">
        <ele>-13</ele>
        <time>2020-05-14T09:09:21.000Z</time>
      </trkpt>
      <trkpt lat="47.27542" lon="-2.49072">
        <ele>-12.60000038147</ele>
        <time>2020-05-14T09:09:22.000Z</time>
      </trkpt>
      <trkpt lat="47.27548" lon="-2.49103">
        <ele>-12.60000038147</ele>
        <time>2020-05-14T09:09:27.000Z</time>
      </trkpt>
      <trkpt lat="47.2755" lon="-2.49104">
        <ele>-12.60000038147</ele>
        <time>2020-05-14T09:09:28.000Z</time>
      </trkpt>
      <trkpt lat="47.27555" lon="-2.49103">
        <ele>-12.60000038147</ele>
        <time>2020-05-14T09:09:31.000Z</time>
      </trkpt>
      <trkpt lat="47.27556" lon="-2.49103">
        <ele>-13</ele>
        <time>2020-05-14T09:09:32.000Z</time>
      </trkpt>
      <trkpt lat="47.27558" lon="-2.49104">
        <ele>-13.39999961853</ele>
        <time>2020-05-14T09:09:33.000Z</time>
      </trkpt>
      <trkpt lat="47.27559" lon="-2.49104">
        <ele>-13.800000190735</ele>
        <time>2020-05-14T09:09:34.000Z</time>
      </trkpt>
      <trkpt lat="47.27561" lon="-2.49103">
        <ele>-14.39999961853</ele>
        <time>2020-05-14T09:09:35.000Z</time>
      </trkpt>
      <trkpt lat="47.27563" lon="-2.49102">
        <ele>-14.800000190735</ele>
        <time>2020-05-14T09:09:36.000Z</time>
      </trkpt>
      <trkpt lat="47.27572" lon="-2.49102">
        <ele>-14.800000190735</ele>
        <time>2020-05-14T09:09:39.000Z</time>
      </trkpt>
      <trkpt lat="47.27588" lon="-2.4911">
        <ele>-14.800000190735</ele>
        <time>2020-05-14T09:09:44.000Z</time>
      </trkpt>
      <trkpt lat="47.2759" lon="-2.49115">
        <ele>-14.800000190735</ele>
        <time>2020-05-14T09:09:45.000Z</time>
      </trkpt>
      <trkpt lat="47.27596" lon="-2.49135">
        <ele>-14.800000190735</ele>
        <time>2020-05-14T09:09:48.000Z</time>
      </trkpt>
      <trkpt lat="47.27597" lon="-2.49143">
        <ele>-14.800000190735</ele>
        <time>2020-05-14T09:09:49.000Z</time>
      </trkpt>
      <trkpt lat="47.27609" lon="-2.49182">
        <ele>-14.800000190735</ele>
        <time>2020-05-14T09:09:54.000Z</time>
      </trkpt>
      <trkpt lat="47.27625" lon="-2.49209">
        <ele>-14.800000190735</ele>
        <time>2020-05-14T09:09:58.000Z</time>
      </trkpt>
      <trkpt lat="47.27629" lon="-2.49214">
        <ele>-14.800000190735</ele>
        <time>2020-05-14T09:09:59.000Z</time>
      </trkpt>
      <trkpt lat="47.27635" lon="-2.49219">
        <ele>-14.800000190735</ele>
        <time>2020-05-14T09:10:00.000Z</time>
      </trkpt>
      <trkpt lat="47.27645" lon="-2.49227">
        <ele>-14.800000190735</ele>
        <time>2020-05-14T09:10:02.000Z</time>
      </trkpt>
      <trkpt lat="47.27651" lon="-2.4923">
        <ele>-14.800000190735</ele>
        <time>2020-05-14T09:10:03.000Z</time>
      </trkpt>
      <trkpt lat="47.2766" lon="-2.49238">
        <ele>-14.800000190735</ele>
        <time>2020-05-14T09:10:05.000Z</time>
      </trkpt>
      <trkpt lat="47.27677" lon="-2.49245">
        <ele>-14.800000190735</ele>
        <time>2020-05-14T09:10:08.000Z</time>
      </trkpt>
      <trkpt lat="47.27689" lon="-2.49249">
        <ele>-14.800000190735</ele>
        <time>2020-05-14T09:10:10.000Z</time>
      </trkpt>
      <trkpt lat="47.27712" lon="-2.49252">
        <ele>-13.800000190735</ele>
        <time>2020-05-14T09:10:14.000Z</time>
      </trkpt>
      <trkpt lat="47.27718" lon="-2.49253">
        <ele>-13.39999961853</ele>
        <time>2020-05-14T09:10:15.000Z</time>
      </trkpt>
      <trkpt lat="47.27724" lon="-2.49253">
        <ele>-12.800000190735</ele>
        <time>2020-05-14T09:10:16.000Z</time>
      </trkpt>
      <trkpt lat="47.2773" lon="-2.49253">
        <ele>-12.39999961853</ele>
        <time>2020-05-14T09:10:17.000Z</time>
      </trkpt>
      <trkpt lat="47.2776" lon="-2.49254">
        <ele>-12.39999961853</ele>
        <time>2020-05-14T09:10:22.000Z</time>
      </trkpt>
      <trkpt lat="47.27806" lon="-2.49259">
        <ele>-12.39999961853</ele>
        <time>2020-05-14T09:10:30.000Z</time>
      </trkpt>
      <trkpt lat="47.27811" lon="-2.4926">
        <ele>-12</ele>
        <time>2020-05-14T09:10:31.000Z</time>
      </trkpt>
      <trkpt lat="47.27816" lon="-2.49262">
        <ele>-11.39999961853</ele>
        <time>2020-05-14T09:10:32.000Z</time>
      </trkpt>
      <trkpt lat="47.27821" lon="-2.49263">
        <ele>-11</ele>
        <time>2020-05-14T09:10:33.000Z</time>
      </trkpt>
      <trkpt lat="47.27826" lon="-2.49265">
        <ele>-10.60000038147</ele>
        <time>2020-05-14T09:10:34.000Z</time>
      </trkpt>
      <trkpt lat="47.2783" lon="-2.49267">
        <ele>-10.199999809265</ele>
        <time>2020-05-14T09:10:35.000Z</time>
      </trkpt>
      <trkpt lat="47.27839" lon="-2.4927">
        <ele>-10.199999809265</ele>
        <time>2020-05-14T09:10:37.000Z</time>
      </trkpt>
      <trkpt lat="47.27843" lon="-2.4927">
        <ele>-10.60000038147</ele>
        <time>2020-05-14T09:10:38.000Z</time>
      </trkpt>
      <trkpt lat="47.27846" lon="-2.49268">
        <ele>-11.39999961853</ele>
        <time>2020-05-14T09:10:39.000Z</time>
      </trkpt>
      <trkpt lat="47.2785" lon="-2.49265">
        <ele>-12</ele>
        <time>2020-05-14T09:10:40.000Z</time>
      </trkpt>
      <trkpt lat="47.27853" lon="-2.49263">
        <ele>-12.39999961853</ele>
        <time>2020-05-14T09:10:41.000Z</time>
      </trkpt>
      <trkpt lat="47.27855" lon="-2.4926">
        <ele>-12.39999961853</ele>
        <time>2020-05-14T09:10:42.000Z</time>
      </trkpt>
      <trkpt lat="47.27856" lon="-2.49254">
        <ele>-12.39999961853</ele>
        <time>2020-05-14T09:10:44.000Z</time>
      </trkpt>
      <trkpt lat="47.27858" lon="-2.49244">
        <ele>-12.39999961853</ele>
        <time>2020-05-14T09:10:50.000Z</time>
      </trkpt>
      <trkpt lat="47.27862" lon="-2.4924">
        <ele>-12.39999961853</ele>
        <time>2020-05-14T09:10:57.000Z</time>
      </trkpt>
      <trkpt lat="47.27863" lon="-2.4924">
        <ele>-12.800000190735</ele>
        <time>2020-05-14T09:10:58.000Z</time>
      </trkpt>
      <trkpt lat="47.27865" lon="-2.4924">
        <ele>-13.199999809265</ele>
        <time>2020-05-14T09:10:59.000Z</time>
      </trkpt>
      <trkpt lat="47.27866" lon="-2.49239">
        <ele>-13.60000038147</ele>
        <time>2020-05-14T09:11:00.000Z</time>
      </trkpt>
      <trkpt lat="47.27868" lon="-2.49238">
        <ele>-14</ele>
        <time>2020-05-14T09:11:01.000Z</time>
      </trkpt>
      <trkpt lat="47.27869" lon="-2.49236">
        <ele>-14.60000038147</ele>
        <time>2020-05-14T09:11:02.000Z</time>
      </trkpt>
      <trkpt lat="47.27877" lon="-2.49237">
        <ele>-14.60000038147</ele>
        <time>2020-05-14T09:11:06.000Z</time>
      </trkpt>
      <trkpt lat="47.27897" lon="-2.4924">
        <ele>-14.60000038147</ele>
        <time>2020-05-14T09:11:12.000Z</time>
      </trkpt>
      <trkpt lat="47.27918" lon="-2.49247">
        <ele>-14.60000038147</ele>
        <time>2020-05-14T09:11:18.000Z</time>
      </trkpt>
      <trkpt lat="47.27934" lon="-2.49255">
        <ele>-14.60000038147</ele>
        <time>2020-05-14T09:11:22.000Z</time>
      </trkpt>
      <trkpt lat="47.27939" lon="-2.49257">
        <ele>-15</ele>
        <time>2020-05-14T09:11:23.000Z</time>
      </trkpt>
      <trkpt lat="47.27943" lon="-2.49258">
        <ele>-15.39999961853</ele>
        <time>2020-05-14T09:11:24.000Z</time>
      </trkpt>
      <trkpt lat="47.27948" lon="-2.49259">
        <ele>-15.800000190735</ele>
        <time>2020-05-14T09:11:25.000Z</time>
      </trkpt>
      <trkpt lat="47.27952" lon="-2.49261">
        <ele>-16.39999961853</ele>
        <time>2020-05-14T09:11:26.000Z</time>
      </trkpt>
      <trkpt lat="47.27956" lon="-2.49263">
        <ele>-16.799999237061</ele>
        <time>2020-05-14T09:11:27.000Z</time>
      </trkpt>
      <trkpt lat="47.27967" lon="-2.4927">
        <ele>-16.799999237061</ele>
        <time>2020-05-14T09:11:30.000Z</time>
      </trkpt>
      <trkpt lat="47.27971" lon="-2.49272">
        <ele>-16.799999237061</ele>
        <time>2020-05-14T09:11:31.000Z</time>
      </trkpt>
      <trkpt lat="47.27984" lon="-2.49277">
        <ele>-16.799999237061</ele>
        <time>2020-05-14T09:11:34.000Z</time>
      </trkpt>
      <trkpt lat="47.27987" lon="-2.49281">
        <ele>-16.799999237061</ele>
        <time>2020-05-14T09:11:35.000Z</time>
      </trkpt>
      <trkpt lat="47.27992" lon="-2.49296">
        <ele>-16.799999237061</ele>
        <time>2020-05-14T09:11:38.000Z</time>
      </trkpt>
      <trkpt lat="47.27994" lon="-2.49302">
        <ele>-16.799999237061</ele>
        <time>2020-05-14T09:11:39.000Z</time>
      </trkpt>
      <trkpt lat="47.28001" lon="-2.49334">
        <ele>-16.799999237061</ele>
        <time>2020-05-14T09:11:45.000Z</time>
      </trkpt>
      <trkpt lat="47.28007" lon="-2.49363">
        <ele>-16.799999237061</ele>
        <time>2020-05-14T09:11:51.000Z</time>
      </trkpt>
      <trkpt lat="47.28013" lon="-2.49387">
        <ele>-16.200000762939</ele>
        <time>2020-05-14T09:11:57.000Z</time>
      </trkpt>
      <trkpt lat="47.28013" lon="-2.49392">
        <ele>-15.800000190735</ele>
        <time>2020-05-14T09:11:58.000Z</time>
      </trkpt>
      <trkpt lat="47.28014" lon="-2.49398">
        <ele>-15.39999961853</ele>
        <time>2020-05-14T09:11:59.000Z</time>
      </trkpt>
      <trkpt lat="47.28014" lon="-2.49405">
        <ele>-14.800000190735</ele>
        <time>2020-05-14T09:12:00.000Z</time>
      </trkpt>
      <trkpt lat="47.28014" lon="-2.49412">
        <ele>-14.39999961853</ele>
        <time>2020-05-14T09:12:01.000Z</time>
      </trkpt>
      <trkpt lat="47.28014" lon="-2.49418">
        <ele>-14.39999961853</ele>
        <time>2020-05-14T09:12:02.000Z</time>
      </trkpt>
      <trkpt lat="47.28021" lon="-2.49442">
        <ele>-14.39999961853</ele>
        <time>2020-05-14T09:12:06.000Z</time>
      </trkpt>
      <trkpt lat="47.28023" lon="-2.49447">
        <ele>-14.39999961853</ele>
        <time>2020-05-14T09:12:07.000Z</time>
      </trkpt>
      <trkpt lat="47.28026" lon="-2.49459">
        <ele>-14.39999961853</ele>
        <time>2020-05-14T09:12:09.000Z</time>
      </trkpt>
      <trkpt lat="47.28029" lon="-2.49478">
        <ele>-14.39999961853</ele>
        <time>2020-05-14T09:12:12.000Z</time>
      </trkpt>
      <trkpt lat="47.28029" lon="-2.49482">
        <ele>-14.39999961853</ele>
        <time>2020-05-14T09:12:13.000Z</time>
      </trkpt>
      <trkpt lat="47.28029" lon="-2.49486">
        <ele>-14.39999961853</ele>
        <time>2020-05-14T09:12:15.000Z</time>
      </trkpt>
      <trkpt lat="47.28029" lon="-2.4949">
        <ele>-14.39999961853</ele>
        <time>2020-05-14T09:12:20.000Z</time>
      </trkpt>
      <trkpt lat="47.28028" lon="-2.49496">
        <ele>-14.39999961853</ele>
        <time>2020-05-14T09:12:24.000Z</time>
      </trkpt>
      <trkpt lat="47.28027" lon="-2.49498">
        <ele>-14.39999961853</ele>
        <time>2020-05-14T09:12:25.000Z</time>
      </trkpt>
      <trkpt lat="47.28029" lon="-2.49514">
        <ele>-14.39999961853</ele>
        <time>2020-05-14T09:12:29.000Z</time>
      </trkpt>
      <trkpt lat="47.28038" lon="-2.49527">
        <ele>-14.39999961853</ele>
        <time>2020-05-14T09:12:32.000Z</time>
      </trkpt>
      <trkpt lat="47.28043" lon="-2.49532">
        <ele>-14.39999961853</ele>
        <time>2020-05-14T09:12:33.000Z</time>
      </trkpt>
      <trkpt lat="47.28075" lon="-2.49573">
        <ele>-14.39999961853</ele>
        <time>2020-05-14T09:12:41.000Z</time>
      </trkpt>
      <trkpt lat="47.28096" lon="-2.49601">
        <ele>-14.39999961853</ele>
        <time>2020-05-14T09:12:48.000Z</time>
      </trkpt>
      <trkpt lat="47.28112" lon="-2.49604">
        <ele>-14.39999961853</ele>
        <time>2020-05-14T09:12:53.000Z</time>
      </trkpt>
      <trkpt lat="47.28121" lon="-2.49607">
        <ele>-14.39999961853</ele>
        <time>2020-05-14T09:12:56.000Z</time>
      </trkpt>
      <trkpt lat="47.28124" lon="-2.49612">
        <ele>-14.39999961853</ele>
        <time>2020-05-14T09:12:57.000Z</time>
      </trkpt>
      <trkpt lat="47.28125" lon="-2.49634">
        <ele>-14.39999961853</ele>
        <time>2020-05-14T09:13:01.000Z</time>
      </trkpt>
      <trkpt lat="47.2812" lon="-2.4965">
        <ele>-14.39999961853</ele>
        <time>2020-05-14T09:13:04.000Z</time>
      </trkpt>
      <trkpt lat="47.28123" lon="-2.4967">
        <ele>-14.39999961853</ele>
        <time>2020-05-14T09:13:07.000Z</time>
      </trkpt>
      <trkpt lat="47.28125" lon="-2.49678">
        <ele>-14.39999961853</ele>
        <time>2020-05-14T09:13:08.000Z</time>
      </trkpt>
      <trkpt lat="47.28133" lon="-2.49724">
        <ele>-14.39999961853</ele>
        <time>2020-05-14T09:13:14.000Z</time>
      </trkpt>
      <trkpt lat="47.28135" lon="-2.49741">
        <ele>-14.39999961853</ele>
        <time>2020-05-14T09:13:18.000Z</time>
      </trkpt>
      <trkpt lat="47.28137" lon="-2.49756">
        <ele>-14.39999961853</ele>
        <time>2020-05-14T09:13:24.000Z</time>
      </trkpt>
      <trkpt lat="47.28138" lon="-2.49757">
        <ele>-14.39999961853</ele>
        <time>2020-05-14T09:13:25.000Z</time>
      </trkpt>
      <trkpt lat="47.28146" lon="-2.49752">
        <ele>-14.39999961853</ele>
        <time>2020-05-14T09:13:30.000Z</time>
      </trkpt>
      <trkpt lat="47.28154" lon="-2.49746">
        <ele>-14.39999961853</ele>
        <time>2020-05-14T09:13:33.000Z</time>
      </trkpt>
      <trkpt lat="47.28157" lon="-2.49745">
        <ele>-14.39999961853</ele>
        <time>2020-05-14T09:13:34.000Z</time>
      </trkpt>
      <trkpt lat="47.28161" lon="-2.49744">
        <ele>-14.39999961853</ele>
        <time>2020-05-14T09:13:35.000Z</time>
      </trkpt>
      <trkpt lat="47.28166" lon="-2.49744">
        <ele>-14.39999961853</ele>
        <time>2020-05-14T09:13:36.000Z</time>
      </trkpt>
      <trkpt lat="47.28177" lon="-2.49746">
        <ele>-14.39999961853</ele>
        <time>2020-05-14T09:13:38.000Z</time>
      </trkpt>
      <trkpt lat="47.28215" lon="-2.49752">
        <ele>-14.39999961853</ele>
        <time>2020-05-14T09:13:44.000Z</time>
      </trkpt>
      <trkpt lat="47.28265" lon="-2.49761">
        <ele>-14.39999961853</ele>
        <time>2020-05-14T09:13:52.000Z</time>
      </trkpt>
      <trkpt lat="47.28277" lon="-2.49764">
        <ele>-14.800000190735</ele>
        <time>2020-05-14T09:13:54.000Z</time>
      </trkpt>
      <trkpt lat="47.28284" lon="-2.49765">
        <ele>-15.199999809265</ele>
        <time>2020-05-14T09:13:55.000Z</time>
      </trkpt>
      <trkpt lat="47.2829" lon="-2.49766">
        <ele>-15.800000190735</ele>
        <time>2020-05-14T09:13:56.000Z</time>
      </trkpt>
      <trkpt lat="47.28296" lon="-2.49767">
        <ele>-16.60000038147</ele>
        <time>2020-05-14T09:13:57.000Z</time>
      </trkpt>
      <trkpt lat="47.28303" lon="-2.49769">
        <ele>-17</ele>
        <time>2020-05-14T09:13:58.000Z</time>
      </trkpt>
      <trkpt lat="47.28309" lon="-2.49771">
        <ele>-17.39999961853</ele>
        <time>2020-05-14T09:13:59.000Z</time>
      </trkpt>
      <trkpt lat="47.28314" lon="-2.49772">
        <ele>-17.799999237061</ele>
        <time>2020-05-14T09:14:00.000Z</time>
      </trkpt>
      <trkpt lat="47.28319" lon="-2.49773">
        <ele>-18.200000762939</ele>
        <time>2020-05-14T09:14:01.000Z</time>
      </trkpt>
      <trkpt lat="47.28323" lon="-2.49774">
        <ele>-18.60000038147</ele>
        <time>2020-05-14T09:14:02.000Z</time>
      </trkpt>
      <trkpt lat="47.28327" lon="-2.49775">
        <ele>-18.60000038147</ele>
        <time>2020-05-14T09:14:03.000Z</time>
      </trkpt>
      <trkpt lat="47.28345" lon="-2.49775">
        <ele>-18.60000038147</ele>
        <time>2020-05-14T09:14:07.000Z</time>
      </trkpt>
      <trkpt lat="47.2835" lon="-2.49774">
        <ele>-18.60000038147</ele>
        <time>2020-05-14T09:14:08.000Z</time>
      </trkpt>
      <trkpt lat="47.2837" lon="-2.49762">
        <ele>-18.60000038147</ele>
        <time>2020-05-14T09:14:12.000Z</time>
      </trkpt>
      <trkpt lat="47.28375" lon="-2.49759">
        <ele>-18.60000038147</ele>
        <time>2020-05-14T09:14:13.000Z</time>
      </trkpt>
      <trkpt lat="47.28404" lon="-2.49738">
        <ele>-18.60000038147</ele>
        <time>2020-05-14T09:14:20.000Z</time>
      </trkpt>
      <trkpt lat="47.28416" lon="-2.49732">
        <ele>-18.60000038147</ele>
        <time>2020-05-14T09:14:23.000Z</time>
      </trkpt>
      <trkpt lat="47.28421" lon="-2.49733">
        <ele>-18.60000038147</ele>
        <time>2020-05-14T09:14:24.000Z</time>
      </trkpt>
      <trkpt lat="47.2843" lon="-2.49736">
        <ele>-18.60000038147</ele>
        <time>2020-05-14T09:14:26.000Z</time>
      </trkpt>
      <trkpt lat="47.28444" lon="-2.49735">
        <ele>-18.60000038147</ele>
        <time>2020-05-14T09:14:29.000Z</time>
      </trkpt>
      <trkpt lat="47.28482" lon="-2.49728">
        <ele>-18.60000038147</ele>
        <time>2020-05-14T09:14:37.000Z</time>
      </trkpt>
      <trkpt lat="47.28516" lon="-2.4972">
        <ele>-18.60000038147</ele>
        <time>2020-05-14T09:14:44.000Z</time>
      </trkpt>
      <trkpt lat="47.28521" lon="-2.49709">
        <ele>-18.60000038147</ele>
        <time>2020-05-14T09:14:46.000Z</time>
      </trkpt>
      <trkpt lat="47.2852" lon="-2.4969">
        <ele>-18.60000038147</ele>
        <time>2020-05-14T09:14:49.000Z</time>
      </trkpt>
      <trkpt lat="47.2853" lon="-2.49678">
        <ele>-18.60000038147</ele>
        <time>2020-05-14T09:14:52.000Z</time>
      </trkpt>
      <trkpt lat="47.28534" lon="-2.49674">
        <ele>-19</ele>
        <time>2020-05-14T09:14:53.000Z</time>
      </trkpt>
      <trkpt lat="47.28539" lon="-2.49671">
        <ele>-19.39999961853</ele>
        <time>2020-05-14T09:14:54.000Z</time>
      </trkpt>
      <trkpt lat="47.28543" lon="-2.49668">
        <ele>-20</ele>
        <time>2020-05-14T09:14:55.000Z</time>
      </trkpt>
      <trkpt lat="47.28547" lon="-2.49666">
        <ele>-20.39999961853</ele>
        <time>2020-05-14T09:14:56.000Z</time>
      </trkpt>
      <trkpt lat="47.28552" lon="-2.49663">
        <ele>-20.799999237061</ele>
        <time>2020-05-14T09:14:57.000Z</time>
      </trkpt>
      <trkpt lat="47.28557" lon="-2.49662">
        <ele>-20.799999237061</ele>
        <time>2020-05-14T09:14:58.000Z</time>
      </trkpt>
      <trkpt lat="47.28562" lon="-2.4966">
        <ele>-20.799999237061</ele>
        <time>2020-05-14T09:14:59.000Z</time>
      </trkpt>
      <trkpt lat="47.28594" lon="-2.49649">
        <ele>-20.799999237061</ele>
        <time>2020-05-14T09:15:05.000Z</time>
      </trkpt>
      <trkpt lat="47.28622" lon="-2.49644">
        <ele>-20.799999237061</ele>
        <time>2020-05-14T09:15:11.000Z</time>
      </trkpt>
      <trkpt lat="47.28637" lon="-2.49628">
        <ele>-20.799999237061</ele>
        <time>2020-05-14T09:15:15.000Z</time>
      </trkpt>
      <trkpt lat="47.28639" lon="-2.49614">
        <ele>-20.39999961853</ele>
        <time>2020-05-14T09:15:17.000Z</time>
      </trkpt>
      <trkpt lat="47.28639" lon="-2.49607">
        <ele>-19.799999237061</ele>
        <time>2020-05-14T09:15:18.000Z</time>
      </trkpt>
      <trkpt lat="47.28638" lon="-2.49601">
        <ele>-19.39999961853</ele>
        <time>2020-05-14T09:15:19.000Z</time>
      </trkpt>
      <trkpt lat="47.28638" lon="-2.49594">
        <ele>-19</ele>
        <time>2020-05-14T09:15:20.000Z</time>
      </trkpt>
      <trkpt lat="47.28637" lon="-2.49588">
        <ele>-18.39999961853</ele>
        <time>2020-05-14T09:15:21.000Z</time>
      </trkpt>
      <trkpt lat="47.28635" lon="-2.49563">
        <ele>-18.39999961853</ele>
        <time>2020-05-14T09:15:25.000Z</time>
      </trkpt>
      <trkpt lat="47.28633" lon="-2.49515">
        <ele>-18.39999961853</ele>
        <time>2020-05-14T09:15:32.000Z</time>
      </trkpt>
      <trkpt lat="47.28633" lon="-2.495">
        <ele>-18.39999961853</ele>
        <time>2020-05-14T09:15:34.000Z</time>
      </trkpt>
      <trkpt lat="47.28634" lon="-2.49471">
        <ele>-18.39999961853</ele>
        <time>2020-05-14T09:15:38.000Z</time>
      </trkpt>
      <trkpt lat="47.28634" lon="-2.49444">
        <ele>-17.799999237061</ele>
        <time>2020-05-14T09:15:42.000Z</time>
      </trkpt>
      <trkpt lat="47.28634" lon="-2.49438">
        <ele>-17.200000762939</ele>
        <time>2020-05-14T09:15:43.000Z</time>
      </trkpt>
      <trkpt lat="47.28634" lon="-2.49431">
        <ele>-16.799999237061</ele>
        <time>2020-05-14T09:15:44.000Z</time>
      </trkpt>
      <trkpt lat="47.28633" lon="-2.49425">
        <ele>-16.200000762939</ele>
        <time>2020-05-14T09:15:45.000Z</time>
      </trkpt>
      <trkpt lat="47.28632" lon="-2.4942">
        <ele>-15.60000038147</ele>
        <time>2020-05-14T09:15:46.000Z</time>
      </trkpt>
      <trkpt lat="47.28632" lon="-2.49414">
        <ele>-15.199999809265</ele>
        <time>2020-05-14T09:15:47.000Z</time>
      </trkpt>
      <trkpt lat="47.28631" lon="-2.49408">
        <ele>-14.60000038147</ele>
        <time>2020-05-14T09:15:48.000Z</time>
      </trkpt>
      <trkpt lat="47.28631" lon="-2.49401">
        <ele>-14.199999809265</ele>
        <time>2020-05-14T09:15:49.000Z</time>
      </trkpt>
      <trkpt lat="47.28631" lon="-2.49395">
        <ele>-14.39999961853</ele>
        <time>2020-05-14T09:15:50.000Z</time>
      </trkpt>
      <trkpt lat="47.28631" lon="-2.49388">
        <ele>-14.800000190735</ele>
        <time>2020-05-14T09:15:51.000Z</time>
      </trkpt>
      <trkpt lat="47.28631" lon="-2.49381">
        <ele>-15.199999809265</ele>
        <time>2020-05-14T09:15:52.000Z</time>
      </trkpt>
      <trkpt lat="47.2863" lon="-2.49374">
        <ele>-15.39999961853</ele>
        <time>2020-05-14T09:15:53.000Z</time>
      </trkpt>
      <trkpt lat="47.2863" lon="-2.49368">
        <ele>-15.800000190735</ele>
        <time>2020-05-14T09:15:54.000Z</time>
      </trkpt>
      <trkpt lat="47.2863" lon="-2.49361">
        <ele>-15.800000190735</ele>
        <time>2020-05-14T09:15:55.000Z</time>
      </trkpt>
      <trkpt lat="47.28633" lon="-2.49317">
        <ele>-15.800000190735</ele>
        <time>2020-05-14T09:16:02.000Z</time>
      </trkpt>
      <trkpt lat="47.28631" lon="-2.493">
        <ele>-15.800000190735</ele>
        <time>2020-05-14T09:16:05.000Z</time>
      </trkpt>
      <trkpt lat="47.28628" lon="-2.49288">
        <ele>-15.800000190735</ele>
        <time>2020-05-14T09:16:07.000Z</time>
      </trkpt>
      <trkpt lat="47.28623" lon="-2.49264">
        <ele>-15.39999961853</ele>
        <time>2020-05-14T09:16:11.000Z</time>
      </trkpt>
      <trkpt lat="47.28622" lon="-2.49258">
        <ele>-15</ele>
        <time>2020-05-14T09:16:12.000Z</time>
      </trkpt>
      <trkpt lat="47.28621" lon="-2.49252">
        <ele>-14.60000038147</ele>
        <time>2020-05-14T09:16:13.000Z</time>
      </trkpt>
      <trkpt lat="47.2862" lon="-2.49245">
        <ele>-14.800000190735</ele>
        <time>2020-05-14T09:16:14.000Z</time>
      </trkpt>
      <trkpt lat="47.28619" lon="-2.49239">
        <ele>-15</ele>
        <time>2020-05-14T09:16:15.000Z</time>
      </trkpt>
      <trkpt lat="47.28617" lon="-2.49233">
        <ele>-15.39999961853</ele>
        <time>2020-05-14T09:16:16.000Z</time>
      </trkpt>
      <trkpt lat="47.28616" lon="-2.49227">
        <ele>-15.60000038147</ele>
        <time>2020-05-14T09:16:17.000Z</time>
      </trkpt>
      <trkpt lat="47.28614" lon="-2.49221">
        <ele>-15.800000190735</ele>
        <time>2020-05-14T09:16:18.000Z</time>
      </trkpt>
      <trkpt lat="47.28611" lon="-2.49203">
        <ele>-15.800000190735</ele>
        <time>2020-05-14T09:16:21.000Z</time>
      </trkpt>
      <trkpt lat="47.28609" lon="-2.49177">
        <ele>-15.800000190735</ele>
        <time>2020-05-14T09:16:25.000Z</time>
      </trkpt>
      <trkpt lat="47.28609" lon="-2.49164">
        <ele>-15.800000190735</ele>
        <time>2020-05-14T09:16:27.000Z</time>
      </trkpt>
      <trkpt lat="47.28607" lon="-2.49146">
        <ele>-16.200000762939</ele>
        <time>2020-05-14T09:16:30.000Z</time>
      </trkpt>
      <trkpt lat="47.28605" lon="-2.4914">
        <ele>-16.799999237061</ele>
        <time>2020-05-14T09:16:31.000Z</time>
      </trkpt>
      <trkpt lat="47.28604" lon="-2.49134">
        <ele>-17.200000762939</ele>
        <time>2020-05-14T09:16:32.000Z</time>
      </trkpt>
      <trkpt lat="47.28602" lon="-2.49127">
        <ele>-17.60000038147</ele>
        <time>2020-05-14T09:16:33.000Z</time>
      </trkpt>
      <trkpt lat="47.28601" lon="-2.4912">
        <ele>-18</ele>
        <time>2020-05-14T09:16:34.000Z</time>
      </trkpt>
      <trkpt lat="47.28596" lon="-2.49092">
        <ele>-18</ele>
        <time>2020-05-14T09:16:38.000Z</time>
      </trkpt>
      <trkpt lat="47.28595" lon="-2.49085">
        <ele>-18</ele>
        <time>2020-05-14T09:16:39.000Z</time>
      </trkpt>
      <trkpt lat="47.28595" lon="-2.49063">
        <ele>-18</ele>
        <time>2020-05-14T09:16:42.000Z</time>
      </trkpt>
      <trkpt lat="47.28596" lon="-2.49027">
        <ele>-18</ele>
        <time>2020-05-14T09:16:48.000Z</time>
      </trkpt>
      <trkpt lat="47.28593" lon="-2.49009">
        <ele>-18</ele>
        <time>2020-05-14T09:16:51.000Z</time>
      </trkpt>
      <trkpt lat="47.28589" lon="-2.48997">
        <ele>-18</ele>
        <time>2020-05-14T09:16:53.000Z</time>
      </trkpt>
      <trkpt lat="47.28587" lon="-2.48991">
        <ele>-18</ele>
        <time>2020-05-14T09:16:54.000Z</time>
      </trkpt>
      <trkpt lat="47.28577" lon="-2.48975">
        <ele>-18</ele>
        <time>2020-05-14T09:16:57.000Z</time>
      </trkpt>
      <trkpt lat="47.28573" lon="-2.48971">
        <ele>-18</ele>
        <time>2020-05-14T09:16:58.000Z</time>
      </trkpt>
      <trkpt lat="47.28554" lon="-2.48968">
        <ele>-18</ele>
        <time>2020-05-14T09:17:02.000Z</time>
      </trkpt>
      <trkpt lat="47.28549" lon="-2.48968">
        <ele>-18</ele>
        <time>2020-05-14T09:17:03.000Z</time>
      </trkpt>
      <trkpt lat="47.28544" lon="-2.48969">
        <ele>-18.60000038147</ele>
        <time>2020-05-14T09:17:04.000Z</time>
      </trkpt>
      <trkpt lat="47.28539" lon="-2.48969">
        <ele>-19.200000762939</ele>
        <time>2020-05-14T09:17:05.000Z</time>
      </trkpt>
      <trkpt lat="47.28533" lon="-2.48969">
        <ele>-19.799999237061</ele>
        <time>2020-05-14T09:17:06.000Z</time>
      </trkpt>
      <trkpt lat="47.28528" lon="-2.4897">
        <ele>-20.39999961853</ele>
        <time>2020-05-14T09:17:07.000Z</time>
      </trkpt>
      <trkpt lat="47.28523" lon="-2.48971">
        <ele>-21</ele>
        <time>2020-05-14T09:17:08.000Z</time>
      </trkpt>
      <trkpt lat="47.28518" lon="-2.48972">
        <ele>-21</ele>
        <time>2020-05-14T09:17:09.000Z</time>
      </trkpt>
      <trkpt lat="47.28508" lon="-2.48975">
        <ele>-21</ele>
        <time>2020-05-14T09:17:11.000Z</time>
      </trkpt>
      <trkpt lat="47.28495" lon="-2.4898">
        <ele>-21</ele>
        <time>2020-05-14T09:17:14.000Z</time>
      </trkpt>
      <trkpt lat="47.28487" lon="-2.48976">
        <ele>-20.60000038147</ele>
        <time>2020-05-14T09:17:16.000Z</time>
      </trkpt>
      <trkpt lat="47.28483" lon="-2.48974">
        <ele>-20</ele>
        <time>2020-05-14T09:17:17.000Z</time>
      </trkpt>
      <trkpt lat="47.28479" lon="-2.48971">
        <ele>-19.60000038147</ele>
        <time>2020-05-14T09:17:18.000Z</time>
      </trkpt>
      <trkpt lat="47.28476" lon="-2.48968">
        <ele>-19.200000762939</ele>
        <time>2020-05-14T09:17:19.000Z</time>
      </trkpt>
      <trkpt lat="47.28472" lon="-2.48966">
        <ele>-18.799999237061</ele>
        <time>2020-05-14T09:17:20.000Z</time>
      </trkpt>
      <trkpt lat="47.28466" lon="-2.48962">
        <ele>-18.799999237061</ele>
        <time>2020-05-14T09:17:22.000Z</time>
      </trkpt>
      <trkpt lat="47.28467" lon="-2.48945">
        <ele>-18.799999237061</ele>
        <time>2020-05-14T09:17:25.000Z</time>
      </trkpt>
      <trkpt lat="47.28469" lon="-2.48938">
        <ele>-18.799999237061</ele>
        <time>2020-05-14T09:17:26.000Z</time>
      </trkpt>
      <trkpt lat="47.28473" lon="-2.48926">
        <ele>-18.799999237061</ele>
        <time>2020-05-14T09:17:28.000Z</time>
      </trkpt>
      <trkpt lat="47.28481" lon="-2.48921">
        <ele>-18.799999237061</ele>
        <time>2020-05-14T09:17:30.000Z</time>
      </trkpt>
      <trkpt lat="47.2849" lon="-2.48923">
        <ele>-19.200000762939</ele>
        <time>2020-05-14T09:17:32.000Z</time>
      </trkpt>
      <trkpt lat="47.28494" lon="-2.48924">
        <ele>-19.799999237061</ele>
        <time>2020-05-14T09:17:33.000Z</time>
      </trkpt>
      <trkpt lat="47.28498" lon="-2.48925">
        <ele>-20.200000762939</ele>
        <time>2020-05-14T09:17:34.000Z</time>
      </trkpt>
      <trkpt lat="47.28503" lon="-2.48926">
        <ele>-20.60000038147</ele>
        <time>2020-05-14T09:17:35.000Z</time>
      </trkpt>
      <trkpt lat="47.28507" lon="-2.48927">
        <ele>-21</ele>
        <time>2020-05-14T09:17:36.000Z</time>
      </trkpt>
      <trkpt lat="47.2852" lon="-2.48926">
        <ele>-21</ele>
        <time>2020-05-14T09:17:39.000Z</time>
      </trkpt>
      <trkpt lat="47.28529" lon="-2.48925">
        <ele>-21</ele>
        <time>2020-05-14T09:17:41.000Z</time>
      </trkpt>
      <trkpt lat="47.28534" lon="-2.48924">
        <ele>-21</ele>
        <time>2020-05-14T09:17:42.000Z</time>
      </trkpt>
      <trkpt lat="47.28547" lon="-2.48918">
        <ele>-21</ele>
        <time>2020-05-14T09:17:45.000Z</time>
      </trkpt>
      <trkpt lat="47.28551" lon="-2.48916">
        <ele>-21</ele>
        <time>2020-05-14T09:17:46.000Z</time>
      </trkpt>
      <trkpt lat="47.28559" lon="-2.48914">
        <ele>-20.60000038147</ele>
        <time>2020-05-14T09:17:48.000Z</time>
      </trkpt>
      <trkpt lat="47.28563" lon="-2.48912">
        <ele>-20</ele>
        <time>2020-05-14T09:17:49.000Z</time>
      </trkpt>
      <trkpt lat="47.28567" lon="-2.48909">
        <ele>-19.60000038147</ele>
        <time>2020-05-14T09:17:50.000Z</time>
      </trkpt>
      <trkpt lat="47.28571" lon="-2.48907">
        <ele>-19.200000762939</ele>
        <time>2020-05-14T09:17:51.000Z</time>
      </trkpt>
      <trkpt lat="47.28575" lon="-2.48903">
        <ele>-18.799999237061</ele>
        <time>2020-05-14T09:17:52.000Z</time>
      </trkpt>
      <trkpt lat="47.28579" lon="-2.48893">
        <ele>-18.799999237061</ele>
        <time>2020-05-14T09:17:54.000Z</time>
      </trkpt>
      <trkpt lat="47.28581" lon="-2.48882">
        <ele>-18.799999237061</ele>
        <time>2020-05-14T09:17:56.000Z</time>
      </trkpt>
      <trkpt lat="47.28581" lon="-2.48877">
        <ele>-18</ele>
        <time>2020-05-14T09:17:57.000Z</time>
      </trkpt>
      <trkpt lat="47.28582" lon="-2.48871">
        <ele>-17.200000762939</ele>
        <time>2020-05-14T09:17:58.000Z</time>
      </trkpt>
      <trkpt lat="47.28582" lon="-2.48865">
        <ele>-16.60000038147</ele>
        <time>2020-05-14T09:17:59.000Z</time>
      </trkpt>
      <trkpt lat="47.28582" lon="-2.48859">
        <ele>-15.800000190735</ele>
        <time>2020-05-14T09:18:00.000Z</time>
      </trkpt>
      <trkpt lat="47.28581" lon="-2.48853">
        <ele>-15</ele>
        <time>2020-05-14T09:18:01.000Z</time>
      </trkpt>
      <trkpt lat="47.28579" lon="-2.48841">
        <ele>-15</ele>
        <time>2020-05-14T09:18:03.000Z</time>
      </trkpt>
      <trkpt lat="47.28574" lon="-2.4883">
        <ele>-15.60000038147</ele>
        <time>2020-05-14T09:18:05.000Z</time>
      </trkpt>
      <trkpt lat="47.2857" lon="-2.48827">
        <ele>-16</ele>
        <time>2020-05-14T09:18:06.000Z</time>
      </trkpt>
      <trkpt lat="47.28566" lon="-2.48823">
        <ele>-16.39999961853</ele>
        <time>2020-05-14T09:18:07.000Z</time>
      </trkpt>
      <trkpt lat="47.28563" lon="-2.4882">
        <ele>-17</ele>
        <time>2020-05-14T09:18:08.000Z</time>
      </trkpt>
      <trkpt lat="47.2856" lon="-2.48815">
        <ele>-17.39999961853</ele>
        <time>2020-05-14T09:18:09.000Z</time>
      </trkpt>
      <trkpt lat="47.28557" lon="-2.4881">
        <ele>-17.39999961853</ele>
        <time>2020-05-14T09:18:10.000Z</time>
      </trkpt>
      <trkpt lat="47.28537" lon="-2.48772">
        <ele>-17.39999961853</ele>
        <time>2020-05-14T09:18:18.000Z</time>
      </trkpt>
      <trkpt lat="47.28511" lon="-2.48731">
        <ele>-17</ele>
        <time>2020-05-14T09:18:26.000Z</time>
      </trkpt>
      <trkpt lat="47.28508" lon="-2.48725">
        <ele>-16.39999961853</ele>
        <time>2020-05-14T09:18:27.000Z</time>
      </trkpt>
      <trkpt lat="47.28504" lon="-2.4872">
        <ele>-15.60000038147</ele>
        <time>2020-05-14T09:18:28.000Z</time>
      </trkpt>
      <trkpt lat="47.285" lon="-2.48715">
        <ele>-15.199999809265</ele>
        <time>2020-05-14T09:18:29.000Z</time>
      </trkpt>
      <trkpt lat="47.28496" lon="-2.48711">
        <ele>-15.39999961853</ele>
        <time>2020-05-14T09:18:30.000Z</time>
      </trkpt>
      <trkpt lat="47.28492" lon="-2.48706">
        <ele>-15.60000038147</ele>
        <time>2020-05-14T09:18:31.000Z</time>
      </trkpt>
      <trkpt lat="47.28489" lon="-2.48702">
        <ele>-15.800000190735</ele>
        <time>2020-05-14T09:18:32.000Z</time>
      </trkpt>
      <trkpt lat="47.28485" lon="-2.48698">
        <ele>-16</ele>
        <time>2020-05-14T09:18:33.000Z</time>
      </trkpt>
      <trkpt lat="47.28482" lon="-2.48694">
        <ele>-16.60000038147</ele>
        <time>2020-05-14T09:18:34.000Z</time>
      </trkpt>
      <trkpt lat="47.28479" lon="-2.4869">
        <ele>-17</ele>
        <time>2020-05-14T09:18:35.000Z</time>
      </trkpt>
      <trkpt lat="47.28476" lon="-2.48685">
        <ele>-17.60000038147</ele>
        <time>2020-05-14T09:18:36.000Z</time>
      </trkpt>
      <trkpt lat="47.28473" lon="-2.48681">
        <ele>-18.200000762939</ele>
        <time>2020-05-14T09:18:37.000Z</time>
      </trkpt>
      <trkpt lat="47.28471" lon="-2.48676">
        <ele>-18.799999237061</ele>
        <time>2020-05-14T09:18:38.000Z</time>
      </trkpt>
      <trkpt lat="47.2847" lon="-2.48672">
        <ele>-18.799999237061</ele>
        <time>2020-05-14T09:18:39.000Z</time>
      </trkpt>
      <trkpt lat="47.28472" lon="-2.48647">
        <ele>-18.799999237061</ele>
        <time>2020-05-14T09:18:44.000Z</time>
      </trkpt>
      <trkpt lat="47.2848" lon="-2.48612">
        <ele>-18.799999237061</ele>
        <time>2020-05-14T09:18:51.000Z</time>
      </trkpt>
      <trkpt lat="47.28478" lon="-2.48595">
        <ele>-18.799999237061</ele>
        <time>2020-05-14T09:18:56.000Z</time>
      </trkpt>
      <trkpt lat="47.28473" lon="-2.48578">
        <ele>-18.799999237061</ele>
        <time>2020-05-14T09:19:01.000Z</time>
      </trkpt>
      <trkpt lat="47.28469" lon="-2.48562">
        <ele>-18.799999237061</ele>
        <time>2020-05-14T09:19:05.000Z</time>
      </trkpt>
      <trkpt lat="47.28466" lon="-2.48559">
        <ele>-18.799999237061</ele>
        <time>2020-05-14T09:19:06.000Z</time>
      </trkpt>
      <trkpt lat="47.28463" lon="-2.48556">
        <ele>-19.200000762939</ele>
        <time>2020-05-14T09:19:07.000Z</time>
      </trkpt>
      <trkpt lat="47.2846" lon="-2.48554">
        <ele>-19.60000038147</ele>
        <time>2020-05-14T09:19:08.000Z</time>
      </trkpt>
      <trkpt lat="47.28456" lon="-2.48552">
        <ele>-20</ele>
        <time>2020-05-14T09:19:09.000Z</time>
      </trkpt>
      <trkpt lat="47.28452" lon="-2.4855">
        <ele>-20.39999961853</ele>
        <time>2020-05-14T09:19:10.000Z</time>
      </trkpt>
      <trkpt lat="47.28448" lon="-2.48548">
        <ele>-20.799999237061</ele>
        <time>2020-05-14T09:19:11.000Z</time>
      </trkpt>
      <trkpt lat="47.28434" lon="-2.48534">
        <ele>-20.799999237061</ele>
        <time>2020-05-14T09:19:15.000Z</time>
      </trkpt>
      <trkpt lat="47.28433" lon="-2.48528">
        <ele>-20.799999237061</ele>
        <time>2020-05-14T09:19:16.000Z</time>
      </trkpt>
      <trkpt lat="47.28438" lon="-2.4851">
        <ele>-20.799999237061</ele>
        <time>2020-05-14T09:19:19.000Z</time>
      </trkpt>
      <trkpt lat="47.2844" lon="-2.48504">
        <ele>-20.799999237061</ele>
        <time>2020-05-14T09:19:20.000Z</time>
      </trkpt>
      <trkpt lat="47.28441" lon="-2.48498">
        <ele>-20.799999237061</ele>
        <time>2020-05-14T09:19:21.000Z</time>
      </trkpt>
      <trkpt lat="47.28442" lon="-2.48477">
        <ele>-20.799999237061</ele>
        <time>2020-05-14T09:19:24.000Z</time>
      </trkpt>
      <trkpt lat="47.28443" lon="-2.48462">
        <ele>-20.799999237061</ele>
        <time>2020-05-14T09:19:26.000Z</time>
      </trkpt>
      <trkpt lat="47.28446" lon="-2.48433">
        <ele>-20.799999237061</ele>
        <time>2020-05-14T09:19:30.000Z</time>
      </trkpt>
      <trkpt lat="47.28445" lon="-2.48394">
        <ele>-20.799999237061</ele>
        <time>2020-05-14T09:19:36.000Z</time>
      </trkpt>
      <trkpt lat="47.28433" lon="-2.48385">
        <ele>-20.799999237061</ele>
        <time>2020-05-14T09:19:39.000Z</time>
      </trkpt>
      <trkpt lat="47.28429" lon="-2.48382">
        <ele>-20.799999237061</ele>
        <time>2020-05-14T09:19:40.000Z</time>
      </trkpt>
      <trkpt lat="47.28413" lon="-2.48366">
        <ele>-20.799999237061</ele>
        <time>2020-05-14T09:19:44.000Z</time>
      </trkpt>
      <trkpt lat="47.28392" lon="-2.48351">
        <ele>-20.799999237061</ele>
        <time>2020-05-14T09:19:49.000Z</time>
      </trkpt>
      <trkpt lat="47.28387" lon="-2.4835">
        <ele>-20.799999237061</ele>
        <time>2020-05-14T09:19:50.000Z</time>
      </trkpt>
      <trkpt lat="47.28368" lon="-2.48353">
        <ele>-20.799999237061</ele>
        <time>2020-05-14T09:19:54.000Z</time>
      </trkpt>
      <trkpt lat="47.28363" lon="-2.48354">
        <ele>-20.799999237061</ele>
        <time>2020-05-14T09:19:55.000Z</time>
      </trkpt>
      <trkpt lat="47.28338" lon="-2.48361">
        <ele>-20.799999237061</ele>
        <time>2020-05-14T09:20:00.000Z</time>
      </trkpt>
      <trkpt lat="47.28333" lon="-2.48365">
        <ele>-21.200000762939</ele>
        <time>2020-05-14T09:20:01.000Z</time>
      </trkpt>
      <trkpt lat="47.28328" lon="-2.48369">
        <ele>-21.60000038147</ele>
        <time>2020-05-14T09:20:02.000Z</time>
      </trkpt>
      <trkpt lat="47.28324" lon="-2.48373">
        <ele>-22</ele>
        <time>2020-05-14T09:20:03.000Z</time>
      </trkpt>
      <trkpt lat="47.2832" lon="-2.48377">
        <ele>-22.39999961853</ele>
        <time>2020-05-14T09:20:04.000Z</time>
      </trkpt>
      <trkpt lat="47.28315" lon="-2.4838">
        <ele>-22.799999237061</ele>
        <time>2020-05-14T09:20:05.000Z</time>
      </trkpt>
      <trkpt lat="47.28297" lon="-2.4838">
        <ele>-22.799999237061</ele>
        <time>2020-05-14T09:20:09.000Z</time>
      </trkpt>
      <trkpt lat="47.28291" lon="-2.48371">
        <ele>-22.799999237061</ele>
        <time>2020-05-14T09:20:11.000Z</time>
      </trkpt>
      <trkpt lat="47.28287" lon="-2.48369">
        <ele>-22.799999237061</ele>
        <time>2020-05-14T09:20:12.000Z</time>
      </trkpt>
      <trkpt lat="47.28276" lon="-2.48372">
        <ele>-22.799999237061</ele>
        <time>2020-05-14T09:20:15.000Z</time>
      </trkpt>
      <trkpt lat="47.28258" lon="-2.4837">
        <ele>-22.799999237061</ele>
        <time>2020-05-14T09:20:20.000Z</time>
      </trkpt>
      <trkpt lat="47.28252" lon="-2.48363">
        <ele>-22.39999961853</ele>
        <time>2020-05-14T09:20:22.000Z</time>
      </trkpt>
      <trkpt lat="47.28249" lon="-2.48358">
        <ele>-22</ele>
        <time>2020-05-14T09:20:23.000Z</time>
      </trkpt>
      <trkpt lat="47.28246" lon="-2.48354">
        <ele>-21.60000038147</ele>
        <time>2020-05-14T09:20:24.000Z</time>
      </trkpt>
      <trkpt lat="47.28244" lon="-2.4835">
        <ele>-21.200000762939</ele>
        <time>2020-05-14T09:20:25.000Z</time>
      </trkpt>
      <trkpt lat="47.28241" lon="-2.48348">
        <ele>-20.799999237061</ele>
        <time>2020-05-14T09:20:26.000Z</time>
      </trkpt>
      <trkpt lat="47.28233" lon="-2.48347">
        <ele>-20.799999237061</ele>
        <time>2020-05-14T09:20:28.000Z</time>
      </trkpt>
      <trkpt lat="47.28224" lon="-2.48347">
        <ele>-20.799999237061</ele>
        <time>2020-05-14T09:20:30.000Z</time>
      </trkpt>
      <trkpt lat="47.28214" lon="-2.48349">
        <ele>-20.799999237061</ele>
        <time>2020-05-14T09:20:33.000Z</time>
      </trkpt>
      <trkpt lat="47.28206" lon="-2.48353">
        <ele>-20.799999237061</ele>
        <time>2020-05-14T09:20:36.000Z</time>
      </trkpt>
      <trkpt lat="47.28203" lon="-2.48358">
        <ele>-20.39999961853</ele>
        <time>2020-05-14T09:20:38.000Z</time>
      </trkpt>
      <trkpt lat="47.28201" lon="-2.48358">
        <ele>-20</ele>
        <time>2020-05-14T09:20:39.000Z</time>
      </trkpt>
      <trkpt lat="47.282" lon="-2.48358">
        <ele>-19.60000038147</ele>
        <time>2020-05-14T09:20:40.000Z</time>
      </trkpt>
      <trkpt lat="47.28199" lon="-2.48358">
        <ele>-19.200000762939</ele>
        <time>2020-05-14T09:20:41.000Z</time>
      </trkpt>
      <trkpt lat="47.28198" lon="-2.48356">
        <ele>-18.799999237061</ele>
        <time>2020-05-14T09:20:42.000Z</time>
      </trkpt>
      <trkpt lat="47.28196" lon="-2.48355">
        <ele>-18.799999237061</ele>
        <time>2020-05-14T09:20:43.000Z</time>
      </trkpt>
      <trkpt lat="47.28195" lon="-2.48352">
        <ele>-18.799999237061</ele>
        <time>2020-05-14T09:20:44.000Z</time>
      </trkpt>
      <trkpt lat="47.2819" lon="-2.48337">
        <ele>-18.799999237061</ele>
        <time>2020-05-14T09:20:48.000Z</time>
      </trkpt>
      <trkpt lat="47.28189" lon="-2.48333">
        <ele>-18.200000762939</ele>
        <time>2020-05-14T09:20:49.000Z</time>
      </trkpt>
      <trkpt lat="47.28189" lon="-2.48328">
        <ele>-17.799999237061</ele>
        <time>2020-05-14T09:20:50.000Z</time>
      </trkpt>
      <trkpt lat="47.28189" lon="-2.48322">
        <ele>-17.200000762939</ele>
        <time>2020-05-14T09:20:51.000Z</time>
      </trkpt>
      <trkpt lat="47.28188" lon="-2.48317">
        <ele>-16.799999237061</ele>
        <time>2020-05-14T09:20:52.000Z</time>
      </trkpt>
      <trkpt lat="47.28188" lon="-2.48311">
        <ele>-16.200000762939</ele>
        <time>2020-05-14T09:20:53.000Z</time>
      </trkpt>
      <trkpt lat="47.28189" lon="-2.48299">
        <ele>-16.200000762939</ele>
        <time>2020-05-14T09:20:55.000Z</time>
      </trkpt>
      <trkpt lat="47.28192" lon="-2.48271">
        <ele>-16.200000762939</ele>
        <time>2020-05-14T09:20:59.000Z</time>
      </trkpt>
      <trkpt lat="47.28189" lon="-2.48232">
        <ele>-16.200000762939</ele>
        <time>2020-05-14T09:21:04.000Z</time>
      </trkpt>
      <trkpt lat="47.28179" lon="-2.48188">
        <ele>-16.200000762939</ele>
        <time>2020-05-14T09:21:09.000Z</time>
      </trkpt>
      <trkpt lat="47.28168" lon="-2.48125">
        <ele>-16.200000762939</ele>
        <time>2020-05-14T09:21:16.000Z</time>
      </trkpt>
      <trkpt lat="47.28161" lon="-2.48075">
        <ele>-16.200000762939</ele>
        <time>2020-05-14T09:21:22.000Z</time>
      </trkpt>
      <trkpt lat="47.28154" lon="-2.48013">
        <ele>-16.200000762939</ele>
        <time>2020-05-14T09:21:30.000Z</time>
      </trkpt>
      <trkpt lat="47.2815" lon="-2.47989">
        <ele>-16.799999237061</ele>
        <time>2020-05-14T09:21:33.000Z</time>
      </trkpt>
      <trkpt lat="47.28149" lon="-2.47981">
        <ele>-17.200000762939</ele>
        <time>2020-05-14T09:21:34.000Z</time>
      </trkpt>
      <trkpt lat="47.28148" lon="-2.47973">
        <ele>-17.60000038147</ele>
        <time>2020-05-14T09:21:35.000Z</time>
      </trkpt>
      <trkpt lat="47.28146" lon="-2.47965">
        <ele>-18</ele>
        <time>2020-05-14T09:21:36.000Z</time>
      </trkpt>
      <trkpt lat="47.28143" lon="-2.47957">
        <ele>-18.39999961853</ele>
        <time>2020-05-14T09:21:37.000Z</time>
      </trkpt>
      <trkpt lat="47.2813" lon="-2.4794">
        <ele>-18.39999961853</ele>
        <time>2020-05-14T09:21:40.000Z</time>
      </trkpt>
      <trkpt lat="47.28117" lon="-2.4792">
        <ele>-18.39999961853</ele>
        <time>2020-05-14T09:21:43.000Z</time>
      </trkpt>
      <trkpt lat="47.2811" lon="-2.47905">
        <ele>-18.39999961853</ele>
        <time>2020-05-14T09:21:45.000Z</time>
      </trkpt>
      <trkpt lat="47.28104" lon="-2.47872">
        <ele>-18.39999961853</ele>
        <time>2020-05-14T09:21:49.000Z</time>
      </trkpt>
      <trkpt lat="47.28096" lon="-2.47812">
        <ele>-18.39999961853</ele>
        <time>2020-05-14T09:21:56.000Z</time>
      </trkpt>
      <trkpt lat="47.28085" lon="-2.47737">
        <ele>-18.39999961853</ele>
        <time>2020-05-14T09:22:04.000Z</time>
      </trkpt>
      <trkpt lat="47.28077" lon="-2.47651">
        <ele>-18.39999961853</ele>
        <time>2020-05-14T09:22:13.000Z</time>
      </trkpt>
      <trkpt lat="47.28078" lon="-2.47602">
        <ele>-18.39999961853</ele>
        <time>2020-05-14T09:22:18.000Z</time>
      </trkpt>
      <trkpt lat="47.28078" lon="-2.47593">
        <ele>-18.39999961853</ele>
        <time>2020-05-14T09:22:19.000Z</time>
      </trkpt>
      <trkpt lat="47.28083" lon="-2.47543">
        <ele>-18.39999961853</ele>
        <time>2020-05-14T09:22:25.000Z</time>
      </trkpt>
      <trkpt lat="47.2809" lon="-2.47496">
        <ele>-18.39999961853</ele>
        <time>2020-05-14T09:22:31.000Z</time>
      </trkpt>
      <trkpt lat="47.28101" lon="-2.4744">
        <ele>-18.39999961853</ele>
        <time>2020-05-14T09:22:39.000Z</time>
      </trkpt>
      <trkpt lat="47.28108" lon="-2.47404">
        <ele>-18.799999237061</ele>
        <time>2020-05-14T09:22:44.000Z</time>
      </trkpt>
      <trkpt lat="47.2811" lon="-2.47397">
        <ele>-19.200000762939</ele>
        <time>2020-05-14T09:22:45.000Z</time>
      </trkpt>
      <trkpt lat="47.28111" lon="-2.4739">
        <ele>-19.60000038147</ele>
        <time>2020-05-14T09:22:46.000Z</time>
      </trkpt>
      <trkpt lat="47.28113" lon="-2.47383">
        <ele>-20</ele>
        <time>2020-05-14T09:22:47.000Z</time>
      </trkpt>
      <trkpt lat="47.28114" lon="-2.47376">
        <ele>-20.39999961853</ele>
        <time>2020-05-14T09:22:48.000Z</time>
      </trkpt>
      <trkpt lat="47.28121" lon="-2.47336">
        <ele>-20.39999961853</ele>
        <time>2020-05-14T09:22:54.000Z</time>
      </trkpt>
      <trkpt lat="47.28116" lon="-2.47318">
        <ele>-20.39999961853</ele>
        <time>2020-05-14T09:22:57.000Z</time>
      </trkpt>
      <trkpt lat="47.28103" lon="-2.47313">
        <ele>-20.39999961853</ele>
        <time>2020-05-14T09:23:00.000Z</time>
      </trkpt>
      <trkpt lat="47.28094" lon="-2.47315">
        <ele>-20.39999961853</ele>
        <time>2020-05-14T09:23:02.000Z</time>
      </trkpt>
      <trkpt lat="47.28085" lon="-2.47316">
        <ele>-20.39999961853</ele>
        <time>2020-05-14T09:23:04.000Z</time>
      </trkpt>
      <trkpt lat="47.28061" lon="-2.47325">
        <ele>-20.39999961853</ele>
        <time>2020-05-14T09:23:10.000Z</time>
      </trkpt>
      <trkpt lat="47.28032" lon="-2.47333">
        <ele>-20.39999961853</ele>
        <time>2020-05-14T09:23:17.000Z</time>
      </trkpt>
      <trkpt lat="47.28007" lon="-2.47338">
        <ele>-20.39999961853</ele>
        <time>2020-05-14T09:23:24.000Z</time>
      </trkpt>
      <trkpt lat="47.28002" lon="-2.47335">
        <ele>-20.39999961853</ele>
        <time>2020-05-14T09:23:26.000Z</time>
      </trkpt>
      <trkpt lat="47.27999" lon="-2.47331">
        <ele>-20</ele>
        <time>2020-05-14T09:23:27.000Z</time>
      </trkpt>
      <trkpt lat="47.27998" lon="-2.47327">
        <ele>-19.60000038147</ele>
        <time>2020-05-14T09:23:28.000Z</time>
      </trkpt>
      <trkpt lat="47.27996" lon="-2.47323">
        <ele>-19</ele>
        <time>2020-05-14T09:23:29.000Z</time>
      </trkpt>
      <trkpt lat="47.27995" lon="-2.47318">
        <ele>-18.60000038147</ele>
        <time>2020-05-14T09:23:30.000Z</time>
      </trkpt>
      <trkpt lat="47.27995" lon="-2.47312">
        <ele>-18.200000762939</ele>
        <time>2020-05-14T09:23:31.000Z</time>
      </trkpt>
      <trkpt lat="47.27992" lon="-2.47302">
        <ele>-18.200000762939</ele>
        <time>2020-05-14T09:23:33.000Z</time>
      </trkpt>
      <trkpt lat="47.27986" lon="-2.47256">
        <ele>-18.200000762939</ele>
        <time>2020-05-14T09:23:40.000Z</time>
      </trkpt>
      <trkpt lat="47.27977" lon="-2.47208">
        <ele>-18.200000762939</ele>
        <time>2020-05-14T09:23:47.000Z</time>
      </trkpt>
      <trkpt lat="47.27971" lon="-2.47181">
        <ele>-18.60000038147</ele>
        <time>2020-05-14T09:23:51.000Z</time>
      </trkpt>
      <trkpt lat="47.2797" lon="-2.47174">
        <ele>-19.39999961853</ele>
        <time>2020-05-14T09:23:52.000Z</time>
      </trkpt>
      <trkpt lat="47.27968" lon="-2.47168">
        <ele>-19.799999237061</ele>
        <time>2020-05-14T09:23:53.000Z</time>
      </trkpt>
      <trkpt lat="47.27967" lon="-2.47161">
        <ele>-20.200000762939</ele>
        <time>2020-05-14T09:23:54.000Z</time>
      </trkpt>
      <trkpt lat="47.27966" lon="-2.47154">
        <ele>-20.200000762939</ele>
        <time>2020-05-14T09:23:55.000Z</time>
      </trkpt>
      <trkpt lat="47.27952" lon="-2.47091">
        <ele>-20.200000762939</ele>
        <time>2020-05-14T09:24:04.000Z</time>
      </trkpt>
      <trkpt lat="47.27947" lon="-2.47077">
        <ele>-20.200000762939</ele>
        <time>2020-05-14T09:24:06.000Z</time>
      </trkpt>
      <trkpt lat="47.27933" lon="-2.47051">
        <ele>-20.200000762939</ele>
        <time>2020-05-14T09:24:10.000Z</time>
      </trkpt>
      <trkpt lat="47.27922" lon="-2.47033">
        <ele>-20.200000762939</ele>
        <time>2020-05-14T09:24:13.000Z</time>
      </trkpt>
      <trkpt lat="47.27914" lon="-2.47024">
        <ele>-20.200000762939</ele>
        <time>2020-05-14T09:24:15.000Z</time>
      </trkpt>
      <trkpt lat="47.27882" lon="-2.46991">
        <ele>-20.200000762939</ele>
        <time>2020-05-14T09:24:22.000Z</time>
      </trkpt>
      <trkpt lat="47.27853" lon="-2.46962">
        <ele>-20.200000762939</ele>
        <time>2020-05-14T09:24:28.000Z</time>
      </trkpt>
      <trkpt lat="47.27824" lon="-2.46943">
        <ele>-20.200000762939</ele>
        <time>2020-05-14T09:24:34.000Z</time>
      </trkpt>
      <trkpt lat="47.27808" lon="-2.46937">
        <ele>-20.200000762939</ele>
        <time>2020-05-14T09:24:39.000Z</time>
      </trkpt>
      <trkpt lat="47.27801" lon="-2.46938">
        <ele>-20.200000762939</ele>
        <time>2020-05-14T09:24:44.000Z</time>
      </trkpt>
      <trkpt lat="47.27793" lon="-2.4694">
        <ele>-20.200000762939</ele>
        <time>2020-05-14T09:24:46.000Z</time>
      </trkpt>
      <trkpt lat="47.27788" lon="-2.4694">
        <ele>-20.200000762939</ele>
        <time>2020-05-14T09:24:47.000Z</time>
      </trkpt>
      <trkpt lat="47.27775" lon="-2.46932">
        <ele>-19.799999237061</ele>
        <time>2020-05-14T09:24:50.000Z</time>
      </trkpt>
      <trkpt lat="47.27771" lon="-2.46927">
        <ele>-19.39999961853</ele>
        <time>2020-05-14T09:24:51.000Z</time>
      </trkpt>
      <trkpt lat="47.27769" lon="-2.46922">
        <ele>-19</ele>
        <time>2020-05-14T09:24:52.000Z</time>
      </trkpt>
      <trkpt lat="47.27769" lon="-2.46916">
        <ele>-18.60000038147</ele>
        <time>2020-05-14T09:24:53.000Z</time>
      </trkpt>
      <trkpt lat="47.2777" lon="-2.46911">
        <ele>-18.200000762939</ele>
        <time>2020-05-14T09:24:54.000Z</time>
      </trkpt>
      <trkpt lat="47.27776" lon="-2.46892">
        <ele>-18.200000762939</ele>
        <time>2020-05-14T09:24:57.000Z</time>
      </trkpt>
      <trkpt lat="47.27779" lon="-2.46885">
        <ele>-18.200000762939</ele>
        <time>2020-05-14T09:24:58.000Z</time>
      </trkpt>
      <trkpt lat="47.27781" lon="-2.46877">
        <ele>-18.200000762939</ele>
        <time>2020-05-14T09:24:59.000Z</time>
      </trkpt>
      <trkpt lat="47.27783" lon="-2.46854">
        <ele>-18.200000762939</ele>
        <time>2020-05-14T09:25:02.000Z</time>
      </trkpt>
      <trkpt lat="47.27783" lon="-2.46846">
        <ele>-18.200000762939</ele>
        <time>2020-05-14T09:25:03.000Z</time>
      </trkpt>
      <trkpt lat="47.27782" lon="-2.46838">
        <ele>-18.200000762939</ele>
        <time>2020-05-14T09:25:04.000Z</time>
      </trkpt>
      <trkpt lat="47.27778" lon="-2.46814">
        <ele>-18.200000762939</ele>
        <time>2020-05-14T09:25:07.000Z</time>
      </trkpt>
      <trkpt lat="47.27774" lon="-2.46801">
        <ele>-18.200000762939</ele>
        <time>2020-05-14T09:25:09.000Z</time>
      </trkpt>
      <trkpt lat="47.27767" lon="-2.46773">
        <ele>-18.200000762939</ele>
        <time>2020-05-14T09:25:13.000Z</time>
      </trkpt>
      <trkpt lat="47.27758" lon="-2.46737">
        <ele>-18.200000762939</ele>
        <time>2020-05-14T09:25:19.000Z</time>
      </trkpt>
      <trkpt lat="47.27756" lon="-2.46726">
        <ele>-18.200000762939</ele>
        <time>2020-05-14T09:25:21.000Z</time>
      </trkpt>
      <trkpt lat="47.27756" lon="-2.46708">
        <ele>-18.200000762939</ele>
        <time>2020-05-14T09:25:24.000Z</time>
      </trkpt>
      <trkpt lat="47.27758" lon="-2.46703">
        <ele>-18.200000762939</ele>
        <time>2020-05-14T09:25:25.000Z</time>
      </trkpt>
      <trkpt lat="47.2776" lon="-2.46678">
        <ele>-18.200000762939</ele>
        <time>2020-05-14T09:25:29.000Z</time>
      </trkpt>
      <trkpt lat="47.2776" lon="-2.46672">
        <ele>-18.200000762939</ele>
        <time>2020-05-14T09:25:30.000Z</time>
      </trkpt>
      <trkpt lat="47.27762" lon="-2.4666">
        <ele>-18.200000762939</ele>
        <time>2020-05-14T09:25:32.000Z</time>
      </trkpt>
      <trkpt lat="47.27763" lon="-2.46643">
        <ele>-18.200000762939</ele>
        <time>2020-05-14T09:25:35.000Z</time>
      </trkpt>
      <trkpt lat="47.27761" lon="-2.46621">
        <ele>-18.200000762939</ele>
        <time>2020-05-14T09:25:39.000Z</time>
      </trkpt>
      <trkpt lat="47.27764" lon="-2.46602">
        <ele>-18.200000762939</ele>
        <time>2020-05-14T09:25:43.000Z</time>
      </trkpt>
      <trkpt lat="47.27758" lon="-2.46588">
        <ele>-18.200000762939</ele>
        <time>2020-05-14T09:25:46.000Z</time>
      </trkpt>
      <trkpt lat="47.27755" lon="-2.46583">
        <ele>-18.200000762939</ele>
        <time>2020-05-14T09:25:47.000Z</time>
      </trkpt>
      <trkpt lat="47.27749" lon="-2.46572">
        <ele>-18.200000762939</ele>
        <time>2020-05-14T09:25:49.000Z</time>
      </trkpt>
      <trkpt lat="47.27744" lon="-2.46558">
        <ele>-18.200000762939</ele>
        <time>2020-05-14T09:25:51.000Z</time>
      </trkpt>
      <trkpt lat="47.27731" lon="-2.46504">
        <ele>-18.200000762939</ele>
        <time>2020-05-14T09:25:58.000Z</time>
      </trkpt>
      <trkpt lat="47.27718" lon="-2.46456">
        <ele>-17.60000038147</ele>
        <time>2020-05-14T09:26:04.000Z</time>
      </trkpt>
      <trkpt lat="47.27715" lon="-2.46448">
        <ele>-17.200000762939</ele>
        <time>2020-05-14T09:26:05.000Z</time>
      </trkpt>
      <trkpt lat="47.27712" lon="-2.46441">
        <ele>-16.799999237061</ele>
        <time>2020-05-14T09:26:06.000Z</time>
      </trkpt>
      <trkpt lat="47.27708" lon="-2.46434">
        <ele>-16.39999961853</ele>
        <time>2020-05-14T09:26:07.000Z</time>
      </trkpt>
      <trkpt lat="47.27705" lon="-2.46426">
        <ele>-16</ele>
        <time>2020-05-14T09:26:08.000Z</time>
      </trkpt>
      <trkpt lat="47.27698" lon="-2.46412">
        <ele>-16</ele>
        <time>2020-05-14T09:26:10.000Z</time>
      </trkpt>
      <trkpt lat="47.27692" lon="-2.46398">
        <ele>-16</ele>
        <time>2020-05-14T09:26:12.000Z</time>
      </trkpt>
      <trkpt lat="47.2769" lon="-2.4639">
        <ele>-16</ele>
        <time>2020-05-14T09:26:13.000Z</time>
      </trkpt>
      <trkpt lat="47.27679" lon="-2.46354">
        <ele>-16</ele>
        <time>2020-05-14T09:26:18.000Z</time>
      </trkpt>
      <trkpt lat="47.27672" lon="-2.46327">
        <ele>-16</ele>
        <time>2020-05-14T09:26:22.000Z</time>
      </trkpt>
      <trkpt lat="47.27672" lon="-2.4632">
        <ele>-16</ele>
        <time>2020-05-14T09:26:23.000Z</time>
      </trkpt>
      <trkpt lat="47.27669" lon="-2.46307">
        <ele>-16</ele>
        <time>2020-05-14T09:26:25.000Z</time>
      </trkpt>
      <trkpt lat="47.2766" lon="-2.46291">
        <ele>-16</ele>
        <time>2020-05-14T09:26:28.000Z</time>
      </trkpt>
      <trkpt lat="47.27658" lon="-2.46285">
        <ele>-16</ele>
        <time>2020-05-14T09:26:29.000Z</time>
      </trkpt>
      <trkpt lat="47.27661" lon="-2.46274">
        <ele>-16</ele>
        <time>2020-05-14T09:26:31.000Z</time>
      </trkpt>
      <trkpt lat="47.27672" lon="-2.46251">
        <ele>-16</ele>
        <time>2020-05-14T09:26:35.000Z</time>
      </trkpt>
      <trkpt lat="47.2767" lon="-2.46228">
        <ele>-16</ele>
        <time>2020-05-14T09:26:38.000Z</time>
      </trkpt>
      <trkpt lat="47.27669" lon="-2.4622">
        <ele>-16</ele>
        <time>2020-05-14T09:26:39.000Z</time>
      </trkpt>
      <trkpt lat="47.27667" lon="-2.46173">
        <ele>-16</ele>
        <time>2020-05-14T09:26:45.000Z</time>
      </trkpt>
      <trkpt lat="47.27667" lon="-2.46144">
        <ele>-16</ele>
        <time>2020-05-14T09:26:49.000Z</time>
      </trkpt>
      <trkpt lat="47.27665" lon="-2.46136">
        <ele>-16</ele>
        <time>2020-05-14T09:26:50.000Z</time>
      </trkpt>
      <trkpt lat="47.27656" lon="-2.46092">
        <ele>-16.39999961853</ele>
        <time>2020-05-14T09:26:55.000Z</time>
      </trkpt>
      <trkpt lat="47.27654" lon="-2.46083">
        <ele>-16.799999237061</ele>
        <time>2020-05-14T09:26:56.000Z</time>
      </trkpt>
      <trkpt lat="47.27653" lon="-2.46075">
        <ele>-17.39999961853</ele>
        <time>2020-05-14T09:26:57.000Z</time>
      </trkpt>
      <trkpt lat="47.27651" lon="-2.46065">
        <ele>-17.799999237061</ele>
        <time>2020-05-14T09:26:58.000Z</time>
      </trkpt>
      <trkpt lat="47.27649" lon="-2.46056">
        <ele>-18.200000762939</ele>
        <time>2020-05-14T09:26:59.000Z</time>
      </trkpt>
      <trkpt lat="47.27646" lon="-2.46037">
        <ele>-18.200000762939</ele>
        <time>2020-05-14T09:27:01.000Z</time>
      </trkpt>
      <trkpt lat="47.27638" lon="-2.45973">
        <ele>-18.200000762939</ele>
        <time>2020-05-14T09:27:08.000Z</time>
      </trkpt>
      <trkpt lat="47.27638" lon="-2.45912">
        <ele>-18.200000762939</ele>
        <time>2020-05-14T09:27:15.000Z</time>
      </trkpt>
      <trkpt lat="47.2764" lon="-2.45889">
        <ele>-18.200000762939</ele>
        <time>2020-05-14T09:27:18.000Z</time>
      </trkpt>
      <trkpt lat="47.27641" lon="-2.45882">
        <ele>-18.200000762939</ele>
        <time>2020-05-14T09:27:19.000Z</time>
      </trkpt>
      <trkpt lat="47.27641" lon="-2.45844">
        <ele>-18.200000762939</ele>
        <time>2020-05-14T09:27:24.000Z</time>
      </trkpt>
      <trkpt lat="47.27642" lon="-2.45837">
        <ele>-18.200000762939</ele>
        <time>2020-05-14T09:27:25.000Z</time>
      </trkpt>
      <trkpt lat="47.27642" lon="-2.45788">
        <ele>-18.200000762939</ele>
        <time>2020-05-14T09:27:32.000Z</time>
      </trkpt>
      <trkpt lat="47.27639" lon="-2.45747">
        <ele>-18.200000762939</ele>
        <time>2020-05-14T09:27:38.000Z</time>
      </trkpt>
      <trkpt lat="47.27638" lon="-2.45737">
        <ele>-17.799999237061</ele>
        <time>2020-05-14T09:27:40.000Z</time>
      </trkpt>
      <trkpt lat="47.27637" lon="-2.45732">
        <ele>-17.39999961853</ele>
        <time>2020-05-14T09:27:41.000Z</time>
      </trkpt>
      <trkpt lat="47.27636" lon="-2.45727">
        <ele>-17</ele>
        <time>2020-05-14T09:27:42.000Z</time>
      </trkpt>
      <trkpt lat="47.27635" lon="-2.45723">
        <ele>-16.39999961853</ele>
        <time>2020-05-14T09:27:43.000Z</time>
      </trkpt>
      <trkpt lat="47.27633" lon="-2.45719">
        <ele>-16</ele>
        <time>2020-05-14T09:27:44.000Z</time>
      </trkpt>
      <trkpt lat="47.27624" lon="-2.45707">
        <ele>-16</ele>
        <time>2020-05-14T09:27:48.000Z</time>
      </trkpt>
      <trkpt lat="47.27612" lon="-2.45712">
        <ele>-16</ele>
        <time>2020-05-14T09:27:51.000Z</time>
      </trkpt>
      <trkpt lat="47.27608" lon="-2.45714">
        <ele>-16</ele>
        <time>2020-05-14T09:27:52.000Z</time>
      </trkpt>
      <trkpt lat="47.27581" lon="-2.45722">
        <ele>-16</ele>
        <time>2020-05-14T09:27:57.000Z</time>
      </trkpt>
      <trkpt lat="47.27541" lon="-2.45735">
        <ele>-16</ele>
        <time>2020-05-14T09:28:04.000Z</time>
      </trkpt>
      <trkpt lat="47.27531" lon="-2.4574">
        <ele>-16</ele>
        <time>2020-05-14T09:28:06.000Z</time>
      </trkpt>
      <trkpt lat="47.2752" lon="-2.45743">
        <ele>-16</ele>
        <time>2020-05-14T09:28:08.000Z</time>
      </trkpt>
      <trkpt lat="47.27474" lon="-2.4576">
        <ele>-16</ele>
        <time>2020-05-14T09:28:16.000Z</time>
      </trkpt>
      <trkpt lat="47.27429" lon="-2.45771">
        <ele>-16</ele>
        <time>2020-05-14T09:28:23.000Z</time>
      </trkpt>
      <trkpt lat="47.27388" lon="-2.45775">
        <ele>-16</ele>
        <time>2020-05-14T09:28:29.000Z</time>
      </trkpt>
      <trkpt lat="47.27372" lon="-2.45775">
        <ele>-16</ele>
        <time>2020-05-14T09:28:32.000Z</time>
      </trkpt>
      <trkpt lat="47.27369" lon="-2.45771">
        <ele>-16</ele>
        <time>2020-05-14T09:28:33.000Z</time>
      </trkpt>
      <trkpt lat="47.27363" lon="-2.45751">
        <ele>-16</ele>
        <time>2020-05-14T09:28:36.000Z</time>
      </trkpt>
      <trkpt lat="47.27359" lon="-2.45735">
        <ele>-16</ele>
        <time>2020-05-14T09:28:38.000Z</time>
      </trkpt>
      <trkpt lat="47.27348" lon="-2.45703">
        <ele>-16</ele>
        <time>2020-05-14T09:28:42.000Z</time>
      </trkpt>
      <trkpt lat="47.27332" lon="-2.4566">
        <ele>-16</ele>
        <time>2020-05-14T09:28:48.000Z</time>
      </trkpt>
      <trkpt lat="47.2733" lon="-2.45652">
        <ele>-16</ele>
        <time>2020-05-14T09:28:49.000Z</time>
      </trkpt>
      <trkpt lat="47.27323" lon="-2.45615">
        <ele>-16</ele>
        <time>2020-05-14T09:28:54.000Z</time>
      </trkpt>
      <trkpt lat="47.27329" lon="-2.45597">
        <ele>-16</ele>
        <time>2020-05-14T09:28:57.000Z</time>
      </trkpt>
      <trkpt lat="47.27347" lon="-2.45587">
        <ele>-16</ele>
        <time>2020-05-14T09:29:01.000Z</time>
      </trkpt>
      <trkpt lat="47.27352" lon="-2.45584">
        <ele>-16</ele>
        <time>2020-05-14T09:29:02.000Z</time>
      </trkpt>
      <trkpt lat="47.27376" lon="-2.45572">
        <ele>-16</ele>
        <time>2020-05-14T09:29:07.000Z</time>
      </trkpt>
      <trkpt lat="47.2739" lon="-2.45568">
        <ele>-16</ele>
        <time>2020-05-14T09:29:10.000Z</time>
      </trkpt>
      <trkpt lat="47.27406" lon="-2.45563">
        <ele>-16</ele>
        <time>2020-05-14T09:29:13.000Z</time>
      </trkpt>
      <trkpt lat="47.27426" lon="-2.45552">
        <ele>-16</ele>
        <time>2020-05-14T09:29:17.000Z</time>
      </trkpt>
      <trkpt lat="47.27434" lon="-2.45541">
        <ele>-16</ele>
        <time>2020-05-14T09:29:19.000Z</time>
      </trkpt>
      <trkpt lat="47.27437" lon="-2.45519">
        <ele>-16</ele>
        <time>2020-05-14T09:29:22.000Z</time>
      </trkpt>
      <trkpt lat="47.27438" lon="-2.45512">
        <ele>-16</ele>
        <time>2020-05-14T09:29:23.000Z</time>
      </trkpt>
      <trkpt lat="47.27446" lon="-2.45506">
        <ele>-16</ele>
        <time>2020-05-14T09:29:25.000Z</time>
      </trkpt>
      <trkpt lat="47.2745" lon="-2.45503">
        <ele>-16.39999961853</ele>
        <time>2020-05-14T09:29:26.000Z</time>
      </trkpt>
      <trkpt lat="47.27455" lon="-2.45501">
        <ele>-16.799999237061</ele>
        <time>2020-05-14T09:29:27.000Z</time>
      </trkpt>
      <trkpt lat="47.2746" lon="-2.45498">
        <ele>-17.200000762939</ele>
        <time>2020-05-14T09:29:28.000Z</time>
      </trkpt>
      <trkpt lat="47.27464" lon="-2.45496">
        <ele>-17.60000038147</ele>
        <time>2020-05-14T09:29:29.000Z</time>
      </trkpt>
      <trkpt lat="47.27469" lon="-2.45493">
        <ele>-18.200000762939</ele>
        <time>2020-05-14T09:29:30.000Z</time>
      </trkpt>
      <trkpt lat="47.27494" lon="-2.45469">
        <ele>-18.200000762939</ele>
        <time>2020-05-14T09:29:36.000Z</time>
      </trkpt>
      <trkpt lat="47.27494" lon="-2.45462">
        <ele>-17.60000038147</ele>
        <time>2020-05-14T09:29:37.000Z</time>
      </trkpt>
      <trkpt lat="47.27492" lon="-2.45456">
        <ele>-17.200000762939</ele>
        <time>2020-05-14T09:29:38.000Z</time>
      </trkpt>
      <trkpt lat="47.27491" lon="-2.45449">
        <ele>-16.799999237061</ele>
        <time>2020-05-14T09:29:39.000Z</time>
      </trkpt>
      <trkpt lat="47.2749" lon="-2.45442">
        <ele>-16.200000762939</ele>
        <time>2020-05-14T09:29:40.000Z</time>
      </trkpt>
      <trkpt lat="47.27489" lon="-2.45434">
        <ele>-15.800000190735</ele>
        <time>2020-05-14T09:29:41.000Z</time>
      </trkpt>
      <trkpt lat="47.27488" lon="-2.45404">
        <ele>-15.800000190735</ele>
        <time>2020-05-14T09:29:45.000Z</time>
      </trkpt>
      <trkpt lat="47.27495" lon="-2.45398">
        <ele>-15.800000190735</ele>
        <time>2020-05-14T09:29:47.000Z</time>
      </trkpt>
      <trkpt lat="47.27503" lon="-2.45396">
        <ele>-15.800000190735</ele>
        <time>2020-05-14T09:29:49.000Z</time>
      </trkpt>
      <trkpt lat="47.27507" lon="-2.45395">
        <ele>-16.200000762939</ele>
        <time>2020-05-14T09:29:50.000Z</time>
      </trkpt>
      <trkpt lat="47.27512" lon="-2.45394">
        <ele>-16.799999237061</ele>
        <time>2020-05-14T09:29:51.000Z</time>
      </trkpt>
      <trkpt lat="47.27518" lon="-2.45392">
        <ele>-17.200000762939</ele>
        <time>2020-05-14T09:29:52.000Z</time>
      </trkpt>
      <trkpt lat="47.27523" lon="-2.4539">
        <ele>-17.799999237061</ele>
        <time>2020-05-14T09:29:53.000Z</time>
      </trkpt>
      <trkpt lat="47.27528" lon="-2.45387">
        <ele>-18.200000762939</ele>
        <time>2020-05-14T09:29:54.000Z</time>
      </trkpt>
      <trkpt lat="47.27549" lon="-2.45375">
        <ele>-18.200000762939</ele>
        <time>2020-05-14T09:29:58.000Z</time>
      </trkpt>
      <trkpt lat="47.27584" lon="-2.45363">
        <ele>-18.200000762939</ele>
        <time>2020-05-14T09:30:04.000Z</time>
      </trkpt>
      <trkpt lat="47.27616" lon="-2.45355">
        <ele>-18.200000762939</ele>
        <time>2020-05-14T09:30:10.000Z</time>
      </trkpt>
      <trkpt lat="47.27618" lon="-2.45337">
        <ele>-18.200000762939</ele>
        <time>2020-05-14T09:30:13.000Z</time>
      </trkpt>
      <trkpt lat="47.27617" lon="-2.45329">
        <ele>-18.200000762939</ele>
        <time>2020-05-14T09:30:14.000Z</time>
      </trkpt>
      <trkpt lat="47.27615" lon="-2.45301">
        <ele>-18.200000762939</ele>
        <time>2020-05-14T09:30:17.000Z</time>
      </trkpt>
      <trkpt lat="47.27609" lon="-2.45233">
        <ele>-18.200000762939</ele>
        <time>2020-05-14T09:30:24.000Z</time>
      </trkpt>
      <trkpt lat="47.27599" lon="-2.45166">
        <ele>-18.200000762939</ele>
        <time>2020-05-14T09:30:31.000Z</time>
      </trkpt>
      <trkpt lat="47.27594" lon="-2.45127">
        <ele>-18.60000038147</ele>
        <time>2020-05-14T09:30:35.000Z</time>
      </trkpt>
      <trkpt lat="47.27592" lon="-2.45117">
        <ele>-19</ele>
        <time>2020-05-14T09:30:36.000Z</time>
      </trkpt>
      <trkpt lat="47.27589" lon="-2.45107">
        <ele>-19.39999961853</ele>
        <time>2020-05-14T09:30:37.000Z</time>
      </trkpt>
      <trkpt lat="47.27587" lon="-2.45098">
        <ele>-19.799999237061</ele>
        <time>2020-05-14T09:30:38.000Z</time>
      </trkpt>
      <trkpt lat="47.27584" lon="-2.45089">
        <ele>-20.200000762939</ele>
        <time>2020-05-14T09:30:39.000Z</time>
      </trkpt>
      <trkpt lat="47.27567" lon="-2.4506">
        <ele>-20.200000762939</ele>
        <time>2020-05-14T09:30:43.000Z</time>
      </trkpt>
      <trkpt lat="47.2756" lon="-2.45044">
        <ele>-20.200000762939</ele>
        <time>2020-05-14T09:30:45.000Z</time>
      </trkpt>
      <trkpt lat="47.27556" lon="-2.45037">
        <ele>-20.200000762939</ele>
        <time>2020-05-14T09:30:46.000Z</time>
      </trkpt>
      <trkpt lat="47.27549" lon="-2.45021">
        <ele>-20.200000762939</ele>
        <time>2020-05-14T09:30:48.000Z</time>
      </trkpt>
      <trkpt lat="47.27532" lon="-2.44974">
        <ele>-20.200000762939</ele>
        <time>2020-05-14T09:30:54.000Z</time>
      </trkpt>
      <trkpt lat="47.27513" lon="-2.44912">
        <ele>-20.200000762939</ele>
        <time>2020-05-14T09:31:02.000Z</time>
      </trkpt>
      <trkpt lat="47.27502" lon="-2.44858">
        <ele>-20.200000762939</ele>
        <time>2020-05-14T09:31:09.000Z</time>
      </trkpt>
      <trkpt lat="47.27494" lon="-2.4485">
        <ele>-20.200000762939</ele>
        <time>2020-05-14T09:31:12.000Z</time>
      </trkpt>
      <trkpt lat="47.27489" lon="-2.44852">
        <ele>-20.200000762939</ele>
        <time>2020-05-14T09:31:14.000Z</time>
      </trkpt>
      <trkpt lat="47.27483" lon="-2.44853">
        <ele>-20.200000762939</ele>
        <time>2020-05-14T09:31:16.000Z</time>
      </trkpt>
      <trkpt lat="47.27465" lon="-2.44852">
        <ele>-20.200000762939</ele>
        <time>2020-05-14T09:31:21.000Z</time>
      </trkpt>
      <trkpt lat="47.2746" lon="-2.44854">
        <ele>-20.200000762939</ele>
        <time>2020-05-14T09:31:22.000Z</time>
      </trkpt>
      <trkpt lat="47.27446" lon="-2.44869">
        <ele>-20.200000762939</ele>
        <time>2020-05-14T09:31:26.000Z</time>
      </trkpt>
      <trkpt lat="47.27443" lon="-2.44874">
        <ele>-20.200000762939</ele>
        <time>2020-05-14T09:31:27.000Z</time>
      </trkpt>
      <trkpt lat="47.27434" lon="-2.44887">
        <ele>-20.200000762939</ele>
        <time>2020-05-14T09:31:30.000Z</time>
      </trkpt>
      <trkpt lat="47.2742" lon="-2.44905">
        <ele>-20.200000762939</ele>
        <time>2020-05-14T09:31:34.000Z</time>
      </trkpt>
      <trkpt lat="47.27401" lon="-2.44919">
        <ele>-20.200000762939</ele>
        <time>2020-05-14T09:31:38.000Z</time>
      </trkpt>
      <trkpt lat="47.27396" lon="-2.44922">
        <ele>-20.200000762939</ele>
        <time>2020-05-14T09:31:39.000Z</time>
      </trkpt>
      <trkpt lat="47.27355" lon="-2.44943">
        <ele>-20.200000762939</ele>
        <time>2020-05-14T09:31:46.000Z</time>
      </trkpt>
      <trkpt lat="47.2732" lon="-2.4496">
        <ele>-19.799999237061</ele>
        <time>2020-05-14T09:31:52.000Z</time>
      </trkpt>
      <trkpt lat="47.27314" lon="-2.44963">
        <ele>-19.39999961853</ele>
        <time>2020-05-14T09:31:53.000Z</time>
      </trkpt>
      <trkpt lat="47.27307" lon="-2.44964">
        <ele>-19</ele>
        <time>2020-05-14T09:31:54.000Z</time>
      </trkpt>
      <trkpt lat="47.27301" lon="-2.44964">
        <ele>-18.60000038147</ele>
        <time>2020-05-14T09:31:55.000Z</time>
      </trkpt>
      <trkpt lat="47.27295" lon="-2.44964">
        <ele>-18.200000762939</ele>
        <time>2020-05-14T09:31:56.000Z</time>
      </trkpt>
      <trkpt lat="47.27289" lon="-2.44964">
        <ele>-18.200000762939</ele>
        <time>2020-05-14T09:31:57.000Z</time>
      </trkpt>
      <trkpt lat="47.27262" lon="-2.44966">
        <ele>-18.200000762939</ele>
        <time>2020-05-14T09:32:01.000Z</time>
      </trkpt>
      <trkpt lat="47.27256" lon="-2.44968">
        <ele>-18.200000762939</ele>
        <time>2020-05-14T09:32:02.000Z</time>
      </trkpt>
      <trkpt lat="47.27238" lon="-2.44979">
        <ele>-18.200000762939</ele>
        <time>2020-05-14T09:32:05.000Z</time>
      </trkpt>
      <trkpt lat="47.27232" lon="-2.44981">
        <ele>-18.200000762939</ele>
        <time>2020-05-14T09:32:06.000Z</time>
      </trkpt>
      <trkpt lat="47.27226" lon="-2.44983">
        <ele>-18.200000762939</ele>
        <time>2020-05-14T09:32:07.000Z</time>
      </trkpt>
      <trkpt lat="47.27184" lon="-2.44995">
        <ele>-18.200000762939</ele>
        <time>2020-05-14T09:32:14.000Z</time>
      </trkpt>
      <trkpt lat="47.27172" lon="-2.44996">
        <ele>-18.200000762939</ele>
        <time>2020-05-14T09:32:16.000Z</time>
      </trkpt>
      <trkpt lat="47.27154" lon="-2.44996">
        <ele>-18.200000762939</ele>
        <time>2020-05-14T09:32:19.000Z</time>
      </trkpt>
      <trkpt lat="47.27148" lon="-2.44998">
        <ele>-18.200000762939</ele>
        <time>2020-05-14T09:32:20.000Z</time>
      </trkpt>
      <trkpt lat="47.27126" lon="-2.44999">
        <ele>-17.799999237061</ele>
        <time>2020-05-14T09:32:24.000Z</time>
      </trkpt>
      <trkpt lat="47.27122" lon="-2.45001">
        <ele>-17.39999961853</ele>
        <time>2020-05-14T09:32:25.000Z</time>
      </trkpt>
      <trkpt lat="47.27117" lon="-2.45001">
        <ele>-16.799999237061</ele>
        <time>2020-05-14T09:32:26.000Z</time>
      </trkpt>
      <trkpt lat="47.27113" lon="-2.45001">
        <ele>-16.39999961853</ele>
        <time>2020-05-14T09:32:27.000Z</time>
      </trkpt>
      <trkpt lat="47.27108" lon="-2.45">
        <ele>-16</ele>
        <time>2020-05-14T09:32:28.000Z</time>
      </trkpt>
      <trkpt lat="47.27103" lon="-2.44999">
        <ele>-16</ele>
        <time>2020-05-14T09:32:29.000Z</time>
      </trkpt>
      <trkpt lat="47.27093" lon="-2.44997">
        <ele>-16</ele>
        <time>2020-05-14T09:32:31.000Z</time>
      </trkpt>
      <trkpt lat="47.27073" lon="-2.44994">
        <ele>-16</ele>
        <time>2020-05-14T09:32:35.000Z</time>
      </trkpt>
      <trkpt lat="47.27069" lon="-2.44994">
        <ele>-16</ele>
        <time>2020-05-14T09:32:36.000Z</time>
      </trkpt>
      <trkpt lat="47.27061" lon="-2.44984">
        <ele>-16</ele>
        <time>2020-05-14T09:32:39.000Z</time>
      </trkpt>
      <trkpt lat="47.27058" lon="-2.44963">
        <ele>-16</ele>
        <time>2020-05-14T09:32:42.000Z</time>
      </trkpt>
      <trkpt lat="47.27057" lon="-2.44956">
        <ele>-15.60000038147</ele>
        <time>2020-05-14T09:32:43.000Z</time>
      </trkpt>
      <trkpt lat="47.27056" lon="-2.44948">
        <ele>-15.199999809265</ele>
        <time>2020-05-14T09:32:44.000Z</time>
      </trkpt>
      <trkpt lat="47.27056" lon="-2.4494">
        <ele>-14.800000190735</ele>
        <time>2020-05-14T09:32:45.000Z</time>
      </trkpt>
      <trkpt lat="47.27056" lon="-2.44931">
        <ele>-14.39999961853</ele>
        <time>2020-05-14T09:32:46.000Z</time>
      </trkpt>
      <trkpt lat="47.27056" lon="-2.44922">
        <ele>-14</ele>
        <time>2020-05-14T09:32:47.000Z</time>
      </trkpt>
      <trkpt lat="47.27055" lon="-2.44906">
        <ele>-14</ele>
        <time>2020-05-14T09:32:49.000Z</time>
      </trkpt>
      <trkpt lat="47.27053" lon="-2.44855">
        <ele>-13.60000038147</ele>
        <time>2020-05-14T09:32:55.000Z</time>
      </trkpt>
      <trkpt lat="47.27052" lon="-2.44848">
        <ele>-13</ele>
        <time>2020-05-14T09:32:56.000Z</time>
      </trkpt>
      <trkpt lat="47.27052" lon="-2.4484">
        <ele>-12.60000038147</ele>
        <time>2020-05-14T09:32:57.000Z</time>
      </trkpt>
      <trkpt lat="47.27052" lon="-2.44833">
        <ele>-12.199999809265</ele>
        <time>2020-05-14T09:32:58.000Z</time>
      </trkpt>
      <trkpt lat="47.27052" lon="-2.44825">
        <ele>-11.800000190735</ele>
        <time>2020-05-14T09:32:59.000Z</time>
      </trkpt>
      <trkpt lat="47.2705" lon="-2.44789">
        <ele>-11.800000190735</ele>
        <time>2020-05-14T09:33:04.000Z</time>
      </trkpt>
      <trkpt lat="47.27049" lon="-2.44766">
        <ele>-11.800000190735</ele>
        <time>2020-05-14T09:33:07.000Z</time>
      </trkpt>
      <trkpt lat="47.27045" lon="-2.44743">
        <ele>-11.800000190735</ele>
        <time>2020-05-14T09:33:10.000Z</time>
      </trkpt>
      <trkpt lat="47.27036" lon="-2.44683">
        <ele>-11.800000190735</ele>
        <time>2020-05-14T09:33:18.000Z</time>
      </trkpt>
      <trkpt lat="47.27026" lon="-2.44627">
        <ele>-12.199999809265</ele>
        <time>2020-05-14T09:33:25.000Z</time>
      </trkpt>
      <trkpt lat="47.27024" lon="-2.44619">
        <ele>-12.60000038147</ele>
        <time>2020-05-14T09:33:26.000Z</time>
      </trkpt>
      <trkpt lat="47.27022" lon="-2.4461">
        <ele>-13</ele>
        <time>2020-05-14T09:33:27.000Z</time>
      </trkpt>
      <trkpt lat="47.2702" lon="-2.44601">
        <ele>-13.60000038147</ele>
        <time>2020-05-14T09:33:28.000Z</time>
      </trkpt>
      <trkpt lat="47.27018" lon="-2.44593">
        <ele>-14</ele>
        <time>2020-05-14T09:33:29.000Z</time>
      </trkpt>
      <trkpt lat="47.27009" lon="-2.44536">
        <ele>-14</ele>
        <time>2020-05-14T09:33:36.000Z</time>
      </trkpt>
      <trkpt lat="47.27005" lon="-2.44507">
        <ele>-14</ele>
        <time>2020-05-14T09:33:40.000Z</time>
      </trkpt>
      <trkpt lat="47.27002" lon="-2.44493">
        <ele>-14</ele>
        <time>2020-05-14T09:33:42.000Z</time>
      </trkpt>
      <trkpt lat="47.26991" lon="-2.44431">
        <ele>-14</ele>
        <time>2020-05-14T09:33:50.000Z</time>
      </trkpt>
      <trkpt lat="47.26991" lon="-2.44423">
        <ele>-14</ele>
        <time>2020-05-14T09:33:51.000Z</time>
      </trkpt>
      <trkpt lat="47.26982" lon="-2.44406">
        <ele>-14</ele>
        <time>2020-05-14T09:33:54.000Z</time>
      </trkpt>
      <trkpt lat="47.26972" lon="-2.44384">
        <ele>-14</ele>
        <time>2020-05-14T09:33:58.000Z</time>
      </trkpt>
      <trkpt lat="47.26971" lon="-2.44376">
        <ele>-14</ele>
        <time>2020-05-14T09:33:59.000Z</time>
      </trkpt>
      <trkpt lat="47.2696" lon="-2.44338">
        <ele>-14</ele>
        <time>2020-05-14T09:34:04.000Z</time>
      </trkpt>
      <trkpt lat="47.26942" lon="-2.44275">
        <ele>-14</ele>
        <time>2020-05-14T09:34:12.000Z</time>
      </trkpt>
      <trkpt lat="47.2693" lon="-2.44203">
        <ele>-14</ele>
        <time>2020-05-14T09:34:21.000Z</time>
      </trkpt>
      <trkpt lat="47.26928" lon="-2.44196">
        <ele>-14</ele>
        <time>2020-05-14T09:34:22.000Z</time>
      </trkpt>
      <trkpt lat="47.26917" lon="-2.4418">
        <ele>-14</ele>
        <time>2020-05-14T09:34:25.000Z</time>
      </trkpt>
      <trkpt lat="47.2691" lon="-2.44162">
        <ele>-14</ele>
        <time>2020-05-14T09:34:28.000Z</time>
      </trkpt>
      <trkpt lat="47.2691" lon="-2.44152">
        <ele>-14</ele>
        <time>2020-05-14T09:34:30.000Z</time>
      </trkpt>
      <trkpt lat="47.2692" lon="-2.44144">
        <ele>-14</ele>
        <time>2020-05-14T09:34:33.000Z</time>
      </trkpt>
      <trkpt lat="47.2693" lon="-2.44141">
        <ele>-14</ele>
        <time>2020-05-14T09:34:35.000Z</time>
      </trkpt>
      <trkpt lat="47.26934" lon="-2.44138">
        <ele>-14</ele>
        <time>2020-05-14T09:34:36.000Z</time>
      </trkpt>
      <trkpt lat="47.26938" lon="-2.44134">
        <ele>-14</ele>
        <time>2020-05-14T09:34:37.000Z</time>
      </trkpt>
      <trkpt lat="47.2694" lon="-2.44113">
        <ele>-14</ele>
        <time>2020-05-14T09:34:40.000Z</time>
      </trkpt>
      <trkpt lat="47.26939" lon="-2.44105">
        <ele>-14</ele>
        <time>2020-05-14T09:34:41.000Z</time>
      </trkpt>
      <trkpt lat="47.26935" lon="-2.44065">
        <ele>-14</ele>
        <time>2020-05-14T09:34:47.000Z</time>
      </trkpt>
      <trkpt lat="47.26936" lon="-2.44058">
        <ele>-14</ele>
        <time>2020-05-14T09:34:48.000Z</time>
      </trkpt>
      <trkpt lat="47.26937" lon="-2.44028">
        <ele>-14</ele>
        <time>2020-05-14T09:34:52.000Z</time>
      </trkpt>
      <trkpt lat="47.2694" lon="-2.43972">
        <ele>-14</ele>
        <time>2020-05-14T09:34:59.000Z</time>
      </trkpt>
      <trkpt lat="47.26943" lon="-2.43927">
        <ele>-14</ele>
        <time>2020-05-14T09:35:05.000Z</time>
      </trkpt>
      <trkpt lat="47.26943" lon="-2.43878">
        <ele>-14</ele>
        <time>2020-05-14T09:35:12.000Z</time>
      </trkpt>
      <trkpt lat="47.26941" lon="-2.43801">
        <ele>-14</ele>
        <time>2020-05-14T09:35:23.000Z</time>
      </trkpt>
      <trkpt lat="47.26944" lon="-2.43746">
        <ele>-14</ele>
        <time>2020-05-14T09:35:30.000Z</time>
      </trkpt>
      <trkpt lat="47.26951" lon="-2.43698">
        <ele>-14.39999961853</ele>
        <time>2020-05-14T09:35:36.000Z</time>
      </trkpt>
      <trkpt lat="47.26952" lon="-2.43689">
        <ele>-14.800000190735</ele>
        <time>2020-05-14T09:35:37.000Z</time>
      </trkpt>
      <trkpt lat="47.26952" lon="-2.43681">
        <ele>-15.199999809265</ele>
        <time>2020-05-14T09:35:38.000Z</time>
      </trkpt>
      <trkpt lat="47.26953" lon="-2.43673">
        <ele>-15.800000190735</ele>
        <time>2020-05-14T09:35:39.000Z</time>
      </trkpt>
      <trkpt lat="47.26954" lon="-2.43666">
        <ele>-16.200000762939</ele>
        <time>2020-05-14T09:35:40.000Z</time>
      </trkpt>
      <trkpt lat="47.26956" lon="-2.43654">
        <ele>-16.200000762939</ele>
        <time>2020-05-14T09:35:42.000Z</time>
      </trkpt>
      <trkpt lat="47.26958" lon="-2.43648">
        <ele>-16.200000762939</ele>
        <time>2020-05-14T09:35:43.000Z</time>
      </trkpt>
      <trkpt lat="47.26966" lon="-2.4363">
        <ele>-16.200000762939</ele>
        <time>2020-05-14T09:35:46.000Z</time>
      </trkpt>
      <trkpt lat="47.26974" lon="-2.4362">
        <ele>-16.200000762939</ele>
        <time>2020-05-14T09:35:48.000Z</time>
      </trkpt>
      <trkpt lat="47.26994" lon="-2.43591">
        <ele>-16.200000762939</ele>
        <time>2020-05-14T09:35:53.000Z</time>
      </trkpt>
      <trkpt lat="47.26997" lon="-2.43584">
        <ele>-16.60000038147</ele>
        <time>2020-05-14T09:35:54.000Z</time>
      </trkpt>
      <trkpt lat="47.27001" lon="-2.43578">
        <ele>-17</ele>
        <time>2020-05-14T09:35:55.000Z</time>
      </trkpt>
      <trkpt lat="47.27005" lon="-2.43573">
        <ele>-17.39999961853</ele>
        <time>2020-05-14T09:35:56.000Z</time>
      </trkpt>
      <trkpt lat="47.2701" lon="-2.43569">
        <ele>-17.799999237061</ele>
        <time>2020-05-14T09:35:57.000Z</time>
      </trkpt>
      <trkpt lat="47.27014" lon="-2.43564">
        <ele>-18.200000762939</ele>
        <time>2020-05-14T09:35:58.000Z</time>
      </trkpt>
      <trkpt lat="47.27019" lon="-2.43559">
        <ele>-18.200000762939</ele>
        <time>2020-05-14T09:35:59.000Z</time>
      </trkpt>
      <trkpt lat="47.27042" lon="-2.43526">
        <ele>-18.200000762939</ele>
        <time>2020-05-14T09:36:05.000Z</time>
      </trkpt>
      <trkpt lat="47.27067" lon="-2.43491">
        <ele>-18.200000762939</ele>
        <time>2020-05-14T09:36:12.000Z</time>
      </trkpt>
      <trkpt lat="47.27093" lon="-2.43456">
        <ele>-18.200000762939</ele>
        <time>2020-05-14T09:36:19.000Z</time>
      </trkpt>
      <trkpt lat="47.27099" lon="-2.43445">
        <ele>-18.200000762939</ele>
        <time>2020-05-14T09:36:21.000Z</time>
      </trkpt>
      <trkpt lat="47.27108" lon="-2.4343">
        <ele>-18.200000762939</ele>
        <time>2020-05-14T09:36:24.000Z</time>
      </trkpt>
      <trkpt lat="47.27125" lon="-2.43412">
        <ele>-18.200000762939</ele>
        <time>2020-05-14T09:36:28.000Z</time>
      </trkpt>
      <trkpt lat="47.27144" lon="-2.43385">
        <ele>-18.60000038147</ele>
        <time>2020-05-14T09:36:33.000Z</time>
      </trkpt>
      <trkpt lat="47.27147" lon="-2.43379">
        <ele>-19.200000762939</ele>
        <time>2020-05-14T09:36:34.000Z</time>
      </trkpt>
      <trkpt lat="47.27151" lon="-2.43374">
        <ele>-19.60000038147</ele>
        <time>2020-05-14T09:36:35.000Z</time>
      </trkpt>
      <trkpt lat="47.27155" lon="-2.43369">
        <ele>-20</ele>
        <time>2020-05-14T09:36:36.000Z</time>
      </trkpt>
      <trkpt lat="47.27159" lon="-2.43363">
        <ele>-20.39999961853</ele>
        <time>2020-05-14T09:36:37.000Z</time>
      </trkpt>
      <trkpt lat="47.27181" lon="-2.43333">
        <ele>-20.39999961853</ele>
        <time>2020-05-14T09:36:43.000Z</time>
      </trkpt>
      <trkpt lat="47.27196" lon="-2.43312">
        <ele>-20.39999961853</ele>
        <time>2020-05-14T09:36:47.000Z</time>
      </trkpt>
      <trkpt lat="47.27204" lon="-2.43302">
        <ele>-20.39999961853</ele>
        <time>2020-05-14T09:36:49.000Z</time>
      </trkpt>
      <trkpt lat="47.27234" lon="-2.43274">
        <ele>-20.39999961853</ele>
        <time>2020-05-14T09:36:55.000Z</time>
      </trkpt>
      <trkpt lat="47.27274" lon="-2.43243">
        <ele>-20.39999961853</ele>
        <time>2020-05-14T09:37:03.000Z</time>
      </trkpt>
      <trkpt lat="47.27285" lon="-2.43234">
        <ele>-20.39999961853</ele>
        <time>2020-05-14T09:37:05.000Z</time>
      </trkpt>
      <trkpt lat="47.27304" lon="-2.43218">
        <ele>-20.39999961853</ele>
        <time>2020-05-14T09:37:09.000Z</time>
      </trkpt>
      <trkpt lat="47.27337" lon="-2.43194">
        <ele>-20.39999961853</ele>
        <time>2020-05-14T09:37:16.000Z</time>
      </trkpt>
      <trkpt lat="47.27371" lon="-2.43168">
        <ele>-20.39999961853</ele>
        <time>2020-05-14T09:37:23.000Z</time>
      </trkpt>
      <trkpt lat="47.27403" lon="-2.43146">
        <ele>-20.39999961853</ele>
        <time>2020-05-14T09:37:30.000Z</time>
      </trkpt>
      <trkpt lat="47.27436" lon="-2.43124">
        <ele>-20.39999961853</ele>
        <time>2020-05-14T09:37:37.000Z</time>
      </trkpt>
      <trkpt lat="47.27464" lon="-2.43102">
        <ele>-20.39999961853</ele>
        <time>2020-05-14T09:37:43.000Z</time>
      </trkpt>
      <trkpt lat="47.27467" lon="-2.43097">
        <ele>-20.39999961853</ele>
        <time>2020-05-14T09:37:44.000Z</time>
      </trkpt>
      <trkpt lat="47.27469" lon="-2.43095">
        <ele>-20.799999237061</ele>
        <time>2020-05-14T09:37:45.000Z</time>
      </trkpt>
      <trkpt lat="47.27471" lon="-2.43091">
        <ele>-21.200000762939</ele>
        <time>2020-05-14T09:37:46.000Z</time>
      </trkpt>
      <trkpt lat="47.27474" lon="-2.43088">
        <ele>-21.60000038147</ele>
        <time>2020-05-14T09:37:47.000Z</time>
      </trkpt>
      <trkpt lat="47.27478" lon="-2.43084">
        <ele>-22</ele>
        <time>2020-05-14T09:37:48.000Z</time>
      </trkpt>
      <trkpt lat="47.27482" lon="-2.4308">
        <ele>-22.60000038147</ele>
        <time>2020-05-14T09:37:49.000Z</time>
      </trkpt>
      <trkpt lat="47.27491" lon="-2.43072">
        <ele>-22.60000038147</ele>
        <time>2020-05-14T09:37:51.000Z</time>
      </trkpt>
      <trkpt lat="47.27519" lon="-2.43051">
        <ele>-22.60000038147</ele>
        <time>2020-05-14T09:37:57.000Z</time>
      </trkpt>
      <trkpt lat="47.27554" lon="-2.43027">
        <ele>-22.60000038147</ele>
        <time>2020-05-14T09:38:04.000Z</time>
      </trkpt>
      <trkpt lat="47.27584" lon="-2.43004">
        <ele>-22.60000038147</ele>
        <time>2020-05-14T09:38:11.000Z</time>
      </trkpt>
      <trkpt lat="47.27612" lon="-2.42991">
        <ele>-22.60000038147</ele>
        <time>2020-05-14T09:38:17.000Z</time>
      </trkpt>
      <trkpt lat="47.27622" lon="-2.42985">
        <ele>-22.60000038147</ele>
        <time>2020-05-14T09:38:19.000Z</time>
      </trkpt>
      <trkpt lat="47.27634" lon="-2.42973">
        <ele>-22.60000038147</ele>
        <time>2020-05-14T09:38:22.000Z</time>
      </trkpt>
      <trkpt lat="47.27657" lon="-2.42939">
        <ele>-22.60000038147</ele>
        <time>2020-05-14T09:38:29.000Z</time>
      </trkpt>
      <trkpt lat="47.2767" lon="-2.42913">
        <ele>-22.60000038147</ele>
        <time>2020-05-14T09:38:34.000Z</time>
      </trkpt>
      <trkpt lat="47.27677" lon="-2.42889">
        <ele>-22.60000038147</ele>
        <time>2020-05-14T09:38:38.000Z</time>
      </trkpt>
      <trkpt lat="47.27679" lon="-2.42876">
        <ele>-22.60000038147</ele>
        <time>2020-05-14T09:38:40.000Z</time>
      </trkpt>
      <trkpt lat="47.27688" lon="-2.42832">
        <ele>-22.60000038147</ele>
        <time>2020-05-14T09:38:47.000Z</time>
      </trkpt>
      <trkpt lat="47.27688" lon="-2.42825">
        <ele>-22</ele>
        <time>2020-05-14T09:38:48.000Z</time>
      </trkpt>
      <trkpt lat="47.2769" lon="-2.4282">
        <ele>-21.60000038147</ele>
        <time>2020-05-14T09:38:49.000Z</time>
      </trkpt>
      <trkpt lat="47.27691" lon="-2.42814">
        <ele>-21.200000762939</ele>
        <time>2020-05-14T09:38:50.000Z</time>
      </trkpt>
      <trkpt lat="47.27692" lon="-2.42808">
        <ele>-20.799999237061</ele>
        <time>2020-05-14T09:38:51.000Z</time>
      </trkpt>
      <trkpt lat="47.27694" lon="-2.42805">
        <ele>-20.39999961853</ele>
        <time>2020-05-14T09:38:52.000Z</time>
      </trkpt>
      <trkpt lat="47.27696" lon="-2.42803">
        <ele>-19.799999237061</ele>
        <time>2020-05-14T09:38:53.000Z</time>
      </trkpt>
      <trkpt lat="47.27698" lon="-2.42803">
        <ele>-19.39999961853</ele>
        <time>2020-05-14T09:38:54.000Z</time>
      </trkpt>
      <trkpt lat="47.27703" lon="-2.42805">
        <ele>-18.799999237061</ele>
        <time>2020-05-14T09:38:55.000Z</time>
      </trkpt>
      <trkpt lat="47.27707" lon="-2.42805">
        <ele>-19.200000762939</ele>
        <time>2020-05-14T09:38:56.000Z</time>
      </trkpt>
      <trkpt lat="47.2771" lon="-2.42807">
        <ele>-19.60000038147</ele>
        <time>2020-05-14T09:38:57.000Z</time>
      </trkpt>
      <trkpt lat="47.27715" lon="-2.42807">
        <ele>-20</ele>
        <time>2020-05-14T09:38:58.000Z</time>
      </trkpt>
      <trkpt lat="47.27719" lon="-2.42805">
        <ele>-20.39999961853</ele>
        <time>2020-05-14T09:38:59.000Z</time>
      </trkpt>
      <trkpt lat="47.27722" lon="-2.42804">
        <ele>-20.799999237061</ele>
        <time>2020-05-14T09:39:00.000Z</time>
      </trkpt>
      <trkpt lat="47.27727" lon="-2.42803">
        <ele>-20.799999237061</ele>
        <time>2020-05-14T09:39:01.000Z</time>
      </trkpt>
      <trkpt lat="47.27737" lon="-2.42803">
        <ele>-20.799999237061</ele>
        <time>2020-05-14T09:39:03.000Z</time>
      </trkpt>
      <trkpt lat="47.27752" lon="-2.42807">
        <ele>-20.799999237061</ele>
        <time>2020-05-14T09:39:06.000Z</time>
      </trkpt>
      <trkpt lat="47.27783" lon="-2.42813">
        <ele>-20.799999237061</ele>
        <time>2020-05-14T09:39:12.000Z</time>
      </trkpt>
      <trkpt lat="47.27813" lon="-2.42816">
        <ele>-20.799999237061</ele>
        <time>2020-05-14T09:39:18.000Z</time>
      </trkpt>
      <trkpt lat="47.27825" lon="-2.42815">
        <ele>-20.39999961853</ele>
        <time>2020-05-14T09:39:21.000Z</time>
      </trkpt>
      <trkpt lat="47.27828" lon="-2.42812">
        <ele>-20</ele>
        <time>2020-05-14T09:39:22.000Z</time>
      </trkpt>
      <trkpt lat="47.2783" lon="-2.42807">
        <ele>-19.60000038147</ele>
        <time>2020-05-14T09:39:23.000Z</time>
      </trkpt>
      <trkpt lat="47.2783" lon="-2.42801">
        <ele>-19</ele>
        <time>2020-05-14T09:39:24.000Z</time>
      </trkpt>
      <trkpt lat="47.2783" lon="-2.42796">
        <ele>-18.60000038147</ele>
        <time>2020-05-14T09:39:25.000Z</time>
      </trkpt>
      <trkpt lat="47.2783" lon="-2.4279">
        <ele>-18.60000038147</ele>
        <time>2020-05-14T09:39:26.000Z</time>
      </trkpt>
      <trkpt lat="47.27826" lon="-2.42744">
        <ele>-18.60000038147</ele>
        <time>2020-05-14T09:39:33.000Z</time>
      </trkpt>
      <trkpt lat="47.27825" lon="-2.4269">
        <ele>-18.60000038147</ele>
        <time>2020-05-14T09:39:40.000Z</time>
      </trkpt>
      <trkpt lat="47.27826" lon="-2.42682">
        <ele>-18.60000038147</ele>
        <time>2020-05-14T09:39:41.000Z</time>
      </trkpt>
      <trkpt lat="47.27825" lon="-2.42673">
        <ele>-18.200000762939</ele>
        <time>2020-05-14T09:39:42.000Z</time>
      </trkpt>
      <trkpt lat="47.27824" lon="-2.42665">
        <ele>-17.799999237061</ele>
        <time>2020-05-14T09:39:43.000Z</time>
      </trkpt>
      <trkpt lat="47.27823" lon="-2.42657">
        <ele>-17.39999961853</ele>
        <time>2020-05-14T09:39:44.000Z</time>
      </trkpt>
      <trkpt lat="47.27823" lon="-2.4265">
        <ele>-17.60000038147</ele>
        <time>2020-05-14T09:39:45.000Z</time>
      </trkpt>
      <trkpt lat="47.27822" lon="-2.42642">
        <ele>-18</ele>
        <time>2020-05-14T09:39:46.000Z</time>
      </trkpt>
      <trkpt lat="47.2782" lon="-2.42633">
        <ele>-18.200000762939</ele>
        <time>2020-05-14T09:39:47.000Z</time>
      </trkpt>
      <trkpt lat="47.27819" lon="-2.42625">
        <ele>-18.39999961853</ele>
        <time>2020-05-14T09:39:48.000Z</time>
      </trkpt>
      <trkpt lat="47.27816" lon="-2.42616">
        <ele>-18.799999237061</ele>
        <time>2020-05-14T09:39:49.000Z</time>
      </trkpt>
      <trkpt lat="47.27815" lon="-2.42608">
        <ele>-19.200000762939</ele>
        <time>2020-05-14T09:39:50.000Z</time>
      </trkpt>
      <trkpt lat="47.27813" lon="-2.426">
        <ele>-19.60000038147</ele>
        <time>2020-05-14T09:39:51.000Z</time>
      </trkpt>
      <trkpt lat="47.27811" lon="-2.42593">
        <ele>-20</ele>
        <time>2020-05-14T09:39:52.000Z</time>
      </trkpt>
      <trkpt lat="47.27809" lon="-2.42585">
        <ele>-20.39999961853</ele>
        <time>2020-05-14T09:39:53.000Z</time>
      </trkpt>
      <trkpt lat="47.27806" lon="-2.42577">
        <ele>-20.799999237061</ele>
        <time>2020-05-14T09:39:54.000Z</time>
      </trkpt>
      <trkpt lat="47.27803" lon="-2.42569">
        <ele>-20.799999237061</ele>
        <time>2020-05-14T09:39:55.000Z</time>
      </trkpt>
      <trkpt lat="47.27791" lon="-2.42539">
        <ele>-20.799999237061</ele>
        <time>2020-05-14T09:39:59.000Z</time>
      </trkpt>
      <trkpt lat="47.2777" lon="-2.4248">
        <ele>-20.799999237061</ele>
        <time>2020-05-14T09:40:07.000Z</time>
      </trkpt>
      <trkpt lat="47.27756" lon="-2.42429">
        <ele>-20.799999237061</ele>
        <time>2020-05-14T09:40:14.000Z</time>
      </trkpt>
      <trkpt lat="47.2775" lon="-2.42393">
        <ele>-20.799999237061</ele>
        <time>2020-05-14T09:40:19.000Z</time>
      </trkpt>
      <trkpt lat="47.27748" lon="-2.42378">
        <ele>-20.799999237061</ele>
        <time>2020-05-14T09:40:21.000Z</time>
      </trkpt>
      <trkpt lat="47.27742" lon="-2.4234">
        <ele>-20.799999237061</ele>
        <time>2020-05-14T09:40:26.000Z</time>
      </trkpt>
      <trkpt lat="47.2774" lon="-2.42325">
        <ele>-20.799999237061</ele>
        <time>2020-05-14T09:40:28.000Z</time>
      </trkpt>
      <trkpt lat="47.27735" lon="-2.42265">
        <ele>-20.799999237061</ele>
        <time>2020-05-14T09:40:36.000Z</time>
      </trkpt>
      <trkpt lat="47.27733" lon="-2.4221">
        <ele>-20.799999237061</ele>
        <time>2020-05-14T09:40:43.000Z</time>
      </trkpt>
      <trkpt lat="47.27732" lon="-2.42151">
        <ele>-20.799999237061</ele>
        <time>2020-05-14T09:40:51.000Z</time>
      </trkpt>
      <trkpt lat="47.27737" lon="-2.42094">
        <ele>-20.799999237061</ele>
        <time>2020-05-14T09:40:58.000Z</time>
      </trkpt>
      <trkpt lat="47.27741" lon="-2.42069">
        <ele>-20.799999237061</ele>
        <time>2020-05-14T09:41:01.000Z</time>
      </trkpt>
      <trkpt lat="47.27744" lon="-2.42052">
        <ele>-20.799999237061</ele>
        <time>2020-05-14T09:41:03.000Z</time>
      </trkpt>
      <trkpt lat="47.27755" lon="-2.42003">
        <ele>-20.799999237061</ele>
        <time>2020-05-14T09:41:09.000Z</time>
      </trkpt>
      <trkpt lat="47.27768" lon="-2.41958">
        <ele>-20.799999237061</ele>
        <time>2020-05-14T09:41:15.000Z</time>
      </trkpt>
      <trkpt lat="47.27773" lon="-2.41944">
        <ele>-20.799999237061</ele>
        <time>2020-05-14T09:41:17.000Z</time>
      </trkpt>
      <trkpt lat="47.2779" lon="-2.41895">
        <ele>-20.799999237061</ele>
        <time>2020-05-14T09:41:24.000Z</time>
      </trkpt>
      <trkpt lat="47.27801" lon="-2.41866">
        <ele>-20.799999237061</ele>
        <time>2020-05-14T09:41:28.000Z</time>
      </trkpt>
      <trkpt lat="47.27806" lon="-2.41851">
        <ele>-20.799999237061</ele>
        <time>2020-05-14T09:41:30.000Z</time>
      </trkpt>
      <trkpt lat="47.27828" lon="-2.41798">
        <ele>-20.799999237061</ele>
        <time>2020-05-14T09:41:38.000Z</time>
      </trkpt>
      <trkpt lat="47.27829" lon="-2.41791">
        <ele>-20.799999237061</ele>
        <time>2020-05-14T09:41:39.000Z</time>
      </trkpt>
      <trkpt lat="47.27836" lon="-2.4177">
        <ele>-20.799999237061</ele>
        <time>2020-05-14T09:41:43.000Z</time>
      </trkpt>
      <trkpt lat="47.27841" lon="-2.41759">
        <ele>-20.799999237061</ele>
        <time>2020-05-14T09:41:47.000Z</time>
      </trkpt>
      <trkpt lat="47.27843" lon="-2.41757">
        <ele>-20.799999237061</ele>
        <time>2020-05-14T09:41:51.000Z</time>
      </trkpt>
      <trkpt lat="47.27848" lon="-2.41746">
        <ele>-20.799999237061</ele>
        <time>2020-05-14T09:41:55.000Z</time>
      </trkpt>
      <trkpt lat="47.27852" lon="-2.41736">
        <ele>-20.799999237061</ele>
        <time>2020-05-14T09:41:57.000Z</time>
      </trkpt>
      <trkpt lat="47.27855" lon="-2.41731">
        <ele>-20.799999237061</ele>
        <time>2020-05-14T09:41:58.000Z</time>
      </trkpt>
      <trkpt lat="47.27867" lon="-2.41704">
        <ele>-20.799999237061</ele>
        <time>2020-05-14T09:42:03.000Z</time>
      </trkpt>
      <trkpt lat="47.27887" lon="-2.41658">
        <ele>-20.799999237061</ele>
        <time>2020-05-14T09:42:10.000Z</time>
      </trkpt>
      <trkpt lat="47.27904" lon="-2.41622">
        <ele>-20.799999237061</ele>
        <time>2020-05-14T09:42:15.000Z</time>
      </trkpt>
      <trkpt lat="47.27929" lon="-2.41575">
        <ele>-20.799999237061</ele>
        <time>2020-05-14T09:42:22.000Z</time>
      </trkpt>
      <trkpt lat="47.27952" lon="-2.4153">
        <ele>-20.799999237061</ele>
        <time>2020-05-14T09:42:29.000Z</time>
      </trkpt>
      <trkpt lat="47.27968" lon="-2.4148">
        <ele>-20.799999237061</ele>
        <time>2020-05-14T09:42:36.000Z</time>
      </trkpt>
      <trkpt lat="47.27982" lon="-2.41434">
        <ele>-20.799999237061</ele>
        <time>2020-05-14T09:42:42.000Z</time>
      </trkpt>
      <trkpt lat="47.27984" lon="-2.41426">
        <ele>-20.799999237061</ele>
        <time>2020-05-14T09:42:43.000Z</time>
      </trkpt>
      <trkpt lat="47.27995" lon="-2.41369">
        <ele>-20.799999237061</ele>
        <time>2020-05-14T09:42:50.000Z</time>
      </trkpt>
      <trkpt lat="47.28002" lon="-2.41309">
        <ele>-20.799999237061</ele>
        <time>2020-05-14T09:42:57.000Z</time>
      </trkpt>
      <trkpt lat="47.28005" lon="-2.41284">
        <ele>-20.799999237061</ele>
        <time>2020-05-14T09:43:00.000Z</time>
      </trkpt>
      <trkpt lat="47.28011" lon="-2.41259">
        <ele>-20.799999237061</ele>
        <time>2020-05-14T09:43:03.000Z</time>
      </trkpt>
      <trkpt lat="47.28014" lon="-2.41251">
        <ele>-20.799999237061</ele>
        <time>2020-05-14T09:43:04.000Z</time>
      </trkpt>
      <trkpt lat="47.28023" lon="-2.41219">
        <ele>-20.799999237061</ele>
        <time>2020-05-14T09:43:08.000Z</time>
      </trkpt>
      <trkpt lat="47.28036" lon="-2.41168">
        <ele>-20.799999237061</ele>
        <time>2020-05-14T09:43:14.000Z</time>
      </trkpt>
      <trkpt lat="47.28039" lon="-2.4115">
        <ele>-20.799999237061</ele>
        <time>2020-05-14T09:43:16.000Z</time>
      </trkpt>
      <trkpt lat="47.28043" lon="-2.41125">
        <ele>-20.799999237061</ele>
        <time>2020-05-14T09:43:19.000Z</time>
      </trkpt>
      <trkpt lat="47.28054" lon="-2.41065">
        <ele>-20.799999237061</ele>
        <time>2020-05-14T09:43:26.000Z</time>
      </trkpt>
      <trkpt lat="47.28069" lon="-2.40999">
        <ele>-20.799999237061</ele>
        <time>2020-05-14T09:43:34.000Z</time>
      </trkpt>
      <trkpt lat="47.28082" lon="-2.4095">
        <ele>-20.799999237061</ele>
        <time>2020-05-14T09:43:41.000Z</time>
      </trkpt>
      <trkpt lat="47.28085" lon="-2.40938">
        <ele>-20.799999237061</ele>
        <time>2020-05-14T09:43:43.000Z</time>
      </trkpt>
      <trkpt lat="47.28084" lon="-2.40925">
        <ele>-20.799999237061</ele>
        <time>2020-05-14T09:43:45.000Z</time>
      </trkpt>
      <trkpt lat="47.28075" lon="-2.40904">
        <ele>-20.799999237061</ele>
        <time>2020-05-14T09:43:48.000Z</time>
      </trkpt>
      <trkpt lat="47.28072" lon="-2.40898">
        <ele>-20.39999961853</ele>
        <time>2020-05-14T09:43:49.000Z</time>
      </trkpt>
      <trkpt lat="47.28069" lon="-2.40891">
        <ele>-20</ele>
        <time>2020-05-14T09:43:50.000Z</time>
      </trkpt>
      <trkpt lat="47.28065" lon="-2.40885">
        <ele>-19.60000038147</ele>
        <time>2020-05-14T09:43:51.000Z</time>
      </trkpt>
      <trkpt lat="47.28062" lon="-2.40878">
        <ele>-19.200000762939</ele>
        <time>2020-05-14T09:43:52.000Z</time>
      </trkpt>
      <trkpt lat="47.28059" lon="-2.40871">
        <ele>-18.799999237061</ele>
        <time>2020-05-14T09:43:53.000Z</time>
      </trkpt>
      <trkpt lat="47.28052" lon="-2.40851">
        <ele>-18.799999237061</ele>
        <time>2020-05-14T09:43:56.000Z</time>
      </trkpt>
      <trkpt lat="47.28048" lon="-2.40845">
        <ele>-18.799999237061</ele>
        <time>2020-05-14T09:43:57.000Z</time>
      </trkpt>
      <trkpt lat="47.28036" lon="-2.40819">
        <ele>-18.799999237061</ele>
        <time>2020-05-14T09:44:01.000Z</time>
      </trkpt>
      <trkpt lat="47.28034" lon="-2.40812">
        <ele>-18.799999237061</ele>
        <time>2020-05-14T09:44:02.000Z</time>
      </trkpt>
      <trkpt lat="47.28035" lon="-2.40798">
        <ele>-18.799999237061</ele>
        <time>2020-05-14T09:44:04.000Z</time>
      </trkpt>
      <trkpt lat="47.28038" lon="-2.40783">
        <ele>-18.799999237061</ele>
        <time>2020-05-14T09:44:06.000Z</time>
      </trkpt>
      <trkpt lat="47.28044" lon="-2.4076">
        <ele>-18.799999237061</ele>
        <time>2020-05-14T09:44:09.000Z</time>
      </trkpt>
      <trkpt lat="47.28049" lon="-2.40737">
        <ele>-18.799999237061</ele>
        <time>2020-05-14T09:44:12.000Z</time>
      </trkpt>
      <trkpt lat="47.28053" lon="-2.40713">
        <ele>-18.799999237061</ele>
        <time>2020-05-14T09:44:15.000Z</time>
      </trkpt>
      <trkpt lat="47.28056" lon="-2.40662">
        <ele>-18.799999237061</ele>
        <time>2020-05-14T09:44:21.000Z</time>
      </trkpt>
      <trkpt lat="47.28055" lon="-2.40654">
        <ele>-18.799999237061</ele>
        <time>2020-05-14T09:44:22.000Z</time>
      </trkpt>
      <trkpt lat="47.28049" lon="-2.40624">
        <ele>-18.799999237061</ele>
        <time>2020-05-14T09:44:26.000Z</time>
      </trkpt>
      <trkpt lat="47.28048" lon="-2.40616">
        <ele>-18.799999237061</ele>
        <time>2020-05-14T09:44:27.000Z</time>
      </trkpt>
      <trkpt lat="47.2805" lon="-2.40594">
        <ele>-18.799999237061</ele>
        <time>2020-05-14T09:44:30.000Z</time>
      </trkpt>
      <trkpt lat="47.28053" lon="-2.40579">
        <ele>-18.799999237061</ele>
        <time>2020-05-14T09:44:32.000Z</time>
      </trkpt>
      <trkpt lat="47.2806" lon="-2.40545">
        <ele>-18.799999237061</ele>
        <time>2020-05-14T09:44:37.000Z</time>
      </trkpt>
      <trkpt lat="47.2807" lon="-2.40496">
        <ele>-18.799999237061</ele>
        <time>2020-05-14T09:44:44.000Z</time>
      </trkpt>
      <trkpt lat="47.28072" lon="-2.40489">
        <ele>-18.799999237061</ele>
        <time>2020-05-14T09:44:45.000Z</time>
      </trkpt>
      <trkpt lat="47.28088" lon="-2.40458">
        <ele>-18.799999237061</ele>
        <time>2020-05-14T09:44:50.000Z</time>
      </trkpt>
      <trkpt lat="47.28101" lon="-2.40434">
        <ele>-18.799999237061</ele>
        <time>2020-05-14T09:44:54.000Z</time>
      </trkpt>
      <trkpt lat="47.28106" lon="-2.40419">
        <ele>-18.799999237061</ele>
        <time>2020-05-14T09:44:56.000Z</time>
      </trkpt>
      <trkpt lat="47.28115" lon="-2.40364">
        <ele>-18.799999237061</ele>
        <time>2020-05-14T09:45:03.000Z</time>
      </trkpt>
      <trkpt lat="47.28123" lon="-2.40297">
        <ele>-18.799999237061</ele>
        <time>2020-05-14T09:45:11.000Z</time>
      </trkpt>
      <trkpt lat="47.2813" lon="-2.40231">
        <ele>-18.799999237061</ele>
        <time>2020-05-14T09:45:19.000Z</time>
      </trkpt>
      <trkpt lat="47.28136" lon="-2.40176">
        <ele>-18.39999961853</ele>
        <time>2020-05-14T09:45:26.000Z</time>
      </trkpt>
      <trkpt lat="47.28137" lon="-2.40168">
        <ele>-18</ele>
        <time>2020-05-14T09:45:27.000Z</time>
      </trkpt>
      <trkpt lat="47.28138" lon="-2.40161">
        <ele>-17.39999961853</ele>
        <time>2020-05-14T09:45:28.000Z</time>
      </trkpt>
      <trkpt lat="47.28138" lon="-2.40153">
        <ele>-17</ele>
        <time>2020-05-14T09:45:29.000Z</time>
      </trkpt>
      <trkpt lat="47.28139" lon="-2.40145">
        <ele>-16.39999961853</ele>
        <time>2020-05-14T09:45:30.000Z</time>
      </trkpt>
      <trkpt lat="47.28142" lon="-2.40122">
        <ele>-16.39999961853</ele>
        <time>2020-05-14T09:45:33.000Z</time>
      </trkpt>
      <trkpt lat="47.28146" lon="-2.40058">
        <ele>-16.39999961853</ele>
        <time>2020-05-14T09:45:41.000Z</time>
      </trkpt>
      <trkpt lat="47.28151" lon="-2.40013">
        <ele>-16.39999961853</ele>
        <time>2020-05-14T09:45:47.000Z</time>
      </trkpt>
      <trkpt lat="47.28151" lon="-2.40005">
        <ele>-16.39999961853</ele>
        <time>2020-05-14T09:45:48.000Z</time>
      </trkpt>
      <trkpt lat="47.28152" lon="-2.39997">
        <ele>-16.39999961853</ele>
        <time>2020-05-14T09:45:49.000Z</time>
      </trkpt>
      <trkpt lat="47.28154" lon="-2.39972">
        <ele>-16.39999961853</ele>
        <time>2020-05-14T09:45:52.000Z</time>
      </trkpt>
      <trkpt lat="47.28154" lon="-2.39964">
        <ele>-16.39999961853</ele>
        <time>2020-05-14T09:45:53.000Z</time>
      </trkpt>
      <trkpt lat="47.28157" lon="-2.39908">
        <ele>-16.39999961853</ele>
        <time>2020-05-14T09:46:00.000Z</time>
      </trkpt>
      <trkpt lat="47.28161" lon="-2.39842">
        <ele>-16.39999961853</ele>
        <time>2020-05-14T09:46:08.000Z</time>
      </trkpt>
      <trkpt lat="47.28165" lon="-2.39776">
        <ele>-16.39999961853</ele>
        <time>2020-05-14T09:46:16.000Z</time>
      </trkpt>
      <trkpt lat="47.28168" lon="-2.39712">
        <ele>-16.39999961853</ele>
        <time>2020-05-14T09:46:24.000Z</time>
      </trkpt>
      <trkpt lat="47.2817" lon="-2.3966">
        <ele>-16.39999961853</ele>
        <time>2020-05-14T09:46:31.000Z</time>
      </trkpt>
      <trkpt lat="47.28173" lon="-2.39603">
        <ele>-16.39999961853</ele>
        <time>2020-05-14T09:46:39.000Z</time>
      </trkpt>
      <trkpt lat="47.28175" lon="-2.39536">
        <ele>-16.39999961853</ele>
        <time>2020-05-14T09:46:48.000Z</time>
      </trkpt>
      <trkpt lat="47.28175" lon="-2.39474">
        <ele>-16.39999961853</ele>
        <time>2020-05-14T09:46:56.000Z</time>
      </trkpt>
      <trkpt lat="47.28176" lon="-2.39406">
        <ele>-16.39999961853</ele>
        <time>2020-05-14T09:47:05.000Z</time>
      </trkpt>
      <trkpt lat="47.28175" lon="-2.39383">
        <ele>-16</ele>
        <time>2020-05-14T09:47:08.000Z</time>
      </trkpt>
      <trkpt lat="47.28175" lon="-2.39376">
        <ele>-15.60000038147</ele>
        <time>2020-05-14T09:47:09.000Z</time>
      </trkpt>
      <trkpt lat="47.28175" lon="-2.39369">
        <ele>-15.199999809265</ele>
        <time>2020-05-14T09:47:10.000Z</time>
      </trkpt>
      <trkpt lat="47.28175" lon="-2.39362">
        <ele>-14.800000190735</ele>
        <time>2020-05-14T09:47:11.000Z</time>
      </trkpt>
      <trkpt lat="47.28175" lon="-2.39354">
        <ele>-14.39999961853</ele>
        <time>2020-05-14T09:47:12.000Z</time>
      </trkpt>
      <trkpt lat="47.28175" lon="-2.39339">
        <ele>-14.39999961853</ele>
        <time>2020-05-14T09:47:14.000Z</time>
      </trkpt>
      <trkpt lat="47.28174" lon="-2.39319">
        <ele>-14.39999961853</ele>
        <time>2020-05-14T09:47:17.000Z</time>
      </trkpt>
      <trkpt lat="47.28175" lon="-2.39313">
        <ele>-14</ele>
        <time>2020-05-14T09:47:18.000Z</time>
      </trkpt>
      <trkpt lat="47.28174" lon="-2.39307">
        <ele>-13.60000038147</ele>
        <time>2020-05-14T09:47:19.000Z</time>
      </trkpt>
      <trkpt lat="47.28174" lon="-2.39302">
        <ele>-12.60000038147</ele>
        <time>2020-05-14T09:47:20.000Z</time>
      </trkpt>
      <trkpt lat="47.28174" lon="-2.39297">
        <ele>-12.199999809265</ele>
        <time>2020-05-14T09:47:21.000Z</time>
      </trkpt>
      <trkpt lat="47.28174" lon="-2.39287">
        <ele>-12.800000190735</ele>
        <time>2020-05-14T09:47:23.000Z</time>
      </trkpt>
      <trkpt lat="47.28174" lon="-2.39283">
        <ele>-13.199999809265</ele>
        <time>2020-05-14T09:47:24.000Z</time>
      </trkpt>
      <trkpt lat="47.28173" lon="-2.39279">
        <ele>-13.60000038147</ele>
        <time>2020-05-14T09:47:25.000Z</time>
      </trkpt>
      <trkpt lat="47.28173" lon="-2.39275">
        <ele>-14.199999809265</ele>
        <time>2020-05-14T09:47:26.000Z</time>
      </trkpt>
      <trkpt lat="47.28173" lon="-2.3927">
        <ele>-14.60000038147</ele>
        <time>2020-05-14T09:47:27.000Z</time>
      </trkpt>
      <trkpt lat="47.28172" lon="-2.39256">
        <ele>-14.60000038147</ele>
        <time>2020-05-14T09:47:30.000Z</time>
      </trkpt>
      <trkpt lat="47.28171" lon="-2.39236">
        <ele>-14.60000038147</ele>
        <time>2020-05-14T09:47:35.000Z</time>
      </trkpt>
      <trkpt lat="47.28171" lon="-2.3922">
        <ele>-15</ele>
        <time>2020-05-14T09:47:38.000Z</time>
      </trkpt>
      <trkpt lat="47.28171" lon="-2.39214">
        <ele>-15.39999961853</ele>
        <time>2020-05-14T09:47:39.000Z</time>
      </trkpt>
      <trkpt lat="47.28171" lon="-2.39207">
        <ele>-15.800000190735</ele>
        <time>2020-05-14T09:47:40.000Z</time>
      </trkpt>
      <trkpt lat="47.2817" lon="-2.392">
        <ele>-16.39999961853</ele>
        <time>2020-05-14T09:47:41.000Z</time>
      </trkpt>
      <trkpt lat="47.2817" lon="-2.39192">
        <ele>-16.799999237061</ele>
        <time>2020-05-14T09:47:42.000Z</time>
      </trkpt>
      <trkpt lat="47.28168" lon="-2.39151">
        <ele>-16.799999237061</ele>
        <time>2020-05-14T09:47:48.000Z</time>
      </trkpt>
      <trkpt lat="47.28163" lon="-2.3908">
        <ele>-16.799999237061</ele>
        <time>2020-05-14T09:47:57.000Z</time>
      </trkpt>
      <trkpt lat="47.28158" lon="-2.39014">
        <ele>-16.799999237061</ele>
        <time>2020-05-14T09:48:05.000Z</time>
      </trkpt>
      <trkpt lat="47.28149" lon="-2.38949">
        <ele>-16.799999237061</ele>
        <time>2020-05-14T09:48:13.000Z</time>
      </trkpt>
      <trkpt lat="47.28133" lon="-2.38881">
        <ele>-16.799999237061</ele>
        <time>2020-05-14T09:48:21.000Z</time>
      </trkpt>
      <trkpt lat="47.28126" lon="-2.38806">
        <ele>-16.799999237061</ele>
        <time>2020-05-14T09:48:30.000Z</time>
      </trkpt>
      <trkpt lat="47.28121" lon="-2.38752">
        <ele>-16.799999237061</ele>
        <time>2020-05-14T09:48:37.000Z</time>
      </trkpt>
      <trkpt lat="47.28115" lon="-2.38681">
        <ele>-16.799999237061</ele>
        <time>2020-05-14T09:48:46.000Z</time>
      </trkpt>
      <trkpt lat="47.28108" lon="-2.38618">
        <ele>-16.799999237061</ele>
        <time>2020-05-14T09:48:54.000Z</time>
      </trkpt>
      <trkpt lat="47.28102" lon="-2.38554">
        <ele>-16.799999237061</ele>
        <time>2020-05-14T09:49:02.000Z</time>
      </trkpt>
      <trkpt lat="47.28095" lon="-2.38507">
        <ele>-16.799999237061</ele>
        <time>2020-05-14T09:49:08.000Z</time>
      </trkpt>
      <trkpt lat="47.28085" lon="-2.38445">
        <ele>-16.799999237061</ele>
        <time>2020-05-14T09:49:16.000Z</time>
      </trkpt>
      <trkpt lat="47.28072" lon="-2.38375">
        <ele>-16.799999237061</ele>
        <time>2020-05-14T09:49:25.000Z</time>
      </trkpt>
      <trkpt lat="47.2806" lon="-2.38311">
        <ele>-16.799999237061</ele>
        <time>2020-05-14T09:49:33.000Z</time>
      </trkpt>
      <trkpt lat="47.28048" lon="-2.38249">
        <ele>-16.200000762939</ele>
        <time>2020-05-14T09:49:41.000Z</time>
      </trkpt>
      <trkpt lat="47.28047" lon="-2.38241">
        <ele>-15.800000190735</ele>
        <time>2020-05-14T09:49:42.000Z</time>
      </trkpt>
      <trkpt lat="47.28045" lon="-2.38234">
        <ele>-15.39999961853</ele>
        <time>2020-05-14T09:49:43.000Z</time>
      </trkpt>
      <trkpt lat="47.28044" lon="-2.38227">
        <ele>-15</ele>
        <time>2020-05-14T09:49:44.000Z</time>
      </trkpt>
      <trkpt lat="47.28043" lon="-2.3822">
        <ele>-14.60000038147</ele>
        <time>2020-05-14T09:49:45.000Z</time>
      </trkpt>
      <trkpt lat="47.28042" lon="-2.38207">
        <ele>-14.60000038147</ele>
        <time>2020-05-14T09:49:47.000Z</time>
      </trkpt>
      <trkpt lat="47.28042" lon="-2.38201">
        <ele>-14.199999809265</ele>
        <time>2020-05-14T09:49:48.000Z</time>
      </trkpt>
      <trkpt lat="47.28042" lon="-2.38196">
        <ele>-13.39999961853</ele>
        <time>2020-05-14T09:49:49.000Z</time>
      </trkpt>
      <trkpt lat="47.28042" lon="-2.38191">
        <ele>-13.60000038147</ele>
        <time>2020-05-14T09:49:50.000Z</time>
      </trkpt>
      <trkpt lat="47.28042" lon="-2.38185">
        <ele>-14</ele>
        <time>2020-05-14T09:49:51.000Z</time>
      </trkpt>
      <trkpt lat="47.28041" lon="-2.3818">
        <ele>-14.199999809265</ele>
        <time>2020-05-14T09:49:52.000Z</time>
      </trkpt>
      <trkpt lat="47.2804" lon="-2.38174">
        <ele>-14.60000038147</ele>
        <time>2020-05-14T09:49:53.000Z</time>
      </trkpt>
      <trkpt lat="47.2804" lon="-2.38169">
        <ele>-14.800000190735</ele>
        <time>2020-05-14T09:49:54.000Z</time>
      </trkpt>
      <trkpt lat="47.2803" lon="-2.3812">
        <ele>-14.800000190735</ele>
        <time>2020-05-14T09:50:03.000Z</time>
      </trkpt>
      <trkpt lat="47.28027" lon="-2.38099">
        <ele>-14.800000190735</ele>
        <time>2020-05-14T09:50:08.000Z</time>
      </trkpt>
      <trkpt lat="47.28034" lon="-2.38087">
        <ele>-14.800000190735</ele>
        <time>2020-05-14T09:50:12.000Z</time>
      </trkpt>
      <trkpt lat="47.28037" lon="-2.38085">
        <ele>-15.199999809265</ele>
        <time>2020-05-14T09:50:13.000Z</time>
      </trkpt>
      <trkpt lat="47.2804" lon="-2.38083">
        <ele>-16</ele>
        <time>2020-05-14T09:50:14.000Z</time>
      </trkpt>
      <trkpt lat="47.28043" lon="-2.38081">
        <ele>-16.39999961853</ele>
        <time>2020-05-14T09:50:15.000Z</time>
      </trkpt>
      <trkpt lat="47.28047" lon="-2.38079">
        <ele>-16.799999237061</ele>
        <time>2020-05-14T09:50:16.000Z</time>
      </trkpt>
      <trkpt lat="47.28055" lon="-2.38075">
        <ele>-16.799999237061</ele>
        <time>2020-05-14T09:50:18.000Z</time>
      </trkpt>
      <trkpt lat="47.28081" lon="-2.38064">
        <ele>-16.799999237061</ele>
        <time>2020-05-14T09:50:24.000Z</time>
      </trkpt>
      <trkpt lat="47.28114" lon="-2.38051">
        <ele>-16.799999237061</ele>
        <time>2020-05-14T09:50:31.000Z</time>
      </trkpt>
      <trkpt lat="47.28146" lon="-2.38041">
        <ele>-16.799999237061</ele>
        <time>2020-05-14T09:50:38.000Z</time>
      </trkpt>
      <trkpt lat="47.28159" lon="-2.3803">
        <ele>-16.799999237061</ele>
        <time>2020-05-14T09:50:42.000Z</time>
      </trkpt>
      <trkpt lat="47.2816" lon="-2.38026">
        <ele>-16.799999237061</ele>
        <time>2020-05-14T09:50:43.000Z</time>
      </trkpt>
      <trkpt lat="47.28157" lon="-2.37996">
        <ele>-16.799999237061</ele>
        <time>2020-05-14T09:50:48.000Z</time>
      </trkpt>
      <trkpt lat="47.28152" lon="-2.37968">
        <ele>-16.799999237061</ele>
        <time>2020-05-14T09:50:52.000Z</time>
      </trkpt>
      <trkpt lat="47.28149" lon="-2.37962">
        <ele>-16.799999237061</ele>
        <time>2020-05-14T09:50:53.000Z</time>
      </trkpt>
      <trkpt lat="47.28137" lon="-2.3795">
        <ele>-16.799999237061</ele>
        <time>2020-05-14T09:50:56.000Z</time>
      </trkpt>
      <trkpt lat="47.28133" lon="-2.37945">
        <ele>-16.799999237061</ele>
        <time>2020-05-14T09:50:57.000Z</time>
      </trkpt>
      <trkpt lat="47.28115" lon="-2.3792">
        <ele>-16.799999237061</ele>
        <time>2020-05-14T09:51:02.000Z</time>
      </trkpt>
      <trkpt lat="47.28089" lon="-2.37881">
        <ele>-16.799999237061</ele>
        <time>2020-05-14T09:51:10.000Z</time>
      </trkpt>
      <trkpt lat="47.28062" lon="-2.37836">
        <ele>-16.799999237061</ele>
        <time>2020-05-14T09:51:18.000Z</time>
      </trkpt>
      <trkpt lat="47.28042" lon="-2.37803">
        <ele>-16.799999237061</ele>
        <time>2020-05-14T09:51:24.000Z</time>
      </trkpt>
      <trkpt lat="47.28026" lon="-2.37779">
        <ele>-16.799999237061</ele>
        <time>2020-05-14T09:51:29.000Z</time>
      </trkpt>
      <trkpt lat="47.28024" lon="-2.37775">
        <ele>-16.799999237061</ele>
        <time>2020-05-14T09:51:30.000Z</time>
      </trkpt>
      <trkpt lat="47.28021" lon="-2.37762">
        <ele>-16.799999237061</ele>
        <time>2020-05-14T09:51:34.000Z</time>
      </trkpt>
      <trkpt lat="47.28029" lon="-2.37745">
        <ele>-16.799999237061</ele>
        <time>2020-05-14T09:51:38.000Z</time>
      </trkpt>
      <trkpt lat="47.28032" lon="-2.37741">
        <ele>-16.799999237061</ele>
        <time>2020-05-14T09:51:39.000Z</time>
      </trkpt>
      <trkpt lat="47.28035" lon="-2.37737">
        <ele>-16.799999237061</ele>
        <time>2020-05-14T09:51:40.000Z</time>
      </trkpt>
      <trkpt lat="47.28048" lon="-2.37721">
        <ele>-16.799999237061</ele>
        <time>2020-05-14T09:51:44.000Z</time>
      </trkpt>
      <trkpt lat="47.28046" lon="-2.37705">
        <ele>-16.799999237061</ele>
        <time>2020-05-14T09:51:47.000Z</time>
      </trkpt>
      <trkpt lat="47.2804" lon="-2.37694">
        <ele>-16.799999237061</ele>
        <time>2020-05-14T09:51:49.000Z</time>
      </trkpt>
      <trkpt lat="47.28033" lon="-2.37685">
        <ele>-16.799999237061</ele>
        <time>2020-05-14T09:51:51.000Z</time>
      </trkpt>
      <trkpt lat="47.28029" lon="-2.3768">
        <ele>-16.799999237061</ele>
        <time>2020-05-14T09:51:52.000Z</time>
      </trkpt>
      <trkpt lat="47.28006" lon="-2.37641">
        <ele>-16.799999237061</ele>
        <time>2020-05-14T09:51:59.000Z</time>
      </trkpt>
      <trkpt lat="47.27989" lon="-2.3761">
        <ele>-16.799999237061</ele>
        <time>2020-05-14T09:52:05.000Z</time>
      </trkpt>
      <trkpt lat="47.27986" lon="-2.37604">
        <ele>-16.799999237061</ele>
        <time>2020-05-14T09:52:06.000Z</time>
      </trkpt>
      <trkpt lat="47.27976" lon="-2.37575">
        <ele>-16.799999237061</ele>
        <time>2020-05-14T09:52:10.000Z</time>
      </trkpt>
      <trkpt lat="47.27958" lon="-2.37511">
        <ele>-16.799999237061</ele>
        <time>2020-05-14T09:52:18.000Z</time>
      </trkpt>
      <trkpt lat="47.27946" lon="-2.37473">
        <ele>-16.799999237061</ele>
        <time>2020-05-14T09:52:24.000Z</time>
      </trkpt>
      <trkpt lat="47.27944" lon="-2.37466">
        <ele>-16.799999237061</ele>
        <time>2020-05-14T09:52:25.000Z</time>
      </trkpt>
      <trkpt lat="47.27937" lon="-2.37437">
        <ele>-16.799999237061</ele>
        <time>2020-05-14T09:52:29.000Z</time>
      </trkpt>
      <trkpt lat="47.27926" lon="-2.37392">
        <ele>-16.799999237061</ele>
        <time>2020-05-14T09:52:35.000Z</time>
      </trkpt>
      <trkpt lat="47.27916" lon="-2.3735">
        <ele>-16.799999237061</ele>
        <time>2020-05-14T09:52:41.000Z</time>
      </trkpt>
      <trkpt lat="47.27903" lon="-2.37305">
        <ele>-16.799999237061</ele>
        <time>2020-05-14T09:52:48.000Z</time>
      </trkpt>
      <trkpt lat="47.27891" lon="-2.37258">
        <ele>-16.799999237061</ele>
        <time>2020-05-14T09:52:55.000Z</time>
      </trkpt>
      <trkpt lat="47.27884" lon="-2.37225">
        <ele>-16.799999237061</ele>
        <time>2020-05-14T09:53:00.000Z</time>
      </trkpt>
      <trkpt lat="47.27882" lon="-2.37218">
        <ele>-16.799999237061</ele>
        <time>2020-05-14T09:53:01.000Z</time>
      </trkpt>
      <trkpt lat="47.27871" lon="-2.37171">
        <ele>-16.799999237061</ele>
        <time>2020-05-14T09:53:08.000Z</time>
      </trkpt>
      <trkpt lat="47.27861" lon="-2.37142">
        <ele>-16.799999237061</ele>
        <time>2020-05-14T09:53:13.000Z</time>
      </trkpt>
      <trkpt lat="47.27852" lon="-2.37104">
        <ele>-16.799999237061</ele>
        <time>2020-05-14T09:53:19.000Z</time>
      </trkpt>
      <trkpt lat="47.27841" lon="-2.37062">
        <ele>-16.799999237061</ele>
        <time>2020-05-14T09:53:25.000Z</time>
      </trkpt>
      <trkpt lat="47.27839" lon="-2.37055">
        <ele>-16.799999237061</ele>
        <time>2020-05-14T09:53:26.000Z</time>
      </trkpt>
      <trkpt lat="47.27831" lon="-2.37023">
        <ele>-16</ele>
        <time>2020-05-14T09:53:31.000Z</time>
      </trkpt>
      <trkpt lat="47.27829" lon="-2.37017">
        <ele>-15.60000038147</ele>
        <time>2020-05-14T09:53:32.000Z</time>
      </trkpt>
      <trkpt lat="47.27827" lon="-2.37011">
        <ele>-15.199999809265</ele>
        <time>2020-05-14T09:53:33.000Z</time>
      </trkpt>
      <trkpt lat="47.27826" lon="-2.37005">
        <ele>-14.800000190735</ele>
        <time>2020-05-14T09:53:34.000Z</time>
      </trkpt>
      <trkpt lat="47.27824" lon="-2.36999">
        <ele>-15.199999809265</ele>
        <time>2020-05-14T09:53:35.000Z</time>
      </trkpt>
      <trkpt lat="47.27823" lon="-2.36992">
        <ele>-15.60000038147</ele>
        <time>2020-05-14T09:53:36.000Z</time>
      </trkpt>
      <trkpt lat="47.27821" lon="-2.36986">
        <ele>-16</ele>
        <time>2020-05-14T09:53:37.000Z</time>
      </trkpt>
      <trkpt lat="47.27819" lon="-2.36979">
        <ele>-16.39999961853</ele>
        <time>2020-05-14T09:53:38.000Z</time>
      </trkpt>
      <trkpt lat="47.27816" lon="-2.36975">
        <ele>-16.799999237061</ele>
        <time>2020-05-14T09:53:39.000Z</time>
      </trkpt>
      <trkpt lat="47.2781" lon="-2.36957">
        <ele>-16.799999237061</ele>
        <time>2020-05-14T09:53:42.000Z</time>
      </trkpt>
      <trkpt lat="47.27808" lon="-2.36951">
        <ele>-16.799999237061</ele>
        <time>2020-05-14T09:53:43.000Z</time>
      </trkpt>
      <trkpt lat="47.27801" lon="-2.3693">
        <ele>-16.799999237061</ele>
        <time>2020-05-14T09:53:46.000Z</time>
      </trkpt>
      <trkpt lat="47.27799" lon="-2.36924">
        <ele>-16.799999237061</ele>
        <time>2020-05-14T09:53:47.000Z</time>
      </trkpt>
      <trkpt lat="47.27788" lon="-2.36891">
        <ele>-16.799999237061</ele>
        <time>2020-05-14T09:53:52.000Z</time>
      </trkpt>
      <trkpt lat="47.27772" lon="-2.36844">
        <ele>-16.799999237061</ele>
        <time>2020-05-14T09:53:59.000Z</time>
      </trkpt>
      <trkpt lat="47.27757" lon="-2.36796">
        <ele>-16.799999237061</ele>
        <time>2020-05-14T09:54:06.000Z</time>
      </trkpt>
      <trkpt lat="47.27744" lon="-2.36753">
        <ele>-16.799999237061</ele>
        <time>2020-05-14T09:54:12.000Z</time>
      </trkpt>
      <trkpt lat="47.2773" lon="-2.36709">
        <ele>-16.799999237061</ele>
        <time>2020-05-14T09:54:18.000Z</time>
      </trkpt>
      <trkpt lat="47.27715" lon="-2.36667">
        <ele>-16.799999237061</ele>
        <time>2020-05-14T09:54:24.000Z</time>
      </trkpt>
      <trkpt lat="47.27701" lon="-2.36627">
        <ele>-16.799999237061</ele>
        <time>2020-05-14T09:54:30.000Z</time>
      </trkpt>
      <trkpt lat="47.27686" lon="-2.36581">
        <ele>-16.799999237061</ele>
        <time>2020-05-14T09:54:37.000Z</time>
      </trkpt>
      <trkpt lat="47.27675" lon="-2.3655">
        <ele>-16.799999237061</ele>
        <time>2020-05-14T09:54:42.000Z</time>
      </trkpt>
      <trkpt lat="47.27669" lon="-2.36538">
        <ele>-16.799999237061</ele>
        <time>2020-05-14T09:54:44.000Z</time>
      </trkpt>
      <trkpt lat="47.27665" lon="-2.36526">
        <ele>-16.799999237061</ele>
        <time>2020-05-14T09:54:46.000Z</time>
      </trkpt>
      <trkpt lat="47.27658" lon="-2.365">
        <ele>-16.799999237061</ele>
        <time>2020-05-14T09:54:50.000Z</time>
      </trkpt>
      <trkpt lat="47.27656" lon="-2.36495">
        <ele>-16.799999237061</ele>
        <time>2020-05-14T09:54:51.000Z</time>
      </trkpt>
      <trkpt lat="47.27647" lon="-2.3647">
        <ele>-16.799999237061</ele>
        <time>2020-05-14T09:54:55.000Z</time>
      </trkpt>
      <trkpt lat="47.27633" lon="-2.36434">
        <ele>-16.799999237061</ele>
        <time>2020-05-14T09:55:01.000Z</time>
      </trkpt>
      <trkpt lat="47.27631" lon="-2.36429">
        <ele>-16.799999237061</ele>
        <time>2020-05-14T09:55:02.000Z</time>
      </trkpt>
      <trkpt lat="47.27621" lon="-2.36399">
        <ele>-16.799999237061</ele>
        <time>2020-05-14T09:55:07.000Z</time>
      </trkpt>
      <trkpt lat="47.27618" lon="-2.36386">
        <ele>-16.799999237061</ele>
        <time>2020-05-14T09:55:09.000Z</time>
      </trkpt>
      <trkpt lat="47.27612" lon="-2.36368">
        <ele>-16.799999237061</ele>
        <time>2020-05-14T09:55:12.000Z</time>
      </trkpt>
      <trkpt lat="47.2761" lon="-2.36361">
        <ele>-16.799999237061</ele>
        <time>2020-05-14T09:55:13.000Z</time>
      </trkpt>
      <trkpt lat="47.27597" lon="-2.36319">
        <ele>-16.799999237061</ele>
        <time>2020-05-14T09:55:19.000Z</time>
      </trkpt>
      <trkpt lat="47.2758" lon="-2.36264">
        <ele>-16.799999237061</ele>
        <time>2020-05-14T09:55:27.000Z</time>
      </trkpt>
      <trkpt lat="47.27575" lon="-2.36251">
        <ele>-16.799999237061</ele>
        <time>2020-05-14T09:55:29.000Z</time>
      </trkpt>
      <trkpt lat="47.2757" lon="-2.36232">
        <ele>-16.799999237061</ele>
        <time>2020-05-14T09:55:32.000Z</time>
      </trkpt>
      <trkpt lat="47.27557" lon="-2.36193">
        <ele>-16.799999237061</ele>
        <time>2020-05-14T09:55:38.000Z</time>
      </trkpt>
      <trkpt lat="47.27549" lon="-2.36169">
        <ele>-16.799999237061</ele>
        <time>2020-05-14T09:55:42.000Z</time>
      </trkpt>
      <trkpt lat="47.27544" lon="-2.36156">
        <ele>-16.799999237061</ele>
        <time>2020-05-14T09:55:44.000Z</time>
      </trkpt>
      <trkpt lat="47.27536" lon="-2.36133">
        <ele>-16.799999237061</ele>
        <time>2020-05-14T09:55:48.000Z</time>
      </trkpt>
      <trkpt lat="47.2753" lon="-2.36114">
        <ele>-16.799999237061</ele>
        <time>2020-05-14T09:55:51.000Z</time>
      </trkpt>
      <trkpt lat="47.27516" lon="-2.36071">
        <ele>-16.39999961853</ele>
        <time>2020-05-14T09:55:58.000Z</time>
      </trkpt>
      <trkpt lat="47.27514" lon="-2.36064">
        <ele>-15.60000038147</ele>
        <time>2020-05-14T09:55:59.000Z</time>
      </trkpt>
      <trkpt lat="47.27512" lon="-2.36058">
        <ele>-15.199999809265</ele>
        <time>2020-05-14T09:56:00.000Z</time>
      </trkpt>
      <trkpt lat="47.2751" lon="-2.36052">
        <ele>-14.800000190735</ele>
        <time>2020-05-14T09:56:01.000Z</time>
      </trkpt>
      <trkpt lat="47.27497" lon="-2.36015">
        <ele>-14.800000190735</ele>
        <time>2020-05-14T09:56:07.000Z</time>
      </trkpt>
      <trkpt lat="47.27488" lon="-2.35985">
        <ele>-14.800000190735</ele>
        <time>2020-05-14T09:56:12.000Z</time>
      </trkpt>
      <trkpt lat="47.27481" lon="-2.35966">
        <ele>-14.800000190735</ele>
        <time>2020-05-14T09:56:15.000Z</time>
      </trkpt>
      <trkpt lat="47.27474" lon="-2.35946">
        <ele>-14.800000190735</ele>
        <time>2020-05-14T09:56:18.000Z</time>
      </trkpt>
      <trkpt lat="47.27459" lon="-2.35896">
        <ele>-14.800000190735</ele>
        <time>2020-05-14T09:56:25.000Z</time>
      </trkpt>
      <trkpt lat="47.27453" lon="-2.35881">
        <ele>-15.199999809265</ele>
        <time>2020-05-14T09:56:27.000Z</time>
      </trkpt>
      <trkpt lat="47.27451" lon="-2.35874">
        <ele>-15.60000038147</ele>
        <time>2020-05-14T09:56:28.000Z</time>
      </trkpt>
      <trkpt lat="47.27448" lon="-2.35868">
        <ele>-16</ele>
        <time>2020-05-14T09:56:29.000Z</time>
      </trkpt>
      <trkpt lat="47.27445" lon="-2.3586">
        <ele>-16.39999961853</ele>
        <time>2020-05-14T09:56:30.000Z</time>
      </trkpt>
      <trkpt lat="47.27443" lon="-2.35853">
        <ele>-16.799999237061</ele>
        <time>2020-05-14T09:56:31.000Z</time>
      </trkpt>
      <trkpt lat="47.27424" lon="-2.35801">
        <ele>-16.799999237061</ele>
        <time>2020-05-14T09:56:38.000Z</time>
      </trkpt>
      <trkpt lat="47.27404" lon="-2.35741">
        <ele>-16.799999237061</ele>
        <time>2020-05-14T09:56:45.000Z</time>
      </trkpt>
      <trkpt lat="47.27399" lon="-2.35723">
        <ele>-17.39999961853</ele>
        <time>2020-05-14T09:56:47.000Z</time>
      </trkpt>
      <trkpt lat="47.27396" lon="-2.35715">
        <ele>-18.200000762939</ele>
        <time>2020-05-14T09:56:48.000Z</time>
      </trkpt>
      <trkpt lat="47.27393" lon="-2.35707">
        <ele>-18.799999237061</ele>
        <time>2020-05-14T09:56:49.000Z</time>
      </trkpt>
      <trkpt lat="47.2739" lon="-2.35698">
        <ele>-19.200000762939</ele>
        <time>2020-05-14T09:56:50.000Z</time>
      </trkpt>
      <trkpt lat="47.27387" lon="-2.3569">
        <ele>-19.200000762939</ele>
        <time>2020-05-14T09:56:51.000Z</time>
      </trkpt>
      <trkpt lat="47.27373" lon="-2.35686">
        <ele>-19.200000762939</ele>
        <time>2020-05-14T09:56:54.000Z</time>
      </trkpt>
      <trkpt lat="47.27354" lon="-2.357">
        <ele>-19.200000762939</ele>
        <time>2020-05-14T09:56:58.000Z</time>
      </trkpt>
      <trkpt lat="47.2735" lon="-2.35704">
        <ele>-19.200000762939</ele>
        <time>2020-05-14T09:56:59.000Z</time>
      </trkpt>
      <trkpt lat="47.27328" lon="-2.35725">
        <ele>-19.200000762939</ele>
        <time>2020-05-14T09:57:04.000Z</time>
      </trkpt>
      <trkpt lat="47.27325" lon="-2.3573">
        <ele>-19.200000762939</ele>
        <time>2020-05-14T09:57:05.000Z</time>
      </trkpt>
      <trkpt lat="47.27309" lon="-2.35739">
        <ele>-19.200000762939</ele>
        <time>2020-05-14T09:57:10.000Z</time>
      </trkpt>
      <trkpt lat="47.27303" lon="-2.35723">
        <ele>-19.200000762939</ele>
        <time>2020-05-14T09:57:13.000Z</time>
      </trkpt>
      <trkpt lat="47.27301" lon="-2.35717">
        <ele>-19.200000762939</ele>
        <time>2020-05-14T09:57:14.000Z</time>
      </trkpt>
      <trkpt lat="47.27299" lon="-2.3571">
        <ele>-18.799999237061</ele>
        <time>2020-05-14T09:57:15.000Z</time>
      </trkpt>
      <trkpt lat="47.27297" lon="-2.35704">
        <ele>-18.39999961853</ele>
        <time>2020-05-14T09:57:16.000Z</time>
      </trkpt>
      <trkpt lat="47.27294" lon="-2.35698">
        <ele>-18</ele>
        <time>2020-05-14T09:57:17.000Z</time>
      </trkpt>
      <trkpt lat="47.27291" lon="-2.35693">
        <ele>-17.60000038147</ele>
        <time>2020-05-14T09:57:18.000Z</time>
      </trkpt>
      <trkpt lat="47.27288" lon="-2.35687">
        <ele>-17</ele>
        <time>2020-05-14T09:57:19.000Z</time>
      </trkpt>
      <trkpt lat="47.27273" lon="-2.35656">
        <ele>-16.60000038147</ele>
        <time>2020-05-14T09:57:24.000Z</time>
      </trkpt>
      <trkpt lat="47.2727" lon="-2.35651">
        <ele>-16.200000762939</ele>
        <time>2020-05-14T09:57:25.000Z</time>
      </trkpt>
      <trkpt lat="47.27267" lon="-2.35645">
        <ele>-15.800000190735</ele>
        <time>2020-05-14T09:57:26.000Z</time>
      </trkpt>
      <trkpt lat="47.27265" lon="-2.35639">
        <ele>-15.39999961853</ele>
        <time>2020-05-14T09:57:27.000Z</time>
      </trkpt>
      <trkpt lat="47.27262" lon="-2.35632">
        <ele>-14.800000190735</ele>
        <time>2020-05-14T09:57:28.000Z</time>
      </trkpt>
      <trkpt lat="47.27252" lon="-2.35609">
        <ele>-14.800000190735</ele>
        <time>2020-05-14T09:57:32.000Z</time>
      </trkpt>
      <trkpt lat="47.27236" lon="-2.35573">
        <ele>-14.800000190735</ele>
        <time>2020-05-14T09:57:38.000Z</time>
      </trkpt>
      <trkpt lat="47.27211" lon="-2.35519">
        <ele>-14.800000190735</ele>
        <time>2020-05-14T09:57:47.000Z</time>
      </trkpt>
      <trkpt lat="47.27191" lon="-2.35478">
        <ele>-14.800000190735</ele>
        <time>2020-05-14T09:57:54.000Z</time>
      </trkpt>
      <trkpt lat="47.27184" lon="-2.35461">
        <ele>-14.800000190735</ele>
        <time>2020-05-14T09:57:57.000Z</time>
      </trkpt>
      <trkpt lat="47.27176" lon="-2.35443">
        <ele>-14.800000190735</ele>
        <time>2020-05-14T09:58:00.000Z</time>
      </trkpt>
      <trkpt lat="47.27153" lon="-2.35399">
        <ele>-14.800000190735</ele>
        <time>2020-05-14T09:58:08.000Z</time>
      </trkpt>
      <trkpt lat="47.27128" lon="-2.3536">
        <ele>-14.800000190735</ele>
        <time>2020-05-14T09:58:15.000Z</time>
      </trkpt>
      <trkpt lat="47.27091" lon="-2.35299">
        <ele>-14.800000190735</ele>
        <time>2020-05-14T09:58:25.000Z</time>
      </trkpt>
      <trkpt lat="47.27053" lon="-2.35239">
        <ele>-14.800000190735</ele>
        <time>2020-05-14T09:58:35.000Z</time>
      </trkpt>
      <trkpt lat="47.27027" lon="-2.35198">
        <ele>-14.800000190735</ele>
        <time>2020-05-14T09:58:42.000Z</time>
      </trkpt>
      <trkpt lat="47.27005" lon="-2.35163">
        <ele>-15.199999809265</ele>
        <time>2020-05-14T09:58:48.000Z</time>
      </trkpt>
      <trkpt lat="47.27001" lon="-2.35157">
        <ele>-15.60000038147</ele>
        <time>2020-05-14T09:58:49.000Z</time>
      </trkpt>
      <trkpt lat="47.26997" lon="-2.35152">
        <ele>-16.200000762939</ele>
        <time>2020-05-14T09:58:50.000Z</time>
      </trkpt>
      <trkpt lat="47.26993" lon="-2.35146">
        <ele>-17</ele>
        <time>2020-05-14T09:58:51.000Z</time>
      </trkpt>
      <trkpt lat="47.26958" lon="-2.35091">
        <ele>-17</ele>
        <time>2020-05-14T09:59:01.000Z</time>
      </trkpt>
      <trkpt lat="47.26933" lon="-2.35054">
        <ele>-17</ele>
        <time>2020-05-14T09:59:08.000Z</time>
      </trkpt>
      <trkpt lat="47.26905" lon="-2.35011">
        <ele>-17</ele>
        <time>2020-05-14T09:59:16.000Z</time>
      </trkpt>
      <trkpt lat="47.26876" lon="-2.34968">
        <ele>-17</ele>
        <time>2020-05-14T09:59:24.000Z</time>
      </trkpt>
      <trkpt lat="47.26849" lon="-2.34926">
        <ele>-17</ele>
        <time>2020-05-14T09:59:32.000Z</time>
      </trkpt>
      <trkpt lat="47.2682" lon="-2.34886">
        <ele>-17</ele>
        <time>2020-05-14T09:59:40.000Z</time>
      </trkpt>
      <trkpt lat="47.26783" lon="-2.34833">
        <ele>-17</ele>
        <time>2020-05-14T09:59:51.000Z</time>
      </trkpt>
      <trkpt lat="47.26754" lon="-2.34795">
        <ele>-17</ele>
        <time>2020-05-14T09:59:59.000Z</time>
      </trkpt>
      <trkpt lat="47.26727" lon="-2.3476">
        <ele>-17</ele>
        <time>2020-05-14T10:00:06.000Z</time>
      </trkpt>
      <trkpt lat="47.26694" lon="-2.34721">
        <ele>-17</ele>
        <time>2020-05-14T10:00:14.000Z</time>
      </trkpt>
      <trkpt lat="47.26667" lon="-2.34687">
        <ele>-17</ele>
        <time>2020-05-14T10:00:21.000Z</time>
      </trkpt>
      <trkpt lat="47.26635" lon="-2.34647">
        <ele>-17</ele>
        <time>2020-05-14T10:00:29.000Z</time>
      </trkpt>
      <trkpt lat="47.266" lon="-2.34604">
        <ele>-17</ele>
        <time>2020-05-14T10:00:38.000Z</time>
      </trkpt>
      <trkpt lat="47.26571" lon="-2.34571">
        <ele>-17</ele>
        <time>2020-05-14T10:00:45.000Z</time>
      </trkpt>
      <trkpt lat="47.26539" lon="-2.34535">
        <ele>-17</ele>
        <time>2020-05-14T10:00:53.000Z</time>
      </trkpt>
      <trkpt lat="47.26513" lon="-2.34511">
        <ele>-17</ele>
        <time>2020-05-14T10:00:59.000Z</time>
      </trkpt>
      <trkpt lat="47.26508" lon="-2.34508">
        <ele>-17</ele>
        <time>2020-05-14T10:01:00.000Z</time>
      </trkpt>
      <trkpt lat="47.26474" lon="-2.34484">
        <ele>-17</ele>
        <time>2020-05-14T10:01:07.000Z</time>
      </trkpt>
      <trkpt lat="47.26435" lon="-2.34458">
        <ele>-17</ele>
        <time>2020-05-14T10:01:15.000Z</time>
      </trkpt>
      <trkpt lat="47.26422" lon="-2.34448">
        <ele>-16.60000038147</ele>
        <time>2020-05-14T10:01:18.000Z</time>
      </trkpt>
      <trkpt lat="47.26418" lon="-2.34445">
        <ele>-15.60000038147</ele>
        <time>2020-05-14T10:01:19.000Z</time>
      </trkpt>
      <trkpt lat="47.26414" lon="-2.34442">
        <ele>-15.199999809265</ele>
        <time>2020-05-14T10:01:20.000Z</time>
      </trkpt>
      <trkpt lat="47.2641" lon="-2.34439">
        <ele>-14.800000190735</ele>
        <time>2020-05-14T10:01:21.000Z</time>
      </trkpt>
      <trkpt lat="47.26401" lon="-2.34432">
        <ele>-14.800000190735</ele>
        <time>2020-05-14T10:01:23.000Z</time>
      </trkpt>
      <trkpt lat="47.26396" lon="-2.34428">
        <ele>-15.199999809265</ele>
        <time>2020-05-14T10:01:24.000Z</time>
      </trkpt>
      <trkpt lat="47.26392" lon="-2.34425">
        <ele>-15.60000038147</ele>
        <time>2020-05-14T10:01:25.000Z</time>
      </trkpt>
      <trkpt lat="47.26387" lon="-2.34421">
        <ele>-16</ele>
        <time>2020-05-14T10:01:26.000Z</time>
      </trkpt>
      <trkpt lat="47.26383" lon="-2.34417">
        <ele>-16.39999961853</ele>
        <time>2020-05-14T10:01:27.000Z</time>
      </trkpt>
      <trkpt lat="47.26378" lon="-2.34413">
        <ele>-16.799999237061</ele>
        <time>2020-05-14T10:01:28.000Z</time>
      </trkpt>
      <trkpt lat="47.26361" lon="-2.34398">
        <ele>-16.799999237061</ele>
        <time>2020-05-14T10:01:32.000Z</time>
      </trkpt>
      <trkpt lat="47.26336" lon="-2.34379">
        <ele>-16.799999237061</ele>
        <time>2020-05-14T10:01:38.000Z</time>
      </trkpt>
      <trkpt lat="47.26331" lon="-2.34377">
        <ele>-16.799999237061</ele>
        <time>2020-05-14T10:01:39.000Z</time>
      </trkpt>
      <trkpt lat="47.26322" lon="-2.34372">
        <ele>-16.799999237061</ele>
        <time>2020-05-14T10:01:41.000Z</time>
      </trkpt>
      <trkpt lat="47.26315" lon="-2.34362">
        <ele>-16.799999237061</ele>
        <time>2020-05-14T10:01:43.000Z</time>
      </trkpt>
      <trkpt lat="47.26304" lon="-2.34346">
        <ele>-16.799999237061</ele>
        <time>2020-05-14T10:01:46.000Z</time>
      </trkpt>
      <trkpt lat="47.26295" lon="-2.34337">
        <ele>-16.799999237061</ele>
        <time>2020-05-14T10:01:48.000Z</time>
      </trkpt>
      <trkpt lat="47.2626" lon="-2.343">
        <ele>-16.799999237061</ele>
        <time>2020-05-14T10:01:56.000Z</time>
      </trkpt>
      <trkpt lat="47.26225" lon="-2.34264">
        <ele>-16.799999237061</ele>
        <time>2020-05-14T10:02:04.000Z</time>
      </trkpt>
      <trkpt lat="47.26195" lon="-2.34234">
        <ele>-16.799999237061</ele>
        <time>2020-05-14T10:02:11.000Z</time>
      </trkpt>
      <trkpt lat="47.26161" lon="-2.342">
        <ele>-16.799999237061</ele>
        <time>2020-05-14T10:02:19.000Z</time>
      </trkpt>
      <trkpt lat="47.26145" lon="-2.34185">
        <ele>-16.799999237061</ele>
        <time>2020-05-14T10:02:23.000Z</time>
      </trkpt>
      <trkpt lat="47.26132" lon="-2.34176">
        <ele>-16.799999237061</ele>
        <time>2020-05-14T10:02:26.000Z</time>
      </trkpt>
      <trkpt lat="47.2611" lon="-2.34158">
        <ele>-16.799999237061</ele>
        <time>2020-05-14T10:02:31.000Z</time>
      </trkpt>
      <trkpt lat="47.26101" lon="-2.34152">
        <ele>-16.39999961853</ele>
        <time>2020-05-14T10:02:33.000Z</time>
      </trkpt>
      <trkpt lat="47.26096" lon="-2.3415">
        <ele>-16</ele>
        <time>2020-05-14T10:02:34.000Z</time>
      </trkpt>
      <trkpt lat="47.26092" lon="-2.34147">
        <ele>-15.60000038147</ele>
        <time>2020-05-14T10:02:35.000Z</time>
      </trkpt>
      <trkpt lat="47.26087" lon="-2.34145">
        <ele>-15.800000190735</ele>
        <time>2020-05-14T10:02:36.000Z</time>
      </trkpt>
      <trkpt lat="47.26082" lon="-2.34143">
        <ele>-16.200000762939</ele>
        <time>2020-05-14T10:02:37.000Z</time>
      </trkpt>
      <trkpt lat="47.26077" lon="-2.3414">
        <ele>-16.39999961853</ele>
        <time>2020-05-14T10:02:38.000Z</time>
      </trkpt>
      <trkpt lat="47.26073" lon="-2.34137">
        <ele>-16.60000038147</ele>
        <time>2020-05-14T10:02:39.000Z</time>
      </trkpt>
      <trkpt lat="47.26068" lon="-2.34134">
        <ele>-17</ele>
        <time>2020-05-14T10:02:40.000Z</time>
      </trkpt>
      <trkpt lat="47.26053" lon="-2.34125">
        <ele>-17</ele>
        <time>2020-05-14T10:02:43.000Z</time>
      </trkpt>
      <trkpt lat="47.26019" lon="-2.34108">
        <ele>-17</ele>
        <time>2020-05-14T10:02:50.000Z</time>
      </trkpt>
      <trkpt lat="47.25995" lon="-2.34097">
        <ele>-16.60000038147</ele>
        <time>2020-05-14T10:02:55.000Z</time>
      </trkpt>
      <trkpt lat="47.2599" lon="-2.34095">
        <ele>-16.200000762939</ele>
        <time>2020-05-14T10:02:56.000Z</time>
      </trkpt>
      <trkpt lat="47.25985" lon="-2.34093">
        <ele>-15.800000190735</ele>
        <time>2020-05-14T10:02:57.000Z</time>
      </trkpt>
      <trkpt lat="47.25981" lon="-2.34092">
        <ele>-15</ele>
        <time>2020-05-14T10:02:58.000Z</time>
      </trkpt>
      <trkpt lat="47.25976" lon="-2.3409">
        <ele>-15.39999961853</ele>
        <time>2020-05-14T10:02:59.000Z</time>
      </trkpt>
      <trkpt lat="47.25971" lon="-2.34088">
        <ele>-15.800000190735</ele>
        <time>2020-05-14T10:03:00.000Z</time>
      </trkpt>
      <trkpt lat="47.25966" lon="-2.34087">
        <ele>-16.200000762939</ele>
        <time>2020-05-14T10:03:01.000Z</time>
      </trkpt>
      <trkpt lat="47.25961" lon="-2.34086">
        <ele>-16.60000038147</ele>
        <time>2020-05-14T10:03:02.000Z</time>
      </trkpt>
      <trkpt lat="47.25956" lon="-2.34085">
        <ele>-17</ele>
        <time>2020-05-14T10:03:03.000Z</time>
      </trkpt>
      <trkpt lat="47.25942" lon="-2.34079">
        <ele>-17</ele>
        <time>2020-05-14T10:03:06.000Z</time>
      </trkpt>
      <trkpt lat="47.25925" lon="-2.34072">
        <ele>-17</ele>
        <time>2020-05-14T10:03:10.000Z</time>
      </trkpt>
      <trkpt lat="47.2591" lon="-2.34067">
        <ele>-17</ele>
        <time>2020-05-14T10:03:13.000Z</time>
      </trkpt>
      <trkpt lat="47.25906" lon="-2.34064">
        <ele>-17</ele>
        <time>2020-05-14T10:03:14.000Z</time>
      </trkpt>
      <trkpt lat="47.25899" lon="-2.34053">
        <ele>-17</ele>
        <time>2020-05-14T10:03:16.000Z</time>
      </trkpt>
      <trkpt lat="47.25897" lon="-2.34031">
        <ele>-17</ele>
        <time>2020-05-14T10:03:19.000Z</time>
      </trkpt>
      <trkpt lat="47.25905" lon="-2.34006">
        <ele>-17</ele>
        <time>2020-05-14T10:03:23.000Z</time>
      </trkpt>
      <trkpt lat="47.25907" lon="-2.33999">
        <ele>-17</ele>
        <time>2020-05-14T10:03:24.000Z</time>
      </trkpt>
      <trkpt lat="47.25918" lon="-2.33967">
        <ele>-17</ele>
        <time>2020-05-14T10:03:29.000Z</time>
      </trkpt>
      <trkpt lat="47.2592" lon="-2.33961">
        <ele>-17</ele>
        <time>2020-05-14T10:03:30.000Z</time>
      </trkpt>
      <trkpt lat="47.2594" lon="-2.33925">
        <ele>-17</ele>
        <time>2020-05-14T10:03:37.000Z</time>
      </trkpt>
      <trkpt lat="47.25943" lon="-2.3392">
        <ele>-17.60000038147</ele>
        <time>2020-05-14T10:03:38.000Z</time>
      </trkpt>
      <trkpt lat="47.25945" lon="-2.33914">
        <ele>-18</ele>
        <time>2020-05-14T10:03:39.000Z</time>
      </trkpt>
      <trkpt lat="47.25947" lon="-2.33908">
        <ele>-18.60000038147</ele>
        <time>2020-05-14T10:03:40.000Z</time>
      </trkpt>
      <trkpt lat="47.25948" lon="-2.33903">
        <ele>-19</ele>
        <time>2020-05-14T10:03:41.000Z</time>
      </trkpt>
      <trkpt lat="47.25949" lon="-2.33896">
        <ele>-19.60000038147</ele>
        <time>2020-05-14T10:03:42.000Z</time>
      </trkpt>
      <trkpt lat="47.25955" lon="-2.3388">
        <ele>-19.60000038147</ele>
        <time>2020-05-14T10:03:45.000Z</time>
      </trkpt>
      <trkpt lat="47.25957" lon="-2.33875">
        <ele>-19.60000038147</ele>
        <time>2020-05-14T10:03:46.000Z</time>
      </trkpt>
      <trkpt lat="47.25959" lon="-2.33869">
        <ele>-19.60000038147</ele>
        <time>2020-05-14T10:03:47.000Z</time>
      </trkpt>
      <trkpt lat="47.25966" lon="-2.33846">
        <ele>-19.60000038147</ele>
        <time>2020-05-14T10:03:51.000Z</time>
      </trkpt>
      <trkpt lat="47.25967" lon="-2.3384">
        <ele>-19.60000038147</ele>
        <time>2020-05-14T10:03:52.000Z</time>
      </trkpt>
      <trkpt lat="47.25983" lon="-2.33792">
        <ele>-19.60000038147</ele>
        <time>2020-05-14T10:04:00.000Z</time>
      </trkpt>
      <trkpt lat="47.25997" lon="-2.33746">
        <ele>-19.60000038147</ele>
        <time>2020-05-14T10:04:07.000Z</time>
      </trkpt>
      <trkpt lat="47.25999" lon="-2.33739">
        <ele>-19.60000038147</ele>
        <time>2020-05-14T10:04:08.000Z</time>
      </trkpt>
      <trkpt lat="47.26009" lon="-2.33707">
        <ele>-19.60000038147</ele>
        <time>2020-05-14T10:04:13.000Z</time>
      </trkpt>
      <trkpt lat="47.26015" lon="-2.33688">
        <ele>-19.60000038147</ele>
        <time>2020-05-14T10:04:16.000Z</time>
      </trkpt>
      <trkpt lat="47.2602" lon="-2.33668">
        <ele>-19.60000038147</ele>
        <time>2020-05-14T10:04:19.000Z</time>
      </trkpt>
      <trkpt lat="47.26023" lon="-2.33655">
        <ele>-19.60000038147</ele>
        <time>2020-05-14T10:04:21.000Z</time>
      </trkpt>
      <trkpt lat="47.26022" lon="-2.33635">
        <ele>-19.60000038147</ele>
        <time>2020-05-14T10:04:24.000Z</time>
      </trkpt>
      <trkpt lat="47.26016" lon="-2.33602">
        <ele>-19.60000038147</ele>
        <time>2020-05-14T10:04:29.000Z</time>
      </trkpt>
      <trkpt lat="47.26005" lon="-2.33569">
        <ele>-19.60000038147</ele>
        <time>2020-05-14T10:04:34.000Z</time>
      </trkpt>
      <trkpt lat="47.25999" lon="-2.33559">
        <ele>-19.60000038147</ele>
        <time>2020-05-14T10:04:36.000Z</time>
      </trkpt>
      <trkpt lat="47.25982" lon="-2.33528">
        <ele>-19.60000038147</ele>
        <time>2020-05-14T10:04:41.000Z</time>
      </trkpt>
      <trkpt lat="47.25974" lon="-2.33515">
        <ele>-19.60000038147</ele>
        <time>2020-05-14T10:04:45.000Z</time>
      </trkpt>
      <trkpt lat="47.25964" lon="-2.33504">
        <ele>-19.60000038147</ele>
        <time>2020-05-14T10:04:50.000Z</time>
      </trkpt>
      <trkpt lat="47.25957" lon="-2.33482">
        <ele>-19.60000038147</ele>
        <time>2020-05-14T10:04:54.000Z</time>
      </trkpt>
      <trkpt lat="47.25944" lon="-2.33454">
        <ele>-19.60000038147</ele>
        <time>2020-05-14T10:04:59.000Z</time>
      </trkpt>
      <trkpt lat="47.25926" lon="-2.33407">
        <ele>-19.60000038147</ele>
        <time>2020-05-14T10:05:06.000Z</time>
      </trkpt>
      <trkpt lat="47.25917" lon="-2.33379">
        <ele>-19.60000038147</ele>
        <time>2020-05-14T10:05:10.000Z</time>
      </trkpt>
      <trkpt lat="47.25916" lon="-2.33371">
        <ele>-19.60000038147</ele>
        <time>2020-05-14T10:05:11.000Z</time>
      </trkpt>
      <trkpt lat="47.25906" lon="-2.3333">
        <ele>-19.60000038147</ele>
        <time>2020-05-14T10:05:17.000Z</time>
      </trkpt>
      <trkpt lat="47.25905" lon="-2.33314">
        <ele>-19.60000038147</ele>
        <time>2020-05-14T10:05:19.000Z</time>
      </trkpt>
      <trkpt lat="47.25903" lon="-2.33293">
        <ele>-19.60000038147</ele>
        <time>2020-05-14T10:05:22.000Z</time>
      </trkpt>
      <trkpt lat="47.25902" lon="-2.33243">
        <ele>-19.60000038147</ele>
        <time>2020-05-14T10:05:29.000Z</time>
      </trkpt>
      <trkpt lat="47.25902" lon="-2.33216">
        <ele>-19.60000038147</ele>
        <time>2020-05-14T10:05:33.000Z</time>
      </trkpt>
      <trkpt lat="47.25901" lon="-2.33194">
        <ele>-19.60000038147</ele>
        <time>2020-05-14T10:05:36.000Z</time>
      </trkpt>
      <trkpt lat="47.25897" lon="-2.33152">
        <ele>-19.60000038147</ele>
        <time>2020-05-14T10:05:42.000Z</time>
      </trkpt>
      <trkpt lat="47.25887" lon="-2.33107">
        <ele>-19.60000038147</ele>
        <time>2020-05-14T10:05:49.000Z</time>
      </trkpt>
      <trkpt lat="47.25872" lon="-2.33061">
        <ele>-19.60000038147</ele>
        <time>2020-05-14T10:05:57.000Z</time>
      </trkpt>
      <trkpt lat="47.25864" lon="-2.33033">
        <ele>-19.200000762939</ele>
        <time>2020-05-14T10:06:02.000Z</time>
      </trkpt>
      <trkpt lat="47.25862" lon="-2.33027">
        <ele>-18.799999237061</ele>
        <time>2020-05-14T10:06:03.000Z</time>
      </trkpt>
      <trkpt lat="47.2586" lon="-2.33022">
        <ele>-18.39999961853</ele>
        <time>2020-05-14T10:06:04.000Z</time>
      </trkpt>
      <trkpt lat="47.25858" lon="-2.33016">
        <ele>-18</ele>
        <time>2020-05-14T10:06:05.000Z</time>
      </trkpt>
      <trkpt lat="47.25856" lon="-2.33011">
        <ele>-17.60000038147</ele>
        <time>2020-05-14T10:06:06.000Z</time>
      </trkpt>
      <trkpt lat="47.25844" lon="-2.32987">
        <ele>-17.60000038147</ele>
        <time>2020-05-14T10:06:11.000Z</time>
      </trkpt>
      <trkpt lat="47.25821" lon="-2.32958">
        <ele>-17.60000038147</ele>
        <time>2020-05-14T10:06:18.000Z</time>
      </trkpt>
      <trkpt lat="47.25802" lon="-2.32931">
        <ele>-17</ele>
        <time>2020-05-14T10:06:24.000Z</time>
      </trkpt>
      <trkpt lat="47.25798" lon="-2.32927">
        <ele>-16.60000038147</ele>
        <time>2020-05-14T10:06:25.000Z</time>
      </trkpt>
      <trkpt lat="47.25795" lon="-2.32922">
        <ele>-16.200000762939</ele>
        <time>2020-05-14T10:06:26.000Z</time>
      </trkpt>
      <trkpt lat="47.25791" lon="-2.32917">
        <ele>-15.60000038147</ele>
        <time>2020-05-14T10:06:27.000Z</time>
      </trkpt>
      <trkpt lat="47.25788" lon="-2.32913">
        <ele>-15.199999809265</ele>
        <time>2020-05-14T10:06:28.000Z</time>
      </trkpt>
      <trkpt lat="47.25776" lon="-2.32896">
        <ele>-15.199999809265</ele>
        <time>2020-05-14T10:06:32.000Z</time>
      </trkpt>
      <trkpt lat="47.25762" lon="-2.32872">
        <ele>-15.199999809265</ele>
        <time>2020-05-14T10:06:37.000Z</time>
      </trkpt>
      <trkpt lat="47.25759" lon="-2.32867">
        <ele>-15.199999809265</ele>
        <time>2020-05-14T10:06:38.000Z</time>
      </trkpt>
      <trkpt lat="47.25746" lon="-2.32836">
        <ele>-14.800000190735</ele>
        <time>2020-05-14T10:06:44.000Z</time>
      </trkpt>
      <trkpt lat="47.25744" lon="-2.3283">
        <ele>-14.39999961853</ele>
        <time>2020-05-14T10:06:45.000Z</time>
      </trkpt>
      <trkpt lat="47.25742" lon="-2.32825">
        <ele>-14</ele>
        <time>2020-05-14T10:06:46.000Z</time>
      </trkpt>
      <trkpt lat="47.2574" lon="-2.32819">
        <ele>-13.60000038147</ele>
        <time>2020-05-14T10:06:47.000Z</time>
      </trkpt>
      <trkpt lat="47.25739" lon="-2.32813">
        <ele>-13.199999809265</ele>
        <time>2020-05-14T10:06:48.000Z</time>
      </trkpt>
      <trkpt lat="47.25734" lon="-2.32793">
        <ele>-13.199999809265</ele>
        <time>2020-05-14T10:06:51.000Z</time>
      </trkpt>
      <trkpt lat="47.25729" lon="-2.32768">
        <ele>-13.199999809265</ele>
        <time>2020-05-14T10:06:55.000Z</time>
      </trkpt>
      <trkpt lat="47.25728" lon="-2.32754">
        <ele>-13.199999809265</ele>
        <time>2020-05-14T10:06:57.000Z</time>
      </trkpt>
      <trkpt lat="47.25724" lon="-2.32728">
        <ele>-12.60000038147</ele>
        <time>2020-05-14T10:07:01.000Z</time>
      </trkpt>
      <trkpt lat="47.25723" lon="-2.32721">
        <ele>-12.199999809265</ele>
        <time>2020-05-14T10:07:02.000Z</time>
      </trkpt>
      <trkpt lat="47.25722" lon="-2.32715">
        <ele>-11.800000190735</ele>
        <time>2020-05-14T10:07:03.000Z</time>
      </trkpt>
      <trkpt lat="47.25721" lon="-2.32709">
        <ele>-11.39999961853</ele>
        <time>2020-05-14T10:07:04.000Z</time>
      </trkpt>
      <trkpt lat="47.25721" lon="-2.32702">
        <ele>-10.800000190735</ele>
        <time>2020-05-14T10:07:05.000Z</time>
      </trkpt>
      <trkpt lat="47.25719" lon="-2.32662">
        <ele>-11.199999809265</ele>
        <time>2020-05-14T10:07:11.000Z</time>
      </trkpt>
      <trkpt lat="47.25718" lon="-2.32656">
        <ele>-11.60000038147</ele>
        <time>2020-05-14T10:07:12.000Z</time>
      </trkpt>
      <trkpt lat="47.25717" lon="-2.3265">
        <ele>-12</ele>
        <time>2020-05-14T10:07:13.000Z</time>
      </trkpt>
      <trkpt lat="47.25716" lon="-2.32643">
        <ele>-12.39999961853</ele>
        <time>2020-05-14T10:07:14.000Z</time>
      </trkpt>
      <trkpt lat="47.25715" lon="-2.32636">
        <ele>-12.800000190735</ele>
        <time>2020-05-14T10:07:15.000Z</time>
      </trkpt>
      <trkpt lat="47.25709" lon="-2.3261">
        <ele>-12.800000190735</ele>
        <time>2020-05-14T10:07:19.000Z</time>
      </trkpt>
      <trkpt lat="47.25702" lon="-2.32581">
        <ele>-13.39999961853</ele>
        <time>2020-05-14T10:07:24.000Z</time>
      </trkpt>
      <trkpt lat="47.257" lon="-2.32575">
        <ele>-13.800000190735</ele>
        <time>2020-05-14T10:07:25.000Z</time>
      </trkpt>
      <trkpt lat="47.25699" lon="-2.3257">
        <ele>-14.199999809265</ele>
        <time>2020-05-14T10:07:26.000Z</time>
      </trkpt>
      <trkpt lat="47.25697" lon="-2.32564">
        <ele>-14.60000038147</ele>
        <time>2020-05-14T10:07:27.000Z</time>
      </trkpt>
      <trkpt lat="47.25696" lon="-2.32558">
        <ele>-15</ele>
        <time>2020-05-14T10:07:28.000Z</time>
      </trkpt>
      <trkpt lat="47.2569" lon="-2.3254">
        <ele>-15</ele>
        <time>2020-05-14T10:07:31.000Z</time>
      </trkpt>
      <trkpt lat="47.25686" lon="-2.32527">
        <ele>-15</ele>
        <time>2020-05-14T10:07:33.000Z</time>
      </trkpt>
      <trkpt lat="47.25673" lon="-2.32485">
        <ele>-15</ele>
        <time>2020-05-14T10:07:39.000Z</time>
      </trkpt>
      <trkpt lat="47.25662" lon="-2.32449">
        <ele>-15.60000038147</ele>
        <time>2020-05-14T10:07:44.000Z</time>
      </trkpt>
      <trkpt lat="47.2566" lon="-2.32442">
        <ele>-16</ele>
        <time>2020-05-14T10:07:45.000Z</time>
      </trkpt>
      <trkpt lat="47.25659" lon="-2.32434">
        <ele>-16.39999961853</ele>
        <time>2020-05-14T10:07:46.000Z</time>
      </trkpt>
      <trkpt lat="47.25658" lon="-2.32427">
        <ele>-16.799999237061</ele>
        <time>2020-05-14T10:07:47.000Z</time>
      </trkpt>
      <trkpt lat="47.25656" lon="-2.3242">
        <ele>-17.200000762939</ele>
        <time>2020-05-14T10:07:48.000Z</time>
      </trkpt>
      <trkpt lat="47.25653" lon="-2.32405">
        <ele>-17.200000762939</ele>
        <time>2020-05-14T10:07:50.000Z</time>
      </trkpt>
      <trkpt lat="47.25653" lon="-2.32397">
        <ele>-17.200000762939</ele>
        <time>2020-05-14T10:07:51.000Z</time>
      </trkpt>
      <trkpt lat="47.25653" lon="-2.32375">
        <ele>-17.200000762939</ele>
        <time>2020-05-14T10:07:54.000Z</time>
      </trkpt>
      <trkpt lat="47.25653" lon="-2.32361">
        <ele>-17.200000762939</ele>
        <time>2020-05-14T10:07:56.000Z</time>
      </trkpt>
      <trkpt lat="47.2565" lon="-2.32315">
        <ele>-16.799999237061</ele>
        <time>2020-05-14T10:08:03.000Z</time>
      </trkpt>
      <trkpt lat="47.25649" lon="-2.32308">
        <ele>-16.39999961853</ele>
        <time>2020-05-14T10:08:04.000Z</time>
      </trkpt>
      <trkpt lat="47.25649" lon="-2.32302">
        <ele>-16</ele>
        <time>2020-05-14T10:08:05.000Z</time>
      </trkpt>
      <trkpt lat="47.25648" lon="-2.32295">
        <ele>-15.60000038147</ele>
        <time>2020-05-14T10:08:06.000Z</time>
      </trkpt>
      <trkpt lat="47.25648" lon="-2.32289">
        <ele>-15</ele>
        <time>2020-05-14T10:08:07.000Z</time>
      </trkpt>
      <trkpt lat="47.25647" lon="-2.32269">
        <ele>-15</ele>
        <time>2020-05-14T10:08:10.000Z</time>
      </trkpt>
      <trkpt lat="47.25646" lon="-2.32257">
        <ele>-14.60000038147</ele>
        <time>2020-05-14T10:08:12.000Z</time>
      </trkpt>
      <trkpt lat="47.25646" lon="-2.32251">
        <ele>-14.199999809265</ele>
        <time>2020-05-14T10:08:13.000Z</time>
      </trkpt>
      <trkpt lat="47.25646" lon="-2.32246">
        <ele>-13.800000190735</ele>
        <time>2020-05-14T10:08:14.000Z</time>
      </trkpt>
      <trkpt lat="47.25645" lon="-2.3224">
        <ele>-13.39999961853</ele>
        <time>2020-05-14T10:08:15.000Z</time>
      </trkpt>
      <trkpt lat="47.25645" lon="-2.32235">
        <ele>-13</ele>
        <time>2020-05-14T10:08:16.000Z</time>
      </trkpt>
      <trkpt lat="47.25645" lon="-2.3223">
        <ele>-12.39999961853</ele>
        <time>2020-05-14T10:08:17.000Z</time>
      </trkpt>
      <trkpt lat="47.25644" lon="-2.32224">
        <ele>-11.800000190735</ele>
        <time>2020-05-14T10:08:18.000Z</time>
      </trkpt>
      <trkpt lat="47.25643" lon="-2.32219">
        <ele>-10.800000190735</ele>
        <time>2020-05-14T10:08:19.000Z</time>
      </trkpt>
      <trkpt lat="47.25637" lon="-2.32182">
        <ele>-10.800000190735</ele>
        <time>2020-05-14T10:08:26.000Z</time>
      </trkpt>
      <trkpt lat="47.25636" lon="-2.32178">
        <ele>-10.39999961853</ele>
        <time>2020-05-14T10:08:27.000Z</time>
      </trkpt>
      <trkpt lat="47.25634" lon="-2.32173">
        <ele>-10</ele>
        <time>2020-05-14T10:08:28.000Z</time>
      </trkpt>
      <trkpt lat="47.25633" lon="-2.32167">
        <ele>-9.6000003814697</ele>
        <time>2020-05-14T10:08:29.000Z</time>
      </trkpt>
      <trkpt lat="47.25632" lon="-2.32162">
        <ele>-9.1999998092651</ele>
        <time>2020-05-14T10:08:30.000Z</time>
      </trkpt>
      <trkpt lat="47.2563" lon="-2.32156">
        <ele>-8.8000001907349</ele>
        <time>2020-05-14T10:08:31.000Z</time>
      </trkpt>
      <trkpt lat="47.25617" lon="-2.32117">
        <ele>-8.8000001907349</ele>
        <time>2020-05-14T10:08:38.000Z</time>
      </trkpt>
      <trkpt lat="47.25605" lon="-2.32083">
        <ele>-8.8000001907349</ele>
        <time>2020-05-14T10:08:45.000Z</time>
      </trkpt>
      <trkpt lat="47.25589" lon="-2.32041">
        <ele>-8.8000001907349</ele>
        <time>2020-05-14T10:08:53.000Z</time>
      </trkpt>
      <trkpt lat="47.25576" lon="-2.32006">
        <ele>-8.8000001907349</ele>
        <time>2020-05-14T10:09:00.000Z</time>
      </trkpt>
      <trkpt lat="47.25572" lon="-2.3199">
        <ele>-8.3999996185303</ele>
        <time>2020-05-14T10:09:03.000Z</time>
      </trkpt>
      <trkpt lat="47.2557" lon="-2.31984">
        <ele>-8</ele>
        <time>2020-05-14T10:09:04.000Z</time>
      </trkpt>
      <trkpt lat="47.25568" lon="-2.3198">
        <ele>-7.5999999046326</ele>
        <time>2020-05-14T10:09:05.000Z</time>
      </trkpt>
      <trkpt lat="47.25566" lon="-2.31975">
        <ele>-7</ele>
        <time>2020-05-14T10:09:06.000Z</time>
      </trkpt>
      <trkpt lat="47.25564" lon="-2.3197">
        <ele>-6.5999999046326</ele>
        <time>2020-05-14T10:09:07.000Z</time>
      </trkpt>
      <trkpt lat="47.25562" lon="-2.31951">
        <ele>-6.5999999046326</ele>
        <time>2020-05-14T10:09:11.000Z</time>
      </trkpt>
      <trkpt lat="47.25559" lon="-2.31918">
        <ele>-6.5999999046326</ele>
        <time>2020-05-14T10:09:18.000Z</time>
      </trkpt>
      <trkpt lat="47.25556" lon="-2.31916">
        <ele>-6.5999999046326</ele>
        <time>2020-05-14T10:09:20.000Z</time>
      </trkpt>
      <trkpt lat="47.25553" lon="-2.31916">
        <ele>-6.5999999046326</ele>
        <time>2020-05-14T10:09:21.000Z</time>
      </trkpt>
      <trkpt lat="47.25537" lon="-2.31922">
        <ele>-6.5999999046326</ele>
        <time>2020-05-14T10:09:27.000Z</time>
      </trkpt>
      <trkpt lat="47.25534" lon="-2.3192">
        <ele>-6.5999999046326</ele>
        <time>2020-05-14T10:09:28.000Z</time>
      </trkpt>
      <trkpt lat="47.25532" lon="-2.31913">
        <ele>-6.5999999046326</ele>
        <time>2020-05-14T10:09:30.000Z</time>
      </trkpt>
      <trkpt lat="47.25533" lon="-2.31902">
        <ele>-6.5999999046326</ele>
        <time>2020-05-14T10:09:32.000Z</time>
      </trkpt>
      <trkpt lat="47.25533" lon="-2.31891">
        <ele>-6.1999998092651</ele>
        <time>2020-05-14T10:09:34.000Z</time>
      </trkpt>
      <trkpt lat="47.25532" lon="-2.31886">
        <ele>-5.8000001907349</ele>
        <time>2020-05-14T10:09:35.000Z</time>
      </trkpt>
      <trkpt lat="47.25531" lon="-2.3188">
        <ele>-5.4000000953674</ele>
        <time>2020-05-14T10:09:36.000Z</time>
      </trkpt>
      <trkpt lat="47.2553" lon="-2.31875">
        <ele>-5</ele>
        <time>2020-05-14T10:09:37.000Z</time>
      </trkpt>
      <trkpt lat="47.25528" lon="-2.31871">
        <ele>-4.5999999046326</ele>
        <time>2020-05-14T10:09:38.000Z</time>
      </trkpt>
      <trkpt lat="47.25526" lon="-2.31861">
        <ele>-4.5999999046326</ele>
        <time>2020-05-14T10:09:40.000Z</time>
      </trkpt>
      <trkpt lat="47.25523" lon="-2.31835">
        <ele>-4.5999999046326</ele>
        <time>2020-05-14T10:09:46.000Z</time>
      </trkpt>
      <trkpt lat="47.25523" lon="-2.31821">
        <ele>-4.5999999046326</ele>
        <time>2020-05-14T10:09:52.000Z</time>
      </trkpt>
      <trkpt lat="47.25523" lon="-2.31821">
        <ele>-4.5999999046326</ele>
        <time>2020-05-14T10:09:56.000Z</time>
      </trkpt>
      <trkpt lat="47.25523" lon="-2.31821">
        <ele>-4.5999999046326</ele>
        <time>2020-05-14T10:10:06.000Z</time>
      </trkpt>
      <trkpt lat="47.25523" lon="-2.31821">
        <ele>-4.5999999046326</ele>
        <time>2020-05-14T10:10:20.000Z</time>
      </trkpt>
      <trkpt lat="47.25523" lon="-2.31821">
        <ele>-4.5999999046326</ele>
        <time>2020-05-14T10:10:21.000Z</time>
      </trkpt>
      <trkpt lat="47.25523" lon="-2.31821">
        <ele>-4.5999999046326</ele>
        <time>2020-05-14T10:10:31.000Z</time>
      </trkpt>
      <trkpt lat="47.25523" lon="-2.31821">
        <ele>-4.5999999046326</ele>
        <time>2020-05-14T10:10:42.000Z</time>
      </trkpt>
      <trkpt lat="47.25523" lon="-2.31821">
        <ele>-4.5999999046326</ele>
        <time>2020-05-14T10:10:53.000Z</time>
      </trkpt>
      <trkpt lat="47.25523" lon="-2.31821">
        <ele>-4.5999999046326</ele>
        <time>2020-05-14T10:11:11.000Z</time>
      </trkpt>
      <trkpt lat="47.25524" lon="-2.31821">
        <ele>-4.5999999046326</ele>
        <time>2020-05-14T10:11:22.000Z</time>
      </trkpt>
      <trkpt lat="47.25524" lon="-2.31821">
        <ele>-4.5999999046326</ele>
        <time>2020-05-14T10:11:34.000Z</time>
      </trkpt>
      <trkpt lat="47.25524" lon="-2.31821">
        <ele>-4.5999999046326</ele>
        <time>2020-05-14T10:11:47.000Z</time>
      </trkpt>
      <trkpt lat="47.25524" lon="-2.3182">
        <ele>-4.5999999046326</ele>
        <time>2020-05-14T10:12:00.000Z</time>
      </trkpt>
      <trkpt lat="47.25524" lon="-2.3182">
        <ele>-4.5999999046326</ele>
        <time>2020-05-14T10:12:15.000Z</time>
      </trkpt>
      <trkpt lat="47.25524" lon="-2.3182">
        <ele>-4.5999999046326</ele>
        <time>2020-05-14T10:12:25.000Z</time>
      </trkpt>
      <trkpt lat="47.25524" lon="-2.3182">
        <ele>-4.5999999046326</ele>
        <time>2020-05-14T10:12:38.000Z</time>
      </trkpt>
      <trkpt lat="47.25524" lon="-2.3182">
        <ele>-4.5999999046326</ele>
        <time>2020-05-14T10:12:52.000Z</time>
      </trkpt>
      <trkpt lat="47.25524" lon="-2.3182">
        <ele>-4.5999999046326</ele>
        <time>2020-05-14T10:13:03.000Z</time>
      </trkpt>
      <trkpt lat="47.25524" lon="-2.3182">
        <ele>-4.5999999046326</ele>
        <time>2020-05-14T10:13:14.000Z</time>
      </trkpt>
      <trkpt lat="47.25524" lon="-2.3182">
        <ele>-4.5999999046326</ele>
        <time>2020-05-14T10:13:30.000Z</time>
      </trkpt>
      <trkpt lat="47.25524" lon="-2.31819">
        <ele>-4.5999999046326</ele>
        <time>2020-05-14T10:13:43.000Z</time>
      </trkpt>
      <trkpt lat="47.25525" lon="-2.31818">
        <ele>-4.5999999046326</ele>
        <time>2020-05-14T10:13:52.000Z</time>
      </trkpt>
      <trkpt lat="47.25526" lon="-2.31814">
        <ele>-4.5999999046326</ele>
        <time>2020-05-14T10:14:01.000Z</time>
      </trkpt>
      <trkpt lat="47.25528" lon="-2.3181">
        <ele>-4.5999999046326</ele>
        <time>2020-05-14T10:14:03.000Z</time>
      </trkpt>
      <trkpt lat="47.25531" lon="-2.31803">
        <ele>-4.5999999046326</ele>
        <time>2020-05-14T10:14:06.000Z</time>
      </trkpt>
      <trkpt lat="47.25532" lon="-2.31803">
        <ele>-4.5999999046326</ele>
        <time>2020-05-14T10:14:10.000Z</time>
      </trkpt>
      <trkpt lat="47.25533" lon="-2.31805">
        <ele>-4.5999999046326</ele>
        <time>2020-05-14T10:14:11.000Z</time>
      </trkpt>
      <trkpt lat="47.25531" lon="-2.31809">
        <ele>-4.5999999046326</ele>
        <time>2020-05-14T10:14:14.000Z</time>
      </trkpt>
      <trkpt lat="47.2553" lon="-2.3181">
        <ele>-4.5999999046326</ele>
        <time>2020-05-14T10:14:15.000Z</time>
      </trkpt>
      <trkpt lat="47.25529" lon="-2.3181">
        <ele>-4.5999999046326</ele>
        <time>2020-05-14T10:14:20.000Z</time>
      </trkpt>
      <trkpt lat="47.25529" lon="-2.3181">
        <ele>-4.5999999046326</ele>
        <time>2020-05-14T10:14:33.000Z</time>
      </trkpt>
      <trkpt lat="47.25529" lon="-2.3181">
        <ele>-4.5999999046326</ele>
        <time>2020-05-14T10:14:42.000Z</time>
      </trkpt>
      <trkpt lat="47.25529" lon="-2.3181">
        <ele>-4.5999999046326</ele>
        <time>2020-05-14T10:14:51.000Z</time>
      </trkpt>
      <trkpt lat="47.25529" lon="-2.3181">
        <ele>-4.5999999046326</ele>
        <time>2020-05-14T10:15:01.000Z</time>
      </trkpt>
      <trkpt lat="47.25526" lon="-2.31807">
        <ele>-4.5999999046326</ele>
        <time>2020-05-14T10:15:08.000Z</time>
      </trkpt>
      <trkpt lat="47.2553" lon="-2.31803">
        <ele>-4.5999999046326</ele>
        <time>2020-05-14T10:15:12.000Z</time>
      </trkpt>
      <trkpt lat="47.25547" lon="-2.31797">
        <ele>-4.5999999046326</ele>
        <time>2020-05-14T10:15:18.000Z</time>
      </trkpt>
      <trkpt lat="47.25559" lon="-2.31787">
        <ele>-4.5999999046326</ele>
        <time>2020-05-14T10:15:22.000Z</time>
      </trkpt>
      <trkpt lat="47.25562" lon="-2.31783">
        <ele>-4.5999999046326</ele>
        <time>2020-05-14T10:15:23.000Z</time>
      </trkpt>
      <trkpt lat="47.25572" lon="-2.31767">
        <ele>-4.5999999046326</ele>
        <time>2020-05-14T10:15:27.000Z</time>
      </trkpt>
      <trkpt lat="47.25579" lon="-2.31757">
        <ele>-5</ele>
        <time>2020-05-14T10:15:29.000Z</time>
      </trkpt>
      <trkpt lat="47.25583" lon="-2.31752">
        <ele>-5.4000000953674</ele>
        <time>2020-05-14T10:15:30.000Z</time>
      </trkpt>
      <trkpt lat="47.25586" lon="-2.31746">
        <ele>-5.8000001907349</ele>
        <time>2020-05-14T10:15:31.000Z</time>
      </trkpt>
      <trkpt lat="47.25589" lon="-2.3174">
        <ele>-6.1999998092651</ele>
        <time>2020-05-14T10:15:32.000Z</time>
      </trkpt>
      <trkpt lat="47.2559" lon="-2.31733">
        <ele>-6.5999999046326</ele>
        <time>2020-05-14T10:15:33.000Z</time>
      </trkpt>
      <trkpt lat="47.25591" lon="-2.31727">
        <ele>-6.5999999046326</ele>
        <time>2020-05-14T10:15:34.000Z</time>
      </trkpt>
      <trkpt lat="47.25593" lon="-2.31722">
        <ele>-6.5999999046326</ele>
        <time>2020-05-14T10:15:35.000Z</time>
      </trkpt>
      <trkpt lat="47.25603" lon="-2.3171">
        <ele>-6.5999999046326</ele>
        <time>2020-05-14T10:15:38.000Z</time>
      </trkpt>
      <trkpt lat="47.25606" lon="-2.31708">
        <ele>-6.5999999046326</ele>
        <time>2020-05-14T10:15:39.000Z</time>
      </trkpt>
      <trkpt lat="47.25611" lon="-2.31708">
        <ele>-6.5999999046326</ele>
        <time>2020-05-14T10:15:40.000Z</time>
      </trkpt>
      <trkpt lat="47.2562" lon="-2.31706">
        <ele>-7.1999998092651</ele>
        <time>2020-05-14T10:15:42.000Z</time>
      </trkpt>
      <trkpt lat="47.25624" lon="-2.31706">
        <ele>-7.5999999046326</ele>
        <time>2020-05-14T10:15:43.000Z</time>
      </trkpt>
      <trkpt lat="47.25629" lon="-2.31704">
        <ele>-8</ele>
        <time>2020-05-14T10:15:44.000Z</time>
      </trkpt>
      <trkpt lat="47.25634" lon="-2.31701">
        <ele>-8.6000003814697</ele>
        <time>2020-05-14T10:15:45.000Z</time>
      </trkpt>
      <trkpt lat="47.25639" lon="-2.31697">
        <ele>-9</ele>
        <time>2020-05-14T10:15:46.000Z</time>
      </trkpt>
      <trkpt lat="47.25647" lon="-2.31686">
        <ele>-9</ele>
        <time>2020-05-14T10:15:48.000Z</time>
      </trkpt>
      <trkpt lat="47.2565" lon="-2.31682">
        <ele>-9</ele>
        <time>2020-05-14T10:15:49.000Z</time>
      </trkpt>
      <trkpt lat="47.25653" lon="-2.31677">
        <ele>-9</ele>
        <time>2020-05-14T10:15:50.000Z</time>
      </trkpt>
      <trkpt lat="47.25655" lon="-2.31672">
        <ele>-9.6000003814697</ele>
        <time>2020-05-14T10:15:51.000Z</time>
      </trkpt>
      <trkpt lat="47.25657" lon="-2.31667">
        <ele>-10</ele>
        <time>2020-05-14T10:15:52.000Z</time>
      </trkpt>
      <trkpt lat="47.25659" lon="-2.31662">
        <ele>-10.60000038147</ele>
        <time>2020-05-14T10:15:53.000Z</time>
      </trkpt>
      <trkpt lat="47.25662" lon="-2.3166">
        <ele>-11</ele>
        <time>2020-05-14T10:15:54.000Z</time>
      </trkpt>
      <trkpt lat="47.25666" lon="-2.31661">
        <ele>-11.60000038147</ele>
        <time>2020-05-14T10:15:55.000Z</time>
      </trkpt>
      <trkpt lat="47.2567" lon="-2.31663">
        <ele>-11.60000038147</ele>
        <time>2020-05-14T10:15:56.000Z</time>
      </trkpt>
      <trkpt lat="47.25689" lon="-2.31675">
        <ele>-11.60000038147</ele>
        <time>2020-05-14T10:16:00.000Z</time>
      </trkpt>
      <trkpt lat="47.25695" lon="-2.31677">
        <ele>-11.60000038147</ele>
        <time>2020-05-14T10:16:01.000Z</time>
      </trkpt>
      <trkpt lat="47.25711" lon="-2.31688">
        <ele>-12</ele>
        <time>2020-05-14T10:16:04.000Z</time>
      </trkpt>
      <trkpt lat="47.25716" lon="-2.31692">
        <ele>-12.39999961853</ele>
        <time>2020-05-14T10:16:05.000Z</time>
      </trkpt>
      <trkpt lat="47.25722" lon="-2.31696">
        <ele>-12.800000190735</ele>
        <time>2020-05-14T10:16:06.000Z</time>
      </trkpt>
      <trkpt lat="47.25727" lon="-2.31697">
        <ele>-13.60000038147</ele>
        <time>2020-05-14T10:16:07.000Z</time>
      </trkpt>
      <trkpt lat="47.25737" lon="-2.31687">
        <ele>-13.60000038147</ele>
        <time>2020-05-14T10:16:09.000Z</time>
      </trkpt>
      <trkpt lat="47.25768" lon="-2.31664">
        <ele>-13.60000038147</ele>
        <time>2020-05-14T10:16:16.000Z</time>
      </trkpt>
      <trkpt lat="47.25801" lon="-2.31642">
        <ele>-13.60000038147</ele>
        <time>2020-05-14T10:16:24.000Z</time>
      </trkpt>
      <trkpt lat="47.25805" lon="-2.31639">
        <ele>-13.199999809265</ele>
        <time>2020-05-14T10:16:25.000Z</time>
      </trkpt>
      <trkpt lat="47.25808" lon="-2.31636">
        <ele>-12.60000038147</ele>
        <time>2020-05-14T10:16:26.000Z</time>
      </trkpt>
      <trkpt lat="47.25812" lon="-2.31633">
        <ele>-12.199999809265</ele>
        <time>2020-05-14T10:16:27.000Z</time>
      </trkpt>
      <trkpt lat="47.25815" lon="-2.3163">
        <ele>-11.800000190735</ele>
        <time>2020-05-14T10:16:28.000Z</time>
      </trkpt>
      <trkpt lat="47.2582" lon="-2.31628">
        <ele>-11.39999961853</ele>
        <time>2020-05-14T10:16:29.000Z</time>
      </trkpt>
      <trkpt lat="47.25833" lon="-2.31617">
        <ele>-11.39999961853</ele>
        <time>2020-05-14T10:16:33.000Z</time>
      </trkpt>
      <trkpt lat="47.25857" lon="-2.31593">
        <ele>-11.39999961853</ele>
        <time>2020-05-14T10:16:40.000Z</time>
      </trkpt>
      <trkpt lat="47.25879" lon="-2.31571">
        <ele>-11.39999961853</ele>
        <time>2020-05-14T10:16:46.000Z</time>
      </trkpt>
      <trkpt lat="47.25882" lon="-2.31566">
        <ele>-11.39999961853</ele>
        <time>2020-05-14T10:16:47.000Z</time>
      </trkpt>
      <trkpt lat="47.25891" lon="-2.31548">
        <ele>-11.800000190735</ele>
        <time>2020-05-14T10:16:50.000Z</time>
      </trkpt>
      <trkpt lat="47.25893" lon="-2.31542">
        <ele>-12.199999809265</ele>
        <time>2020-05-14T10:16:51.000Z</time>
      </trkpt>
      <trkpt lat="47.25895" lon="-2.31536">
        <ele>-12.800000190735</ele>
        <time>2020-05-14T10:16:52.000Z</time>
      </trkpt>
      <trkpt lat="47.25898" lon="-2.31531">
        <ele>-13.199999809265</ele>
        <time>2020-05-14T10:16:53.000Z</time>
      </trkpt>
      <trkpt lat="47.259" lon="-2.31525">
        <ele>-13.800000190735</ele>
        <time>2020-05-14T10:16:54.000Z</time>
      </trkpt>
      <trkpt lat="47.25909" lon="-2.31513">
        <ele>-13.800000190735</ele>
        <time>2020-05-14T10:16:57.000Z</time>
      </trkpt>
      <trkpt lat="47.25911" lon="-2.31509">
        <ele>-13.800000190735</ele>
        <time>2020-05-14T10:16:59.000Z</time>
      </trkpt>
      <trkpt lat="47.25912" lon="-2.31507">
        <ele>-13.800000190735</ele>
        <time>2020-05-14T10:17:00.000Z</time>
      </trkpt>
      <trkpt lat="47.25912" lon="-2.31505">
        <ele>-14.199999809265</ele>
        <time>2020-05-14T10:17:01.000Z</time>
      </trkpt>
      <trkpt lat="47.25912" lon="-2.31505">
        <ele>-14.60000038147</ele>
        <time>2020-05-14T10:17:02.000Z</time>
      </trkpt>
      <trkpt lat="47.25911" lon="-2.31503">
        <ele>-15.199999809265</ele>
        <time>2020-05-14T10:17:03.000Z</time>
      </trkpt>
      <trkpt lat="47.25912" lon="-2.31501">
        <ele>-15.60000038147</ele>
        <time>2020-05-14T10:17:04.000Z</time>
      </trkpt>
      <trkpt lat="47.25912" lon="-2.31499">
        <ele>-16</ele>
        <time>2020-05-14T10:17:05.000Z</time>
      </trkpt>
      <trkpt lat="47.2592" lon="-2.31478">
        <ele>-16</ele>
        <time>2020-05-14T10:17:09.000Z</time>
      </trkpt>
      <trkpt lat="47.25927" lon="-2.3146">
        <ele>-16</ele>
        <time>2020-05-14T10:17:12.000Z</time>
      </trkpt>
      <trkpt lat="47.25934" lon="-2.31455">
        <ele>-16</ele>
        <time>2020-05-14T10:17:14.000Z</time>
      </trkpt>
      <trkpt lat="47.2594" lon="-2.31458">
        <ele>-16</ele>
        <time>2020-05-14T10:17:16.000Z</time>
      </trkpt>
      <trkpt lat="47.25945" lon="-2.31462">
        <ele>-16</ele>
        <time>2020-05-14T10:17:17.000Z</time>
      </trkpt>
      <trkpt lat="47.25968" lon="-2.31489">
        <ele>-16</ele>
        <time>2020-05-14T10:17:23.000Z</time>
      </trkpt>
      <trkpt lat="47.2597" lon="-2.31496">
        <ele>-16</ele>
        <time>2020-05-14T10:17:24.000Z</time>
      </trkpt>
      <trkpt lat="47.25987" lon="-2.31531">
        <ele>-16</ele>
        <time>2020-05-14T10:17:30.000Z</time>
      </trkpt>
      <trkpt lat="47.25994" lon="-2.31542">
        <ele>-16</ele>
        <time>2020-05-14T10:17:32.000Z</time>
      </trkpt>
      <trkpt lat="47.26006" lon="-2.31559">
        <ele>-16</ele>
        <time>2020-05-14T10:17:36.000Z</time>
      </trkpt>
      <trkpt lat="47.26009" lon="-2.31562">
        <ele>-16</ele>
        <time>2020-05-14T10:17:37.000Z</time>
      </trkpt>
      <trkpt lat="47.26017" lon="-2.31559">
        <ele>-16</ele>
        <time>2020-05-14T10:17:39.000Z</time>
      </trkpt>
      <trkpt lat="47.26021" lon="-2.31554">
        <ele>-16</ele>
        <time>2020-05-14T10:17:40.000Z</time>
      </trkpt>
      <trkpt lat="47.26026" lon="-2.31544">
        <ele>-16</ele>
        <time>2020-05-14T10:17:42.000Z</time>
      </trkpt>
      <trkpt lat="47.26031" lon="-2.31529">
        <ele>-16</ele>
        <time>2020-05-14T10:17:45.000Z</time>
      </trkpt>
      <trkpt lat="47.26035" lon="-2.31515">
        <ele>-16</ele>
        <time>2020-05-14T10:17:48.000Z</time>
      </trkpt>
      <trkpt lat="47.26037" lon="-2.31513">
        <ele>-16</ele>
        <time>2020-05-14T10:17:49.000Z</time>
      </trkpt>
      <trkpt lat="47.26041" lon="-2.31514">
        <ele>-16.60000038147</ele>
        <time>2020-05-14T10:17:50.000Z</time>
      </trkpt>
      <trkpt lat="47.26044" lon="-2.31519">
        <ele>-17</ele>
        <time>2020-05-14T10:17:51.000Z</time>
      </trkpt>
      <trkpt lat="47.26048" lon="-2.31524">
        <ele>-17.60000038147</ele>
        <time>2020-05-14T10:17:52.000Z</time>
      </trkpt>
      <trkpt lat="47.26052" lon="-2.3153">
        <ele>-18</ele>
        <time>2020-05-14T10:17:53.000Z</time>
      </trkpt>
      <trkpt lat="47.26055" lon="-2.31536">
        <ele>-18.39999961853</ele>
        <time>2020-05-14T10:17:54.000Z</time>
      </trkpt>
      <trkpt lat="47.26064" lon="-2.31553">
        <ele>-18.39999961853</ele>
        <time>2020-05-14T10:17:57.000Z</time>
      </trkpt>
      <trkpt lat="47.26067" lon="-2.31559">
        <ele>-18.39999961853</ele>
        <time>2020-05-14T10:17:58.000Z</time>
      </trkpt>
      <trkpt lat="47.26071" lon="-2.31571">
        <ele>-18.39999961853</ele>
        <time>2020-05-14T10:18:00.000Z</time>
      </trkpt>
      <trkpt lat="47.26076" lon="-2.31577">
        <ele>-18.39999961853</ele>
        <time>2020-05-14T10:18:02.000Z</time>
      </trkpt>
      <trkpt lat="47.26082" lon="-2.31581">
        <ele>-18.39999961853</ele>
        <time>2020-05-14T10:18:04.000Z</time>
      </trkpt>
      <trkpt lat="47.26093" lon="-2.31595">
        <ele>-18.39999961853</ele>
        <time>2020-05-14T10:18:08.000Z</time>
      </trkpt>
      <trkpt lat="47.26102" lon="-2.3161">
        <ele>-18.39999961853</ele>
        <time>2020-05-14T10:18:11.000Z</time>
      </trkpt>
      <trkpt lat="47.26111" lon="-2.31615">
        <ele>-18.39999961853</ele>
        <time>2020-05-14T10:18:13.000Z</time>
      </trkpt>
      <trkpt lat="47.26122" lon="-2.31615">
        <ele>-18.39999961853</ele>
        <time>2020-05-14T10:18:15.000Z</time>
      </trkpt>
      <trkpt lat="47.26132" lon="-2.31614">
        <ele>-18.39999961853</ele>
        <time>2020-05-14T10:18:17.000Z</time>
      </trkpt>
      <trkpt lat="47.26157" lon="-2.31606">
        <ele>-18.39999961853</ele>
        <time>2020-05-14T10:18:22.000Z</time>
      </trkpt>
      <trkpt lat="47.26195" lon="-2.31592">
        <ele>-18.39999961853</ele>
        <time>2020-05-14T10:18:30.000Z</time>
      </trkpt>
      <trkpt lat="47.26209" lon="-2.3159">
        <ele>-18.39999961853</ele>
        <time>2020-05-14T10:18:33.000Z</time>
      </trkpt>
      <trkpt lat="47.26223" lon="-2.31592">
        <ele>-18.39999961853</ele>
        <time>2020-05-14T10:18:36.000Z</time>
      </trkpt>
      <trkpt lat="47.26228" lon="-2.31594">
        <ele>-18.39999961853</ele>
        <time>2020-05-14T10:18:37.000Z</time>
      </trkpt>
      <trkpt lat="47.26232" lon="-2.31596">
        <ele>-19</ele>
        <time>2020-05-14T10:18:38.000Z</time>
      </trkpt>
      <trkpt lat="47.26236" lon="-2.31599">
        <ele>-19.39999961853</ele>
        <time>2020-05-14T10:18:39.000Z</time>
      </trkpt>
      <trkpt lat="47.2624" lon="-2.31603">
        <ele>-19.799999237061</ele>
        <time>2020-05-14T10:18:40.000Z</time>
      </trkpt>
      <trkpt lat="47.26244" lon="-2.31607">
        <ele>-20.200000762939</ele>
        <time>2020-05-14T10:18:41.000Z</time>
      </trkpt>
      <trkpt lat="47.26247" lon="-2.31611">
        <ele>-20.60000038147</ele>
        <time>2020-05-14T10:18:42.000Z</time>
      </trkpt>
      <trkpt lat="47.26262" lon="-2.31634">
        <ele>-20.60000038147</ele>
        <time>2020-05-14T10:18:47.000Z</time>
      </trkpt>
      <trkpt lat="47.26276" lon="-2.31669">
        <ele>-20.60000038147</ele>
        <time>2020-05-14T10:18:53.000Z</time>
      </trkpt>
      <trkpt lat="47.26293" lon="-2.31702">
        <ele>-20.60000038147</ele>
        <time>2020-05-14T10:18:59.000Z</time>
      </trkpt>
      <trkpt lat="47.26297" lon="-2.31707">
        <ele>-20.60000038147</ele>
        <time>2020-05-14T10:19:00.000Z</time>
      </trkpt>
      <trkpt lat="47.26306" lon="-2.3171">
        <ele>-20.60000038147</ele>
        <time>2020-05-14T10:19:02.000Z</time>
      </trkpt>
      <trkpt lat="47.26313" lon="-2.31707">
        <ele>-20.60000038147</ele>
        <time>2020-05-14T10:19:04.000Z</time>
      </trkpt>
      <trkpt lat="47.26329" lon="-2.31701">
        <ele>-20.60000038147</ele>
        <time>2020-05-14T10:19:08.000Z</time>
      </trkpt>
      <trkpt lat="47.26334" lon="-2.31694">
        <ele>-20.60000038147</ele>
        <time>2020-05-14T10:19:10.000Z</time>
      </trkpt>
      <trkpt lat="47.26335" lon="-2.3169">
        <ele>-20.200000762939</ele>
        <time>2020-05-14T10:19:11.000Z</time>
      </trkpt>
      <trkpt lat="47.26337" lon="-2.31687">
        <ele>-19.799999237061</ele>
        <time>2020-05-14T10:19:12.000Z</time>
      </trkpt>
      <trkpt lat="47.26339" lon="-2.31685">
        <ele>-19.39999961853</ele>
        <time>2020-05-14T10:19:13.000Z</time>
      </trkpt>
      <trkpt lat="47.26341" lon="-2.31684">
        <ele>-18.799999237061</ele>
        <time>2020-05-14T10:19:14.000Z</time>
      </trkpt>
      <trkpt lat="47.26344" lon="-2.31682">
        <ele>-18.39999961853</ele>
        <time>2020-05-14T10:19:15.000Z</time>
      </trkpt>
      <trkpt lat="47.26365" lon="-2.3167">
        <ele>-18.39999961853</ele>
        <time>2020-05-14T10:19:22.000Z</time>
      </trkpt>
      <trkpt lat="47.26376" lon="-2.31665">
        <ele>-17.60000038147</ele>
        <time>2020-05-14T10:19:25.000Z</time>
      </trkpt>
      <trkpt lat="47.2638" lon="-2.31663">
        <ele>-17.200000762939</ele>
        <time>2020-05-14T10:19:26.000Z</time>
      </trkpt>
      <trkpt lat="47.26384" lon="-2.31661">
        <ele>-16.799999237061</ele>
        <time>2020-05-14T10:19:27.000Z</time>
      </trkpt>
      <trkpt lat="47.26388" lon="-2.31659">
        <ele>-16.39999961853</ele>
        <time>2020-05-14T10:19:28.000Z</time>
      </trkpt>
      <trkpt lat="47.26392" lon="-2.31658">
        <ele>-16.39999961853</ele>
        <time>2020-05-14T10:19:29.000Z</time>
      </trkpt>
      <trkpt lat="47.26409" lon="-2.31645">
        <ele>-16.39999961853</ele>
        <time>2020-05-14T10:19:35.000Z</time>
      </trkpt>
      <trkpt lat="47.26411" lon="-2.31619">
        <ele>-16.39999961853</ele>
        <time>2020-05-14T10:19:40.000Z</time>
      </trkpt>
      <trkpt lat="47.26409" lon="-2.31587">
        <ele>-16.39999961853</ele>
        <time>2020-05-14T10:19:46.000Z</time>
      </trkpt>
      <trkpt lat="47.26409" lon="-2.31557">
        <ele>-16.39999961853</ele>
        <time>2020-05-14T10:19:53.000Z</time>
      </trkpt>
      <trkpt lat="47.26409" lon="-2.31554">
        <ele>-16.39999961853</ele>
        <time>2020-05-14T10:19:54.000Z</time>
      </trkpt>
      <trkpt lat="47.26413" lon="-2.31552">
        <ele>-16.39999961853</ele>
        <time>2020-05-14T10:19:56.000Z</time>
      </trkpt>
      <trkpt lat="47.26416" lon="-2.31553">
        <ele>-16.39999961853</ele>
        <time>2020-05-14T10:20:00.000Z</time>
      </trkpt>
      <trkpt lat="47.26416" lon="-2.31553">
        <ele>-16.39999961853</ele>
        <time>2020-05-14T10:20:03.000Z</time>
      </trkpt>
      <trkpt lat="47.26416" lon="-2.31553">
        <ele>-16.39999961853</ele>
        <time>2020-05-14T10:20:05.000Z</time>
      </trkpt>
      <trkpt lat="47.26416" lon="-2.31553">
        <ele>-16.39999961853</ele>
        <time>2020-05-14T10:20:07.000Z</time>
      </trkpt>
    </trkseg>
  </trk>
</gpx>